<?xml version="1.0" encoding="UTF-8" standalone="no" ?>
<gpx xmlns="http://www.topografix.com/GPX/1/1" xmlns:xsi="http://www.w3.org/2001/XMLSchema-instance" xsi:schemaLocation="http://www.topografix.com/GPX/1/1 http://www.topografix.com/GPX/1/1/gpx.xsd" version="1.1" creator="VisuGPX - https://www.visugpx.com">
  <metadata>
    <name>Champagnat Cyclisme sur route</name>
  </metadata>
  <trk>
    <name><![CDATA[Champagnat Cyclisme sur route_1]]></name>
    <trkseg>
      <trkpt lat="46.48274" lon="5.36837">
        <ele>275.2</ele>
        <time>2022-02-26T11:55:33Z</time>
      </trkpt>
      <trkpt lat="46.48265" lon="5.36826">
        <ele>273.8</ele>
        <time>2022-02-26T11:55:34Z</time>
      </trkpt>
      <trkpt lat="46.48242" lon="5.36805">
        <ele>272.4</ele>
        <time>2022-02-26T11:55:36Z</time>
      </trkpt>
      <trkpt lat="46.48222" lon="5.36789">
        <ele>271</ele>
        <time>2022-02-26T11:55:38Z</time>
      </trkpt>
      <trkpt lat="46.482" lon="5.36772">
        <ele>269.6</ele>
        <time>2022-02-26T11:55:40Z</time>
      </trkpt>
      <trkpt lat="46.48187" lon="5.36761">
        <ele>268.6</ele>
        <time>2022-02-26T11:55:41Z</time>
      </trkpt>
      <trkpt lat="46.48167" lon="5.36744">
        <ele>267.4</ele>
        <time>2022-02-26T11:55:43Z</time>
      </trkpt>
      <trkpt lat="46.48147" lon="5.36729">
        <ele>265.8</ele>
        <time>2022-02-26T11:55:45Z</time>
      </trkpt>
      <trkpt lat="46.48127" lon="5.36714">
        <ele>264.4</ele>
        <time>2022-02-26T11:55:47Z</time>
      </trkpt>
      <trkpt lat="46.48122" lon="5.36709">
        <ele>263.8</ele>
        <time>2022-02-26T11:55:48Z</time>
      </trkpt>
      <trkpt lat="46.48116" lon="5.36702">
        <ele>263.4</ele>
        <time>2022-02-26T11:55:49Z</time>
      </trkpt>
      <trkpt lat="46.48114" lon="5.36694">
        <ele>262.4</ele>
        <time>2022-02-26T11:55:50Z</time>
      </trkpt>
      <trkpt lat="46.48114" lon="5.36684">
        <ele>262</ele>
        <time>2022-02-26T11:55:51Z</time>
      </trkpt>
      <trkpt lat="46.48117" lon="5.36675">
        <ele>261.4</ele>
        <time>2022-02-26T11:55:52Z</time>
      </trkpt>
      <trkpt lat="46.48123" lon="5.36666">
        <ele>260.8</ele>
        <time>2022-02-26T11:55:53Z</time>
      </trkpt>
      <trkpt lat="46.48127" lon="5.36661">
        <ele>260.6</ele>
        <time>2022-02-26T11:55:54Z</time>
      </trkpt>
      <trkpt lat="46.4814" lon="5.36648">
        <ele>259.2</ele>
        <time>2022-02-26T11:55:56Z</time>
      </trkpt>
      <trkpt lat="46.48146" lon="5.3664">
        <ele>258</ele>
        <time>2022-02-26T11:55:57Z</time>
      </trkpt>
      <trkpt lat="46.48171" lon="5.36621">
        <ele>256.2</ele>
        <time>2022-02-26T11:56:01Z</time>
      </trkpt>
      <trkpt lat="46.48187" lon="5.36614">
        <ele>256.2</ele>
        <time>2022-02-26T11:56:03Z</time>
      </trkpt>
      <trkpt lat="46.48214" lon="5.36602">
        <ele>256</ele>
        <time>2022-02-26T11:56:07Z</time>
      </trkpt>
      <trkpt lat="46.48224" lon="5.36587">
        <ele>256.2</ele>
        <time>2022-02-26T11:56:09Z</time>
      </trkpt>
      <trkpt lat="46.48226" lon="5.36578">
        <ele>256.4</ele>
        <time>2022-02-26T11:56:10Z</time>
      </trkpt>
      <trkpt lat="46.48228" lon="5.3657">
        <ele>256.4</ele>
        <time>2022-02-26T11:56:11Z</time>
      </trkpt>
      <trkpt lat="46.48238" lon="5.36554">
        <ele>256.4</ele>
        <time>2022-02-26T11:56:13Z</time>
      </trkpt>
      <trkpt lat="46.48259" lon="5.3653">
        <ele>255.6</ele>
        <time>2022-02-26T11:56:17Z</time>
      </trkpt>
      <trkpt lat="46.48286" lon="5.36499">
        <ele>254.4</ele>
        <time>2022-02-26T11:56:22Z</time>
      </trkpt>
      <trkpt lat="46.48293" lon="5.36492">
        <ele>254.4</ele>
        <time>2022-02-26T11:56:23Z</time>
      </trkpt>
      <trkpt lat="46.4832" lon="5.36462">
        <ele>253.4</ele>
        <time>2022-02-26T11:56:28Z</time>
      </trkpt>
      <trkpt lat="46.48343" lon="5.36436">
        <ele>252.2</ele>
        <time>2022-02-26T11:56:32Z</time>
      </trkpt>
      <trkpt lat="46.48356" lon="5.36422">
        <ele>251.8</ele>
        <time>2022-02-26T11:56:34Z</time>
      </trkpt>
      <trkpt lat="46.48368" lon="5.36409">
        <ele>251.2</ele>
        <time>2022-02-26T11:56:36Z</time>
      </trkpt>
      <trkpt lat="46.4841" lon="5.36367">
        <ele>250.2</ele>
        <time>2022-02-26T11:56:43Z</time>
      </trkpt>
      <trkpt lat="46.48444" lon="5.36354">
        <ele>249.4</ele>
        <time>2022-02-26T11:56:48Z</time>
      </trkpt>
      <trkpt lat="46.48478" lon="5.36348">
        <ele>249.4</ele>
        <time>2022-02-26T11:56:53Z</time>
      </trkpt>
      <trkpt lat="46.48504" lon="5.36343">
        <ele>249.4</ele>
        <time>2022-02-26T11:56:57Z</time>
      </trkpt>
      <trkpt lat="46.48563" lon="5.36333">
        <ele>249.4</ele>
        <time>2022-02-26T11:57:06Z</time>
      </trkpt>
      <trkpt lat="46.48578" lon="5.3633">
        <ele>249.2</ele>
        <time>2022-02-26T11:57:08Z</time>
      </trkpt>
      <trkpt lat="46.48615" lon="5.36322">
        <ele>248</ele>
        <time>2022-02-26T11:57:13Z</time>
      </trkpt>
      <trkpt lat="46.48628" lon="5.3631">
        <ele>247.2</ele>
        <time>2022-02-26T11:57:15Z</time>
      </trkpt>
      <trkpt lat="46.48633" lon="5.36301">
        <ele>247</ele>
        <time>2022-02-26T11:57:16Z</time>
      </trkpt>
      <trkpt lat="46.48636" lon="5.3629">
        <ele>246.6</ele>
        <time>2022-02-26T11:57:17Z</time>
      </trkpt>
      <trkpt lat="46.4864" lon="5.36266">
        <ele>245.2</ele>
        <time>2022-02-26T11:57:19Z</time>
      </trkpt>
      <trkpt lat="46.48644" lon="5.3623">
        <ele>244</ele>
        <time>2022-02-26T11:57:22Z</time>
      </trkpt>
      <trkpt lat="46.48646" lon="5.36194">
        <ele>243.8</ele>
        <time>2022-02-26T11:57:25Z</time>
      </trkpt>
      <trkpt lat="46.48647" lon="5.36182">
        <ele>243.6</ele>
        <time>2022-02-26T11:57:26Z</time>
      </trkpt>
      <trkpt lat="46.48651" lon="5.36146">
        <ele>243</ele>
        <time>2022-02-26T11:57:29Z</time>
      </trkpt>
      <trkpt lat="46.48657" lon="5.36111">
        <ele>242.6</ele>
        <time>2022-02-26T11:57:32Z</time>
      </trkpt>
      <trkpt lat="46.48673" lon="5.3604">
        <ele>242.2</ele>
        <time>2022-02-26T11:57:39Z</time>
      </trkpt>
      <trkpt lat="46.48675" lon="5.36031">
        <ele>242.2</ele>
        <time>2022-02-26T11:57:40Z</time>
      </trkpt>
      <trkpt lat="46.4868" lon="5.35998">
        <ele>242.6</ele>
        <time>2022-02-26T11:57:44Z</time>
      </trkpt>
      <trkpt lat="46.48685" lon="5.35976">
        <ele>243</ele>
        <time>2022-02-26T11:57:47Z</time>
      </trkpt>
      <trkpt lat="46.48687" lon="5.35957">
        <ele>243.4</ele>
        <time>2022-02-26T11:57:49Z</time>
      </trkpt>
      <trkpt lat="46.48688" lon="5.35947">
        <ele>243.4</ele>
        <time>2022-02-26T11:57:50Z</time>
      </trkpt>
      <trkpt lat="46.48693" lon="5.35919">
        <ele>243.6</ele>
        <time>2022-02-26T11:57:53Z</time>
      </trkpt>
      <trkpt lat="46.48712" lon="5.35863">
        <ele>243.2</ele>
        <time>2022-02-26T11:57:59Z</time>
      </trkpt>
      <trkpt lat="46.48732" lon="5.35818">
        <ele>242</ele>
        <time>2022-02-26T11:58:04Z</time>
      </trkpt>
      <trkpt lat="46.48739" lon="5.35801">
        <ele>241.8</ele>
        <time>2022-02-26T11:58:06Z</time>
      </trkpt>
      <trkpt lat="46.48757" lon="5.35758">
        <ele>240.8</ele>
        <time>2022-02-26T11:58:11Z</time>
      </trkpt>
      <trkpt lat="46.48771" lon="5.35724">
        <ele>240.4</ele>
        <time>2022-02-26T11:58:15Z</time>
      </trkpt>
      <trkpt lat="46.48792" lon="5.35675">
        <ele>240.4</ele>
        <time>2022-02-26T11:58:21Z</time>
      </trkpt>
      <trkpt lat="46.48809" lon="5.35638">
        <ele>240.4</ele>
        <time>2022-02-26T11:58:26Z</time>
      </trkpt>
      <trkpt lat="46.48825" lon="5.35599">
        <ele>240.4</ele>
        <time>2022-02-26T11:58:31Z</time>
      </trkpt>
      <trkpt lat="46.48837" lon="5.35577">
        <ele>240.8</ele>
        <time>2022-02-26T11:58:34Z</time>
      </trkpt>
      <trkpt lat="46.48848" lon="5.35567">
        <ele>240.8</ele>
        <time>2022-02-26T11:58:36Z</time>
      </trkpt>
      <trkpt lat="46.48855" lon="5.35565">
        <ele>241</ele>
        <time>2022-02-26T11:58:37Z</time>
      </trkpt>
      <trkpt lat="46.4889" lon="5.35561">
        <ele>240.8</ele>
        <time>2022-02-26T11:58:42Z</time>
      </trkpt>
      <trkpt lat="46.48944" lon="5.35559">
        <ele>239.6</ele>
        <time>2022-02-26T11:58:49Z</time>
      </trkpt>
      <trkpt lat="46.48969" lon="5.35557">
        <ele>238.6</ele>
        <time>2022-02-26T11:58:52Z</time>
      </trkpt>
      <trkpt lat="46.49" lon="5.35557">
        <ele>237.6</ele>
        <time>2022-02-26T11:58:56Z</time>
      </trkpt>
      <trkpt lat="46.49015" lon="5.35556">
        <ele>237.6</ele>
        <time>2022-02-26T11:58:58Z</time>
      </trkpt>
      <trkpt lat="46.4903" lon="5.35555">
        <ele>237.6</ele>
        <time>2022-02-26T11:59:00Z</time>
      </trkpt>
      <trkpt lat="46.4905" lon="5.35555">
        <ele>237.8</ele>
        <time>2022-02-26T11:59:03Z</time>
      </trkpt>
      <trkpt lat="46.49076" lon="5.35554">
        <ele>238.8</ele>
        <time>2022-02-26T11:59:07Z</time>
      </trkpt>
      <trkpt lat="46.49088" lon="5.35554">
        <ele>239</ele>
        <time>2022-02-26T11:59:09Z</time>
      </trkpt>
      <trkpt lat="46.49115" lon="5.35553">
        <ele>239.4</ele>
        <time>2022-02-26T11:59:14Z</time>
      </trkpt>
      <trkpt lat="46.49136" lon="5.35552">
        <ele>239.8</ele>
        <time>2022-02-26T11:59:18Z</time>
      </trkpt>
      <trkpt lat="46.49142" lon="5.35552">
        <ele>240</ele>
        <time>2022-02-26T11:59:19Z</time>
      </trkpt>
      <trkpt lat="46.49181" lon="5.35548">
        <ele>240.8</ele>
        <time>2022-02-26T11:59:26Z</time>
      </trkpt>
      <trkpt lat="46.492" lon="5.35547">
        <ele>241.8</ele>
        <time>2022-02-26T11:59:29Z</time>
      </trkpt>
      <trkpt lat="46.49207" lon="5.35547">
        <ele>241.8</ele>
        <time>2022-02-26T11:59:30Z</time>
      </trkpt>
      <trkpt lat="46.4926" lon="5.35544">
        <ele>241.4</ele>
        <time>2022-02-26T11:59:38Z</time>
      </trkpt>
      <trkpt lat="46.49318" lon="5.3554">
        <ele>241.6</ele>
        <time>2022-02-26T11:59:47Z</time>
      </trkpt>
      <trkpt lat="46.49368" lon="5.35542">
        <ele>241.6</ele>
        <time>2022-02-26T11:59:54Z</time>
      </trkpt>
      <trkpt lat="46.49413" lon="5.35551">
        <ele>240.8</ele>
        <time>2022-02-26T12:00:00Z</time>
      </trkpt>
      <trkpt lat="46.49455" lon="5.3557">
        <ele>239.6</ele>
        <time>2022-02-26T12:00:06Z</time>
      </trkpt>
      <trkpt lat="46.49476" lon="5.35578">
        <ele>239.4</ele>
        <time>2022-02-26T12:00:09Z</time>
      </trkpt>
      <trkpt lat="46.49531" lon="5.35601">
        <ele>238.6</ele>
        <time>2022-02-26T12:00:17Z</time>
      </trkpt>
      <trkpt lat="46.49545" lon="5.35607">
        <ele>238.2</ele>
        <time>2022-02-26T12:00:19Z</time>
      </trkpt>
      <trkpt lat="46.49588" lon="5.35622">
        <ele>237.4</ele>
        <time>2022-02-26T12:00:25Z</time>
      </trkpt>
      <trkpt lat="46.49603" lon="5.35626">
        <ele>237.2</ele>
        <time>2022-02-26T12:00:27Z</time>
      </trkpt>
      <trkpt lat="46.49659" lon="5.35643">
        <ele>236.2</ele>
        <time>2022-02-26T12:00:35Z</time>
      </trkpt>
      <trkpt lat="46.49665" lon="5.35645">
        <ele>236</ele>
        <time>2022-02-26T12:00:36Z</time>
      </trkpt>
      <trkpt lat="46.49672" lon="5.35647">
        <ele>235.8</ele>
        <time>2022-02-26T12:00:37Z</time>
      </trkpt>
      <trkpt lat="46.49685" lon="5.3565">
        <ele>235.6</ele>
        <time>2022-02-26T12:00:39Z</time>
      </trkpt>
      <trkpt lat="46.49693" lon="5.35657">
        <ele>235.4</ele>
        <time>2022-02-26T12:00:41Z</time>
      </trkpt>
      <trkpt lat="46.49695" lon="5.3567">
        <ele>235.2</ele>
        <time>2022-02-26T12:00:43Z</time>
      </trkpt>
      <trkpt lat="46.49694" lon="5.35678">
        <ele>235.2</ele>
        <time>2022-02-26T12:00:44Z</time>
      </trkpt>
      <trkpt lat="46.49685" lon="5.35715">
        <ele>235</ele>
        <time>2022-02-26T12:00:48Z</time>
      </trkpt>
      <trkpt lat="46.4967" lon="5.35754">
        <ele>234</ele>
        <time>2022-02-26T12:00:52Z</time>
      </trkpt>
      <trkpt lat="46.49661" lon="5.35772">
        <ele>233.6</ele>
        <time>2022-02-26T12:00:54Z</time>
      </trkpt>
      <trkpt lat="46.49648" lon="5.358">
        <ele>233</ele>
        <time>2022-02-26T12:00:57Z</time>
      </trkpt>
      <trkpt lat="46.49638" lon="5.35832">
        <ele>232.4</ele>
        <time>2022-02-26T12:01:00Z</time>
      </trkpt>
      <trkpt lat="46.49635" lon="5.35857">
        <ele>231.8</ele>
        <time>2022-02-26T12:01:02Z</time>
      </trkpt>
      <trkpt lat="46.49634" lon="5.35884">
        <ele>231.2</ele>
        <time>2022-02-26T12:01:04Z</time>
      </trkpt>
      <trkpt lat="46.49635" lon="5.35898">
        <ele>230.8</ele>
        <time>2022-02-26T12:01:05Z</time>
      </trkpt>
      <trkpt lat="46.49638" lon="5.35937">
        <ele>229.8</ele>
        <time>2022-02-26T12:01:08Z</time>
      </trkpt>
      <trkpt lat="46.4964" lon="5.35961">
        <ele>229</ele>
        <time>2022-02-26T12:01:10Z</time>
      </trkpt>
      <trkpt lat="46.49641" lon="5.35985">
        <ele>228.6</ele>
        <time>2022-02-26T12:01:12Z</time>
      </trkpt>
      <trkpt lat="46.49644" lon="5.3603">
        <ele>228.2</ele>
        <time>2022-02-26T12:01:16Z</time>
      </trkpt>
      <trkpt lat="46.4965" lon="5.36082">
        <ele>228.2</ele>
        <time>2022-02-26T12:01:21Z</time>
      </trkpt>
      <trkpt lat="46.49653" lon="5.36092">
        <ele>228</ele>
        <time>2022-02-26T12:01:22Z</time>
      </trkpt>
      <trkpt lat="46.49659" lon="5.36111">
        <ele>228.2</ele>
        <time>2022-02-26T12:01:24Z</time>
      </trkpt>
      <trkpt lat="46.49671" lon="5.36135">
        <ele>228</ele>
        <time>2022-02-26T12:01:27Z</time>
      </trkpt>
      <trkpt lat="46.49676" lon="5.36143">
        <ele>228.2</ele>
        <time>2022-02-26T12:01:28Z</time>
      </trkpt>
      <trkpt lat="46.49701" lon="5.36184">
        <ele>228.6</ele>
        <time>2022-02-26T12:01:34Z</time>
      </trkpt>
      <trkpt lat="46.49728" lon="5.36233">
        <ele>229</ele>
        <time>2022-02-26T12:01:41Z</time>
      </trkpt>
      <trkpt lat="46.49738" lon="5.36254">
        <ele>229.2</ele>
        <time>2022-02-26T12:01:44Z</time>
      </trkpt>
      <trkpt lat="46.49744" lon="5.36268">
        <ele>229.2</ele>
        <time>2022-02-26T12:01:46Z</time>
      </trkpt>
      <trkpt lat="46.49764" lon="5.36318">
        <ele>230</ele>
        <time>2022-02-26T12:01:53Z</time>
      </trkpt>
      <trkpt lat="46.4977" lon="5.36331">
        <ele>230.2</ele>
        <time>2022-02-26T12:01:55Z</time>
      </trkpt>
      <trkpt lat="46.49776" lon="5.36345">
        <ele>231</ele>
        <time>2022-02-26T12:01:57Z</time>
      </trkpt>
      <trkpt lat="46.49789" lon="5.36375">
        <ele>232.2</ele>
        <time>2022-02-26T12:02:02Z</time>
      </trkpt>
      <trkpt lat="46.49794" lon="5.36387">
        <ele>232.6</ele>
        <time>2022-02-26T12:02:04Z</time>
      </trkpt>
      <trkpt lat="46.49802" lon="5.36408">
        <ele>233.4</ele>
        <time>2022-02-26T12:02:07Z</time>
      </trkpt>
      <trkpt lat="46.4981" lon="5.36427">
        <ele>234</ele>
        <time>2022-02-26T12:02:10Z</time>
      </trkpt>
      <trkpt lat="46.49819" lon="5.36445">
        <ele>234.4</ele>
        <time>2022-02-26T12:02:13Z</time>
      </trkpt>
      <trkpt lat="46.49833" lon="5.36474">
        <ele>234.8</ele>
        <time>2022-02-26T12:02:18Z</time>
      </trkpt>
      <trkpt lat="46.49856" lon="5.3651">
        <ele>235.4</ele>
        <time>2022-02-26T12:02:25Z</time>
      </trkpt>
      <trkpt lat="46.49867" lon="5.36526">
        <ele>235.8</ele>
        <time>2022-02-26T12:02:28Z</time>
      </trkpt>
      <trkpt lat="46.49891" lon="5.36561">
        <ele>236.4</ele>
        <time>2022-02-26T12:02:35Z</time>
      </trkpt>
      <trkpt lat="46.49911" lon="5.36594">
        <ele>237.2</ele>
        <time>2022-02-26T12:02:41Z</time>
      </trkpt>
      <trkpt lat="46.49916" lon="5.36606">
        <ele>237.4</ele>
        <time>2022-02-26T12:02:43Z</time>
      </trkpt>
      <trkpt lat="46.49932" lon="5.36642">
        <ele>238</ele>
        <time>2022-02-26T12:02:49Z</time>
      </trkpt>
      <trkpt lat="46.49939" lon="5.36662">
        <ele>238.2</ele>
        <time>2022-02-26T12:02:52Z</time>
      </trkpt>
      <trkpt lat="46.49944" lon="5.36686">
        <ele>238.4</ele>
        <time>2022-02-26T12:02:55Z</time>
      </trkpt>
      <trkpt lat="46.49947" lon="5.36702">
        <ele>238.6</ele>
        <time>2022-02-26T12:02:57Z</time>
      </trkpt>
      <trkpt lat="46.49956" lon="5.36753">
        <ele>239</ele>
        <time>2022-02-26T12:03:04Z</time>
      </trkpt>
      <trkpt lat="46.49962" lon="5.3678">
        <ele>239.6</ele>
        <time>2022-02-26T12:03:08Z</time>
      </trkpt>
      <trkpt lat="46.49966" lon="5.368">
        <ele>240</ele>
        <time>2022-02-26T12:03:11Z</time>
      </trkpt>
      <trkpt lat="46.49973" lon="5.3684">
        <ele>240.6</ele>
        <time>2022-02-26T12:03:17Z</time>
      </trkpt>
      <trkpt lat="46.49978" lon="5.36866">
        <ele>241.2</ele>
        <time>2022-02-26T12:03:21Z</time>
      </trkpt>
      <trkpt lat="46.49983" lon="5.36892">
        <ele>241.8</ele>
        <time>2022-02-26T12:03:25Z</time>
      </trkpt>
      <trkpt lat="46.49987" lon="5.3691">
        <ele>242</ele>
        <time>2022-02-26T12:03:28Z</time>
      </trkpt>
      <trkpt lat="46.4999" lon="5.36923">
        <ele>242.4</ele>
        <time>2022-02-26T12:03:30Z</time>
      </trkpt>
      <trkpt lat="46.49994" lon="5.3695">
        <ele>242.8</ele>
        <time>2022-02-26T12:03:34Z</time>
      </trkpt>
      <trkpt lat="46.50001" lon="5.36989">
        <ele>243.6</ele>
        <time>2022-02-26T12:03:40Z</time>
      </trkpt>
      <trkpt lat="46.50002" lon="5.36995">
        <ele>243.8</ele>
        <time>2022-02-26T12:03:41Z</time>
      </trkpt>
      <trkpt lat="46.5001" lon="5.3704">
        <ele>244.8</ele>
        <time>2022-02-26T12:03:48Z</time>
      </trkpt>
      <trkpt lat="46.50013" lon="5.37053">
        <ele>245.2</ele>
        <time>2022-02-26T12:03:50Z</time>
      </trkpt>
      <trkpt lat="46.50015" lon="5.37066">
        <ele>245.4</ele>
        <time>2022-02-26T12:03:52Z</time>
      </trkpt>
      <trkpt lat="46.50019" lon="5.37085">
        <ele>246</ele>
        <time>2022-02-26T12:03:55Z</time>
      </trkpt>
      <trkpt lat="46.50025" lon="5.37117">
        <ele>246.6</ele>
        <time>2022-02-26T12:04:00Z</time>
      </trkpt>
      <trkpt lat="46.50029" lon="5.37136">
        <ele>247</ele>
        <time>2022-02-26T12:04:03Z</time>
      </trkpt>
      <trkpt lat="46.50037" lon="5.37179">
        <ele>247.6</ele>
        <time>2022-02-26T12:04:10Z</time>
      </trkpt>
      <trkpt lat="46.50048" lon="5.37236">
        <ele>248.2</ele>
        <time>2022-02-26T12:04:19Z</time>
      </trkpt>
      <trkpt lat="46.50052" lon="5.37255">
        <ele>249.2</ele>
        <time>2022-02-26T12:04:22Z</time>
      </trkpt>
      <trkpt lat="46.50061" lon="5.37299">
        <ele>250.2</ele>
        <time>2022-02-26T12:04:29Z</time>
      </trkpt>
      <trkpt lat="46.50063" lon="5.37312">
        <ele>250.4</ele>
        <time>2022-02-26T12:04:31Z</time>
      </trkpt>
      <trkpt lat="46.50073" lon="5.37363">
        <ele>251.4</ele>
        <time>2022-02-26T12:04:39Z</time>
      </trkpt>
      <trkpt lat="46.50076" lon="5.37381">
        <ele>251.8</ele>
        <time>2022-02-26T12:04:42Z</time>
      </trkpt>
      <trkpt lat="46.50077" lon="5.37388">
        <ele>252</ele>
        <time>2022-02-26T12:04:43Z</time>
      </trkpt>
      <trkpt lat="46.5008" lon="5.37401">
        <ele>252.6</ele>
        <time>2022-02-26T12:04:45Z</time>
      </trkpt>
      <trkpt lat="46.50092" lon="5.3744">
        <ele>253</ele>
        <time>2022-02-26T12:04:51Z</time>
      </trkpt>
      <trkpt lat="46.50111" lon="5.37476">
        <ele>253.2</ele>
        <time>2022-02-26T12:04:57Z</time>
      </trkpt>
      <trkpt lat="46.50136" lon="5.37525">
        <ele>253.4</ele>
        <time>2022-02-26T12:05:05Z</time>
      </trkpt>
      <trkpt lat="46.50148" lon="5.37577">
        <ele>253.6</ele>
        <time>2022-02-26T12:05:12Z</time>
      </trkpt>
      <trkpt lat="46.50151" lon="5.37632">
        <ele>253.4</ele>
        <time>2022-02-26T12:05:19Z</time>
      </trkpt>
      <trkpt lat="46.50152" lon="5.37662">
        <ele>253.8</ele>
        <time>2022-02-26T12:05:23Z</time>
      </trkpt>
      <trkpt lat="46.50153" lon="5.37669">
        <ele>253.8</ele>
        <time>2022-02-26T12:05:24Z</time>
      </trkpt>
      <trkpt lat="46.50153" lon="5.37683">
        <ele>254</ele>
        <time>2022-02-26T12:05:27Z</time>
      </trkpt>
      <trkpt lat="46.50158" lon="5.37708">
        <ele>254.6</ele>
        <time>2022-02-26T12:05:32Z</time>
      </trkpt>
      <trkpt lat="46.5016" lon="5.37714">
        <ele>254.6</ele>
        <time>2022-02-26T12:05:33Z</time>
      </trkpt>
      <trkpt lat="46.50169" lon="5.3774">
        <ele>256</ele>
        <time>2022-02-26T12:05:38Z</time>
      </trkpt>
      <trkpt lat="46.50172" lon="5.37745">
        <ele>256.4</ele>
        <time>2022-02-26T12:05:39Z</time>
      </trkpt>
      <trkpt lat="46.50176" lon="5.37749">
        <ele>257</ele>
        <time>2022-02-26T12:05:40Z</time>
      </trkpt>
      <trkpt lat="46.50181" lon="5.37752">
        <ele>257.2</ele>
        <time>2022-02-26T12:05:41Z</time>
      </trkpt>
      <trkpt lat="46.50202" lon="5.37764">
        <ele>257.6</ele>
        <time>2022-02-26T12:05:45Z</time>
      </trkpt>
      <trkpt lat="46.50229" lon="5.37782">
        <ele>257.6</ele>
        <time>2022-02-26T12:05:50Z</time>
      </trkpt>
      <trkpt lat="46.50233" lon="5.37786">
        <ele>257.8</ele>
        <time>2022-02-26T12:05:51Z</time>
      </trkpt>
      <trkpt lat="46.50247" lon="5.37797">
        <ele>258</ele>
        <time>2022-02-26T12:05:54Z</time>
      </trkpt>
      <trkpt lat="46.50251" lon="5.37802">
        <ele>258</ele>
        <time>2022-02-26T12:05:55Z</time>
      </trkpt>
      <trkpt lat="46.50255" lon="5.37807">
        <ele>258.2</ele>
        <time>2022-02-26T12:05:56Z</time>
      </trkpt>
      <trkpt lat="46.50259" lon="5.3781">
        <ele>258.2</ele>
        <time>2022-02-26T12:05:57Z</time>
      </trkpt>
      <trkpt lat="46.50276" lon="5.37828">
        <ele>259</ele>
        <time>2022-02-26T12:06:01Z</time>
      </trkpt>
      <trkpt lat="46.50301" lon="5.37855">
        <ele>258.8</ele>
        <time>2022-02-26T12:06:07Z</time>
      </trkpt>
      <trkpt lat="46.50337" lon="5.37894">
        <ele>259</ele>
        <time>2022-02-26T12:06:16Z</time>
      </trkpt>
      <trkpt lat="46.50345" lon="5.37906">
        <ele>259.2</ele>
        <time>2022-02-26T12:06:18Z</time>
      </trkpt>
      <trkpt lat="46.50349" lon="5.37912">
        <ele>259.4</ele>
        <time>2022-02-26T12:06:19Z</time>
      </trkpt>
      <trkpt lat="46.50354" lon="5.37924">
        <ele>259.4</ele>
        <time>2022-02-26T12:06:21Z</time>
      </trkpt>
      <trkpt lat="46.50358" lon="5.37939">
        <ele>259.6</ele>
        <time>2022-02-26T12:06:23Z</time>
      </trkpt>
      <trkpt lat="46.5036" lon="5.37953">
        <ele>259.8</ele>
        <time>2022-02-26T12:06:25Z</time>
      </trkpt>
      <trkpt lat="46.5036" lon="5.3796">
        <ele>260</ele>
        <time>2022-02-26T12:06:26Z</time>
      </trkpt>
      <trkpt lat="46.50359" lon="5.37992">
        <ele>260.2</ele>
        <time>2022-02-26T12:06:30Z</time>
      </trkpt>
      <trkpt lat="46.50358" lon="5.38007">
        <ele>260.2</ele>
        <time>2022-02-26T12:06:32Z</time>
      </trkpt>
      <trkpt lat="46.50358" lon="5.38018">
        <ele>260</ele>
        <time>2022-02-26T12:06:33Z</time>
      </trkpt>
      <trkpt lat="46.5036" lon="5.38033">
        <ele>259.8</ele>
        <time>2022-02-26T12:06:35Z</time>
      </trkpt>
      <trkpt lat="46.50372" lon="5.38052">
        <ele>259.4</ele>
        <time>2022-02-26T12:06:39Z</time>
      </trkpt>
      <trkpt lat="46.50382" lon="5.38051">
        <ele>259.2</ele>
        <time>2022-02-26T12:06:43Z</time>
      </trkpt>
      <trkpt lat="46.50389" lon="5.38044">
        <ele>259</ele>
        <time>2022-02-26T12:06:48Z</time>
      </trkpt>
      <trkpt lat="46.50398" lon="5.38032">
        <ele>258.8</ele>
        <time>2022-02-26T12:06:51Z</time>
      </trkpt>
      <trkpt lat="46.50419" lon="5.37995">
        <ele>258.2</ele>
        <time>2022-02-26T12:06:56Z</time>
      </trkpt>
      <trkpt lat="46.50423" lon="5.37986">
        <ele>257.6</ele>
        <time>2022-02-26T12:06:57Z</time>
      </trkpt>
      <trkpt lat="46.50434" lon="5.37969">
        <ele>256.6</ele>
        <time>2022-02-26T12:06:59Z</time>
      </trkpt>
      <trkpt lat="46.50451" lon="5.37942">
        <ele>255.2</ele>
        <time>2022-02-26T12:07:02Z</time>
      </trkpt>
      <trkpt lat="46.50468" lon="5.37917">
        <ele>254</ele>
        <time>2022-02-26T12:07:05Z</time>
      </trkpt>
      <trkpt lat="46.50485" lon="5.37893">
        <ele>253</ele>
        <time>2022-02-26T12:07:08Z</time>
      </trkpt>
      <trkpt lat="46.50491" lon="5.37885">
        <ele>252.8</ele>
        <time>2022-02-26T12:07:09Z</time>
      </trkpt>
      <trkpt lat="46.50518" lon="5.37841">
        <ele>251.6</ele>
        <time>2022-02-26T12:07:14Z</time>
      </trkpt>
      <trkpt lat="46.50529" lon="5.37824">
        <ele>250.2</ele>
        <time>2022-02-26T12:07:16Z</time>
      </trkpt>
      <trkpt lat="46.50546" lon="5.37798">
        <ele>249.4</ele>
        <time>2022-02-26T12:07:19Z</time>
      </trkpt>
      <trkpt lat="46.50552" lon="5.37789">
        <ele>249.2</ele>
        <time>2022-02-26T12:07:20Z</time>
      </trkpt>
      <trkpt lat="46.50576" lon="5.37752">
        <ele>247.8</ele>
        <time>2022-02-26T12:07:24Z</time>
      </trkpt>
      <trkpt lat="46.50589" lon="5.37733">
        <ele>246.6</ele>
        <time>2022-02-26T12:07:26Z</time>
      </trkpt>
      <trkpt lat="46.50601" lon="5.37713">
        <ele>245.8</ele>
        <time>2022-02-26T12:07:28Z</time>
      </trkpt>
      <trkpt lat="46.50608" lon="5.37703">
        <ele>245.4</ele>
        <time>2022-02-26T12:07:29Z</time>
      </trkpt>
      <trkpt lat="46.50626" lon="5.37675">
        <ele>244.2</ele>
        <time>2022-02-26T12:07:32Z</time>
      </trkpt>
      <trkpt lat="46.50644" lon="5.37648">
        <ele>243.4</ele>
        <time>2022-02-26T12:07:35Z</time>
      </trkpt>
      <trkpt lat="46.50649" lon="5.37639">
        <ele>243</ele>
        <time>2022-02-26T12:07:36Z</time>
      </trkpt>
      <trkpt lat="46.50669" lon="5.37607">
        <ele>242.4</ele>
        <time>2022-02-26T12:07:40Z</time>
      </trkpt>
      <trkpt lat="46.50693" lon="5.37573">
        <ele>242.2</ele>
        <time>2022-02-26T12:07:45Z</time>
      </trkpt>
      <trkpt lat="46.50699" lon="5.3757">
        <ele>242.2</ele>
        <time>2022-02-26T12:07:46Z</time>
      </trkpt>
      <trkpt lat="46.50705" lon="5.3757">
        <ele>242.2</ele>
        <time>2022-02-26T12:07:47Z</time>
      </trkpt>
      <trkpt lat="46.5071" lon="5.37573">
        <ele>242.2</ele>
        <time>2022-02-26T12:07:48Z</time>
      </trkpt>
      <trkpt lat="46.50715" lon="5.37578">
        <ele>242.2</ele>
        <time>2022-02-26T12:07:49Z</time>
      </trkpt>
      <trkpt lat="46.50719" lon="5.37584">
        <ele>242</ele>
        <time>2022-02-26T12:07:50Z</time>
      </trkpt>
      <trkpt lat="46.50727" lon="5.37596">
        <ele>241.8</ele>
        <time>2022-02-26T12:07:52Z</time>
      </trkpt>
      <trkpt lat="46.50733" lon="5.37608">
        <ele>241.8</ele>
        <time>2022-02-26T12:07:54Z</time>
      </trkpt>
      <trkpt lat="46.50736" lon="5.37622">
        <ele>241.8</ele>
        <time>2022-02-26T12:07:56Z</time>
      </trkpt>
      <trkpt lat="46.50739" lon="5.37642">
        <ele>242.2</ele>
        <time>2022-02-26T12:07:59Z</time>
      </trkpt>
      <trkpt lat="46.5074" lon="5.37655">
        <ele>242.6</ele>
        <time>2022-02-26T12:08:01Z</time>
      </trkpt>
      <trkpt lat="46.50742" lon="5.37668">
        <ele>243</ele>
        <time>2022-02-26T12:08:03Z</time>
      </trkpt>
      <trkpt lat="46.50743" lon="5.37692">
        <ele>244.2</ele>
        <time>2022-02-26T12:08:07Z</time>
      </trkpt>
      <trkpt lat="46.50743" lon="5.37698">
        <ele>244.6</ele>
        <time>2022-02-26T12:08:08Z</time>
      </trkpt>
      <trkpt lat="46.50744" lon="5.37715">
        <ele>245.2</ele>
        <time>2022-02-26T12:08:11Z</time>
      </trkpt>
      <trkpt lat="46.50744" lon="5.37721">
        <ele>245.4</ele>
        <time>2022-02-26T12:08:12Z</time>
      </trkpt>
      <trkpt lat="46.50746" lon="5.37742">
        <ele>246.2</ele>
        <time>2022-02-26T12:08:15Z</time>
      </trkpt>
      <trkpt lat="46.50749" lon="5.37764">
        <ele>246.4</ele>
        <time>2022-02-26T12:08:18Z</time>
      </trkpt>
      <trkpt lat="46.50751" lon="5.37779">
        <ele>246.8</ele>
        <time>2022-02-26T12:08:20Z</time>
      </trkpt>
      <trkpt lat="46.50766" lon="5.37826">
        <ele>247.2</ele>
        <time>2022-02-26T12:08:27Z</time>
      </trkpt>
      <trkpt lat="46.50769" lon="5.37832">
        <ele>247.6</ele>
        <time>2022-02-26T12:08:28Z</time>
      </trkpt>
      <trkpt lat="46.50778" lon="5.37848">
        <ele>247.8</ele>
        <time>2022-02-26T12:08:31Z</time>
      </trkpt>
      <trkpt lat="46.50788" lon="5.37864">
        <ele>248.6</ele>
        <time>2022-02-26T12:08:34Z</time>
      </trkpt>
      <trkpt lat="46.50792" lon="5.37869">
        <ele>248.6</ele>
        <time>2022-02-26T12:08:35Z</time>
      </trkpt>
      <trkpt lat="46.50812" lon="5.37891">
        <ele>249.2</ele>
        <time>2022-02-26T12:08:40Z</time>
      </trkpt>
      <trkpt lat="46.50821" lon="5.37898">
        <ele>249.2</ele>
        <time>2022-02-26T12:08:42Z</time>
      </trkpt>
      <trkpt lat="46.50831" lon="5.37902">
        <ele>249.2</ele>
        <time>2022-02-26T12:08:44Z</time>
      </trkpt>
      <trkpt lat="46.50852" lon="5.37906">
        <ele>249</ele>
        <time>2022-02-26T12:08:48Z</time>
      </trkpt>
      <trkpt lat="46.50899" lon="5.37908">
        <ele>247.6</ele>
        <time>2022-02-26T12:08:57Z</time>
      </trkpt>
      <trkpt lat="46.50904" lon="5.37908">
        <ele>247.6</ele>
        <time>2022-02-26T12:08:58Z</time>
      </trkpt>
      <trkpt lat="46.50943" lon="5.37898">
        <ele>248</ele>
        <time>2022-02-26T12:09:06Z</time>
      </trkpt>
      <trkpt lat="46.50983" lon="5.37887">
        <ele>248.6</ele>
        <time>2022-02-26T12:09:14Z</time>
      </trkpt>
      <trkpt lat="46.5104" lon="5.37877">
        <ele>248</ele>
        <time>2022-02-26T12:09:24Z</time>
      </trkpt>
      <trkpt lat="46.5107" lon="5.37874">
        <ele>246.4</ele>
        <time>2022-02-26T12:09:29Z</time>
      </trkpt>
      <trkpt lat="46.51095" lon="5.37868">
        <ele>245.4</ele>
        <time>2022-02-26T12:09:33Z</time>
      </trkpt>
      <trkpt lat="46.51138" lon="5.37846">
        <ele>244.2</ele>
        <time>2022-02-26T12:09:40Z</time>
      </trkpt>
      <trkpt lat="46.51172" lon="5.37819">
        <ele>243.2</ele>
        <time>2022-02-26T12:09:46Z</time>
      </trkpt>
      <trkpt lat="46.51178" lon="5.37815">
        <ele>243.2</ele>
        <time>2022-02-26T12:09:47Z</time>
      </trkpt>
      <trkpt lat="46.51185" lon="5.37813">
        <ele>243</ele>
        <time>2022-02-26T12:09:48Z</time>
      </trkpt>
      <trkpt lat="46.51213" lon="5.37807">
        <ele>242.2</ele>
        <time>2022-02-26T12:09:52Z</time>
      </trkpt>
      <trkpt lat="46.5122" lon="5.37807">
        <ele>242</ele>
        <time>2022-02-26T12:09:53Z</time>
      </trkpt>
      <trkpt lat="46.51247" lon="5.37802">
        <ele>240.8</ele>
        <time>2022-02-26T12:09:57Z</time>
      </trkpt>
      <trkpt lat="46.5126" lon="5.37798">
        <ele>240.2</ele>
        <time>2022-02-26T12:09:59Z</time>
      </trkpt>
      <trkpt lat="46.51286" lon="5.37786">
        <ele>239.8</ele>
        <time>2022-02-26T12:10:03Z</time>
      </trkpt>
      <trkpt lat="46.51318" lon="5.37769">
        <ele>239.4</ele>
        <time>2022-02-26T12:10:08Z</time>
      </trkpt>
      <trkpt lat="46.51359" lon="5.37748">
        <ele>238.6</ele>
        <time>2022-02-26T12:10:14Z</time>
      </trkpt>
      <trkpt lat="46.51386" lon="5.37734">
        <ele>237.8</ele>
        <time>2022-02-26T12:10:18Z</time>
      </trkpt>
      <trkpt lat="46.51392" lon="5.37731">
        <ele>237.4</ele>
        <time>2022-02-26T12:10:19Z</time>
      </trkpt>
      <trkpt lat="46.5142" lon="5.37722">
        <ele>236.4</ele>
        <time>2022-02-26T12:10:23Z</time>
      </trkpt>
      <trkpt lat="46.51433" lon="5.37717">
        <ele>236.2</ele>
        <time>2022-02-26T12:10:25Z</time>
      </trkpt>
      <trkpt lat="46.51473" lon="5.37707">
        <ele>235.4</ele>
        <time>2022-02-26T12:10:31Z</time>
      </trkpt>
      <trkpt lat="46.515" lon="5.37701">
        <ele>234.8</ele>
        <time>2022-02-26T12:10:35Z</time>
      </trkpt>
      <trkpt lat="46.51521" lon="5.37696">
        <ele>234.4</ele>
        <time>2022-02-26T12:10:38Z</time>
      </trkpt>
      <trkpt lat="46.51528" lon="5.37694">
        <ele>234.2</ele>
        <time>2022-02-26T12:10:39Z</time>
      </trkpt>
      <trkpt lat="46.51556" lon="5.37687">
        <ele>234</ele>
        <time>2022-02-26T12:10:43Z</time>
      </trkpt>
      <trkpt lat="46.51591" lon="5.37684">
        <ele>233</ele>
        <time>2022-02-26T12:10:48Z</time>
      </trkpt>
      <trkpt lat="46.51613" lon="5.37681">
        <ele>232.2</ele>
        <time>2022-02-26T12:10:51Z</time>
      </trkpt>
      <trkpt lat="46.51627" lon="5.37677">
        <ele>231.8</ele>
        <time>2022-02-26T12:10:52Z</time>
      </trkpt>
      <trkpt lat="46.51653" lon="5.37665">
        <ele>230.8</ele>
        <time>2022-02-26T12:10:57Z</time>
      </trkpt>
      <trkpt lat="46.51676" lon="5.37653">
        <ele>230.4</ele>
        <time>2022-02-26T12:11:01Z</time>
      </trkpt>
      <trkpt lat="46.51682" lon="5.37648">
        <ele>230.2</ele>
        <time>2022-02-26T12:11:02Z</time>
      </trkpt>
      <trkpt lat="46.51693" lon="5.3764">
        <ele>230.2</ele>
        <time>2022-02-26T12:11:04Z</time>
      </trkpt>
      <trkpt lat="46.51705" lon="5.37636">
        <ele>230.2</ele>
        <time>2022-02-26T12:11:06Z</time>
      </trkpt>
      <trkpt lat="46.51734" lon="5.37641">
        <ele>231</ele>
        <time>2022-02-26T12:11:11Z</time>
      </trkpt>
      <trkpt lat="46.51755" lon="5.37647">
        <ele>231.8</ele>
        <time>2022-02-26T12:11:15Z</time>
      </trkpt>
      <trkpt lat="46.51769" lon="5.3765">
        <ele>232.8</ele>
        <time>2022-02-26T12:11:18Z</time>
      </trkpt>
      <trkpt lat="46.51774" lon="5.37652">
        <ele>233</ele>
        <time>2022-02-26T12:11:19Z</time>
      </trkpt>
      <trkpt lat="46.51803" lon="5.37653">
        <ele>233.4</ele>
        <time>2022-02-26T12:11:25Z</time>
      </trkpt>
      <trkpt lat="46.51828" lon="5.37651">
        <ele>234</ele>
        <time>2022-02-26T12:11:30Z</time>
      </trkpt>
      <trkpt lat="46.51852" lon="5.37652">
        <ele>235</ele>
        <time>2022-02-26T12:11:35Z</time>
      </trkpt>
      <trkpt lat="46.51866" lon="5.37653">
        <ele>234.8</ele>
        <time>2022-02-26T12:11:38Z</time>
      </trkpt>
      <trkpt lat="46.51909" lon="5.37651">
        <ele>234.8</ele>
        <time>2022-02-26T12:11:46Z</time>
      </trkpt>
      <trkpt lat="46.51963" lon="5.37641">
        <ele>234.8</ele>
        <time>2022-02-26T12:11:55Z</time>
      </trkpt>
      <trkpt lat="46.5201" lon="5.37633">
        <ele>234.8</ele>
        <time>2022-02-26T12:12:05Z</time>
      </trkpt>
      <trkpt lat="46.52018" lon="5.37635">
        <ele>234.8</ele>
        <time>2022-02-26T12:12:07Z</time>
      </trkpt>
      <trkpt lat="46.52025" lon="5.37629">
        <ele>234.8</ele>
        <time>2022-02-26T12:12:09Z</time>
      </trkpt>
      <trkpt lat="46.52031" lon="5.37607">
        <ele>235</ele>
        <time>2022-02-26T12:12:12Z</time>
      </trkpt>
      <trkpt lat="46.52045" lon="5.37546">
        <ele>234.6</ele>
        <time>2022-02-26T12:12:19Z</time>
      </trkpt>
      <trkpt lat="46.52061" lon="5.37472">
        <ele>234.4</ele>
        <time>2022-02-26T12:12:28Z</time>
      </trkpt>
      <trkpt lat="46.52076" lon="5.37404">
        <ele>234.4</ele>
        <time>2022-02-26T12:12:37Z</time>
      </trkpt>
      <trkpt lat="46.52087" lon="5.37364">
        <ele>234.6</ele>
        <time>2022-02-26T12:12:42Z</time>
      </trkpt>
      <trkpt lat="46.521" lon="5.37343">
        <ele>234.4</ele>
        <time>2022-02-26T12:12:44Z</time>
      </trkpt>
      <trkpt lat="46.52128" lon="5.37322">
        <ele>233.4</ele>
        <time>2022-02-26T12:12:48Z</time>
      </trkpt>
      <trkpt lat="46.52141" lon="5.37313">
        <ele>232.4</ele>
        <time>2022-02-26T12:12:50Z</time>
      </trkpt>
      <trkpt lat="46.52141" lon="5.37313">
        <ele>232</ele>
        <time>2022-02-26T12:12:51Z</time>
      </trkpt>
      <trkpt lat="46.52162" lon="5.37299">
        <ele>231</ele>
        <time>2022-02-26T12:12:53Z</time>
      </trkpt>
      <trkpt lat="46.52178" lon="5.37288">
        <ele>229.8</ele>
        <time>2022-02-26T12:12:55Z</time>
      </trkpt>
      <trkpt lat="46.52185" lon="5.37284">
        <ele>228.8</ele>
        <time>2022-02-26T12:12:56Z</time>
      </trkpt>
      <trkpt lat="46.52192" lon="5.37279">
        <ele>228.6</ele>
        <time>2022-02-26T12:12:57Z</time>
      </trkpt>
      <trkpt lat="46.52213" lon="5.37263">
        <ele>227</ele>
        <time>2022-02-26T12:13:00Z</time>
      </trkpt>
      <trkpt lat="46.52225" lon="5.37253">
        <ele>226</ele>
        <time>2022-02-26T12:13:02Z</time>
      </trkpt>
      <trkpt lat="46.52239" lon="5.3724">
        <ele>225.2</ele>
        <time>2022-02-26T12:13:04Z</time>
      </trkpt>
      <trkpt lat="46.52244" lon="5.37236">
        <ele>224.6</ele>
        <time>2022-02-26T12:13:05Z</time>
      </trkpt>
      <trkpt lat="46.5227" lon="5.37209">
        <ele>223</ele>
        <time>2022-02-26T12:13:09Z</time>
      </trkpt>
      <trkpt lat="46.52296" lon="5.37183">
        <ele>222</ele>
        <time>2022-02-26T12:13:13Z</time>
      </trkpt>
      <trkpt lat="46.52309" lon="5.37169">
        <ele>221.6</ele>
        <time>2022-02-26T12:13:15Z</time>
      </trkpt>
      <trkpt lat="46.52333" lon="5.37142">
        <ele>221</ele>
        <time>2022-02-26T12:13:19Z</time>
      </trkpt>
      <trkpt lat="46.52346" lon="5.37129">
        <ele>219.4</ele>
        <time>2022-02-26T12:13:21Z</time>
      </trkpt>
      <trkpt lat="46.52375" lon="5.37099">
        <ele>218.2</ele>
        <time>2022-02-26T12:13:25Z</time>
      </trkpt>
      <trkpt lat="46.52394" lon="5.37077">
        <ele>217.6</ele>
        <time>2022-02-26T12:13:28Z</time>
      </trkpt>
      <trkpt lat="46.52404" lon="5.37063">
        <ele>217</ele>
        <time>2022-02-26T12:13:30Z</time>
      </trkpt>
      <trkpt lat="46.52408" lon="5.37055">
        <ele>216.8</ele>
        <time>2022-02-26T12:13:31Z</time>
      </trkpt>
      <trkpt lat="46.52417" lon="5.37039">
        <ele>216</ele>
        <time>2022-02-26T12:13:33Z</time>
      </trkpt>
      <trkpt lat="46.52425" lon="5.37025">
        <ele>215.4</ele>
        <time>2022-02-26T12:13:35Z</time>
      </trkpt>
      <trkpt lat="46.52429" lon="5.37021">
        <ele>215.4</ele>
        <time>2022-02-26T12:13:36Z</time>
      </trkpt>
      <trkpt lat="46.52434" lon="5.3702">
        <ele>215.4</ele>
        <time>2022-02-26T12:13:37Z</time>
      </trkpt>
      <trkpt lat="46.52438" lon="5.37022">
        <ele>215.4</ele>
        <time>2022-02-26T12:13:38Z</time>
      </trkpt>
      <trkpt lat="46.52443" lon="5.37035">
        <ele>215.4</ele>
        <time>2022-02-26T12:13:40Z</time>
      </trkpt>
      <trkpt lat="46.52444" lon="5.37043">
        <ele>215.4</ele>
        <time>2022-02-26T12:13:41Z</time>
      </trkpt>
      <trkpt lat="46.5245" lon="5.3707">
        <ele>215.8</ele>
        <time>2022-02-26T12:13:44Z</time>
      </trkpt>
      <trkpt lat="46.52457" lon="5.37087">
        <ele>216</ele>
        <time>2022-02-26T12:13:46Z</time>
      </trkpt>
      <trkpt lat="46.5248" lon="5.37133">
        <ele>216</ele>
        <time>2022-02-26T12:13:52Z</time>
      </trkpt>
      <trkpt lat="46.52509" lon="5.37169">
        <ele>216.6</ele>
        <time>2022-02-26T12:13:58Z</time>
      </trkpt>
      <trkpt lat="46.52523" lon="5.37186">
        <ele>216.6</ele>
        <time>2022-02-26T12:14:01Z</time>
      </trkpt>
      <trkpt lat="46.52541" lon="5.37213">
        <ele>216.8</ele>
        <time>2022-02-26T12:14:05Z</time>
      </trkpt>
      <trkpt lat="46.52548" lon="5.37226">
        <ele>217</ele>
        <time>2022-02-26T12:14:07Z</time>
      </trkpt>
      <trkpt lat="46.52556" lon="5.37249">
        <ele>217.2</ele>
        <time>2022-02-26T12:14:10Z</time>
      </trkpt>
      <trkpt lat="46.52558" lon="5.37257">
        <ele>217.4</ele>
        <time>2022-02-26T12:14:11Z</time>
      </trkpt>
      <trkpt lat="46.52565" lon="5.37309">
        <ele>217.2</ele>
        <time>2022-02-26T12:14:18Z</time>
      </trkpt>
      <trkpt lat="46.52563" lon="5.37377">
        <ele>217.2</ele>
        <time>2022-02-26T12:14:25Z</time>
      </trkpt>
      <trkpt lat="46.52558" lon="5.37443">
        <ele>218</ele>
        <time>2022-02-26T12:14:33Z</time>
      </trkpt>
      <trkpt lat="46.52558" lon="5.37449">
        <ele>218</ele>
        <time>2022-02-26T12:14:34Z</time>
      </trkpt>
      <trkpt lat="46.52553" lon="5.37504">
        <ele>218.8</ele>
        <time>2022-02-26T12:14:41Z</time>
      </trkpt>
      <trkpt lat="46.52552" lon="5.37511">
        <ele>219</ele>
        <time>2022-02-26T12:14:42Z</time>
      </trkpt>
      <trkpt lat="46.52545" lon="5.37576">
        <ele>219.2</ele>
        <time>2022-02-26T12:14:50Z</time>
      </trkpt>
      <trkpt lat="46.52537" lon="5.37658">
        <ele>218.8</ele>
        <time>2022-02-26T12:15:00Z</time>
      </trkpt>
      <trkpt lat="46.52536" lon="5.37665">
        <ele>218.8</ele>
        <time>2022-02-26T12:15:01Z</time>
      </trkpt>
      <trkpt lat="46.52531" lon="5.37747">
        <ele>219.2</ele>
        <time>2022-02-26T12:15:11Z</time>
      </trkpt>
      <trkpt lat="46.52525" lon="5.37837">
        <ele>219.4</ele>
        <time>2022-02-26T12:15:22Z</time>
      </trkpt>
      <trkpt lat="46.52521" lon="5.37901">
        <ele>220</ele>
        <time>2022-02-26T12:15:30Z</time>
      </trkpt>
      <trkpt lat="46.5252" lon="5.37909">
        <ele>220</ele>
        <time>2022-02-26T12:15:31Z</time>
      </trkpt>
      <trkpt lat="46.5252" lon="5.37917">
        <ele>220</ele>
        <time>2022-02-26T12:15:32Z</time>
      </trkpt>
      <trkpt lat="46.5252" lon="5.3795">
        <ele>220</ele>
        <time>2022-02-26T12:15:36Z</time>
      </trkpt>
      <trkpt lat="46.52521" lon="5.37958">
        <ele>220.2</ele>
        <time>2022-02-26T12:15:37Z</time>
      </trkpt>
      <trkpt lat="46.52532" lon="5.37999">
        <ele>220.8</ele>
        <time>2022-02-26T12:15:43Z</time>
      </trkpt>
      <trkpt lat="46.52536" lon="5.38015">
        <ele>221</ele>
        <time>2022-02-26T12:15:45Z</time>
      </trkpt>
      <trkpt lat="46.52538" lon="5.38022">
        <ele>221.2</ele>
        <time>2022-02-26T12:15:46Z</time>
      </trkpt>
      <trkpt lat="46.52542" lon="5.38044">
        <ele>221.4</ele>
        <time>2022-02-26T12:15:49Z</time>
      </trkpt>
      <trkpt lat="46.52545" lon="5.38082">
        <ele>221.8</ele>
        <time>2022-02-26T12:15:54Z</time>
      </trkpt>
      <trkpt lat="46.52545" lon="5.38095">
        <ele>222</ele>
        <time>2022-02-26T12:15:56Z</time>
      </trkpt>
      <trkpt lat="46.52544" lon="5.38111">
        <ele>222.2</ele>
        <time>2022-02-26T12:15:58Z</time>
      </trkpt>
      <trkpt lat="46.52543" lon="5.38126">
        <ele>222.2</ele>
        <time>2022-02-26T12:16:00Z</time>
      </trkpt>
      <trkpt lat="46.5254" lon="5.38141">
        <ele>222.4</ele>
        <time>2022-02-26T12:16:02Z</time>
      </trkpt>
      <trkpt lat="46.52525" lon="5.38205">
        <ele>222.8</ele>
        <time>2022-02-26T12:16:12Z</time>
      </trkpt>
      <trkpt lat="46.52521" lon="5.3822">
        <ele>223</ele>
        <time>2022-02-26T12:16:13Z</time>
      </trkpt>
      <trkpt lat="46.5252" lon="5.38226">
        <ele>223.2</ele>
        <time>2022-02-26T12:16:14Z</time>
      </trkpt>
      <trkpt lat="46.52515" lon="5.38253">
        <ele>224.2</ele>
        <time>2022-02-26T12:16:18Z</time>
      </trkpt>
      <trkpt lat="46.52514" lon="5.38267">
        <ele>224.4</ele>
        <time>2022-02-26T12:16:20Z</time>
      </trkpt>
      <trkpt lat="46.52515" lon="5.38303">
        <ele>225</ele>
        <time>2022-02-26T12:16:25Z</time>
      </trkpt>
      <trkpt lat="46.52518" lon="5.38331">
        <ele>225.8</ele>
        <time>2022-02-26T12:16:29Z</time>
      </trkpt>
      <trkpt lat="46.52521" lon="5.38352">
        <ele>226.4</ele>
        <time>2022-02-26T12:16:32Z</time>
      </trkpt>
      <trkpt lat="46.52524" lon="5.38376">
        <ele>227</ele>
        <time>2022-02-26T12:16:36Z</time>
      </trkpt>
      <trkpt lat="46.52525" lon="5.38389">
        <ele>227.4</ele>
        <time>2022-02-26T12:16:38Z</time>
      </trkpt>
      <trkpt lat="46.52524" lon="5.38394">
        <ele>227.6</ele>
        <time>2022-02-26T12:16:39Z</time>
      </trkpt>
      <trkpt lat="46.52524" lon="5.38404">
        <ele>228</ele>
        <time>2022-02-26T12:16:41Z</time>
      </trkpt>
      <trkpt lat="46.52524" lon="5.38415">
        <ele>228.8</ele>
        <time>2022-02-26T12:16:43Z</time>
      </trkpt>
      <trkpt lat="46.52525" lon="5.38422">
        <ele>228.8</ele>
        <time>2022-02-26T12:16:44Z</time>
      </trkpt>
      <trkpt lat="46.52526" lon="5.3843">
        <ele>229</ele>
        <time>2022-02-26T12:16:45Z</time>
      </trkpt>
      <trkpt lat="46.52528" lon="5.38439">
        <ele>229</ele>
        <time>2022-02-26T12:16:46Z</time>
      </trkpt>
      <trkpt lat="46.52533" lon="5.38452">
        <ele>229.2</ele>
        <time>2022-02-26T12:16:48Z</time>
      </trkpt>
      <trkpt lat="46.52542" lon="5.38466">
        <ele>229.2</ele>
        <time>2022-02-26T12:16:50Z</time>
      </trkpt>
      <trkpt lat="46.52552" lon="5.38476">
        <ele>229.2</ele>
        <time>2022-02-26T12:16:52Z</time>
      </trkpt>
      <trkpt lat="46.52562" lon="5.38484">
        <ele>229.2</ele>
        <time>2022-02-26T12:16:54Z</time>
      </trkpt>
      <trkpt lat="46.5258" lon="5.38494">
        <ele>228.8</ele>
        <time>2022-02-26T12:16:57Z</time>
      </trkpt>
      <trkpt lat="46.526" lon="5.38501">
        <ele>228.4</ele>
        <time>2022-02-26T12:17:00Z</time>
      </trkpt>
      <trkpt lat="46.52619" lon="5.38505">
        <ele>228</ele>
        <time>2022-02-26T12:17:03Z</time>
      </trkpt>
      <trkpt lat="46.52631" lon="5.38508">
        <ele>227.8</ele>
        <time>2022-02-26T12:17:05Z</time>
      </trkpt>
      <trkpt lat="46.52661" lon="5.38512">
        <ele>227</ele>
        <time>2022-02-26T12:17:10Z</time>
      </trkpt>
      <trkpt lat="46.5271" lon="5.38524">
        <ele>226</ele>
        <time>2022-02-26T12:17:18Z</time>
      </trkpt>
      <trkpt lat="46.52715" lon="5.38527">
        <ele>226</ele>
        <time>2022-02-26T12:17:19Z</time>
      </trkpt>
      <trkpt lat="46.5272" lon="5.3853">
        <ele>225.8</ele>
        <time>2022-02-26T12:17:20Z</time>
      </trkpt>
      <trkpt lat="46.52732" lon="5.38536">
        <ele>226</ele>
        <time>2022-02-26T12:17:22Z</time>
      </trkpt>
      <trkpt lat="46.52743" lon="5.38538">
        <ele>226</ele>
        <time>2022-02-26T12:17:24Z</time>
      </trkpt>
      <trkpt lat="46.52768" lon="5.38533">
        <ele>225.8</ele>
        <time>2022-02-26T12:17:28Z</time>
      </trkpt>
      <trkpt lat="46.52787" lon="5.38541">
        <ele>225.4</ele>
        <time>2022-02-26T12:17:31Z</time>
      </trkpt>
      <trkpt lat="46.52796" lon="5.38563">
        <ele>225</ele>
        <time>2022-02-26T12:17:34Z</time>
      </trkpt>
      <trkpt lat="46.52804" lon="5.38577">
        <ele>224.8</ele>
        <time>2022-02-26T12:17:36Z</time>
      </trkpt>
      <trkpt lat="46.52813" lon="5.38589">
        <ele>224.6</ele>
        <time>2022-02-26T12:17:38Z</time>
      </trkpt>
      <trkpt lat="46.52818" lon="5.38593">
        <ele>224.6</ele>
        <time>2022-02-26T12:17:39Z</time>
      </trkpt>
      <trkpt lat="46.52829" lon="5.38599">
        <ele>224.4</ele>
        <time>2022-02-26T12:17:41Z</time>
      </trkpt>
      <trkpt lat="46.52835" lon="5.38601">
        <ele>224.4</ele>
        <time>2022-02-26T12:17:42Z</time>
      </trkpt>
      <trkpt lat="46.52878" lon="5.38612">
        <ele>225.2</ele>
        <time>2022-02-26T12:17:50Z</time>
      </trkpt>
      <trkpt lat="46.529" lon="5.38617">
        <ele>225.8</ele>
        <time>2022-02-26T12:17:55Z</time>
      </trkpt>
      <trkpt lat="46.5291" lon="5.3862">
        <ele>226.4</ele>
        <time>2022-02-26T12:17:59Z</time>
      </trkpt>
      <trkpt lat="46.52916" lon="5.38617">
        <ele>227.2</ele>
        <time>2022-02-26T12:18:01Z</time>
      </trkpt>
      <trkpt lat="46.52923" lon="5.38613">
        <ele>227.8</ele>
        <time>2022-02-26T12:18:03Z</time>
      </trkpt>
      <trkpt lat="46.52941" lon="5.38609">
        <ele>228.2</ele>
        <time>2022-02-26T12:18:07Z</time>
      </trkpt>
      <trkpt lat="46.52954" lon="5.38608">
        <ele>228.6</ele>
        <time>2022-02-26T12:18:10Z</time>
      </trkpt>
      <trkpt lat="46.52983" lon="5.38615">
        <ele>229.2</ele>
        <time>2022-02-26T12:18:17Z</time>
      </trkpt>
      <trkpt lat="46.53009" lon="5.38617">
        <ele>230.4</ele>
        <time>2022-02-26T12:18:24Z</time>
      </trkpt>
      <trkpt lat="46.53016" lon="5.38616">
        <ele>230.8</ele>
        <time>2022-02-26T12:18:26Z</time>
      </trkpt>
      <trkpt lat="46.53028" lon="5.38614">
        <ele>231.6</ele>
        <time>2022-02-26T12:18:29Z</time>
      </trkpt>
      <trkpt lat="46.53044" lon="5.38609">
        <ele>232</ele>
        <time>2022-02-26T12:18:33Z</time>
      </trkpt>
      <trkpt lat="46.53067" lon="5.38603">
        <ele>232.6</ele>
        <time>2022-02-26T12:18:39Z</time>
      </trkpt>
      <trkpt lat="46.53082" lon="5.38599">
        <ele>233</ele>
        <time>2022-02-26T12:18:43Z</time>
      </trkpt>
      <trkpt lat="46.53097" lon="5.38593">
        <ele>233.8</ele>
        <time>2022-02-26T12:18:47Z</time>
      </trkpt>
      <trkpt lat="46.53112" lon="5.38591">
        <ele>234.4</ele>
        <time>2022-02-26T12:18:51Z</time>
      </trkpt>
      <trkpt lat="46.53116" lon="5.38591">
        <ele>234.6</ele>
        <time>2022-02-26T12:18:52Z</time>
      </trkpt>
      <trkpt lat="46.5312" lon="5.38594">
        <ele>234.8</ele>
        <time>2022-02-26T12:18:54Z</time>
      </trkpt>
      <trkpt lat="46.53122" lon="5.38605">
        <ele>234.8</ele>
        <time>2022-02-26T12:18:55Z</time>
      </trkpt>
      <trkpt lat="46.53121" lon="5.38611">
        <ele>235</ele>
        <time>2022-02-26T12:18:56Z</time>
      </trkpt>
      <trkpt lat="46.53114" lon="5.38653">
        <ele>235</ele>
        <time>2022-02-26T12:19:02Z</time>
      </trkpt>
      <trkpt lat="46.53103" lon="5.38721">
        <ele>234.6</ele>
        <time>2022-02-26T12:19:11Z</time>
      </trkpt>
      <trkpt lat="46.53085" lon="5.38801">
        <ele>234.8</ele>
        <time>2022-02-26T12:19:22Z</time>
      </trkpt>
      <trkpt lat="46.53078" lon="5.3882">
        <ele>235.6</ele>
        <time>2022-02-26T12:19:26Z</time>
      </trkpt>
      <trkpt lat="46.53073" lon="5.38836">
        <ele>235.8</ele>
        <time>2022-02-26T12:19:28Z</time>
      </trkpt>
      <trkpt lat="46.53068" lon="5.38858">
        <ele>236.8</ele>
        <time>2022-02-26T12:19:32Z</time>
      </trkpt>
      <trkpt lat="46.53067" lon="5.38874">
        <ele>237.8</ele>
        <time>2022-02-26T12:19:35Z</time>
      </trkpt>
      <trkpt lat="46.53066" lon="5.38892">
        <ele>239</ele>
        <time>2022-02-26T12:19:39Z</time>
      </trkpt>
      <trkpt lat="46.53064" lon="5.38906">
        <ele>240</ele>
        <time>2022-02-26T12:19:42Z</time>
      </trkpt>
      <trkpt lat="46.53063" lon="5.38927">
        <ele>241.2</ele>
        <time>2022-02-26T12:19:47Z</time>
      </trkpt>
      <trkpt lat="46.53061" lon="5.38941">
        <ele>241.6</ele>
        <time>2022-02-26T12:19:50Z</time>
      </trkpt>
      <trkpt lat="46.5306" lon="5.3895">
        <ele>242.4</ele>
        <time>2022-02-26T12:19:52Z</time>
      </trkpt>
      <trkpt lat="46.53059" lon="5.38966">
        <ele>243.4</ele>
        <time>2022-02-26T12:19:56Z</time>
      </trkpt>
      <trkpt lat="46.53059" lon="5.38975">
        <ele>244.2</ele>
        <time>2022-02-26T12:19:58Z</time>
      </trkpt>
      <trkpt lat="46.53059" lon="5.38983">
        <ele>244.6</ele>
        <time>2022-02-26T12:20:00Z</time>
      </trkpt>
      <trkpt lat="46.5306" lon="5.39">
        <ele>245.8</ele>
        <time>2022-02-26T12:20:04Z</time>
      </trkpt>
      <trkpt lat="46.5306" lon="5.39004">
        <ele>246.2</ele>
        <time>2022-02-26T12:20:05Z</time>
      </trkpt>
      <trkpt lat="46.53062" lon="5.39012">
        <ele>247</ele>
        <time>2022-02-26T12:20:07Z</time>
      </trkpt>
      <trkpt lat="46.5306" lon="5.3903">
        <ele>248</ele>
        <time>2022-02-26T12:20:11Z</time>
      </trkpt>
      <trkpt lat="46.5306" lon="5.39043">
        <ele>249</ele>
        <time>2022-02-26T12:20:15Z</time>
      </trkpt>
      <trkpt lat="46.5306" lon="5.39046">
        <ele>249.2</ele>
        <time>2022-02-26T12:20:16Z</time>
      </trkpt>
      <trkpt lat="46.53059" lon="5.39049">
        <ele>249.4</ele>
        <time>2022-02-26T12:20:17Z</time>
      </trkpt>
      <trkpt lat="46.53057" lon="5.39058">
        <ele>250.4</ele>
        <time>2022-02-26T12:20:20Z</time>
      </trkpt>
      <trkpt lat="46.53056" lon="5.3906">
        <ele>251</ele>
        <time>2022-02-26T12:20:21Z</time>
      </trkpt>
      <trkpt lat="46.53054" lon="5.39064">
        <ele>251.6</ele>
        <time>2022-02-26T12:20:23Z</time>
      </trkpt>
      <trkpt lat="46.53053" lon="5.39066">
        <ele>252.6</ele>
        <time>2022-02-26T12:20:27Z</time>
      </trkpt>
      <trkpt lat="46.53052" lon="5.39073">
        <ele>253.2</ele>
        <time>2022-02-26T12:20:37Z</time>
      </trkpt>
      <trkpt lat="46.53055" lon="5.39077">
        <ele>253.2</ele>
        <time>2022-02-26T12:20:39Z</time>
      </trkpt>
      <trkpt lat="46.53068" lon="5.39082">
        <ele>253.2</ele>
        <time>2022-02-26T12:20:44Z</time>
      </trkpt>
      <trkpt lat="46.53069" lon="5.39085">
        <ele>253.2</ele>
        <time>2022-02-26T12:20:45Z</time>
      </trkpt>
      <trkpt lat="46.53069" lon="5.39093">
        <ele>253.4</ele>
        <time>2022-02-26T12:20:47Z</time>
      </trkpt>
      <trkpt lat="46.53067" lon="5.39103">
        <ele>253.4</ele>
        <time>2022-02-26T12:20:50Z</time>
      </trkpt>
      <trkpt lat="46.53069" lon="5.39108">
        <ele>253.6</ele>
        <time>2022-02-26T12:20:52Z</time>
      </trkpt>
      <trkpt lat="46.5307" lon="5.3911">
        <ele>253.6</ele>
        <time>2022-02-26T12:20:53Z</time>
      </trkpt>
      <trkpt lat="46.5307" lon="5.39111">
        <ele>253.6</ele>
        <time>2022-02-26T12:20:55Z</time>
      </trkpt>
      <trkpt lat="46.53071" lon="5.39111">
        <ele>254</ele>
        <time>2022-02-26T12:20:57Z</time>
      </trkpt>
      <trkpt lat="46.53071" lon="5.39111">
        <ele>254</ele>
        <time>2022-02-26T12:20:58Z</time>
      </trkpt>
      <trkpt lat="46.53066" lon="5.39108">
        <ele>254.8</ele>
        <time>2022-02-26T12:22:47Z</time>
      </trkpt>
      <trkpt lat="46.53063" lon="5.39105">
        <ele>254.8</ele>
        <time>2022-02-26T12:22:49Z</time>
      </trkpt>
      <trkpt lat="46.53059" lon="5.39103">
        <ele>254.6</ele>
        <time>2022-02-26T12:22:52Z</time>
      </trkpt>
      <trkpt lat="46.53058" lon="5.39102">
        <ele>254.2</ele>
        <time>2022-02-26T12:22:54Z</time>
      </trkpt>
      <trkpt lat="46.53058" lon="5.39102">
        <ele>254.2</ele>
        <time>2022-02-26T12:22:55Z</time>
      </trkpt>
      <trkpt lat="46.5307" lon="5.39099">
        <ele>256.4</ele>
        <time>2022-02-26T12:33:39Z</time>
      </trkpt>
      <trkpt lat="46.53076" lon="5.39099">
        <ele>255.8</ele>
        <time>2022-02-26T12:33:41Z</time>
      </trkpt>
      <trkpt lat="46.53082" lon="5.391">
        <ele>256</ele>
        <time>2022-02-26T12:33:43Z</time>
      </trkpt>
      <trkpt lat="46.531" lon="5.39101">
        <ele>256.2</ele>
        <time>2022-02-26T12:33:47Z</time>
      </trkpt>
      <trkpt lat="46.53119" lon="5.39107">
        <ele>256.8</ele>
        <time>2022-02-26T12:33:52Z</time>
      </trkpt>
      <trkpt lat="46.53133" lon="5.39113">
        <ele>257</ele>
        <time>2022-02-26T12:33:55Z</time>
      </trkpt>
      <trkpt lat="46.53143" lon="5.39118">
        <ele>257</ele>
        <time>2022-02-26T12:33:58Z</time>
      </trkpt>
      <trkpt lat="46.53165" lon="5.3913">
        <ele>257.4</ele>
        <time>2022-02-26T12:34:03Z</time>
      </trkpt>
      <trkpt lat="46.5317" lon="5.39132">
        <ele>257.4</ele>
        <time>2022-02-26T12:34:04Z</time>
      </trkpt>
      <trkpt lat="46.53182" lon="5.39138">
        <ele>257.8</ele>
        <time>2022-02-26T12:34:07Z</time>
      </trkpt>
      <trkpt lat="46.53187" lon="5.39141">
        <ele>257.8</ele>
        <time>2022-02-26T12:34:08Z</time>
      </trkpt>
      <trkpt lat="46.5322" lon="5.3916">
        <ele>257.6</ele>
        <time>2022-02-26T12:34:16Z</time>
      </trkpt>
      <trkpt lat="46.53238" lon="5.3917">
        <ele>257.6</ele>
        <time>2022-02-26T12:34:20Z</time>
      </trkpt>
      <trkpt lat="46.53252" lon="5.39178">
        <ele>257.8</ele>
        <time>2022-02-26T12:34:23Z</time>
      </trkpt>
      <trkpt lat="46.53277" lon="5.39192">
        <ele>258</ele>
        <time>2022-02-26T12:34:29Z</time>
      </trkpt>
      <trkpt lat="46.53282" lon="5.39196">
        <ele>258</ele>
        <time>2022-02-26T12:34:30Z</time>
      </trkpt>
      <trkpt lat="46.53307" lon="5.39211">
        <ele>258.2</ele>
        <time>2022-02-26T12:34:36Z</time>
      </trkpt>
      <trkpt lat="46.53336" lon="5.39228">
        <ele>258.6</ele>
        <time>2022-02-26T12:34:42Z</time>
      </trkpt>
      <trkpt lat="46.53343" lon="5.39232">
        <ele>259</ele>
        <time>2022-02-26T12:34:44Z</time>
      </trkpt>
      <trkpt lat="46.53347" lon="5.39235">
        <ele>259.2</ele>
        <time>2022-02-26T12:34:45Z</time>
      </trkpt>
      <trkpt lat="46.53355" lon="5.39235">
        <ele>259.4</ele>
        <time>2022-02-26T12:34:47Z</time>
      </trkpt>
      <trkpt lat="46.53358" lon="5.39231">
        <ele>259.4</ele>
        <time>2022-02-26T12:34:48Z</time>
      </trkpt>
      <trkpt lat="46.53361" lon="5.39226">
        <ele>259.4</ele>
        <time>2022-02-26T12:34:49Z</time>
      </trkpt>
      <trkpt lat="46.53366" lon="5.39209">
        <ele>259.4</ele>
        <time>2022-02-26T12:34:52Z</time>
      </trkpt>
      <trkpt lat="46.53377" lon="5.39174">
        <ele>258.8</ele>
        <time>2022-02-26T12:34:57Z</time>
      </trkpt>
      <trkpt lat="46.5339" lon="5.39134">
        <ele>258.2</ele>
        <time>2022-02-26T12:35:02Z</time>
      </trkpt>
      <trkpt lat="46.53395" lon="5.39116">
        <ele>257.8</ele>
        <time>2022-02-26T12:35:04Z</time>
      </trkpt>
      <trkpt lat="46.534" lon="5.39097">
        <ele>257.4</ele>
        <time>2022-02-26T12:35:06Z</time>
      </trkpt>
      <trkpt lat="46.53409" lon="5.39069">
        <ele>256.8</ele>
        <time>2022-02-26T12:35:09Z</time>
      </trkpt>
      <trkpt lat="46.53422" lon="5.3903">
        <ele>255.6</ele>
        <time>2022-02-26T12:35:13Z</time>
      </trkpt>
      <trkpt lat="46.53431" lon="5.39">
        <ele>254.4</ele>
        <time>2022-02-26T12:35:16Z</time>
      </trkpt>
      <trkpt lat="46.53434" lon="5.3899">
        <ele>253.8</ele>
        <time>2022-02-26T12:35:17Z</time>
      </trkpt>
      <trkpt lat="46.53443" lon="5.38961">
        <ele>253.2</ele>
        <time>2022-02-26T12:35:20Z</time>
      </trkpt>
      <trkpt lat="46.53459" lon="5.38906">
        <ele>252.2</ele>
        <time>2022-02-26T12:35:25Z</time>
      </trkpt>
      <trkpt lat="46.53462" lon="5.38895">
        <ele>252.2</ele>
        <time>2022-02-26T12:35:26Z</time>
      </trkpt>
      <trkpt lat="46.53476" lon="5.38852">
        <ele>251</ele>
        <time>2022-02-26T12:35:30Z</time>
      </trkpt>
      <trkpt lat="46.53479" lon="5.38842">
        <ele>250.6</ele>
        <time>2022-02-26T12:35:31Z</time>
      </trkpt>
      <trkpt lat="46.53486" lon="5.38821">
        <ele>249.6</ele>
        <time>2022-02-26T12:35:33Z</time>
      </trkpt>
      <trkpt lat="46.53494" lon="5.38787">
        <ele>248.4</ele>
        <time>2022-02-26T12:35:36Z</time>
      </trkpt>
      <trkpt lat="46.53496" lon="5.38776">
        <ele>248.2</ele>
        <time>2022-02-26T12:35:37Z</time>
      </trkpt>
      <trkpt lat="46.53498" lon="5.38766">
        <ele>247.8</ele>
        <time>2022-02-26T12:35:38Z</time>
      </trkpt>
      <trkpt lat="46.53507" lon="5.38751">
        <ele>247.6</ele>
        <time>2022-02-26T12:35:40Z</time>
      </trkpt>
      <trkpt lat="46.53514" lon="5.38749">
        <ele>247.2</ele>
        <time>2022-02-26T12:35:41Z</time>
      </trkpt>
      <trkpt lat="46.53521" lon="5.38749">
        <ele>247</ele>
        <time>2022-02-26T12:35:42Z</time>
      </trkpt>
      <trkpt lat="46.53529" lon="5.38753">
        <ele>246.8</ele>
        <time>2022-02-26T12:35:43Z</time>
      </trkpt>
      <trkpt lat="46.53536" lon="5.38758">
        <ele>246.6</ele>
        <time>2022-02-26T12:35:44Z</time>
      </trkpt>
      <trkpt lat="46.53541" lon="5.38764">
        <ele>246</ele>
        <time>2022-02-26T12:35:45Z</time>
      </trkpt>
      <trkpt lat="46.53544" lon="5.38771">
        <ele>246</ele>
        <time>2022-02-26T12:35:46Z</time>
      </trkpt>
      <trkpt lat="46.53556" lon="5.38795">
        <ele>245.6</ele>
        <time>2022-02-26T12:35:50Z</time>
      </trkpt>
      <trkpt lat="46.5356" lon="5.38799">
        <ele>245.6</ele>
        <time>2022-02-26T12:35:51Z</time>
      </trkpt>
      <trkpt lat="46.53564" lon="5.38803">
        <ele>245.6</ele>
        <time>2022-02-26T12:35:52Z</time>
      </trkpt>
      <trkpt lat="46.53579" lon="5.38815">
        <ele>246.2</ele>
        <time>2022-02-26T12:35:56Z</time>
      </trkpt>
      <trkpt lat="46.53601" lon="5.3883">
        <ele>247.2</ele>
        <time>2022-02-26T12:36:01Z</time>
      </trkpt>
      <trkpt lat="46.5361" lon="5.38835">
        <ele>247.4</ele>
        <time>2022-02-26T12:36:03Z</time>
      </trkpt>
      <trkpt lat="46.53614" lon="5.38838">
        <ele>247.4</ele>
        <time>2022-02-26T12:36:04Z</time>
      </trkpt>
      <trkpt lat="46.53645" lon="5.38855">
        <ele>247.8</ele>
        <time>2022-02-26T12:36:11Z</time>
      </trkpt>
      <trkpt lat="46.53683" lon="5.38873">
        <ele>247.8</ele>
        <time>2022-02-26T12:36:19Z</time>
      </trkpt>
      <trkpt lat="46.53695" lon="5.38878">
        <ele>247.8</ele>
        <time>2022-02-26T12:36:21Z</time>
      </trkpt>
      <trkpt lat="46.53726" lon="5.38891">
        <ele>247.6</ele>
        <time>2022-02-26T12:36:27Z</time>
      </trkpt>
      <trkpt lat="46.53779" lon="5.38908">
        <ele>247</ele>
        <time>2022-02-26T12:36:37Z</time>
      </trkpt>
      <trkpt lat="46.53833" lon="5.38926">
        <ele>246.4</ele>
        <time>2022-02-26T12:36:47Z</time>
      </trkpt>
      <trkpt lat="46.53859" lon="5.38936">
        <ele>246.8</ele>
        <time>2022-02-26T12:36:52Z</time>
      </trkpt>
      <trkpt lat="46.53876" lon="5.38938">
        <ele>247</ele>
        <time>2022-02-26T12:36:55Z</time>
      </trkpt>
      <trkpt lat="46.53924" lon="5.3894">
        <ele>246.6</ele>
        <time>2022-02-26T12:37:03Z</time>
      </trkpt>
      <trkpt lat="46.53943" lon="5.38941">
        <ele>246.2</ele>
        <time>2022-02-26T12:37:06Z</time>
      </trkpt>
      <trkpt lat="46.53979" lon="5.38945">
        <ele>245.6</ele>
        <time>2022-02-26T12:37:12Z</time>
      </trkpt>
      <trkpt lat="46.54026" lon="5.38958">
        <ele>245.4</ele>
        <time>2022-02-26T12:37:20Z</time>
      </trkpt>
      <trkpt lat="46.54037" lon="5.38961">
        <ele>245.4</ele>
        <time>2022-02-26T12:37:22Z</time>
      </trkpt>
      <trkpt lat="46.54078" lon="5.38978">
        <ele>245.4</ele>
        <time>2022-02-26T12:37:29Z</time>
      </trkpt>
      <trkpt lat="46.54124" lon="5.38996">
        <ele>245.2</ele>
        <time>2022-02-26T12:37:37Z</time>
      </trkpt>
      <trkpt lat="46.54129" lon="5.38998">
        <ele>245.2</ele>
        <time>2022-02-26T12:37:38Z</time>
      </trkpt>
      <trkpt lat="46.54182" lon="5.39018">
        <ele>244.6</ele>
        <time>2022-02-26T12:37:47Z</time>
      </trkpt>
      <trkpt lat="46.54187" lon="5.39021">
        <ele>244.6</ele>
        <time>2022-02-26T12:37:48Z</time>
      </trkpt>
      <trkpt lat="46.54235" lon="5.39044">
        <ele>244.2</ele>
        <time>2022-02-26T12:37:56Z</time>
      </trkpt>
      <trkpt lat="46.54258" lon="5.39056">
        <ele>243.8</ele>
        <time>2022-02-26T12:38:00Z</time>
      </trkpt>
      <trkpt lat="46.5431" lon="5.39084">
        <ele>243.6</ele>
        <time>2022-02-26T12:38:09Z</time>
      </trkpt>
      <trkpt lat="46.54315" lon="5.39087">
        <ele>243.6</ele>
        <time>2022-02-26T12:38:10Z</time>
      </trkpt>
      <trkpt lat="46.54371" lon="5.3911">
        <ele>244</ele>
        <time>2022-02-26T12:38:20Z</time>
      </trkpt>
      <trkpt lat="46.54387" lon="5.39116">
        <ele>244</ele>
        <time>2022-02-26T12:38:23Z</time>
      </trkpt>
      <trkpt lat="46.54406" lon="5.39125">
        <ele>243.8</ele>
        <time>2022-02-26T12:38:27Z</time>
      </trkpt>
      <trkpt lat="46.54428" lon="5.3913">
        <ele>244</ele>
        <time>2022-02-26T12:38:32Z</time>
      </trkpt>
      <trkpt lat="46.54432" lon="5.39131">
        <ele>244</ele>
        <time>2022-02-26T12:38:33Z</time>
      </trkpt>
      <trkpt lat="46.54463" lon="5.39141">
        <ele>245.4</ele>
        <time>2022-02-26T12:38:41Z</time>
      </trkpt>
      <trkpt lat="46.54475" lon="5.39148">
        <ele>246.6</ele>
        <time>2022-02-26T12:38:44Z</time>
      </trkpt>
      <trkpt lat="46.54486" lon="5.39153">
        <ele>247.6</ele>
        <time>2022-02-26T12:38:47Z</time>
      </trkpt>
      <trkpt lat="46.54493" lon="5.39154">
        <ele>248.4</ele>
        <time>2022-02-26T12:38:49Z</time>
      </trkpt>
      <trkpt lat="46.54499" lon="5.39149">
        <ele>249.2</ele>
        <time>2022-02-26T12:38:51Z</time>
      </trkpt>
      <trkpt lat="46.54501" lon="5.39145">
        <ele>249.4</ele>
        <time>2022-02-26T12:38:52Z</time>
      </trkpt>
      <trkpt lat="46.54502" lon="5.3914">
        <ele>250.4</ele>
        <time>2022-02-26T12:38:53Z</time>
      </trkpt>
      <trkpt lat="46.54507" lon="5.39124">
        <ele>251.8</ele>
        <time>2022-02-26T12:38:56Z</time>
      </trkpt>
      <trkpt lat="46.5451" lon="5.3912">
        <ele>251.8</ele>
        <time>2022-02-26T12:38:57Z</time>
      </trkpt>
      <trkpt lat="46.54519" lon="5.39119">
        <ele>252</ele>
        <time>2022-02-26T12:38:59Z</time>
      </trkpt>
      <trkpt lat="46.54524" lon="5.39121">
        <ele>252</ele>
        <time>2022-02-26T12:39:00Z</time>
      </trkpt>
      <trkpt lat="46.5455" lon="5.39136">
        <ele>250.8</ele>
        <time>2022-02-26T12:39:05Z</time>
      </trkpt>
      <trkpt lat="46.54556" lon="5.39139">
        <ele>250.6</ele>
        <time>2022-02-26T12:39:06Z</time>
      </trkpt>
      <trkpt lat="46.54561" lon="5.39142">
        <ele>250.2</ele>
        <time>2022-02-26T12:39:07Z</time>
      </trkpt>
      <trkpt lat="46.54578" lon="5.39151">
        <ele>249.6</ele>
        <time>2022-02-26T12:39:10Z</time>
      </trkpt>
      <trkpt lat="46.54595" lon="5.39159">
        <ele>248.6</ele>
        <time>2022-02-26T12:39:13Z</time>
      </trkpt>
      <trkpt lat="46.54601" lon="5.39162">
        <ele>248.4</ele>
        <time>2022-02-26T12:39:14Z</time>
      </trkpt>
      <trkpt lat="46.5464" lon="5.3918">
        <ele>247.6</ele>
        <time>2022-02-26T12:39:21Z</time>
      </trkpt>
      <trkpt lat="46.54655" lon="5.39187">
        <ele>247.4</ele>
        <time>2022-02-26T12:39:24Z</time>
      </trkpt>
      <trkpt lat="46.54695" lon="5.39206">
        <ele>247</ele>
        <time>2022-02-26T12:39:32Z</time>
      </trkpt>
      <trkpt lat="46.54747" lon="5.39232">
        <ele>246.8</ele>
        <time>2022-02-26T12:39:42Z</time>
      </trkpt>
      <trkpt lat="46.54753" lon="5.39235">
        <ele>246.6</ele>
        <time>2022-02-26T12:39:43Z</time>
      </trkpt>
      <trkpt lat="46.5477" lon="5.39243">
        <ele>246.4</ele>
        <time>2022-02-26T12:39:46Z</time>
      </trkpt>
      <trkpt lat="46.54816" lon="5.39266">
        <ele>246.2</ele>
        <time>2022-02-26T12:39:54Z</time>
      </trkpt>
      <trkpt lat="46.54853" lon="5.39284">
        <ele>245.2</ele>
        <time>2022-02-26T12:40:00Z</time>
      </trkpt>
      <trkpt lat="46.54866" lon="5.39289">
        <ele>244.8</ele>
        <time>2022-02-26T12:40:02Z</time>
      </trkpt>
      <trkpt lat="46.54887" lon="5.39297">
        <ele>244</ele>
        <time>2022-02-26T12:40:05Z</time>
      </trkpt>
      <trkpt lat="46.54901" lon="5.39302">
        <ele>242.8</ele>
        <time>2022-02-26T12:40:07Z</time>
      </trkpt>
      <trkpt lat="46.54909" lon="5.39304">
        <ele>242.6</ele>
        <time>2022-02-26T12:40:08Z</time>
      </trkpt>
      <trkpt lat="46.54916" lon="5.39307">
        <ele>241.8</ele>
        <time>2022-02-26T12:40:09Z</time>
      </trkpt>
      <trkpt lat="46.54931" lon="5.39311">
        <ele>240.4</ele>
        <time>2022-02-26T12:40:11Z</time>
      </trkpt>
      <trkpt lat="46.54954" lon="5.39319">
        <ele>239.2</ele>
        <time>2022-02-26T12:40:14Z</time>
      </trkpt>
      <trkpt lat="46.5497" lon="5.39326">
        <ele>238.2</ele>
        <time>2022-02-26T12:40:16Z</time>
      </trkpt>
      <trkpt lat="46.54977" lon="5.39329">
        <ele>238</ele>
        <time>2022-02-26T12:40:17Z</time>
      </trkpt>
      <trkpt lat="46.54985" lon="5.39333">
        <ele>236.6</ele>
        <time>2022-02-26T12:40:18Z</time>
      </trkpt>
      <trkpt lat="46.54998" lon="5.39339">
        <ele>235.4</ele>
        <time>2022-02-26T12:40:20Z</time>
      </trkpt>
      <trkpt lat="46.5501" lon="5.39347">
        <ele>235</ele>
        <time>2022-02-26T12:40:22Z</time>
      </trkpt>
      <trkpt lat="46.55033" lon="5.39362">
        <ele>235.4</ele>
        <time>2022-02-26T12:40:27Z</time>
      </trkpt>
      <trkpt lat="46.5504" lon="5.39368">
        <ele>236.4</ele>
        <time>2022-02-26T12:40:29Z</time>
      </trkpt>
      <trkpt lat="46.55053" lon="5.39376">
        <ele>237.8</ele>
        <time>2022-02-26T12:40:32Z</time>
      </trkpt>
      <trkpt lat="46.55069" lon="5.39385">
        <ele>239</ele>
        <time>2022-02-26T12:40:36Z</time>
      </trkpt>
      <trkpt lat="46.55089" lon="5.39394">
        <ele>240.2</ele>
        <time>2022-02-26T12:40:41Z</time>
      </trkpt>
      <trkpt lat="46.55107" lon="5.39402">
        <ele>241.4</ele>
        <time>2022-02-26T12:40:45Z</time>
      </trkpt>
      <trkpt lat="46.55152" lon="5.39422">
        <ele>242.4</ele>
        <time>2022-02-26T12:40:55Z</time>
      </trkpt>
      <trkpt lat="46.55193" lon="5.3943">
        <ele>242</ele>
        <time>2022-02-26T12:41:03Z</time>
      </trkpt>
      <trkpt lat="46.55214" lon="5.39432">
        <ele>241.4</ele>
        <time>2022-02-26T12:41:07Z</time>
      </trkpt>
      <trkpt lat="46.55223" lon="5.39437">
        <ele>241.2</ele>
        <time>2022-02-26T12:41:09Z</time>
      </trkpt>
      <trkpt lat="46.55227" lon="5.39441">
        <ele>241.2</ele>
        <time>2022-02-26T12:41:10Z</time>
      </trkpt>
      <trkpt lat="46.5525" lon="5.3947">
        <ele>241.6</ele>
        <time>2022-02-26T12:41:16Z</time>
      </trkpt>
      <trkpt lat="46.5529" lon="5.39502">
        <ele>242</ele>
        <time>2022-02-26T12:41:25Z</time>
      </trkpt>
      <trkpt lat="46.55307" lon="5.39515">
        <ele>242.4</ele>
        <time>2022-02-26T12:41:29Z</time>
      </trkpt>
      <trkpt lat="46.5533" lon="5.39532">
        <ele>243</ele>
        <time>2022-02-26T12:41:34Z</time>
      </trkpt>
      <trkpt lat="46.55371" lon="5.39565">
        <ele>243.2</ele>
        <time>2022-02-26T12:41:43Z</time>
      </trkpt>
      <trkpt lat="46.55417" lon="5.39604">
        <ele>242.8</ele>
        <time>2022-02-26T12:41:52Z</time>
      </trkpt>
      <trkpt lat="46.5545" lon="5.39633">
        <ele>241.6</ele>
        <time>2022-02-26T12:41:58Z</time>
      </trkpt>
      <trkpt lat="46.55457" lon="5.39638">
        <ele>241.2</ele>
        <time>2022-02-26T12:41:59Z</time>
      </trkpt>
      <trkpt lat="46.55474" lon="5.39652">
        <ele>240.2</ele>
        <time>2022-02-26T12:42:02Z</time>
      </trkpt>
      <trkpt lat="46.55491" lon="5.39666">
        <ele>239</ele>
        <time>2022-02-26T12:42:05Z</time>
      </trkpt>
      <trkpt lat="46.55523" lon="5.39691">
        <ele>238.8</ele>
        <time>2022-02-26T12:42:11Z</time>
      </trkpt>
      <trkpt lat="46.55566" lon="5.39727">
        <ele>238.8</ele>
        <time>2022-02-26T12:42:19Z</time>
      </trkpt>
      <trkpt lat="46.55592" lon="5.39749">
        <ele>238</ele>
        <time>2022-02-26T12:42:24Z</time>
      </trkpt>
      <trkpt lat="46.55609" lon="5.39762">
        <ele>238</ele>
        <time>2022-02-26T12:42:27Z</time>
      </trkpt>
      <trkpt lat="46.55637" lon="5.39782">
        <ele>238.6</ele>
        <time>2022-02-26T12:42:33Z</time>
      </trkpt>
      <trkpt lat="46.55667" lon="5.39803">
        <ele>239.2</ele>
        <time>2022-02-26T12:42:40Z</time>
      </trkpt>
      <trkpt lat="46.55671" lon="5.39807">
        <ele>239.2</ele>
        <time>2022-02-26T12:42:41Z</time>
      </trkpt>
      <trkpt lat="46.55692" lon="5.39824">
        <ele>240.2</ele>
        <time>2022-02-26T12:42:46Z</time>
      </trkpt>
      <trkpt lat="46.55696" lon="5.39828">
        <ele>240.4</ele>
        <time>2022-02-26T12:42:47Z</time>
      </trkpt>
      <trkpt lat="46.55711" lon="5.3984">
        <ele>240.4</ele>
        <time>2022-02-26T12:42:50Z</time>
      </trkpt>
      <trkpt lat="46.55744" lon="5.39872">
        <ele>240</ele>
        <time>2022-02-26T12:42:56Z</time>
      </trkpt>
      <trkpt lat="46.55756" lon="5.39883">
        <ele>239.2</ele>
        <time>2022-02-26T12:42:58Z</time>
      </trkpt>
      <trkpt lat="46.55785" lon="5.39904">
        <ele>238</ele>
        <time>2022-02-26T12:43:03Z</time>
      </trkpt>
      <trkpt lat="46.5579" lon="5.39908">
        <ele>237.8</ele>
        <time>2022-02-26T12:43:04Z</time>
      </trkpt>
      <trkpt lat="46.55804" lon="5.3992">
        <ele>236.8</ele>
        <time>2022-02-26T12:43:08Z</time>
      </trkpt>
      <trkpt lat="46.55805" lon="5.39924">
        <ele>236.8</ele>
        <time>2022-02-26T12:43:09Z</time>
      </trkpt>
      <trkpt lat="46.55804" lon="5.39932">
        <ele>236.6</ele>
        <time>2022-02-26T12:43:11Z</time>
      </trkpt>
      <trkpt lat="46.55793" lon="5.39958">
        <ele>236.2</ele>
        <time>2022-02-26T12:43:16Z</time>
      </trkpt>
      <trkpt lat="46.55785" lon="5.39979">
        <ele>235.8</ele>
        <time>2022-02-26T12:43:19Z</time>
      </trkpt>
      <trkpt lat="46.55778" lon="5.40001">
        <ele>235.4</ele>
        <time>2022-02-26T12:43:22Z</time>
      </trkpt>
      <trkpt lat="46.55765" lon="5.40038">
        <ele>234.8</ele>
        <time>2022-02-26T12:43:27Z</time>
      </trkpt>
      <trkpt lat="46.55756" lon="5.40066">
        <ele>234.8</ele>
        <time>2022-02-26T12:43:31Z</time>
      </trkpt>
      <trkpt lat="46.55751" lon="5.40093">
        <ele>235.2</ele>
        <time>2022-02-26T12:43:35Z</time>
      </trkpt>
      <trkpt lat="46.55751" lon="5.401">
        <ele>235.2</ele>
        <time>2022-02-26T12:43:36Z</time>
      </trkpt>
      <trkpt lat="46.55752" lon="5.40106">
        <ele>235.4</ele>
        <time>2022-02-26T12:43:37Z</time>
      </trkpt>
      <trkpt lat="46.55757" lon="5.40116">
        <ele>235.6</ele>
        <time>2022-02-26T12:43:39Z</time>
      </trkpt>
      <trkpt lat="46.55766" lon="5.40122">
        <ele>235.8</ele>
        <time>2022-02-26T12:43:41Z</time>
      </trkpt>
      <trkpt lat="46.55777" lon="5.40126">
        <ele>235.8</ele>
        <time>2022-02-26T12:43:43Z</time>
      </trkpt>
      <trkpt lat="46.55807" lon="5.40138">
        <ele>234.4</ele>
        <time>2022-02-26T12:43:48Z</time>
      </trkpt>
      <trkpt lat="46.5582" lon="5.40146">
        <ele>233.6</ele>
        <time>2022-02-26T12:43:50Z</time>
      </trkpt>
      <trkpt lat="46.55838" lon="5.40159">
        <ele>232.6</ele>
        <time>2022-02-26T12:43:53Z</time>
      </trkpt>
      <trkpt lat="46.55844" lon="5.40164">
        <ele>232.4</ele>
        <time>2022-02-26T12:43:54Z</time>
      </trkpt>
      <trkpt lat="46.55888" lon="5.40192">
        <ele>231.6</ele>
        <time>2022-02-26T12:44:01Z</time>
      </trkpt>
      <trkpt lat="46.55933" lon="5.40221">
        <ele>232</ele>
        <time>2022-02-26T12:44:09Z</time>
      </trkpt>
      <trkpt lat="46.55956" lon="5.40239">
        <ele>232.4</ele>
        <time>2022-02-26T12:44:14Z</time>
      </trkpt>
      <trkpt lat="46.55976" lon="5.40254">
        <ele>233.8</ele>
        <time>2022-02-26T12:44:19Z</time>
      </trkpt>
      <trkpt lat="46.55983" lon="5.4026">
        <ele>234.2</ele>
        <time>2022-02-26T12:44:21Z</time>
      </trkpt>
      <trkpt lat="46.5599" lon="5.40266">
        <ele>234.8</ele>
        <time>2022-02-26T12:44:23Z</time>
      </trkpt>
      <trkpt lat="46.56005" lon="5.40278">
        <ele>236</ele>
        <time>2022-02-26T12:44:27Z</time>
      </trkpt>
      <trkpt lat="46.56018" lon="5.40289">
        <ele>237.2</ele>
        <time>2022-02-26T12:44:31Z</time>
      </trkpt>
      <trkpt lat="46.56022" lon="5.40291">
        <ele>237.6</ele>
        <time>2022-02-26T12:44:32Z</time>
      </trkpt>
      <trkpt lat="46.56036" lon="5.40302">
        <ele>238.4</ele>
        <time>2022-02-26T12:44:36Z</time>
      </trkpt>
      <trkpt lat="46.56047" lon="5.4031">
        <ele>239.6</ele>
        <time>2022-02-26T12:44:39Z</time>
      </trkpt>
      <trkpt lat="46.56067" lon="5.40325">
        <ele>240.4</ele>
        <time>2022-02-26T12:44:44Z</time>
      </trkpt>
      <trkpt lat="46.56072" lon="5.40327">
        <ele>240.4</ele>
        <time>2022-02-26T12:44:45Z</time>
      </trkpt>
      <trkpt lat="46.56089" lon="5.4033">
        <ele>240.4</ele>
        <time>2022-02-26T12:44:48Z</time>
      </trkpt>
      <trkpt lat="46.5612" lon="5.40337">
        <ele>240</ele>
        <time>2022-02-26T12:44:54Z</time>
      </trkpt>
      <trkpt lat="46.56128" lon="5.40345">
        <ele>240</ele>
        <time>2022-02-26T12:44:56Z</time>
      </trkpt>
      <trkpt lat="46.56134" lon="5.40354">
        <ele>240</ele>
        <time>2022-02-26T12:44:58Z</time>
      </trkpt>
      <trkpt lat="46.56138" lon="5.40366">
        <ele>241.2</ele>
        <time>2022-02-26T12:45:00Z</time>
      </trkpt>
      <trkpt lat="46.5614" lon="5.40378">
        <ele>241.6</ele>
        <time>2022-02-26T12:45:02Z</time>
      </trkpt>
      <trkpt lat="46.5614" lon="5.40384">
        <ele>241.4</ele>
        <time>2022-02-26T12:45:03Z</time>
      </trkpt>
      <trkpt lat="46.56139" lon="5.4039">
        <ele>241.6</ele>
        <time>2022-02-26T12:45:04Z</time>
      </trkpt>
      <trkpt lat="46.56136" lon="5.40401">
        <ele>242.2</ele>
        <time>2022-02-26T12:45:06Z</time>
      </trkpt>
      <trkpt lat="46.56134" lon="5.40407">
        <ele>242.4</ele>
        <time>2022-02-26T12:45:07Z</time>
      </trkpt>
      <trkpt lat="46.56114" lon="5.40457">
        <ele>243.4</ele>
        <time>2022-02-26T12:45:16Z</time>
      </trkpt>
      <trkpt lat="46.56107" lon="5.40475">
        <ele>243.6</ele>
        <time>2022-02-26T12:45:19Z</time>
      </trkpt>
      <trkpt lat="46.56091" lon="5.4053">
        <ele>244.2</ele>
        <time>2022-02-26T12:45:27Z</time>
      </trkpt>
      <trkpt lat="46.56076" lon="5.40577">
        <ele>244.6</ele>
        <time>2022-02-26T12:45:34Z</time>
      </trkpt>
      <trkpt lat="46.56063" lon="5.40616">
        <ele>245</ele>
        <time>2022-02-26T12:45:40Z</time>
      </trkpt>
      <trkpt lat="46.56044" lon="5.40671">
        <ele>245.6</ele>
        <time>2022-02-26T12:45:49Z</time>
      </trkpt>
      <trkpt lat="46.56036" lon="5.40693">
        <ele>246.2</ele>
        <time>2022-02-26T12:45:53Z</time>
      </trkpt>
      <trkpt lat="46.56034" lon="5.40698">
        <ele>246.4</ele>
        <time>2022-02-26T12:45:54Z</time>
      </trkpt>
      <trkpt lat="46.56031" lon="5.40703">
        <ele>246.6</ele>
        <time>2022-02-26T12:45:55Z</time>
      </trkpt>
      <trkpt lat="46.5602" lon="5.4073">
        <ele>247.6</ele>
        <time>2022-02-26T12:46:00Z</time>
      </trkpt>
      <trkpt lat="46.56017" lon="5.40735">
        <ele>247.8</ele>
        <time>2022-02-26T12:46:01Z</time>
      </trkpt>
      <trkpt lat="46.56014" lon="5.4074">
        <ele>247.8</ele>
        <time>2022-02-26T12:46:02Z</time>
      </trkpt>
      <trkpt lat="46.56007" lon="5.40748">
        <ele>248.4</ele>
        <time>2022-02-26T12:46:04Z</time>
      </trkpt>
      <trkpt lat="46.55999" lon="5.40754">
        <ele>248.8</ele>
        <time>2022-02-26T12:46:06Z</time>
      </trkpt>
      <trkpt lat="46.55995" lon="5.40755">
        <ele>249.2</ele>
        <time>2022-02-26T12:46:07Z</time>
      </trkpt>
      <trkpt lat="46.5599" lon="5.40756">
        <ele>249.8</ele>
        <time>2022-02-26T12:46:08Z</time>
      </trkpt>
      <trkpt lat="46.55986" lon="5.40756">
        <ele>249.8</ele>
        <time>2022-02-26T12:46:09Z</time>
      </trkpt>
      <trkpt lat="46.55981" lon="5.40757">
        <ele>250.2</ele>
        <time>2022-02-26T12:46:10Z</time>
      </trkpt>
      <trkpt lat="46.55972" lon="5.4076">
        <ele>250.4</ele>
        <time>2022-02-26T12:46:12Z</time>
      </trkpt>
      <trkpt lat="46.55958" lon="5.40767">
        <ele>251</ele>
        <time>2022-02-26T12:46:15Z</time>
      </trkpt>
      <trkpt lat="46.55929" lon="5.40779">
        <ele>251.4</ele>
        <time>2022-02-26T12:46:21Z</time>
      </trkpt>
      <trkpt lat="46.55893" lon="5.40779">
        <ele>252</ele>
        <time>2022-02-26T12:46:28Z</time>
      </trkpt>
      <trkpt lat="46.55874" lon="5.40779">
        <ele>252.8</ele>
        <time>2022-02-26T12:46:32Z</time>
      </trkpt>
      <trkpt lat="46.55864" lon="5.4078">
        <ele>253</ele>
        <time>2022-02-26T12:46:34Z</time>
      </trkpt>
      <trkpt lat="46.55859" lon="5.40781">
        <ele>253.2</ele>
        <time>2022-02-26T12:46:35Z</time>
      </trkpt>
      <trkpt lat="46.55823" lon="5.40786">
        <ele>253.6</ele>
        <time>2022-02-26T12:46:42Z</time>
      </trkpt>
      <trkpt lat="46.55819" lon="5.40787">
        <ele>253.6</ele>
        <time>2022-02-26T12:46:43Z</time>
      </trkpt>
      <trkpt lat="46.55814" lon="5.4079">
        <ele>253.6</ele>
        <time>2022-02-26T12:46:44Z</time>
      </trkpt>
      <trkpt lat="46.55807" lon="5.40801">
        <ele>253.6</ele>
        <time>2022-02-26T12:46:46Z</time>
      </trkpt>
      <trkpt lat="46.55792" lon="5.40847">
        <ele>254</ele>
        <time>2022-02-26T12:46:53Z</time>
      </trkpt>
      <trkpt lat="46.55782" lon="5.40873">
        <ele>254.2</ele>
        <time>2022-02-26T12:46:57Z</time>
      </trkpt>
      <trkpt lat="46.55776" lon="5.40892">
        <ele>254.4</ele>
        <time>2022-02-26T12:47:00Z</time>
      </trkpt>
      <trkpt lat="46.55768" lon="5.40912">
        <ele>255.2</ele>
        <time>2022-02-26T12:47:04Z</time>
      </trkpt>
      <trkpt lat="46.55765" lon="5.40917">
        <ele>256.4</ele>
        <time>2022-02-26T12:47:05Z</time>
      </trkpt>
      <trkpt lat="46.55761" lon="5.40927">
        <ele>257.4</ele>
        <time>2022-02-26T12:47:07Z</time>
      </trkpt>
      <trkpt lat="46.55757" lon="5.40936">
        <ele>258.6</ele>
        <time>2022-02-26T12:47:09Z</time>
      </trkpt>
      <trkpt lat="46.55754" lon="5.4094">
        <ele>259</ele>
        <time>2022-02-26T12:47:10Z</time>
      </trkpt>
      <trkpt lat="46.55749" lon="5.40948">
        <ele>259.6</ele>
        <time>2022-02-26T12:47:12Z</time>
      </trkpt>
      <trkpt lat="46.55746" lon="5.40951">
        <ele>259.6</ele>
        <time>2022-02-26T12:47:13Z</time>
      </trkpt>
      <trkpt lat="46.55727" lon="5.4097">
        <ele>260.8</ele>
        <time>2022-02-26T12:47:19Z</time>
      </trkpt>
      <trkpt lat="46.5572" lon="5.40973">
        <ele>261.2</ele>
        <time>2022-02-26T12:47:21Z</time>
      </trkpt>
      <trkpt lat="46.55709" lon="5.40976">
        <ele>262</ele>
        <time>2022-02-26T12:47:24Z</time>
      </trkpt>
      <trkpt lat="46.55693" lon="5.40976">
        <ele>262.6</ele>
        <time>2022-02-26T12:47:28Z</time>
      </trkpt>
      <trkpt lat="46.55681" lon="5.40978">
        <ele>263.2</ele>
        <time>2022-02-26T12:47:31Z</time>
      </trkpt>
      <trkpt lat="46.55677" lon="5.4098">
        <ele>263.2</ele>
        <time>2022-02-26T12:47:32Z</time>
      </trkpt>
      <trkpt lat="46.55673" lon="5.40982">
        <ele>263.4</ele>
        <time>2022-02-26T12:47:33Z</time>
      </trkpt>
      <trkpt lat="46.55667" lon="5.40988">
        <ele>263.8</ele>
        <time>2022-02-26T12:47:35Z</time>
      </trkpt>
      <trkpt lat="46.55658" lon="5.40999">
        <ele>264.2</ele>
        <time>2022-02-26T12:47:38Z</time>
      </trkpt>
      <trkpt lat="46.55653" lon="5.41007">
        <ele>264.6</ele>
        <time>2022-02-26T12:47:40Z</time>
      </trkpt>
      <trkpt lat="46.55642" lon="5.41019">
        <ele>265.4</ele>
        <time>2022-02-26T12:47:44Z</time>
      </trkpt>
      <trkpt lat="46.55636" lon="5.41023">
        <ele>265.8</ele>
        <time>2022-02-26T12:47:46Z</time>
      </trkpt>
      <trkpt lat="46.55627" lon="5.41029">
        <ele>267</ele>
        <time>2022-02-26T12:47:49Z</time>
      </trkpt>
      <trkpt lat="46.55619" lon="5.41034">
        <ele>268</ele>
        <time>2022-02-26T12:47:52Z</time>
      </trkpt>
      <trkpt lat="46.55616" lon="5.41036">
        <ele>268.4</ele>
        <time>2022-02-26T12:47:53Z</time>
      </trkpt>
      <trkpt lat="46.55609" lon="5.41045">
        <ele>269.4</ele>
        <time>2022-02-26T12:47:56Z</time>
      </trkpt>
      <trkpt lat="46.55607" lon="5.41049">
        <ele>269.4</ele>
        <time>2022-02-26T12:47:57Z</time>
      </trkpt>
      <trkpt lat="46.556" lon="5.4107">
        <ele>270.6</ele>
        <time>2022-02-26T12:48:02Z</time>
      </trkpt>
      <trkpt lat="46.55598" lon="5.41079">
        <ele>271.2</ele>
        <time>2022-02-26T12:48:04Z</time>
      </trkpt>
      <trkpt lat="46.55593" lon="5.41092">
        <ele>271.8</ele>
        <time>2022-02-26T12:48:07Z</time>
      </trkpt>
      <trkpt lat="46.55587" lon="5.41108">
        <ele>272.8</ele>
        <time>2022-02-26T12:48:11Z</time>
      </trkpt>
      <trkpt lat="46.55586" lon="5.41112">
        <ele>273</ele>
        <time>2022-02-26T12:48:12Z</time>
      </trkpt>
      <trkpt lat="46.55578" lon="5.41127">
        <ele>274</ele>
        <time>2022-02-26T12:48:16Z</time>
      </trkpt>
      <trkpt lat="46.55574" lon="5.41134">
        <ele>274.4</ele>
        <time>2022-02-26T12:48:18Z</time>
      </trkpt>
      <trkpt lat="46.55568" lon="5.41145">
        <ele>275</ele>
        <time>2022-02-26T12:48:21Z</time>
      </trkpt>
      <trkpt lat="46.55561" lon="5.41159">
        <ele>276.4</ele>
        <time>2022-02-26T12:48:25Z</time>
      </trkpt>
      <trkpt lat="46.55557" lon="5.41165">
        <ele>277</ele>
        <time>2022-02-26T12:48:27Z</time>
      </trkpt>
      <trkpt lat="46.55555" lon="5.41169">
        <ele>277.4</ele>
        <time>2022-02-26T12:48:28Z</time>
      </trkpt>
      <trkpt lat="46.55552" lon="5.4118">
        <ele>277.8</ele>
        <time>2022-02-26T12:48:31Z</time>
      </trkpt>
      <trkpt lat="46.55553" lon="5.41183">
        <ele>278.4</ele>
        <time>2022-02-26T12:48:32Z</time>
      </trkpt>
      <trkpt lat="46.55559" lon="5.41193">
        <ele>279.4</ele>
        <time>2022-02-26T12:48:35Z</time>
      </trkpt>
      <trkpt lat="46.55562" lon="5.41196">
        <ele>279.6</ele>
        <time>2022-02-26T12:48:36Z</time>
      </trkpt>
      <trkpt lat="46.55566" lon="5.412">
        <ele>279.8</ele>
        <time>2022-02-26T12:48:37Z</time>
      </trkpt>
      <trkpt lat="46.55569" lon="5.41203">
        <ele>280</ele>
        <time>2022-02-26T12:48:38Z</time>
      </trkpt>
      <trkpt lat="46.55576" lon="5.41211">
        <ele>280.2</ele>
        <time>2022-02-26T12:48:40Z</time>
      </trkpt>
      <trkpt lat="46.5558" lon="5.41215">
        <ele>280.4</ele>
        <time>2022-02-26T12:48:41Z</time>
      </trkpt>
      <trkpt lat="46.55584" lon="5.41219">
        <ele>280.4</ele>
        <time>2022-02-26T12:48:42Z</time>
      </trkpt>
      <trkpt lat="46.55592" lon="5.41228">
        <ele>280.6</ele>
        <time>2022-02-26T12:48:44Z</time>
      </trkpt>
      <trkpt lat="46.55596" lon="5.41237">
        <ele>280.4</ele>
        <time>2022-02-26T12:48:46Z</time>
      </trkpt>
      <trkpt lat="46.55621" lon="5.41265">
        <ele>280</ele>
        <time>2022-02-26T12:48:52Z</time>
      </trkpt>
      <trkpt lat="46.55626" lon="5.41269">
        <ele>280</ele>
        <time>2022-02-26T12:48:53Z</time>
      </trkpt>
      <trkpt lat="46.55644" lon="5.41289">
        <ele>279.8</ele>
        <time>2022-02-26T12:48:57Z</time>
      </trkpt>
      <trkpt lat="46.55651" lon="5.41302">
        <ele>279.6</ele>
        <time>2022-02-26T12:48:59Z</time>
      </trkpt>
      <trkpt lat="46.55654" lon="5.41319">
        <ele>279.6</ele>
        <time>2022-02-26T12:49:01Z</time>
      </trkpt>
      <trkpt lat="46.55657" lon="5.41387">
        <ele>279.6</ele>
        <time>2022-02-26T12:49:09Z</time>
      </trkpt>
      <trkpt lat="46.55656" lon="5.41404">
        <ele>279.4</ele>
        <time>2022-02-26T12:49:11Z</time>
      </trkpt>
      <trkpt lat="46.55656" lon="5.41419">
        <ele>279.4</ele>
        <time>2022-02-26T12:49:13Z</time>
      </trkpt>
      <trkpt lat="46.55657" lon="5.41435">
        <ele>279.2</ele>
        <time>2022-02-26T12:49:15Z</time>
      </trkpt>
      <trkpt lat="46.55663" lon="5.4145">
        <ele>279</ele>
        <time>2022-02-26T12:49:17Z</time>
      </trkpt>
      <trkpt lat="46.55666" lon="5.41455">
        <ele>278.8</ele>
        <time>2022-02-26T12:49:18Z</time>
      </trkpt>
      <trkpt lat="46.55697" lon="5.41486">
        <ele>278.8</ele>
        <time>2022-02-26T12:49:25Z</time>
      </trkpt>
      <trkpt lat="46.55727" lon="5.41518">
        <ele>279.4</ele>
        <time>2022-02-26T12:49:32Z</time>
      </trkpt>
      <trkpt lat="46.55731" lon="5.41523">
        <ele>279.4</ele>
        <time>2022-02-26T12:49:33Z</time>
      </trkpt>
      <trkpt lat="46.55739" lon="5.41543">
        <ele>279.4</ele>
        <time>2022-02-26T12:49:36Z</time>
      </trkpt>
      <trkpt lat="46.55747" lon="5.41589">
        <ele>279.4</ele>
        <time>2022-02-26T12:49:42Z</time>
      </trkpt>
      <trkpt lat="46.55748" lon="5.41611">
        <ele>279.6</ele>
        <time>2022-02-26T12:49:45Z</time>
      </trkpt>
      <trkpt lat="46.55753" lon="5.41632">
        <ele>279.6</ele>
        <time>2022-02-26T12:49:48Z</time>
      </trkpt>
      <trkpt lat="46.55767" lon="5.41672">
        <ele>279.6</ele>
        <time>2022-02-26T12:49:53Z</time>
      </trkpt>
      <trkpt lat="46.55786" lon="5.41713">
        <ele>277.4</ele>
        <time>2022-02-26T12:49:58Z</time>
      </trkpt>
      <trkpt lat="46.55788" lon="5.41721">
        <ele>276.8</ele>
        <time>2022-02-26T12:49:59Z</time>
      </trkpt>
      <trkpt lat="46.5579" lon="5.41729">
        <ele>276</ele>
        <time>2022-02-26T12:50:00Z</time>
      </trkpt>
      <trkpt lat="46.55791" lon="5.41738">
        <ele>275.6</ele>
        <time>2022-02-26T12:50:01Z</time>
      </trkpt>
      <trkpt lat="46.55792" lon="5.41754">
        <ele>274.8</ele>
        <time>2022-02-26T12:50:03Z</time>
      </trkpt>
      <trkpt lat="46.55791" lon="5.41762">
        <ele>274.6</ele>
        <time>2022-02-26T12:50:04Z</time>
      </trkpt>
      <trkpt lat="46.55787" lon="5.41791">
        <ele>274.4</ele>
        <time>2022-02-26T12:50:08Z</time>
      </trkpt>
      <trkpt lat="46.55783" lon="5.41835">
        <ele>274.6</ele>
        <time>2022-02-26T12:50:14Z</time>
      </trkpt>
      <trkpt lat="46.55783" lon="5.41872">
        <ele>275</ele>
        <time>2022-02-26T12:50:20Z</time>
      </trkpt>
      <trkpt lat="46.55783" lon="5.41883">
        <ele>275.2</ele>
        <time>2022-02-26T12:50:22Z</time>
      </trkpt>
      <trkpt lat="46.55784" lon="5.41899">
        <ele>276.2</ele>
        <time>2022-02-26T12:50:25Z</time>
      </trkpt>
      <trkpt lat="46.55785" lon="5.41904">
        <ele>276.4</ele>
        <time>2022-02-26T12:50:26Z</time>
      </trkpt>
      <trkpt lat="46.55787" lon="5.4192">
        <ele>277.6</ele>
        <time>2022-02-26T12:50:29Z</time>
      </trkpt>
      <trkpt lat="46.55792" lon="5.41946">
        <ele>278.8</ele>
        <time>2022-02-26T12:50:34Z</time>
      </trkpt>
      <trkpt lat="46.55794" lon="5.41951">
        <ele>279</ele>
        <time>2022-02-26T12:50:35Z</time>
      </trkpt>
      <trkpt lat="46.558" lon="5.41962">
        <ele>280.2</ele>
        <time>2022-02-26T12:50:38Z</time>
      </trkpt>
      <trkpt lat="46.55809" lon="5.41975">
        <ele>280.8</ele>
        <time>2022-02-26T12:50:42Z</time>
      </trkpt>
      <trkpt lat="46.55812" lon="5.41978">
        <ele>281.2</ele>
        <time>2022-02-26T12:50:43Z</time>
      </trkpt>
      <trkpt lat="46.55821" lon="5.41989">
        <ele>282.4</ele>
        <time>2022-02-26T12:50:47Z</time>
      </trkpt>
      <trkpt lat="46.55826" lon="5.41995">
        <ele>283</ele>
        <time>2022-02-26T12:50:49Z</time>
      </trkpt>
      <trkpt lat="46.55829" lon="5.41997">
        <ele>283.2</ele>
        <time>2022-02-26T12:50:50Z</time>
      </trkpt>
      <trkpt lat="46.55835" lon="5.42003">
        <ele>283.8</ele>
        <time>2022-02-26T12:50:52Z</time>
      </trkpt>
      <trkpt lat="46.55848" lon="5.42016">
        <ele>285</ele>
        <time>2022-02-26T12:50:57Z</time>
      </trkpt>
      <trkpt lat="46.55851" lon="5.42018">
        <ele>285.2</ele>
        <time>2022-02-26T12:50:58Z</time>
      </trkpt>
      <trkpt lat="46.55858" lon="5.42027">
        <ele>286.2</ele>
        <time>2022-02-26T12:51:01Z</time>
      </trkpt>
      <trkpt lat="46.55867" lon="5.42035">
        <ele>287.4</ele>
        <time>2022-02-26T12:51:04Z</time>
      </trkpt>
      <trkpt lat="46.5587" lon="5.42037">
        <ele>287.6</ele>
        <time>2022-02-26T12:51:05Z</time>
      </trkpt>
      <trkpt lat="46.55884" lon="5.42046">
        <ele>288.6</ele>
        <time>2022-02-26T12:51:10Z</time>
      </trkpt>
      <trkpt lat="46.55895" lon="5.42054">
        <ele>289.2</ele>
        <time>2022-02-26T12:51:13Z</time>
      </trkpt>
      <trkpt lat="46.55902" lon="5.42059">
        <ele>289.6</ele>
        <time>2022-02-26T12:51:15Z</time>
      </trkpt>
      <trkpt lat="46.55915" lon="5.42076">
        <ele>290.4</ele>
        <time>2022-02-26T12:51:20Z</time>
      </trkpt>
      <trkpt lat="46.55923" lon="5.42087">
        <ele>290.8</ele>
        <time>2022-02-26T12:51:23Z</time>
      </trkpt>
      <trkpt lat="46.55929" lon="5.421">
        <ele>291.8</ele>
        <time>2022-02-26T12:51:26Z</time>
      </trkpt>
      <trkpt lat="46.5593" lon="5.42104">
        <ele>292</ele>
        <time>2022-02-26T12:51:27Z</time>
      </trkpt>
      <trkpt lat="46.55933" lon="5.4211">
        <ele>292.4</ele>
        <time>2022-02-26T12:51:29Z</time>
      </trkpt>
      <trkpt lat="46.55936" lon="5.42112">
        <ele>292.6</ele>
        <time>2022-02-26T12:51:30Z</time>
      </trkpt>
      <trkpt lat="46.5594" lon="5.42114">
        <ele>293.2</ele>
        <time>2022-02-26T12:51:31Z</time>
      </trkpt>
      <trkpt lat="46.55958" lon="5.42121">
        <ele>294.2</ele>
        <time>2022-02-26T12:51:36Z</time>
      </trkpt>
      <trkpt lat="46.55984" lon="5.42127">
        <ele>294.6</ele>
        <time>2022-02-26T12:51:41Z</time>
      </trkpt>
      <trkpt lat="46.55998" lon="5.4213">
        <ele>294.4</ele>
        <time>2022-02-26T12:51:44Z</time>
      </trkpt>
      <trkpt lat="46.56001" lon="5.42134">
        <ele>294</ele>
        <time>2022-02-26T12:51:45Z</time>
      </trkpt>
      <trkpt lat="46.56008" lon="5.42145">
        <ele>293.6</ele>
        <time>2022-02-26T12:51:47Z</time>
      </trkpt>
      <trkpt lat="46.56012" lon="5.42151">
        <ele>293.6</ele>
        <time>2022-02-26T12:51:48Z</time>
      </trkpt>
      <trkpt lat="46.56023" lon="5.42164">
        <ele>293</ele>
        <time>2022-02-26T12:51:50Z</time>
      </trkpt>
      <trkpt lat="46.5604" lon="5.4218">
        <ele>292.4</ele>
        <time>2022-02-26T12:51:53Z</time>
      </trkpt>
      <trkpt lat="46.56045" lon="5.42186">
        <ele>291.8</ele>
        <time>2022-02-26T12:51:54Z</time>
      </trkpt>
      <trkpt lat="46.5605" lon="5.42193">
        <ele>291.6</ele>
        <time>2022-02-26T12:51:55Z</time>
      </trkpt>
      <trkpt lat="46.56052" lon="5.42202">
        <ele>291.4</ele>
        <time>2022-02-26T12:51:56Z</time>
      </trkpt>
      <trkpt lat="46.56053" lon="5.42211">
        <ele>291</ele>
        <time>2022-02-26T12:51:57Z</time>
      </trkpt>
      <trkpt lat="46.56049" lon="5.42228">
        <ele>290.8</ele>
        <time>2022-02-26T12:51:59Z</time>
      </trkpt>
      <trkpt lat="46.56046" lon="5.42241">
        <ele>290.4</ele>
        <time>2022-02-26T12:52:01Z</time>
      </trkpt>
      <trkpt lat="46.56048" lon="5.42247">
        <ele>290.2</ele>
        <time>2022-02-26T12:52:02Z</time>
      </trkpt>
      <trkpt lat="46.56051" lon="5.42251">
        <ele>290</ele>
        <time>2022-02-26T12:52:03Z</time>
      </trkpt>
      <trkpt lat="46.5606" lon="5.4226">
        <ele>289.6</ele>
        <time>2022-02-26T12:52:05Z</time>
      </trkpt>
      <trkpt lat="46.5607" lon="5.42268">
        <ele>289.2</ele>
        <time>2022-02-26T12:52:07Z</time>
      </trkpt>
      <trkpt lat="46.56082" lon="5.42273">
        <ele>288.8</ele>
        <time>2022-02-26T12:52:09Z</time>
      </trkpt>
      <trkpt lat="46.56089" lon="5.42274">
        <ele>288.2</ele>
        <time>2022-02-26T12:52:10Z</time>
      </trkpt>
      <trkpt lat="46.56112" lon="5.42276">
        <ele>286.6</ele>
        <time>2022-02-26T12:52:13Z</time>
      </trkpt>
      <trkpt lat="46.56128" lon="5.42281">
        <ele>285.6</ele>
        <time>2022-02-26T12:52:15Z</time>
      </trkpt>
      <trkpt lat="46.56144" lon="5.42288">
        <ele>284.4</ele>
        <time>2022-02-26T12:52:17Z</time>
      </trkpt>
      <trkpt lat="46.56152" lon="5.42293">
        <ele>284.2</ele>
        <time>2022-02-26T12:52:18Z</time>
      </trkpt>
      <trkpt lat="46.56168" lon="5.42302">
        <ele>283.4</ele>
        <time>2022-02-26T12:52:20Z</time>
      </trkpt>
      <trkpt lat="46.56176" lon="5.42308">
        <ele>282.8</ele>
        <time>2022-02-26T12:52:21Z</time>
      </trkpt>
      <trkpt lat="46.56183" lon="5.42315">
        <ele>281.8</ele>
        <time>2022-02-26T12:52:22Z</time>
      </trkpt>
      <trkpt lat="46.5619" lon="5.42323">
        <ele>281.4</ele>
        <time>2022-02-26T12:52:23Z</time>
      </trkpt>
      <trkpt lat="46.56201" lon="5.4234">
        <ele>280.8</ele>
        <time>2022-02-26T12:52:25Z</time>
      </trkpt>
      <trkpt lat="46.56216" lon="5.42365">
        <ele>280</ele>
        <time>2022-02-26T12:52:28Z</time>
      </trkpt>
      <trkpt lat="46.56224" lon="5.4238">
        <ele>279.8</ele>
        <time>2022-02-26T12:52:30Z</time>
      </trkpt>
      <trkpt lat="46.56228" lon="5.42396">
        <ele>279.8</ele>
        <time>2022-02-26T12:52:32Z</time>
      </trkpt>
      <trkpt lat="46.5623" lon="5.42427">
        <ele>280</ele>
        <time>2022-02-26T12:52:36Z</time>
      </trkpt>
      <trkpt lat="46.56231" lon="5.42436">
        <ele>280.6</ele>
        <time>2022-02-26T12:52:37Z</time>
      </trkpt>
      <trkpt lat="46.56233" lon="5.42454">
        <ele>281.2</ele>
        <time>2022-02-26T12:52:39Z</time>
      </trkpt>
      <trkpt lat="46.5624" lon="5.42483">
        <ele>281.6</ele>
        <time>2022-02-26T12:52:42Z</time>
      </trkpt>
      <trkpt lat="46.56247" lon="5.42501">
        <ele>281.6</ele>
        <time>2022-02-26T12:52:44Z</time>
      </trkpt>
      <trkpt lat="46.56256" lon="5.42516">
        <ele>281.6</ele>
        <time>2022-02-26T12:52:46Z</time>
      </trkpt>
      <trkpt lat="46.56284" lon="5.42541">
        <ele>279.6</ele>
        <time>2022-02-26T12:52:51Z</time>
      </trkpt>
      <trkpt lat="46.5631" lon="5.42575">
        <ele>279</ele>
        <time>2022-02-26T12:52:56Z</time>
      </trkpt>
      <trkpt lat="46.56323" lon="5.42602">
        <ele>278.6</ele>
        <time>2022-02-26T12:52:59Z</time>
      </trkpt>
      <trkpt lat="46.56333" lon="5.42621">
        <ele>278</ele>
        <time>2022-02-26T12:53:01Z</time>
      </trkpt>
      <trkpt lat="46.56343" lon="5.4264">
        <ele>277.2</ele>
        <time>2022-02-26T12:53:03Z</time>
      </trkpt>
      <trkpt lat="46.56358" lon="5.42664">
        <ele>276.2</ele>
        <time>2022-02-26T12:53:06Z</time>
      </trkpt>
      <trkpt lat="46.56363" lon="5.42671">
        <ele>276</ele>
        <time>2022-02-26T12:53:07Z</time>
      </trkpt>
      <trkpt lat="46.56395" lon="5.4271">
        <ele>275.6</ele>
        <time>2022-02-26T12:53:13Z</time>
      </trkpt>
      <trkpt lat="46.56433" lon="5.42748">
        <ele>275.8</ele>
        <time>2022-02-26T12:53:21Z</time>
      </trkpt>
      <trkpt lat="46.56461" lon="5.4278">
        <ele>276.4</ele>
        <time>2022-02-26T12:53:28Z</time>
      </trkpt>
      <trkpt lat="46.56474" lon="5.428">
        <ele>277.2</ele>
        <time>2022-02-26T12:53:32Z</time>
      </trkpt>
      <trkpt lat="46.56483" lon="5.42815">
        <ele>278.4</ele>
        <time>2022-02-26T12:53:35Z</time>
      </trkpt>
      <trkpt lat="46.56486" lon="5.4282">
        <ele>278.6</ele>
        <time>2022-02-26T12:53:36Z</time>
      </trkpt>
      <trkpt lat="46.56506" lon="5.42862">
        <ele>279.4</ele>
        <time>2022-02-26T12:53:44Z</time>
      </trkpt>
      <trkpt lat="46.56509" lon="5.42867">
        <ele>279.6</ele>
        <time>2022-02-26T12:53:45Z</time>
      </trkpt>
      <trkpt lat="46.56512" lon="5.42873">
        <ele>279.8</ele>
        <time>2022-02-26T12:53:46Z</time>
      </trkpt>
      <trkpt lat="46.5653" lon="5.42903">
        <ele>280.6</ele>
        <time>2022-02-26T12:53:52Z</time>
      </trkpt>
      <trkpt lat="46.5655" lon="5.4293">
        <ele>281.2</ele>
        <time>2022-02-26T12:53:58Z</time>
      </trkpt>
      <trkpt lat="46.5657" lon="5.42958">
        <ele>281.8</ele>
        <time>2022-02-26T12:54:04Z</time>
      </trkpt>
      <trkpt lat="46.56574" lon="5.42962">
        <ele>282</ele>
        <time>2022-02-26T12:54:05Z</time>
      </trkpt>
      <trkpt lat="46.56609" lon="5.42995">
        <ele>282.2</ele>
        <time>2022-02-26T12:54:13Z</time>
      </trkpt>
      <trkpt lat="46.56614" lon="5.43">
        <ele>282</ele>
        <time>2022-02-26T12:54:14Z</time>
      </trkpt>
      <trkpt lat="46.56629" lon="5.43022">
        <ele>282</ele>
        <time>2022-02-26T12:54:18Z</time>
      </trkpt>
      <trkpt lat="46.56654" lon="5.43075">
        <ele>281.8</ele>
        <time>2022-02-26T12:54:27Z</time>
      </trkpt>
      <trkpt lat="46.56666" lon="5.43106">
        <ele>283.2</ele>
        <time>2022-02-26T12:54:32Z</time>
      </trkpt>
      <trkpt lat="46.56683" lon="5.43149">
        <ele>283.8</ele>
        <time>2022-02-26T12:54:39Z</time>
      </trkpt>
      <trkpt lat="46.5671" lon="5.43218">
        <ele>283.6</ele>
        <time>2022-02-26T12:54:50Z</time>
      </trkpt>
      <trkpt lat="46.56718" lon="5.43236">
        <ele>283.6</ele>
        <time>2022-02-26T12:54:53Z</time>
      </trkpt>
      <trkpt lat="46.5675" lon="5.43288">
        <ele>283.8</ele>
        <time>2022-02-26T12:55:02Z</time>
      </trkpt>
      <trkpt lat="46.56786" lon="5.43328">
        <ele>282.6</ele>
        <time>2022-02-26T12:55:10Z</time>
      </trkpt>
      <trkpt lat="46.56815" lon="5.43371">
        <ele>282.6</ele>
        <time>2022-02-26T12:55:18Z</time>
      </trkpt>
      <trkpt lat="46.56824" lon="5.43392">
        <ele>283</ele>
        <time>2022-02-26T12:55:22Z</time>
      </trkpt>
      <trkpt lat="46.56828" lon="5.43402">
        <ele>283.4</ele>
        <time>2022-02-26T12:55:24Z</time>
      </trkpt>
      <trkpt lat="46.56835" lon="5.43419">
        <ele>284.2</ele>
        <time>2022-02-26T12:55:27Z</time>
      </trkpt>
      <trkpt lat="46.5684" lon="5.43431">
        <ele>284.6</ele>
        <time>2022-02-26T12:55:29Z</time>
      </trkpt>
      <trkpt lat="46.5685" lon="5.43446">
        <ele>285.2</ele>
        <time>2022-02-26T12:55:32Z</time>
      </trkpt>
      <trkpt lat="46.56853" lon="5.43451">
        <ele>285.2</ele>
        <time>2022-02-26T12:55:33Z</time>
      </trkpt>
      <trkpt lat="46.56878" lon="5.43485">
        <ele>286.4</ele>
        <time>2022-02-26T12:55:40Z</time>
      </trkpt>
      <trkpt lat="46.5691" lon="5.43517">
        <ele>286.4</ele>
        <time>2022-02-26T12:55:47Z</time>
      </trkpt>
      <trkpt lat="46.56938" lon="5.43542">
        <ele>285</ele>
        <time>2022-02-26T12:55:52Z</time>
      </trkpt>
      <trkpt lat="46.56944" lon="5.43548">
        <ele>284.8</ele>
        <time>2022-02-26T12:55:53Z</time>
      </trkpt>
      <trkpt lat="46.56967" lon="5.43571">
        <ele>283.6</ele>
        <time>2022-02-26T12:55:57Z</time>
      </trkpt>
      <trkpt lat="46.56992" lon="5.43595">
        <ele>282.6</ele>
        <time>2022-02-26T12:56:01Z</time>
      </trkpt>
      <trkpt lat="46.56999" lon="5.436">
        <ele>282.4</ele>
        <time>2022-02-26T12:56:02Z</time>
      </trkpt>
      <trkpt lat="46.57019" lon="5.43617">
        <ele>281.6</ele>
        <time>2022-02-26T12:56:05Z</time>
      </trkpt>
      <trkpt lat="46.57032" lon="5.43628">
        <ele>280.6</ele>
        <time>2022-02-26T12:56:07Z</time>
      </trkpt>
      <trkpt lat="46.57046" lon="5.43639">
        <ele>279.6</ele>
        <time>2022-02-26T12:56:09Z</time>
      </trkpt>
      <trkpt lat="46.57053" lon="5.43644">
        <ele>279</ele>
        <time>2022-02-26T12:56:10Z</time>
      </trkpt>
      <trkpt lat="46.57103" lon="5.43683">
        <ele>278</ele>
        <time>2022-02-26T12:56:18Z</time>
      </trkpt>
      <trkpt lat="46.57109" lon="5.43688">
        <ele>278</ele>
        <time>2022-02-26T12:56:19Z</time>
      </trkpt>
      <trkpt lat="46.57146" lon="5.43716">
        <ele>278</ele>
        <time>2022-02-26T12:56:26Z</time>
      </trkpt>
      <trkpt lat="46.57172" lon="5.43737">
        <ele>278.4</ele>
        <time>2022-02-26T12:56:32Z</time>
      </trkpt>
      <trkpt lat="46.57191" lon="5.43755">
        <ele>278.8</ele>
        <time>2022-02-26T12:56:37Z</time>
      </trkpt>
      <trkpt lat="46.57195" lon="5.4376">
        <ele>279.2</ele>
        <time>2022-02-26T12:56:38Z</time>
      </trkpt>
      <trkpt lat="46.57197" lon="5.43766">
        <ele>279.4</ele>
        <time>2022-02-26T12:56:39Z</time>
      </trkpt>
      <trkpt lat="46.57197" lon="5.43772">
        <ele>279.8</ele>
        <time>2022-02-26T12:56:40Z</time>
      </trkpt>
      <trkpt lat="46.57197" lon="5.43779">
        <ele>280</ele>
        <time>2022-02-26T12:56:41Z</time>
      </trkpt>
      <trkpt lat="46.57195" lon="5.43792">
        <ele>280.8</ele>
        <time>2022-02-26T12:56:43Z</time>
      </trkpt>
      <trkpt lat="46.57191" lon="5.43809">
        <ele>281</ele>
        <time>2022-02-26T12:56:46Z</time>
      </trkpt>
      <trkpt lat="46.57192" lon="5.43821">
        <ele>282.2</ele>
        <time>2022-02-26T12:56:49Z</time>
      </trkpt>
      <trkpt lat="46.57192" lon="5.43824">
        <ele>282.2</ele>
        <time>2022-02-26T12:56:50Z</time>
      </trkpt>
      <trkpt lat="46.57198" lon="5.43833">
        <ele>282.4</ele>
        <time>2022-02-26T12:56:55Z</time>
      </trkpt>
      <trkpt lat="46.57216" lon="5.43843">
        <ele>282</ele>
        <time>2022-02-26T12:57:00Z</time>
      </trkpt>
      <trkpt lat="46.57225" lon="5.43847">
        <ele>282</ele>
        <time>2022-02-26T12:57:02Z</time>
      </trkpt>
      <trkpt lat="46.57237" lon="5.43852">
        <ele>281.8</ele>
        <time>2022-02-26T12:57:05Z</time>
      </trkpt>
      <trkpt lat="46.57242" lon="5.43854">
        <ele>281.6</ele>
        <time>2022-02-26T12:57:06Z</time>
      </trkpt>
      <trkpt lat="46.57255" lon="5.43861">
        <ele>280.6</ele>
        <time>2022-02-26T12:57:09Z</time>
      </trkpt>
      <trkpt lat="46.57263" lon="5.43874">
        <ele>280</ele>
        <time>2022-02-26T12:57:12Z</time>
      </trkpt>
      <trkpt lat="46.57264" lon="5.43881">
        <ele>280</ele>
        <time>2022-02-26T12:57:13Z</time>
      </trkpt>
      <trkpt lat="46.57264" lon="5.43895">
        <ele>279.4</ele>
        <time>2022-02-26T12:57:15Z</time>
      </trkpt>
      <trkpt lat="46.57261" lon="5.43911">
        <ele>279</ele>
        <time>2022-02-26T12:57:17Z</time>
      </trkpt>
      <trkpt lat="46.57256" lon="5.43927">
        <ele>278.8</ele>
        <time>2022-02-26T12:57:19Z</time>
      </trkpt>
      <trkpt lat="46.57253" lon="5.43936">
        <ele>278.4</ele>
        <time>2022-02-26T12:57:20Z</time>
      </trkpt>
      <trkpt lat="46.57248" lon="5.43965">
        <ele>278</ele>
        <time>2022-02-26T12:57:23Z</time>
      </trkpt>
      <trkpt lat="46.57248" lon="5.43974">
        <ele>277.4</ele>
        <time>2022-02-26T12:57:24Z</time>
      </trkpt>
      <trkpt lat="46.5725" lon="5.43983">
        <ele>277</ele>
        <time>2022-02-26T12:57:25Z</time>
      </trkpt>
      <trkpt lat="46.57257" lon="5.44007">
        <ele>276.4</ele>
        <time>2022-02-26T12:57:28Z</time>
      </trkpt>
      <trkpt lat="46.57259" lon="5.44016">
        <ele>276.2</ele>
        <time>2022-02-26T12:57:29Z</time>
      </trkpt>
      <trkpt lat="46.57262" lon="5.44038">
        <ele>276.2</ele>
        <time>2022-02-26T12:57:32Z</time>
      </trkpt>
      <trkpt lat="46.57262" lon="5.44045">
        <ele>276.2</ele>
        <time>2022-02-26T12:57:33Z</time>
      </trkpt>
      <trkpt lat="46.57254" lon="5.44091">
        <ele>276.2</ele>
        <time>2022-02-26T12:57:39Z</time>
      </trkpt>
      <trkpt lat="46.57243" lon="5.44128">
        <ele>275.8</ele>
        <time>2022-02-26T12:57:43Z</time>
      </trkpt>
      <trkpt lat="46.57241" lon="5.44137">
        <ele>275.4</ele>
        <time>2022-02-26T12:57:44Z</time>
      </trkpt>
      <trkpt lat="46.57243" lon="5.44144">
        <ele>274.6</ele>
        <time>2022-02-26T12:57:45Z</time>
      </trkpt>
      <trkpt lat="46.57246" lon="5.4415">
        <ele>274.2</ele>
        <time>2022-02-26T12:57:46Z</time>
      </trkpt>
      <trkpt lat="46.57251" lon="5.44156">
        <ele>273.4</ele>
        <time>2022-02-26T12:57:47Z</time>
      </trkpt>
      <trkpt lat="46.57262" lon="5.44166">
        <ele>272.4</ele>
        <time>2022-02-26T12:57:49Z</time>
      </trkpt>
      <trkpt lat="46.57268" lon="5.4417">
        <ele>271.8</ele>
        <time>2022-02-26T12:57:50Z</time>
      </trkpt>
      <trkpt lat="46.57275" lon="5.44174">
        <ele>271.6</ele>
        <time>2022-02-26T12:57:51Z</time>
      </trkpt>
      <trkpt lat="46.57283" lon="5.44175">
        <ele>271</ele>
        <time>2022-02-26T12:57:52Z</time>
      </trkpt>
      <trkpt lat="46.57298" lon="5.44172">
        <ele>269.8</ele>
        <time>2022-02-26T12:57:54Z</time>
      </trkpt>
      <trkpt lat="46.57312" lon="5.44162">
        <ele>269.2</ele>
        <time>2022-02-26T12:57:56Z</time>
      </trkpt>
      <trkpt lat="46.57318" lon="5.44155">
        <ele>268.6</ele>
        <time>2022-02-26T12:57:57Z</time>
      </trkpt>
      <trkpt lat="46.57324" lon="5.4415">
        <ele>268.4</ele>
        <time>2022-02-26T12:57:58Z</time>
      </trkpt>
      <trkpt lat="46.57336" lon="5.44143">
        <ele>267.8</ele>
        <time>2022-02-26T12:58:00Z</time>
      </trkpt>
      <trkpt lat="46.57343" lon="5.44141">
        <ele>267.8</ele>
        <time>2022-02-26T12:58:01Z</time>
      </trkpt>
      <trkpt lat="46.57354" lon="5.44139">
        <ele>267.6</ele>
        <time>2022-02-26T12:58:03Z</time>
      </trkpt>
      <trkpt lat="46.57364" lon="5.44141">
        <ele>267.8</ele>
        <time>2022-02-26T12:58:05Z</time>
      </trkpt>
      <trkpt lat="46.57372" lon="5.44145">
        <ele>268.4</ele>
        <time>2022-02-26T12:58:07Z</time>
      </trkpt>
      <trkpt lat="46.5738" lon="5.44152">
        <ele>269</ele>
        <time>2022-02-26T12:58:09Z</time>
      </trkpt>
      <trkpt lat="46.57384" lon="5.44156">
        <ele>269.8</ele>
        <time>2022-02-26T12:58:10Z</time>
      </trkpt>
      <trkpt lat="46.57409" lon="5.44172">
        <ele>270.2</ele>
        <time>2022-02-26T12:58:15Z</time>
      </trkpt>
      <trkpt lat="46.57437" lon="5.44179">
        <ele>269.4</ele>
        <time>2022-02-26T12:58:19Z</time>
      </trkpt>
      <trkpt lat="46.5746" lon="5.44184">
        <ele>268.4</ele>
        <time>2022-02-26T12:58:22Z</time>
      </trkpt>
      <trkpt lat="46.57489" lon="5.44187">
        <ele>267</ele>
        <time>2022-02-26T12:58:26Z</time>
      </trkpt>
      <trkpt lat="46.57497" lon="5.44186">
        <ele>266.8</ele>
        <time>2022-02-26T12:58:27Z</time>
      </trkpt>
      <trkpt lat="46.57511" lon="5.44182">
        <ele>266.2</ele>
        <time>2022-02-26T12:58:29Z</time>
      </trkpt>
      <trkpt lat="46.57519" lon="5.44179">
        <ele>266</ele>
        <time>2022-02-26T12:58:30Z</time>
      </trkpt>
      <trkpt lat="46.57526" lon="5.44176">
        <ele>265.8</ele>
        <time>2022-02-26T12:58:31Z</time>
      </trkpt>
      <trkpt lat="46.57543" lon="5.44178">
        <ele>265.4</ele>
        <time>2022-02-26T12:58:33Z</time>
      </trkpt>
      <trkpt lat="46.5756" lon="5.44192">
        <ele>264.8</ele>
        <time>2022-02-26T12:58:35Z</time>
      </trkpt>
      <trkpt lat="46.57568" lon="5.44201">
        <ele>263.8</ele>
        <time>2022-02-26T12:58:36Z</time>
      </trkpt>
      <trkpt lat="46.57576" lon="5.4421">
        <ele>263.2</ele>
        <time>2022-02-26T12:58:37Z</time>
      </trkpt>
      <trkpt lat="46.57591" lon="5.44229">
        <ele>262</ele>
        <time>2022-02-26T12:58:39Z</time>
      </trkpt>
      <trkpt lat="46.57598" lon="5.44238">
        <ele>259.8</ele>
        <time>2022-02-26T12:58:40Z</time>
      </trkpt>
      <trkpt lat="46.57614" lon="5.44255">
        <ele>258.4</ele>
        <time>2022-02-26T12:58:42Z</time>
      </trkpt>
      <trkpt lat="46.57629" lon="5.44272">
        <ele>257.2</ele>
        <time>2022-02-26T12:58:44Z</time>
      </trkpt>
      <trkpt lat="46.57642" lon="5.4429">
        <ele>255.8</ele>
        <time>2022-02-26T12:58:46Z</time>
      </trkpt>
      <trkpt lat="46.57649" lon="5.44299">
        <ele>254.6</ele>
        <time>2022-02-26T12:58:47Z</time>
      </trkpt>
      <trkpt lat="46.57662" lon="5.44317">
        <ele>253.6</ele>
        <time>2022-02-26T12:58:49Z</time>
      </trkpt>
      <trkpt lat="46.57669" lon="5.44326">
        <ele>253.4</ele>
        <time>2022-02-26T12:58:50Z</time>
      </trkpt>
      <trkpt lat="46.57687" lon="5.44355">
        <ele>252.4</ele>
        <time>2022-02-26T12:58:53Z</time>
      </trkpt>
      <trkpt lat="46.57704" lon="5.44381">
        <ele>251.4</ele>
        <time>2022-02-26T12:58:56Z</time>
      </trkpt>
      <trkpt lat="46.57709" lon="5.4439">
        <ele>251.2</ele>
        <time>2022-02-26T12:58:57Z</time>
      </trkpt>
      <trkpt lat="46.57732" lon="5.44423">
        <ele>250</ele>
        <time>2022-02-26T12:59:01Z</time>
      </trkpt>
      <trkpt lat="46.57759" lon="5.44461">
        <ele>248.8</ele>
        <time>2022-02-26T12:59:06Z</time>
      </trkpt>
      <trkpt lat="46.578" lon="5.44509">
        <ele>247.8</ele>
        <time>2022-02-26T12:59:13Z</time>
      </trkpt>
      <trkpt lat="46.57807" lon="5.44515">
        <ele>247.6</ele>
        <time>2022-02-26T12:59:14Z</time>
      </trkpt>
      <trkpt lat="46.57834" lon="5.4454">
        <ele>246.4</ele>
        <time>2022-02-26T12:59:18Z</time>
      </trkpt>
      <trkpt lat="46.5784" lon="5.44547">
        <ele>246</ele>
        <time>2022-02-26T12:59:19Z</time>
      </trkpt>
      <trkpt lat="46.5786" lon="5.44566">
        <ele>245.4</ele>
        <time>2022-02-26T12:59:22Z</time>
      </trkpt>
      <trkpt lat="46.57882" lon="5.44596">
        <ele>245</ele>
        <time>2022-02-26T12:59:26Z</time>
      </trkpt>
      <trkpt lat="46.57902" lon="5.44632">
        <ele>245</ele>
        <time>2022-02-26T12:59:31Z</time>
      </trkpt>
      <trkpt lat="46.57927" lon="5.44676">
        <ele>246</ele>
        <time>2022-02-26T12:59:38Z</time>
      </trkpt>
      <trkpt lat="46.57937" lon="5.44694">
        <ele>246.8</ele>
        <time>2022-02-26T12:59:41Z</time>
      </trkpt>
      <trkpt lat="46.57958" lon="5.44728">
        <ele>247.6</ele>
        <time>2022-02-26T12:59:47Z</time>
      </trkpt>
      <trkpt lat="46.57961" lon="5.44734">
        <ele>247.8</ele>
        <time>2022-02-26T12:59:48Z</time>
      </trkpt>
      <trkpt lat="46.57996" lon="5.44786">
        <ele>248.6</ele>
        <time>2022-02-26T12:59:57Z</time>
      </trkpt>
      <trkpt lat="46.58031" lon="5.4485">
        <ele>248.8</ele>
        <time>2022-02-26T13:00:07Z</time>
      </trkpt>
      <trkpt lat="46.58034" lon="5.44856">
        <ele>248.8</ele>
        <time>2022-02-26T13:00:08Z</time>
      </trkpt>
      <trkpt lat="46.58068" lon="5.44926">
        <ele>249.6</ele>
        <time>2022-02-26T13:00:18Z</time>
      </trkpt>
      <trkpt lat="46.58075" lon="5.4494">
        <ele>249.6</ele>
        <time>2022-02-26T13:00:20Z</time>
      </trkpt>
      <trkpt lat="46.58099" lon="5.44982">
        <ele>249.8</ele>
        <time>2022-02-26T13:00:27Z</time>
      </trkpt>
      <trkpt lat="46.58114" lon="5.44995">
        <ele>249.8</ele>
        <time>2022-02-26T13:00:31Z</time>
      </trkpt>
      <trkpt lat="46.58128" lon="5.45007">
        <ele>250</ele>
        <time>2022-02-26T13:00:36Z</time>
      </trkpt>
      <trkpt lat="46.58148" lon="5.45036">
        <ele>250.4</ele>
        <time>2022-02-26T13:00:43Z</time>
      </trkpt>
      <trkpt lat="46.58175" lon="5.45064">
        <ele>251</ele>
        <time>2022-02-26T13:00:51Z</time>
      </trkpt>
      <trkpt lat="46.58178" lon="5.45066">
        <ele>251</ele>
        <time>2022-02-26T13:00:52Z</time>
      </trkpt>
      <trkpt lat="46.58192" lon="5.45074">
        <ele>251.6</ele>
        <time>2022-02-26T13:00:56Z</time>
      </trkpt>
      <trkpt lat="46.58212" lon="5.45085">
        <ele>252</ele>
        <time>2022-02-26T13:01:01Z</time>
      </trkpt>
      <trkpt lat="46.58215" lon="5.4509">
        <ele>252.2</ele>
        <time>2022-02-26T13:01:02Z</time>
      </trkpt>
      <trkpt lat="46.58216" lon="5.45094">
        <ele>252.4</ele>
        <time>2022-02-26T13:01:03Z</time>
      </trkpt>
      <trkpt lat="46.58217" lon="5.45106">
        <ele>252.4</ele>
        <time>2022-02-26T13:01:05Z</time>
      </trkpt>
      <trkpt lat="46.58215" lon="5.45117">
        <ele>252.6</ele>
        <time>2022-02-26T13:01:07Z</time>
      </trkpt>
      <trkpt lat="46.58213" lon="5.45122">
        <ele>253</ele>
        <time>2022-02-26T13:01:08Z</time>
      </trkpt>
      <trkpt lat="46.58209" lon="5.45131">
        <ele>253.4</ele>
        <time>2022-02-26T13:01:10Z</time>
      </trkpt>
      <trkpt lat="46.58196" lon="5.45149">
        <ele>254</ele>
        <time>2022-02-26T13:01:15Z</time>
      </trkpt>
      <trkpt lat="46.58192" lon="5.45152">
        <ele>254.2</ele>
        <time>2022-02-26T13:01:16Z</time>
      </trkpt>
      <trkpt lat="46.58182" lon="5.45159">
        <ele>255.2</ele>
        <time>2022-02-26T13:01:19Z</time>
      </trkpt>
      <trkpt lat="46.58167" lon="5.4517">
        <ele>256.4</ele>
        <time>2022-02-26T13:01:24Z</time>
      </trkpt>
      <trkpt lat="46.58149" lon="5.45182">
        <ele>257.6</ele>
        <time>2022-02-26T13:01:30Z</time>
      </trkpt>
      <trkpt lat="46.58143" lon="5.45185">
        <ele>258.2</ele>
        <time>2022-02-26T13:01:32Z</time>
      </trkpt>
      <trkpt lat="46.58137" lon="5.45186">
        <ele>258.6</ele>
        <time>2022-02-26T13:01:34Z</time>
      </trkpt>
      <trkpt lat="46.58124" lon="5.45189">
        <ele>259.6</ele>
        <time>2022-02-26T13:01:38Z</time>
      </trkpt>
      <trkpt lat="46.58121" lon="5.45191">
        <ele>259.8</ele>
        <time>2022-02-26T13:01:39Z</time>
      </trkpt>
      <trkpt lat="46.58112" lon="5.45203">
        <ele>260.8</ele>
        <time>2022-02-26T13:01:43Z</time>
      </trkpt>
      <trkpt lat="46.58112" lon="5.45208">
        <ele>261</ele>
        <time>2022-02-26T13:01:44Z</time>
      </trkpt>
      <trkpt lat="46.58114" lon="5.45216">
        <ele>261.4</ele>
        <time>2022-02-26T13:01:46Z</time>
      </trkpt>
      <trkpt lat="46.58116" lon="5.45218">
        <ele>261.6</ele>
        <time>2022-02-26T13:01:47Z</time>
      </trkpt>
      <trkpt lat="46.58121" lon="5.45221">
        <ele>262.2</ele>
        <time>2022-02-26T13:01:49Z</time>
      </trkpt>
      <trkpt lat="46.58124" lon="5.45223">
        <ele>262.6</ele>
        <time>2022-02-26T13:01:50Z</time>
      </trkpt>
      <trkpt lat="46.58133" lon="5.45228">
        <ele>263.4</ele>
        <time>2022-02-26T13:01:53Z</time>
      </trkpt>
      <trkpt lat="46.58136" lon="5.4523">
        <ele>263.6</ele>
        <time>2022-02-26T13:01:54Z</time>
      </trkpt>
      <trkpt lat="46.58141" lon="5.45235">
        <ele>264.4</ele>
        <time>2022-02-26T13:01:56Z</time>
      </trkpt>
      <trkpt lat="46.58143" lon="5.45238">
        <ele>264.6</ele>
        <time>2022-02-26T13:01:57Z</time>
      </trkpt>
      <trkpt lat="46.58145" lon="5.45249">
        <ele>265.4</ele>
        <time>2022-02-26T13:02:00Z</time>
      </trkpt>
      <trkpt lat="46.58144" lon="5.45253">
        <ele>265.8</ele>
        <time>2022-02-26T13:02:01Z</time>
      </trkpt>
      <trkpt lat="46.58135" lon="5.45266">
        <ele>267.4</ele>
        <time>2022-02-26T13:02:05Z</time>
      </trkpt>
      <trkpt lat="46.58131" lon="5.45273">
        <ele>267.8</ele>
        <time>2022-02-26T13:02:07Z</time>
      </trkpt>
      <trkpt lat="46.58129" lon="5.45276">
        <ele>268.6</ele>
        <time>2022-02-26T13:02:08Z</time>
      </trkpt>
      <trkpt lat="46.5812" lon="5.4529">
        <ele>270</ele>
        <time>2022-02-26T13:02:12Z</time>
      </trkpt>
      <trkpt lat="46.58118" lon="5.45293">
        <ele>270.2</ele>
        <time>2022-02-26T13:02:13Z</time>
      </trkpt>
      <trkpt lat="46.58114" lon="5.453">
        <ele>271</ele>
        <time>2022-02-26T13:02:15Z</time>
      </trkpt>
      <trkpt lat="46.58113" lon="5.45303">
        <ele>271.2</ele>
        <time>2022-02-26T13:02:16Z</time>
      </trkpt>
      <trkpt lat="46.58114" lon="5.45312">
        <ele>271.6</ele>
        <time>2022-02-26T13:02:18Z</time>
      </trkpt>
      <trkpt lat="46.5812" lon="5.45322">
        <ele>272.2</ele>
        <time>2022-02-26T13:02:21Z</time>
      </trkpt>
      <trkpt lat="46.58123" lon="5.45326">
        <ele>272.4</ele>
        <time>2022-02-26T13:02:22Z</time>
      </trkpt>
      <trkpt lat="46.58134" lon="5.45339">
        <ele>273.2</ele>
        <time>2022-02-26T13:02:26Z</time>
      </trkpt>
      <trkpt lat="46.58149" lon="5.45355">
        <ele>274.2</ele>
        <time>2022-02-26T13:02:31Z</time>
      </trkpt>
      <trkpt lat="46.58155" lon="5.45361">
        <ele>274.4</ele>
        <time>2022-02-26T13:02:33Z</time>
      </trkpt>
      <trkpt lat="46.5817" lon="5.45377">
        <ele>275</ele>
        <time>2022-02-26T13:02:38Z</time>
      </trkpt>
      <trkpt lat="46.58185" lon="5.45396">
        <ele>275.4</ele>
        <time>2022-02-26T13:02:43Z</time>
      </trkpt>
      <trkpt lat="46.58197" lon="5.45411">
        <ele>276.4</ele>
        <time>2022-02-26T13:02:47Z</time>
      </trkpt>
      <trkpt lat="46.582" lon="5.45415">
        <ele>276.6</ele>
        <time>2022-02-26T13:02:48Z</time>
      </trkpt>
      <trkpt lat="46.58227" lon="5.45442">
        <ele>277.4</ele>
        <time>2022-02-26T13:02:56Z</time>
      </trkpt>
      <trkpt lat="46.58234" lon="5.4545">
        <ele>277.8</ele>
        <time>2022-02-26T13:02:58Z</time>
      </trkpt>
      <trkpt lat="46.58254" lon="5.4548">
        <ele>278.2</ele>
        <time>2022-02-26T13:03:05Z</time>
      </trkpt>
      <trkpt lat="46.58261" lon="5.45494">
        <ele>278.8</ele>
        <time>2022-02-26T13:03:08Z</time>
      </trkpt>
      <trkpt lat="46.58269" lon="5.45513">
        <ele>280</ele>
        <time>2022-02-26T13:03:12Z</time>
      </trkpt>
      <trkpt lat="46.5828" lon="5.45541">
        <ele>281.4</ele>
        <time>2022-02-26T13:03:18Z</time>
      </trkpt>
      <trkpt lat="46.58289" lon="5.45564">
        <ele>282.4</ele>
        <time>2022-02-26T13:03:23Z</time>
      </trkpt>
      <trkpt lat="46.58291" lon="5.45569">
        <ele>282.6</ele>
        <time>2022-02-26T13:03:24Z</time>
      </trkpt>
      <trkpt lat="46.58302" lon="5.45598">
        <ele>283.6</ele>
        <time>2022-02-26T13:03:30Z</time>
      </trkpt>
      <trkpt lat="46.58303" lon="5.45602">
        <ele>283.8</ele>
        <time>2022-02-26T13:03:31Z</time>
      </trkpt>
      <trkpt lat="46.58322" lon="5.45639">
        <ele>284</ele>
        <time>2022-02-26T13:03:39Z</time>
      </trkpt>
      <trkpt lat="46.58344" lon="5.45676">
        <ele>282.6</ele>
        <time>2022-02-26T13:03:47Z</time>
      </trkpt>
      <trkpt lat="46.58347" lon="5.45681">
        <ele>282.4</ele>
        <time>2022-02-26T13:03:48Z</time>
      </trkpt>
      <trkpt lat="46.58355" lon="5.45696">
        <ele>282.4</ele>
        <time>2022-02-26T13:03:51Z</time>
      </trkpt>
      <trkpt lat="46.58362" lon="5.45711">
        <ele>282.6</ele>
        <time>2022-02-26T13:03:54Z</time>
      </trkpt>
      <trkpt lat="46.58364" lon="5.45716">
        <ele>282.6</ele>
        <time>2022-02-26T13:03:55Z</time>
      </trkpt>
      <trkpt lat="46.58369" lon="5.45732">
        <ele>282.8</ele>
        <time>2022-02-26T13:03:58Z</time>
      </trkpt>
      <trkpt lat="46.58372" lon="5.45744">
        <ele>283.2</ele>
        <time>2022-02-26T13:04:00Z</time>
      </trkpt>
      <trkpt lat="46.58376" lon="5.45767">
        <ele>283.8</ele>
        <time>2022-02-26T13:04:04Z</time>
      </trkpt>
      <trkpt lat="46.58377" lon="5.45773">
        <ele>283.8</ele>
        <time>2022-02-26T13:04:05Z</time>
      </trkpt>
      <trkpt lat="46.58385" lon="5.45793">
        <ele>284</ele>
        <time>2022-02-26T13:04:08Z</time>
      </trkpt>
      <trkpt lat="46.58401" lon="5.4583">
        <ele>283.2</ele>
        <time>2022-02-26T13:04:13Z</time>
      </trkpt>
      <trkpt lat="46.58405" lon="5.45837">
        <ele>283</ele>
        <time>2022-02-26T13:04:14Z</time>
      </trkpt>
      <trkpt lat="46.5841" lon="5.45842">
        <ele>282.8</ele>
        <time>2022-02-26T13:04:15Z</time>
      </trkpt>
      <trkpt lat="46.58415" lon="5.45847">
        <ele>282.4</ele>
        <time>2022-02-26T13:04:16Z</time>
      </trkpt>
      <trkpt lat="46.5842" lon="5.45851">
        <ele>282.2</ele>
        <time>2022-02-26T13:04:17Z</time>
      </trkpt>
      <trkpt lat="46.58436" lon="5.45861">
        <ele>281.4</ele>
        <time>2022-02-26T13:04:20Z</time>
      </trkpt>
      <trkpt lat="46.5846" lon="5.45877">
        <ele>281</ele>
        <time>2022-02-26T13:04:25Z</time>
      </trkpt>
      <trkpt lat="46.58479" lon="5.45897">
        <ele>281.4</ele>
        <time>2022-02-26T13:04:30Z</time>
      </trkpt>
      <trkpt lat="46.58492" lon="5.45912">
        <ele>282.4</ele>
        <time>2022-02-26T13:04:34Z</time>
      </trkpt>
      <trkpt lat="46.58498" lon="5.45921">
        <ele>282.8</ele>
        <time>2022-02-26T13:04:36Z</time>
      </trkpt>
      <trkpt lat="46.58501" lon="5.45926">
        <ele>283.2</ele>
        <time>2022-02-26T13:04:37Z</time>
      </trkpt>
      <trkpt lat="46.58503" lon="5.45931">
        <ele>283.4</ele>
        <time>2022-02-26T13:04:38Z</time>
      </trkpt>
      <trkpt lat="46.58505" lon="5.45936">
        <ele>284</ele>
        <time>2022-02-26T13:04:39Z</time>
      </trkpt>
      <trkpt lat="46.58511" lon="5.45943">
        <ele>285</ele>
        <time>2022-02-26T13:04:41Z</time>
      </trkpt>
      <trkpt lat="46.58513" lon="5.45948">
        <ele>285.2</ele>
        <time>2022-02-26T13:04:42Z</time>
      </trkpt>
      <trkpt lat="46.58516" lon="5.45953">
        <ele>285.4</ele>
        <time>2022-02-26T13:04:43Z</time>
      </trkpt>
      <trkpt lat="46.58526" lon="5.45979">
        <ele>286.2</ele>
        <time>2022-02-26T13:04:48Z</time>
      </trkpt>
      <trkpt lat="46.58529" lon="5.4599">
        <ele>286.6</ele>
        <time>2022-02-26T13:04:50Z</time>
      </trkpt>
      <trkpt lat="46.58537" lon="5.46017">
        <ele>287.4</ele>
        <time>2022-02-26T13:04:55Z</time>
      </trkpt>
      <trkpt lat="46.58541" lon="5.46027">
        <ele>287.8</ele>
        <time>2022-02-26T13:04:57Z</time>
      </trkpt>
      <trkpt lat="46.58549" lon="5.46049">
        <ele>288.6</ele>
        <time>2022-02-26T13:05:01Z</time>
      </trkpt>
      <trkpt lat="46.58556" lon="5.46072">
        <ele>289.2</ele>
        <time>2022-02-26T13:05:05Z</time>
      </trkpt>
      <trkpt lat="46.58573" lon="5.46125">
        <ele>289.8</ele>
        <time>2022-02-26T13:05:14Z</time>
      </trkpt>
      <trkpt lat="46.58575" lon="5.46132">
        <ele>289.8</ele>
        <time>2022-02-26T13:05:15Z</time>
      </trkpt>
      <trkpt lat="46.58593" lon="5.46188">
        <ele>290.4</ele>
        <time>2022-02-26T13:05:24Z</time>
      </trkpt>
      <trkpt lat="46.58607" lon="5.46235">
        <ele>290.6</ele>
        <time>2022-02-26T13:05:31Z</time>
      </trkpt>
      <trkpt lat="46.58607" lon="5.46252">
        <ele>290.6</ele>
        <time>2022-02-26T13:05:33Z</time>
      </trkpt>
      <trkpt lat="46.58604" lon="5.46269">
        <ele>290.4</ele>
        <time>2022-02-26T13:05:35Z</time>
      </trkpt>
      <trkpt lat="46.58589" lon="5.4631">
        <ele>290.2</ele>
        <time>2022-02-26T13:05:40Z</time>
      </trkpt>
      <trkpt lat="46.58576" lon="5.46345">
        <ele>290</ele>
        <time>2022-02-26T13:05:44Z</time>
      </trkpt>
      <trkpt lat="46.58571" lon="5.46363">
        <ele>289.8</ele>
        <time>2022-02-26T13:05:46Z</time>
      </trkpt>
      <trkpt lat="46.58569" lon="5.46372">
        <ele>289.6</ele>
        <time>2022-02-26T13:05:47Z</time>
      </trkpt>
      <trkpt lat="46.58567" lon="5.46411">
        <ele>289.2</ele>
        <time>2022-02-26T13:05:51Z</time>
      </trkpt>
      <trkpt lat="46.58567" lon="5.46463">
        <ele>288.6</ele>
        <time>2022-02-26T13:05:56Z</time>
      </trkpt>
      <trkpt lat="46.58565" lon="5.46484">
        <ele>288</ele>
        <time>2022-02-26T13:05:58Z</time>
      </trkpt>
      <trkpt lat="46.58565" lon="5.46494">
        <ele>287.6</ele>
        <time>2022-02-26T13:05:59Z</time>
      </trkpt>
      <trkpt lat="46.58558" lon="5.46556">
        <ele>286.4</ele>
        <time>2022-02-26T13:06:05Z</time>
      </trkpt>
      <trkpt lat="46.58556" lon="5.46576">
        <ele>286</ele>
        <time>2022-02-26T13:06:07Z</time>
      </trkpt>
      <trkpt lat="46.58554" lon="5.46595">
        <ele>285.4</ele>
        <time>2022-02-26T13:06:09Z</time>
      </trkpt>
      <trkpt lat="46.58547" lon="5.46632">
        <ele>284.2</ele>
        <time>2022-02-26T13:06:13Z</time>
      </trkpt>
      <trkpt lat="46.58545" lon="5.46641">
        <ele>284.2</ele>
        <time>2022-02-26T13:06:14Z</time>
      </trkpt>
      <trkpt lat="46.58539" lon="5.46658">
        <ele>283.8</ele>
        <time>2022-02-26T13:06:16Z</time>
      </trkpt>
      <trkpt lat="46.58532" lon="5.4667">
        <ele>283.6</ele>
        <time>2022-02-26T13:06:18Z</time>
      </trkpt>
      <trkpt lat="46.58528" lon="5.46676">
        <ele>283.4</ele>
        <time>2022-02-26T13:06:19Z</time>
      </trkpt>
      <trkpt lat="46.58513" lon="5.46692">
        <ele>283.2</ele>
        <time>2022-02-26T13:06:22Z</time>
      </trkpt>
      <trkpt lat="46.58498" lon="5.46706">
        <ele>282.8</ele>
        <time>2022-02-26T13:06:25Z</time>
      </trkpt>
      <trkpt lat="46.58469" lon="5.46733">
        <ele>282.2</ele>
        <time>2022-02-26T13:06:30Z</time>
      </trkpt>
      <trkpt lat="46.58462" lon="5.4674">
        <ele>282</ele>
        <time>2022-02-26T13:06:31Z</time>
      </trkpt>
      <trkpt lat="46.58452" lon="5.46758">
        <ele>281.6</ele>
        <time>2022-02-26T13:06:33Z</time>
      </trkpt>
      <trkpt lat="46.5845" lon="5.4677">
        <ele>281.6</ele>
        <time>2022-02-26T13:06:34Z</time>
      </trkpt>
      <trkpt lat="46.5845" lon="5.46783">
        <ele>280.4</ele>
        <time>2022-02-26T13:06:35Z</time>
      </trkpt>
      <trkpt lat="46.58452" lon="5.46795">
        <ele>279.6</ele>
        <time>2022-02-26T13:06:36Z</time>
      </trkpt>
      <trkpt lat="46.58456" lon="5.46807">
        <ele>278.8</ele>
        <time>2022-02-26T13:06:37Z</time>
      </trkpt>
      <trkpt lat="46.58465" lon="5.46829">
        <ele>277.6</ele>
        <time>2022-02-26T13:06:39Z</time>
      </trkpt>
      <trkpt lat="46.5847" lon="5.4684">
        <ele>276.8</ele>
        <time>2022-02-26T13:06:40Z</time>
      </trkpt>
      <trkpt lat="46.58474" lon="5.46851">
        <ele>276.2</ele>
        <time>2022-02-26T13:06:41Z</time>
      </trkpt>
      <trkpt lat="46.58484" lon="5.46875">
        <ele>274.8</ele>
        <time>2022-02-26T13:06:43Z</time>
      </trkpt>
      <trkpt lat="46.58493" lon="5.46893">
        <ele>273.6</ele>
        <time>2022-02-26T13:06:45Z</time>
      </trkpt>
      <trkpt lat="46.58507" lon="5.46921">
        <ele>272.6</ele>
        <time>2022-02-26T13:06:48Z</time>
      </trkpt>
      <trkpt lat="46.58518" lon="5.46938">
        <ele>271.4</ele>
        <time>2022-02-26T13:06:50Z</time>
      </trkpt>
      <trkpt lat="46.58528" lon="5.46954">
        <ele>269.8</ele>
        <time>2022-02-26T13:06:52Z</time>
      </trkpt>
      <trkpt lat="46.58537" lon="5.46966">
        <ele>268.6</ele>
        <time>2022-02-26T13:06:54Z</time>
      </trkpt>
      <trkpt lat="46.58545" lon="5.46976">
        <ele>267.2</ele>
        <time>2022-02-26T13:06:56Z</time>
      </trkpt>
      <trkpt lat="46.58549" lon="5.46981">
        <ele>267</ele>
        <time>2022-02-26T13:06:57Z</time>
      </trkpt>
      <trkpt lat="46.58553" lon="5.46983">
        <ele>266.8</ele>
        <time>2022-02-26T13:06:58Z</time>
      </trkpt>
      <trkpt lat="46.58559" lon="5.46983">
        <ele>266.6</ele>
        <time>2022-02-26T13:06:59Z</time>
      </trkpt>
      <trkpt lat="46.58565" lon="5.46978">
        <ele>266.6</ele>
        <time>2022-02-26T13:07:01Z</time>
      </trkpt>
      <trkpt lat="46.58577" lon="5.46953">
        <ele>268</ele>
        <time>2022-02-26T13:07:07Z</time>
      </trkpt>
      <trkpt lat="46.58579" lon="5.46948">
        <ele>268.4</ele>
        <time>2022-02-26T13:07:08Z</time>
      </trkpt>
      <trkpt lat="46.58584" lon="5.46926">
        <ele>269.6</ele>
        <time>2022-02-26T13:07:13Z</time>
      </trkpt>
      <trkpt lat="46.58591" lon="5.46921">
        <ele>270.4</ele>
        <time>2022-02-26T13:07:16Z</time>
      </trkpt>
      <trkpt lat="46.58595" lon="5.46921">
        <ele>270.8</ele>
        <time>2022-02-26T13:07:17Z</time>
      </trkpt>
      <trkpt lat="46.586" lon="5.46928">
        <ele>271.4</ele>
        <time>2022-02-26T13:07:19Z</time>
      </trkpt>
      <trkpt lat="46.58601" lon="5.46932">
        <ele>271.6</ele>
        <time>2022-02-26T13:07:20Z</time>
      </trkpt>
      <trkpt lat="46.58601" lon="5.46937">
        <ele>272</ele>
        <time>2022-02-26T13:07:21Z</time>
      </trkpt>
      <trkpt lat="46.58599" lon="5.46956">
        <ele>273</ele>
        <time>2022-02-26T13:07:25Z</time>
      </trkpt>
      <trkpt lat="46.58599" lon="5.46961">
        <ele>273.2</ele>
        <time>2022-02-26T13:07:26Z</time>
      </trkpt>
      <trkpt lat="46.58603" lon="5.46979">
        <ele>274.4</ele>
        <time>2022-02-26T13:07:30Z</time>
      </trkpt>
      <trkpt lat="46.58604" lon="5.46983">
        <ele>274.6</ele>
        <time>2022-02-26T13:07:31Z</time>
      </trkpt>
      <trkpt lat="46.5861" lon="5.46994">
        <ele>275.4</ele>
        <time>2022-02-26T13:07:34Z</time>
      </trkpt>
      <trkpt lat="46.58619" lon="5.47003">
        <ele>276.2</ele>
        <time>2022-02-26T13:07:37Z</time>
      </trkpt>
      <trkpt lat="46.58625" lon="5.47007">
        <ele>276.8</ele>
        <time>2022-02-26T13:07:39Z</time>
      </trkpt>
      <trkpt lat="46.58639" lon="5.47022">
        <ele>278</ele>
        <time>2022-02-26T13:07:44Z</time>
      </trkpt>
      <trkpt lat="46.58654" lon="5.47033">
        <ele>279.2</ele>
        <time>2022-02-26T13:07:49Z</time>
      </trkpt>
      <trkpt lat="46.58656" lon="5.47035">
        <ele>279.4</ele>
        <time>2022-02-26T13:07:50Z</time>
      </trkpt>
      <trkpt lat="46.58662" lon="5.47037">
        <ele>280.2</ele>
        <time>2022-02-26T13:07:52Z</time>
      </trkpt>
      <trkpt lat="46.58675" lon="5.47039">
        <ele>281.4</ele>
        <time>2022-02-26T13:07:56Z</time>
      </trkpt>
      <trkpt lat="46.58678" lon="5.47039">
        <ele>281.6</ele>
        <time>2022-02-26T13:07:57Z</time>
      </trkpt>
      <trkpt lat="46.58691" lon="5.47036">
        <ele>282.8</ele>
        <time>2022-02-26T13:08:01Z</time>
      </trkpt>
      <trkpt lat="46.587" lon="5.47033">
        <ele>283.8</ele>
        <time>2022-02-26T13:08:04Z</time>
      </trkpt>
      <trkpt lat="46.58703" lon="5.47032">
        <ele>284.2</ele>
        <time>2022-02-26T13:08:05Z</time>
      </trkpt>
      <trkpt lat="46.58716" lon="5.47028">
        <ele>285.2</ele>
        <time>2022-02-26T13:08:09Z</time>
      </trkpt>
      <trkpt lat="46.5873" lon="5.47026">
        <ele>286.2</ele>
        <time>2022-02-26T13:08:13Z</time>
      </trkpt>
      <trkpt lat="46.58737" lon="5.47026">
        <ele>286.2</ele>
        <time>2022-02-26T13:08:15Z</time>
      </trkpt>
      <trkpt lat="46.58763" lon="5.4703">
        <ele>287</ele>
        <time>2022-02-26T13:08:22Z</time>
      </trkpt>
      <trkpt lat="46.58773" lon="5.47034">
        <ele>287.2</ele>
        <time>2022-02-26T13:08:25Z</time>
      </trkpt>
      <trkpt lat="46.58791" lon="5.47048">
        <ele>288</ele>
        <time>2022-02-26T13:08:30Z</time>
      </trkpt>
      <trkpt lat="46.58802" lon="5.47058">
        <ele>288.4</ele>
        <time>2022-02-26T13:08:33Z</time>
      </trkpt>
      <trkpt lat="46.58815" lon="5.47075">
        <ele>289</ele>
        <time>2022-02-26T13:08:37Z</time>
      </trkpt>
      <trkpt lat="46.58827" lon="5.4709">
        <ele>289.4</ele>
        <time>2022-02-26T13:08:41Z</time>
      </trkpt>
      <trkpt lat="46.58839" lon="5.47104">
        <ele>290.2</ele>
        <time>2022-02-26T13:08:45Z</time>
      </trkpt>
      <trkpt lat="46.58848" lon="5.47114">
        <ele>290.6</ele>
        <time>2022-02-26T13:08:48Z</time>
      </trkpt>
      <trkpt lat="46.58869" lon="5.47129">
        <ele>291.6</ele>
        <time>2022-02-26T13:08:54Z</time>
      </trkpt>
      <trkpt lat="46.58873" lon="5.47131">
        <ele>291.8</ele>
        <time>2022-02-26T13:08:55Z</time>
      </trkpt>
      <trkpt lat="46.58904" lon="5.4715">
        <ele>293</ele>
        <time>2022-02-26T13:09:04Z</time>
      </trkpt>
      <trkpt lat="46.5891" lon="5.47155">
        <ele>293.2</ele>
        <time>2022-02-26T13:09:06Z</time>
      </trkpt>
      <trkpt lat="46.58924" lon="5.47166">
        <ele>294</ele>
        <time>2022-02-26T13:09:10Z</time>
      </trkpt>
      <trkpt lat="46.58953" lon="5.47192">
        <ele>295</ele>
        <time>2022-02-26T13:09:18Z</time>
      </trkpt>
      <trkpt lat="46.58961" lon="5.47198">
        <ele>295.2</ele>
        <time>2022-02-26T13:09:20Z</time>
      </trkpt>
      <trkpt lat="46.5899" lon="5.47222">
        <ele>296.4</ele>
        <time>2022-02-26T13:09:29Z</time>
      </trkpt>
      <trkpt lat="46.59007" lon="5.47237">
        <ele>297.6</ele>
        <time>2022-02-26T13:09:34Z</time>
      </trkpt>
      <trkpt lat="46.59025" lon="5.47257">
        <ele>298.6</ele>
        <time>2022-02-26T13:09:40Z</time>
      </trkpt>
      <trkpt lat="46.59027" lon="5.4726">
        <ele>298.8</ele>
        <time>2022-02-26T13:09:41Z</time>
      </trkpt>
      <trkpt lat="46.59041" lon="5.47276">
        <ele>300</ele>
        <time>2022-02-26T13:09:46Z</time>
      </trkpt>
      <trkpt lat="46.59048" lon="5.47284">
        <ele>300.4</ele>
        <time>2022-02-26T13:09:48Z</time>
      </trkpt>
      <trkpt lat="46.59056" lon="5.47292">
        <ele>301</ele>
        <time>2022-02-26T13:09:51Z</time>
      </trkpt>
      <trkpt lat="46.5907" lon="5.47302">
        <ele>302.2</ele>
        <time>2022-02-26T13:09:55Z</time>
      </trkpt>
      <trkpt lat="46.591" lon="5.47312">
        <ele>303.2</ele>
        <time>2022-02-26T13:10:03Z</time>
      </trkpt>
      <trkpt lat="46.59137" lon="5.47323">
        <ele>304.2</ele>
        <time>2022-02-26T13:10:12Z</time>
      </trkpt>
      <trkpt lat="46.59141" lon="5.47325">
        <ele>304.2</ele>
        <time>2022-02-26T13:10:13Z</time>
      </trkpt>
      <trkpt lat="46.59161" lon="5.47335">
        <ele>304</ele>
        <time>2022-02-26T13:10:17Z</time>
      </trkpt>
      <trkpt lat="46.59184" lon="5.47348">
        <ele>303.4</ele>
        <time>2022-02-26T13:10:21Z</time>
      </trkpt>
      <trkpt lat="46.59189" lon="5.47352">
        <ele>302.6</ele>
        <time>2022-02-26T13:10:22Z</time>
      </trkpt>
      <trkpt lat="46.59204" lon="5.47367">
        <ele>301.4</ele>
        <time>2022-02-26T13:10:26Z</time>
      </trkpt>
      <trkpt lat="46.59207" lon="5.47369">
        <ele>301.2</ele>
        <time>2022-02-26T13:10:27Z</time>
      </trkpt>
      <trkpt lat="46.59214" lon="5.47367">
        <ele>300.6</ele>
        <time>2022-02-26T13:10:29Z</time>
      </trkpt>
      <trkpt lat="46.59218" lon="5.47364">
        <ele>300.6</ele>
        <time>2022-02-26T13:10:30Z</time>
      </trkpt>
      <trkpt lat="46.59223" lon="5.4736">
        <ele>300.2</ele>
        <time>2022-02-26T13:10:31Z</time>
      </trkpt>
      <trkpt lat="46.59227" lon="5.47354">
        <ele>300.2</ele>
        <time>2022-02-26T13:10:32Z</time>
      </trkpt>
      <trkpt lat="46.59232" lon="5.47338">
        <ele>299.8</ele>
        <time>2022-02-26T13:10:34Z</time>
      </trkpt>
      <trkpt lat="46.59232" lon="5.47329">
        <ele>299.4</ele>
        <time>2022-02-26T13:10:35Z</time>
      </trkpt>
      <trkpt lat="46.59229" lon="5.47319">
        <ele>299</ele>
        <time>2022-02-26T13:10:36Z</time>
      </trkpt>
      <trkpt lat="46.59217" lon="5.47288">
        <ele>298.6</ele>
        <time>2022-02-26T13:10:39Z</time>
      </trkpt>
      <trkpt lat="46.59212" lon="5.47277">
        <ele>298.4</ele>
        <time>2022-02-26T13:10:40Z</time>
      </trkpt>
      <trkpt lat="46.59208" lon="5.47251">
        <ele>297.4</ele>
        <time>2022-02-26T13:10:42Z</time>
      </trkpt>
      <trkpt lat="46.59211" lon="5.47224">
        <ele>296.6</ele>
        <time>2022-02-26T13:10:44Z</time>
      </trkpt>
      <trkpt lat="46.59215" lon="5.47208">
        <ele>295.6</ele>
        <time>2022-02-26T13:10:45Z</time>
      </trkpt>
      <trkpt lat="46.59219" lon="5.47199">
        <ele>295</ele>
        <time>2022-02-26T13:10:46Z</time>
      </trkpt>
      <trkpt lat="46.59225" lon="5.47188">
        <ele>294.2</ele>
        <time>2022-02-26T13:10:47Z</time>
      </trkpt>
      <trkpt lat="46.59231" lon="5.47177">
        <ele>293.8</ele>
        <time>2022-02-26T13:10:48Z</time>
      </trkpt>
      <trkpt lat="46.5924" lon="5.47165">
        <ele>293.2</ele>
        <time>2022-02-26T13:10:49Z</time>
      </trkpt>
      <trkpt lat="46.59247" lon="5.47158">
        <ele>292.6</ele>
        <time>2022-02-26T13:10:50Z</time>
      </trkpt>
      <trkpt lat="46.59255" lon="5.47152">
        <ele>291.8</ele>
        <time>2022-02-26T13:10:51Z</time>
      </trkpt>
      <trkpt lat="46.59265" lon="5.47146">
        <ele>290.6</ele>
        <time>2022-02-26T13:10:52Z</time>
      </trkpt>
      <trkpt lat="46.59285" lon="5.47132">
        <ele>288.8</ele>
        <time>2022-02-26T13:10:54Z</time>
      </trkpt>
      <trkpt lat="46.59292" lon="5.47123">
        <ele>288.4</ele>
        <time>2022-02-26T13:10:55Z</time>
      </trkpt>
      <trkpt lat="46.59297" lon="5.47114">
        <ele>287.6</ele>
        <time>2022-02-26T13:10:56Z</time>
      </trkpt>
      <trkpt lat="46.59301" lon="5.47099">
        <ele>287</ele>
        <time>2022-02-26T13:10:57Z</time>
      </trkpt>
      <trkpt lat="46.59302" lon="5.47087">
        <ele>286.2</ele>
        <time>2022-02-26T13:10:58Z</time>
      </trkpt>
      <trkpt lat="46.59296" lon="5.47061">
        <ele>285.4</ele>
        <time>2022-02-26T13:11:00Z</time>
      </trkpt>
      <trkpt lat="46.59291" lon="5.47048">
        <ele>284.6</ele>
        <time>2022-02-26T13:11:01Z</time>
      </trkpt>
      <trkpt lat="46.59287" lon="5.47034">
        <ele>284.4</ele>
        <time>2022-02-26T13:11:02Z</time>
      </trkpt>
      <trkpt lat="46.59284" lon="5.47004">
        <ele>283.4</ele>
        <time>2022-02-26T13:11:04Z</time>
      </trkpt>
      <trkpt lat="46.5929" lon="5.46972">
        <ele>283</ele>
        <time>2022-02-26T13:11:06Z</time>
      </trkpt>
      <trkpt lat="46.59294" lon="5.46959">
        <ele>282</ele>
        <time>2022-02-26T13:11:07Z</time>
      </trkpt>
      <trkpt lat="46.59297" lon="5.46949">
        <ele>280.8</ele>
        <time>2022-02-26T13:11:08Z</time>
      </trkpt>
      <trkpt lat="46.59306" lon="5.4693">
        <ele>279.8</ele>
        <time>2022-02-26T13:11:10Z</time>
      </trkpt>
      <trkpt lat="46.59312" lon="5.46923">
        <ele>279.4</ele>
        <time>2022-02-26T13:11:11Z</time>
      </trkpt>
      <trkpt lat="46.59319" lon="5.4692">
        <ele>279</ele>
        <time>2022-02-26T13:11:12Z</time>
      </trkpt>
      <trkpt lat="46.59332" lon="5.46928">
        <ele>278.2</ele>
        <time>2022-02-26T13:11:14Z</time>
      </trkpt>
      <trkpt lat="46.59339" lon="5.46952">
        <ele>277.2</ele>
        <time>2022-02-26T13:11:16Z</time>
      </trkpt>
      <trkpt lat="46.59342" lon="5.46962">
        <ele>276.8</ele>
        <time>2022-02-26T13:11:17Z</time>
      </trkpt>
      <trkpt lat="46.59345" lon="5.46973">
        <ele>276.6</ele>
        <time>2022-02-26T13:11:18Z</time>
      </trkpt>
      <trkpt lat="46.5935" lon="5.46983">
        <ele>276.2</ele>
        <time>2022-02-26T13:11:19Z</time>
      </trkpt>
      <trkpt lat="46.59356" lon="5.46992">
        <ele>276</ele>
        <time>2022-02-26T13:11:20Z</time>
      </trkpt>
      <trkpt lat="46.59373" lon="5.47007">
        <ele>275.6</ele>
        <time>2022-02-26T13:11:22Z</time>
      </trkpt>
      <trkpt lat="46.59379" lon="5.47011">
        <ele>275</ele>
        <time>2022-02-26T13:11:23Z</time>
      </trkpt>
      <trkpt lat="46.59398" lon="5.4702">
        <ele>274</ele>
        <time>2022-02-26T13:11:25Z</time>
      </trkpt>
      <trkpt lat="46.59404" lon="5.47024">
        <ele>272.6</ele>
        <time>2022-02-26T13:11:26Z</time>
      </trkpt>
      <trkpt lat="46.59421" lon="5.47032">
        <ele>271</ele>
        <time>2022-02-26T13:11:28Z</time>
      </trkpt>
      <trkpt lat="46.59437" lon="5.47041">
        <ele>269.2</ele>
        <time>2022-02-26T13:11:30Z</time>
      </trkpt>
      <trkpt lat="46.59444" lon="5.47046">
        <ele>268.8</ele>
        <time>2022-02-26T13:11:31Z</time>
      </trkpt>
      <trkpt lat="46.5945" lon="5.47052">
        <ele>268.2</ele>
        <time>2022-02-26T13:11:32Z</time>
      </trkpt>
      <trkpt lat="46.59455" lon="5.4706">
        <ele>267.4</ele>
        <time>2022-02-26T13:11:33Z</time>
      </trkpt>
      <trkpt lat="46.59458" lon="5.47071">
        <ele>267</ele>
        <time>2022-02-26T13:11:34Z</time>
      </trkpt>
      <trkpt lat="46.59457" lon="5.47082">
        <ele>266.4</ele>
        <time>2022-02-26T13:11:35Z</time>
      </trkpt>
      <trkpt lat="46.59451" lon="5.471">
        <ele>266</ele>
        <time>2022-02-26T13:11:37Z</time>
      </trkpt>
      <trkpt lat="46.59444" lon="5.4711">
        <ele>265.8</ele>
        <time>2022-02-26T13:11:38Z</time>
      </trkpt>
      <trkpt lat="46.59433" lon="5.47127">
        <ele>265.4</ele>
        <time>2022-02-26T13:11:40Z</time>
      </trkpt>
      <trkpt lat="46.59427" lon="5.47145">
        <ele>265</ele>
        <time>2022-02-26T13:11:42Z</time>
      </trkpt>
      <trkpt lat="46.59428" lon="5.47165">
        <ele>264.2</ele>
        <time>2022-02-26T13:11:44Z</time>
      </trkpt>
      <trkpt lat="46.59435" lon="5.47183">
        <ele>263.4</ele>
        <time>2022-02-26T13:11:46Z</time>
      </trkpt>
      <trkpt lat="46.59442" lon="5.47191">
        <ele>263.4</ele>
        <time>2022-02-26T13:11:47Z</time>
      </trkpt>
      <trkpt lat="46.59447" lon="5.47196">
        <ele>262.6</ele>
        <time>2022-02-26T13:11:48Z</time>
      </trkpt>
      <trkpt lat="46.59466" lon="5.47214">
        <ele>260.8</ele>
        <time>2022-02-26T13:11:51Z</time>
      </trkpt>
      <trkpt lat="46.59481" lon="5.47227">
        <ele>259.6</ele>
        <time>2022-02-26T13:11:53Z</time>
      </trkpt>
      <trkpt lat="46.59493" lon="5.47238">
        <ele>258.6</ele>
        <time>2022-02-26T13:11:55Z</time>
      </trkpt>
      <trkpt lat="46.59499" lon="5.47243">
        <ele>257.8</ele>
        <time>2022-02-26T13:11:56Z</time>
      </trkpt>
      <trkpt lat="46.59506" lon="5.47247">
        <ele>257</ele>
        <time>2022-02-26T13:11:57Z</time>
      </trkpt>
      <trkpt lat="46.59515" lon="5.47251">
        <ele>256.4</ele>
        <time>2022-02-26T13:11:58Z</time>
      </trkpt>
      <trkpt lat="46.59523" lon="5.47254">
        <ele>256.2</ele>
        <time>2022-02-26T13:11:59Z</time>
      </trkpt>
      <trkpt lat="46.59529" lon="5.47255">
        <ele>255.2</ele>
        <time>2022-02-26T13:12:00Z</time>
      </trkpt>
      <trkpt lat="46.59547" lon="5.47255">
        <ele>254.2</ele>
        <time>2022-02-26T13:12:02Z</time>
      </trkpt>
      <trkpt lat="46.59562" lon="5.47254">
        <ele>253.4</ele>
        <time>2022-02-26T13:12:04Z</time>
      </trkpt>
      <trkpt lat="46.5957" lon="5.47253">
        <ele>253</ele>
        <time>2022-02-26T13:12:05Z</time>
      </trkpt>
      <trkpt lat="46.59604" lon="5.47252">
        <ele>251.8</ele>
        <time>2022-02-26T13:12:09Z</time>
      </trkpt>
      <trkpt lat="46.59622" lon="5.47251">
        <ele>251</ele>
        <time>2022-02-26T13:12:11Z</time>
      </trkpt>
      <trkpt lat="46.59629" lon="5.47251">
        <ele>250.2</ele>
        <time>2022-02-26T13:12:12Z</time>
      </trkpt>
      <trkpt lat="46.59647" lon="5.47251">
        <ele>248.8</ele>
        <time>2022-02-26T13:12:14Z</time>
      </trkpt>
      <trkpt lat="46.59665" lon="5.4725">
        <ele>247.6</ele>
        <time>2022-02-26T13:12:16Z</time>
      </trkpt>
      <trkpt lat="46.59683" lon="5.47249">
        <ele>246.6</ele>
        <time>2022-02-26T13:12:18Z</time>
      </trkpt>
      <trkpt lat="46.59702" lon="5.4725">
        <ele>245.4</ele>
        <time>2022-02-26T13:12:20Z</time>
      </trkpt>
      <trkpt lat="46.59729" lon="5.47248">
        <ele>244</ele>
        <time>2022-02-26T13:12:23Z</time>
      </trkpt>
      <trkpt lat="46.59749" lon="5.47248">
        <ele>242.4</ele>
        <time>2022-02-26T13:12:25Z</time>
      </trkpt>
      <trkpt lat="46.59766" lon="5.47247">
        <ele>241</ele>
        <time>2022-02-26T13:12:27Z</time>
      </trkpt>
      <trkpt lat="46.59786" lon="5.47243">
        <ele>240</ele>
        <time>2022-02-26T13:12:29Z</time>
      </trkpt>
      <trkpt lat="46.59793" lon="5.4724">
        <ele>239.2</ele>
        <time>2022-02-26T13:12:30Z</time>
      </trkpt>
      <trkpt lat="46.59801" lon="5.47235">
        <ele>239</ele>
        <time>2022-02-26T13:12:31Z</time>
      </trkpt>
      <trkpt lat="46.59817" lon="5.47221">
        <ele>238.4</ele>
        <time>2022-02-26T13:12:33Z</time>
      </trkpt>
      <trkpt lat="46.59825" lon="5.47214">
        <ele>238</ele>
        <time>2022-02-26T13:12:34Z</time>
      </trkpt>
      <trkpt lat="46.59848" lon="5.47193">
        <ele>237</ele>
        <time>2022-02-26T13:12:37Z</time>
      </trkpt>
      <trkpt lat="46.59864" lon="5.47178">
        <ele>235.8</ele>
        <time>2022-02-26T13:12:39Z</time>
      </trkpt>
      <trkpt lat="46.59869" lon="5.47173">
        <ele>235.8</ele>
        <time>2022-02-26T13:12:40Z</time>
      </trkpt>
      <trkpt lat="46.59888" lon="5.47154">
        <ele>234.6</ele>
        <time>2022-02-26T13:12:43Z</time>
      </trkpt>
      <trkpt lat="46.59894" lon="5.47146">
        <ele>234.2</ele>
        <time>2022-02-26T13:12:44Z</time>
      </trkpt>
      <trkpt lat="46.59898" lon="5.47142">
        <ele>234</ele>
        <time>2022-02-26T13:12:45Z</time>
      </trkpt>
      <trkpt lat="46.59913" lon="5.47138">
        <ele>233.8</ele>
        <time>2022-02-26T13:12:47Z</time>
      </trkpt>
      <trkpt lat="46.59919" lon="5.47144">
        <ele>233.4</ele>
        <time>2022-02-26T13:12:48Z</time>
      </trkpt>
      <trkpt lat="46.5993" lon="5.47155">
        <ele>233</ele>
        <time>2022-02-26T13:12:50Z</time>
      </trkpt>
      <trkpt lat="46.59936" lon="5.47161">
        <ele>232.8</ele>
        <time>2022-02-26T13:12:51Z</time>
      </trkpt>
      <trkpt lat="46.59942" lon="5.47166">
        <ele>232.4</ele>
        <time>2022-02-26T13:12:52Z</time>
      </trkpt>
      <trkpt lat="46.5995" lon="5.47172">
        <ele>232</ele>
        <time>2022-02-26T13:12:53Z</time>
      </trkpt>
      <trkpt lat="46.59955" lon="5.47174">
        <ele>231.6</ele>
        <time>2022-02-26T13:12:54Z</time>
      </trkpt>
      <trkpt lat="46.59962" lon="5.47178">
        <ele>231.2</ele>
        <time>2022-02-26T13:12:55Z</time>
      </trkpt>
      <trkpt lat="46.59988" lon="5.47196">
        <ele>230.2</ele>
        <time>2022-02-26T13:12:59Z</time>
      </trkpt>
      <trkpt lat="46.59995" lon="5.47203">
        <ele>230</ele>
        <time>2022-02-26T13:13:00Z</time>
      </trkpt>
      <trkpt lat="46.6002" lon="5.47232">
        <ele>229.4</ele>
        <time>2022-02-26T13:13:05Z</time>
      </trkpt>
      <trkpt lat="46.60049" lon="5.47258">
        <ele>229.4</ele>
        <time>2022-02-26T13:13:11Z</time>
      </trkpt>
      <trkpt lat="46.6006" lon="5.47266">
        <ele>229.6</ele>
        <time>2022-02-26T13:13:14Z</time>
      </trkpt>
      <trkpt lat="46.60067" lon="5.4727">
        <ele>230</ele>
        <time>2022-02-26T13:13:16Z</time>
      </trkpt>
      <trkpt lat="46.60084" lon="5.4728">
        <ele>231.4</ele>
        <time>2022-02-26T13:13:20Z</time>
      </trkpt>
      <trkpt lat="46.60094" lon="5.47287">
        <ele>232.4</ele>
        <time>2022-02-26T13:13:23Z</time>
      </trkpt>
      <trkpt lat="46.60098" lon="5.47289">
        <ele>232.4</ele>
        <time>2022-02-26T13:13:24Z</time>
      </trkpt>
      <trkpt lat="46.60122" lon="5.47302">
        <ele>233.6</ele>
        <time>2022-02-26T13:13:31Z</time>
      </trkpt>
      <trkpt lat="46.60141" lon="5.47313">
        <ele>234.8</ele>
        <time>2022-02-26T13:13:36Z</time>
      </trkpt>
      <trkpt lat="46.60155" lon="5.47323">
        <ele>235.2</ele>
        <time>2022-02-26T13:13:40Z</time>
      </trkpt>
      <trkpt lat="46.60173" lon="5.47333">
        <ele>236</ele>
        <time>2022-02-26T13:13:45Z</time>
      </trkpt>
      <trkpt lat="46.60192" lon="5.47345">
        <ele>237.2</ele>
        <time>2022-02-26T13:13:50Z</time>
      </trkpt>
      <trkpt lat="46.60206" lon="5.47354">
        <ele>238.2</ele>
        <time>2022-02-26T13:13:54Z</time>
      </trkpt>
      <trkpt lat="46.60225" lon="5.47363">
        <ele>239.2</ele>
        <time>2022-02-26T13:13:59Z</time>
      </trkpt>
      <trkpt lat="46.60236" lon="5.4737">
        <ele>240.6</ele>
        <time>2022-02-26T13:14:04Z</time>
      </trkpt>
      <trkpt lat="46.60251" lon="5.4738">
        <ele>241.2</ele>
        <time>2022-02-26T13:14:11Z</time>
      </trkpt>
      <trkpt lat="46.60266" lon="5.47388">
        <ele>241.2</ele>
        <time>2022-02-26T13:14:16Z</time>
      </trkpt>
      <trkpt lat="46.60284" lon="5.4739">
        <ele>240</ele>
        <time>2022-02-26T13:14:23Z</time>
      </trkpt>
      <trkpt lat="46.60287" lon="5.47387">
        <ele>239.4</ele>
        <time>2022-02-26T13:14:25Z</time>
      </trkpt>
      <trkpt lat="46.6029" lon="5.47374">
        <ele>239</ele>
        <time>2022-02-26T13:14:28Z</time>
      </trkpt>
      <trkpt lat="46.60295" lon="5.47341">
        <ele>238.6</ele>
        <time>2022-02-26T13:14:35Z</time>
      </trkpt>
      <trkpt lat="46.60297" lon="5.47335">
        <ele>238.4</ele>
        <time>2022-02-26T13:14:36Z</time>
      </trkpt>
      <trkpt lat="46.60304" lon="5.4731">
        <ele>238</ele>
        <time>2022-02-26T13:14:40Z</time>
      </trkpt>
      <trkpt lat="46.60314" lon="5.47274">
        <ele>237.2</ele>
        <time>2022-02-26T13:14:45Z</time>
      </trkpt>
      <trkpt lat="46.60318" lon="5.47261">
        <ele>236.8</ele>
        <time>2022-02-26T13:14:47Z</time>
      </trkpt>
      <trkpt lat="46.60326" lon="5.47229">
        <ele>236.2</ele>
        <time>2022-02-26T13:14:51Z</time>
      </trkpt>
      <trkpt lat="46.60332" lon="5.47196">
        <ele>235.4</ele>
        <time>2022-02-26T13:14:55Z</time>
      </trkpt>
      <trkpt lat="46.60333" lon="5.4718">
        <ele>235.2</ele>
        <time>2022-02-26T13:14:57Z</time>
      </trkpt>
      <trkpt lat="46.6034" lon="5.47134">
        <ele>234</ele>
        <time>2022-02-26T13:15:02Z</time>
      </trkpt>
      <trkpt lat="46.60342" lon="5.47125">
        <ele>233.8</ele>
        <time>2022-02-26T13:15:03Z</time>
      </trkpt>
      <trkpt lat="46.60352" lon="5.47068">
        <ele>233</ele>
        <time>2022-02-26T13:15:09Z</time>
      </trkpt>
      <trkpt lat="46.6036" lon="5.47028">
        <ele>232</ele>
        <time>2022-02-26T13:15:13Z</time>
      </trkpt>
      <trkpt lat="46.60362" lon="5.4702">
        <ele>231.8</ele>
        <time>2022-02-26T13:15:14Z</time>
      </trkpt>
      <trkpt lat="46.60376" lon="5.46972">
        <ele>230.6</ele>
        <time>2022-02-26T13:15:19Z</time>
      </trkpt>
      <trkpt lat="46.60378" lon="5.46965">
        <ele>230.4</ele>
        <time>2022-02-26T13:15:20Z</time>
      </trkpt>
      <trkpt lat="46.60398" lon="5.46893">
        <ele>229.4</ele>
        <time>2022-02-26T13:15:28Z</time>
      </trkpt>
      <trkpt lat="46.604" lon="5.46884">
        <ele>229.2</ele>
        <time>2022-02-26T13:15:29Z</time>
      </trkpt>
      <trkpt lat="46.60413" lon="5.46837">
        <ele>228.8</ele>
        <time>2022-02-26T13:15:35Z</time>
      </trkpt>
      <trkpt lat="46.60422" lon="5.46793">
        <ele>228.2</ele>
        <time>2022-02-26T13:15:40Z</time>
      </trkpt>
      <trkpt lat="46.60424" lon="5.46772">
        <ele>228</ele>
        <time>2022-02-26T13:15:42Z</time>
      </trkpt>
      <trkpt lat="46.60428" lon="5.46708">
        <ele>227.2</ele>
        <time>2022-02-26T13:15:49Z</time>
      </trkpt>
      <trkpt lat="46.60432" lon="5.46692">
        <ele>227.2</ele>
        <time>2022-02-26T13:15:51Z</time>
      </trkpt>
      <trkpt lat="46.60435" lon="5.46683">
        <ele>227.2</ele>
        <time>2022-02-26T13:15:53Z</time>
      </trkpt>
      <trkpt lat="46.6044" lon="5.46677">
        <ele>227.2</ele>
        <time>2022-02-26T13:15:56Z</time>
      </trkpt>
      <trkpt lat="46.60446" lon="5.46666">
        <ele>227.4</ele>
        <time>2022-02-26T13:16:01Z</time>
      </trkpt>
      <trkpt lat="46.60457" lon="5.4664">
        <ele>227.4</ele>
        <time>2022-02-26T13:16:06Z</time>
      </trkpt>
      <trkpt lat="46.60479" lon="5.46594">
        <ele>226</ele>
        <time>2022-02-26T13:16:13Z</time>
      </trkpt>
      <trkpt lat="46.6051" lon="5.46534">
        <ele>225</ele>
        <time>2022-02-26T13:16:22Z</time>
      </trkpt>
      <trkpt lat="46.60533" lon="5.46506">
        <ele>225</ele>
        <time>2022-02-26T13:16:27Z</time>
      </trkpt>
      <trkpt lat="46.60543" lon="5.465">
        <ele>225</ele>
        <time>2022-02-26T13:16:29Z</time>
      </trkpt>
      <trkpt lat="46.60575" lon="5.46485">
        <ele>225.4</ele>
        <time>2022-02-26T13:16:35Z</time>
      </trkpt>
      <trkpt lat="46.60586" lon="5.46478">
        <ele>225.6</ele>
        <time>2022-02-26T13:16:37Z</time>
      </trkpt>
      <trkpt lat="46.60599" lon="5.46465">
        <ele>225.8</ele>
        <time>2022-02-26T13:16:40Z</time>
      </trkpt>
      <trkpt lat="46.60603" lon="5.46459">
        <ele>225.8</ele>
        <time>2022-02-26T13:16:41Z</time>
      </trkpt>
      <trkpt lat="46.60621" lon="5.46427">
        <ele>225.6</ele>
        <time>2022-02-26T13:16:46Z</time>
      </trkpt>
      <trkpt lat="46.60649" lon="5.46374">
        <ele>225.8</ele>
        <time>2022-02-26T13:16:54Z</time>
      </trkpt>
      <trkpt lat="46.60657" lon="5.46362">
        <ele>226</ele>
        <time>2022-02-26T13:16:56Z</time>
      </trkpt>
      <trkpt lat="46.60661" lon="5.46358">
        <ele>226.2</ele>
        <time>2022-02-26T13:16:57Z</time>
      </trkpt>
      <trkpt lat="46.60675" lon="5.46343">
        <ele>226.4</ele>
        <time>2022-02-26T13:17:00Z</time>
      </trkpt>
      <trkpt lat="46.60707" lon="5.46316">
        <ele>227.2</ele>
        <time>2022-02-26T13:17:08Z</time>
      </trkpt>
      <trkpt lat="46.60718" lon="5.46306">
        <ele>227.8</ele>
        <time>2022-02-26T13:17:11Z</time>
      </trkpt>
      <trkpt lat="46.60727" lon="5.46293">
        <ele>228.4</ele>
        <time>2022-02-26T13:17:14Z</time>
      </trkpt>
      <trkpt lat="46.60739" lon="5.46277">
        <ele>229.4</ele>
        <time>2022-02-26T13:17:18Z</time>
      </trkpt>
      <trkpt lat="46.60758" lon="5.46254">
        <ele>230.6</ele>
        <time>2022-02-26T13:17:24Z</time>
      </trkpt>
      <trkpt lat="46.60776" lon="5.4623">
        <ele>231.6</ele>
        <time>2022-02-26T13:17:30Z</time>
      </trkpt>
      <trkpt lat="46.6079" lon="5.46215">
        <ele>232.8</ele>
        <time>2022-02-26T13:17:34Z</time>
      </trkpt>
      <trkpt lat="46.60808" lon="5.46196">
        <ele>233.8</ele>
        <time>2022-02-26T13:17:40Z</time>
      </trkpt>
      <trkpt lat="46.60812" lon="5.46195">
        <ele>234.2</ele>
        <time>2022-02-26T13:17:41Z</time>
      </trkpt>
      <trkpt lat="46.60818" lon="5.46198">
        <ele>234.8</ele>
        <time>2022-02-26T13:17:43Z</time>
      </trkpt>
      <trkpt lat="46.60827" lon="5.46207">
        <ele>235.4</ele>
        <time>2022-02-26T13:17:46Z</time>
      </trkpt>
      <trkpt lat="46.60836" lon="5.46214">
        <ele>235.8</ele>
        <time>2022-02-26T13:17:49Z</time>
      </trkpt>
      <trkpt lat="46.60845" lon="5.46221">
        <ele>236.4</ele>
        <time>2022-02-26T13:17:52Z</time>
      </trkpt>
      <trkpt lat="46.60862" lon="5.46235">
        <ele>237.2</ele>
        <time>2022-02-26T13:17:57Z</time>
      </trkpt>
      <trkpt lat="46.60873" lon="5.46245">
        <ele>237.4</ele>
        <time>2022-02-26T13:18:00Z</time>
      </trkpt>
      <trkpt lat="46.60881" lon="5.46252">
        <ele>237.6</ele>
        <time>2022-02-26T13:18:02Z</time>
      </trkpt>
      <trkpt lat="46.60918" lon="5.4628">
        <ele>237.2</ele>
        <time>2022-02-26T13:18:10Z</time>
      </trkpt>
      <trkpt lat="46.60931" lon="5.46285">
        <ele>236.4</ele>
        <time>2022-02-26T13:18:13Z</time>
      </trkpt>
      <trkpt lat="46.60945" lon="5.46287">
        <ele>236.2</ele>
        <time>2022-02-26T13:18:16Z</time>
      </trkpt>
      <trkpt lat="46.6098" lon="5.46289">
        <ele>237</ele>
        <time>2022-02-26T13:18:24Z</time>
      </trkpt>
      <trkpt lat="46.60989" lon="5.46289">
        <ele>237.4</ele>
        <time>2022-02-26T13:18:26Z</time>
      </trkpt>
      <trkpt lat="46.61006" lon="5.46288">
        <ele>238.6</ele>
        <time>2022-02-26T13:18:30Z</time>
      </trkpt>
      <trkpt lat="46.61014" lon="5.46288">
        <ele>238.6</ele>
        <time>2022-02-26T13:18:32Z</time>
      </trkpt>
      <trkpt lat="46.61038" lon="5.46292">
        <ele>238.6</ele>
        <time>2022-02-26T13:18:38Z</time>
      </trkpt>
      <trkpt lat="46.61063" lon="5.46296">
        <ele>239.4</ele>
        <time>2022-02-26T13:18:44Z</time>
      </trkpt>
      <trkpt lat="46.61067" lon="5.46297">
        <ele>239.8</ele>
        <time>2022-02-26T13:18:45Z</time>
      </trkpt>
      <trkpt lat="46.61072" lon="5.46298">
        <ele>240.2</ele>
        <time>2022-02-26T13:18:46Z</time>
      </trkpt>
      <trkpt lat="46.61087" lon="5.46302">
        <ele>240.6</ele>
        <time>2022-02-26T13:18:50Z</time>
      </trkpt>
      <trkpt lat="46.611" lon="5.46306">
        <ele>241</ele>
        <time>2022-02-26T13:18:53Z</time>
      </trkpt>
      <trkpt lat="46.61104" lon="5.46309">
        <ele>241</ele>
        <time>2022-02-26T13:18:54Z</time>
      </trkpt>
      <trkpt lat="46.61124" lon="5.4632">
        <ele>242</ele>
        <time>2022-02-26T13:18:59Z</time>
      </trkpt>
      <trkpt lat="46.61136" lon="5.46328">
        <ele>242.6</ele>
        <time>2022-02-26T13:19:02Z</time>
      </trkpt>
      <trkpt lat="46.61144" lon="5.46333">
        <ele>243</ele>
        <time>2022-02-26T13:19:04Z</time>
      </trkpt>
      <trkpt lat="46.61156" lon="5.4634">
        <ele>243.8</ele>
        <time>2022-02-26T13:19:07Z</time>
      </trkpt>
      <trkpt lat="46.61163" lon="5.46345">
        <ele>244.2</ele>
        <time>2022-02-26T13:19:09Z</time>
      </trkpt>
      <trkpt lat="46.61166" lon="5.46346">
        <ele>244.2</ele>
        <time>2022-02-26T13:19:10Z</time>
      </trkpt>
      <trkpt lat="46.61177" lon="5.46355">
        <ele>244.2</ele>
        <time>2022-02-26T13:19:15Z</time>
      </trkpt>
      <trkpt lat="46.61186" lon="5.46363">
        <ele>244</ele>
        <time>2022-02-26T13:19:19Z</time>
      </trkpt>
      <trkpt lat="46.61188" lon="5.46373">
        <ele>244</ele>
        <time>2022-02-26T13:19:21Z</time>
      </trkpt>
      <trkpt lat="46.61185" lon="5.46384">
        <ele>244</ele>
        <time>2022-02-26T13:19:23Z</time>
      </trkpt>
      <trkpt lat="46.61182" lon="5.46389">
        <ele>244.2</ele>
        <time>2022-02-26T13:19:24Z</time>
      </trkpt>
      <trkpt lat="46.61164" lon="5.46411">
        <ele>245</ele>
        <time>2022-02-26T13:19:30Z</time>
      </trkpt>
      <trkpt lat="46.61151" lon="5.46431">
        <ele>245.2</ele>
        <time>2022-02-26T13:19:34Z</time>
      </trkpt>
      <trkpt lat="46.61141" lon="5.46447">
        <ele>245.2</ele>
        <time>2022-02-26T13:19:37Z</time>
      </trkpt>
      <trkpt lat="46.61114" lon="5.46496">
        <ele>245.8</ele>
        <time>2022-02-26T13:19:45Z</time>
      </trkpt>
      <trkpt lat="46.61086" lon="5.46557">
        <ele>245.6</ele>
        <time>2022-02-26T13:19:54Z</time>
      </trkpt>
      <trkpt lat="46.61069" lon="5.46583">
        <ele>245.4</ele>
        <time>2022-02-26T13:19:58Z</time>
      </trkpt>
      <trkpt lat="46.61034" lon="5.46626">
        <ele>244</ele>
        <time>2022-02-26T13:20:04Z</time>
      </trkpt>
      <trkpt lat="46.61009" lon="5.4666">
        <ele>242.6</ele>
        <time>2022-02-26T13:20:08Z</time>
      </trkpt>
      <trkpt lat="46.61003" lon="5.46673">
        <ele>242.2</ele>
        <time>2022-02-26T13:20:09Z</time>
      </trkpt>
      <trkpt lat="46.61" lon="5.46685">
        <ele>241.6</ele>
        <time>2022-02-26T13:20:10Z</time>
      </trkpt>
      <trkpt lat="46.60999" lon="5.46696">
        <ele>241.4</ele>
        <time>2022-02-26T13:20:11Z</time>
      </trkpt>
      <trkpt lat="46.60999" lon="5.46708">
        <ele>240.8</ele>
        <time>2022-02-26T13:20:12Z</time>
      </trkpt>
      <trkpt lat="46.61001" lon="5.46723">
        <ele>240.2</ele>
        <time>2022-02-26T13:20:13Z</time>
      </trkpt>
      <trkpt lat="46.61003" lon="5.46732">
        <ele>240.2</ele>
        <time>2022-02-26T13:20:14Z</time>
      </trkpt>
      <trkpt lat="46.61007" lon="5.46742">
        <ele>239.4</ele>
        <time>2022-02-26T13:20:15Z</time>
      </trkpt>
      <trkpt lat="46.61012" lon="5.46751">
        <ele>239</ele>
        <time>2022-02-26T13:20:16Z</time>
      </trkpt>
      <trkpt lat="46.61025" lon="5.46762">
        <ele>238</ele>
        <time>2022-02-26T13:20:18Z</time>
      </trkpt>
      <trkpt lat="46.61057" lon="5.46777">
        <ele>237.4</ele>
        <time>2022-02-26T13:20:23Z</time>
      </trkpt>
      <trkpt lat="46.61093" lon="5.46798">
        <ele>238</ele>
        <time>2022-02-26T13:20:30Z</time>
      </trkpt>
      <trkpt lat="46.61137" lon="5.46833">
        <ele>238.2</ele>
        <time>2022-02-26T13:20:38Z</time>
      </trkpt>
      <trkpt lat="46.61166" lon="5.46861">
        <ele>237.6</ele>
        <time>2022-02-26T13:20:44Z</time>
      </trkpt>
      <trkpt lat="46.61171" lon="5.46865">
        <ele>237.6</ele>
        <time>2022-02-26T13:20:45Z</time>
      </trkpt>
      <trkpt lat="46.61194" lon="5.46883">
        <ele>237.6</ele>
        <time>2022-02-26T13:20:50Z</time>
      </trkpt>
      <trkpt lat="46.61224" lon="5.46903">
        <ele>238.4</ele>
        <time>2022-02-26T13:20:57Z</time>
      </trkpt>
      <trkpt lat="46.61232" lon="5.46907">
        <ele>238.6</ele>
        <time>2022-02-26T13:20:59Z</time>
      </trkpt>
      <trkpt lat="46.61245" lon="5.46913">
        <ele>238.6</ele>
        <time>2022-02-26T13:21:02Z</time>
      </trkpt>
      <trkpt lat="46.61253" lon="5.46917">
        <ele>238.4</ele>
        <time>2022-02-26T13:21:04Z</time>
      </trkpt>
      <trkpt lat="46.61264" lon="5.46918">
        <ele>238.2</ele>
        <time>2022-02-26T13:21:07Z</time>
      </trkpt>
      <trkpt lat="46.61286" lon="5.46918">
        <ele>238.4</ele>
        <time>2022-02-26T13:21:13Z</time>
      </trkpt>
      <trkpt lat="46.61309" lon="5.46919">
        <ele>239.2</ele>
        <time>2022-02-26T13:21:19Z</time>
      </trkpt>
      <trkpt lat="46.61312" lon="5.46919">
        <ele>239.2</ele>
        <time>2022-02-26T13:21:20Z</time>
      </trkpt>
      <trkpt lat="46.61343" lon="5.46923">
        <ele>240.4</ele>
        <time>2022-02-26T13:21:28Z</time>
      </trkpt>
      <trkpt lat="46.61347" lon="5.46923">
        <ele>240.6</ele>
        <time>2022-02-26T13:21:29Z</time>
      </trkpt>
      <trkpt lat="46.61372" lon="5.46929">
        <ele>241.4</ele>
        <time>2022-02-26T13:21:35Z</time>
      </trkpt>
      <trkpt lat="46.61384" lon="5.46931">
        <ele>241.6</ele>
        <time>2022-02-26T13:21:38Z</time>
      </trkpt>
      <trkpt lat="46.61397" lon="5.46935">
        <ele>242.6</ele>
        <time>2022-02-26T13:21:41Z</time>
      </trkpt>
      <trkpt lat="46.61426" lon="5.46944">
        <ele>243.2</ele>
        <time>2022-02-26T13:21:48Z</time>
      </trkpt>
      <trkpt lat="46.61453" lon="5.46953">
        <ele>243.4</ele>
        <time>2022-02-26T13:21:54Z</time>
      </trkpt>
      <trkpt lat="46.61457" lon="5.46954">
        <ele>243.6</ele>
        <time>2022-02-26T13:21:55Z</time>
      </trkpt>
      <trkpt lat="46.6147" lon="5.46959">
        <ele>243.8</ele>
        <time>2022-02-26T13:21:58Z</time>
      </trkpt>
      <trkpt lat="46.61499" lon="5.46968">
        <ele>244.2</ele>
        <time>2022-02-26T13:22:04Z</time>
      </trkpt>
      <trkpt lat="46.61538" lon="5.46976">
        <ele>244.2</ele>
        <time>2022-02-26T13:22:12Z</time>
      </trkpt>
      <trkpt lat="46.61593" lon="5.46979">
        <ele>243.6</ele>
        <time>2022-02-26T13:22:23Z</time>
      </trkpt>
      <trkpt lat="46.61645" lon="5.46979">
        <ele>243.2</ele>
        <time>2022-02-26T13:22:33Z</time>
      </trkpt>
      <trkpt lat="46.61705" lon="5.46977">
        <ele>243.8</ele>
        <time>2022-02-26T13:22:44Z</time>
      </trkpt>
      <trkpt lat="46.61763" lon="5.46983">
        <ele>244.2</ele>
        <time>2022-02-26T13:22:55Z</time>
      </trkpt>
      <trkpt lat="46.61811" lon="5.46993">
        <ele>244</ele>
        <time>2022-02-26T13:23:04Z</time>
      </trkpt>
      <trkpt lat="46.61864" lon="5.47007">
        <ele>244.4</ele>
        <time>2022-02-26T13:23:14Z</time>
      </trkpt>
      <trkpt lat="46.61875" lon="5.47011">
        <ele>244.4</ele>
        <time>2022-02-26T13:23:16Z</time>
      </trkpt>
      <trkpt lat="46.61926" lon="5.47032">
        <ele>244.8</ele>
        <time>2022-02-26T13:23:26Z</time>
      </trkpt>
      <trkpt lat="46.61942" lon="5.4704">
        <ele>245</ele>
        <time>2022-02-26T13:23:29Z</time>
      </trkpt>
      <trkpt lat="46.61981" lon="5.47059">
        <ele>245.8</ele>
        <time>2022-02-26T13:23:37Z</time>
      </trkpt>
      <trkpt lat="46.62011" lon="5.47074">
        <ele>246</ele>
        <time>2022-02-26T13:23:43Z</time>
      </trkpt>
      <trkpt lat="46.62027" lon="5.47081">
        <ele>246</ele>
        <time>2022-02-26T13:23:46Z</time>
      </trkpt>
      <trkpt lat="46.6208" lon="5.47106">
        <ele>246</ele>
        <time>2022-02-26T13:23:56Z</time>
      </trkpt>
      <trkpt lat="46.62091" lon="5.47111">
        <ele>246.2</ele>
        <time>2022-02-26T13:23:58Z</time>
      </trkpt>
      <trkpt lat="46.62123" lon="5.47123">
        <ele>245.8</ele>
        <time>2022-02-26T13:24:04Z</time>
      </trkpt>
      <trkpt lat="46.62133" lon="5.47124">
        <ele>245.4</ele>
        <time>2022-02-26T13:24:06Z</time>
      </trkpt>
      <trkpt lat="46.62142" lon="5.47122">
        <ele>245</ele>
        <time>2022-02-26T13:24:08Z</time>
      </trkpt>
      <trkpt lat="46.62147" lon="5.4712">
        <ele>245</ele>
        <time>2022-02-26T13:24:09Z</time>
      </trkpt>
      <trkpt lat="46.62151" lon="5.47116">
        <ele>244.8</ele>
        <time>2022-02-26T13:24:10Z</time>
      </trkpt>
      <trkpt lat="46.6216" lon="5.47105">
        <ele>244.6</ele>
        <time>2022-02-26T13:24:12Z</time>
      </trkpt>
      <trkpt lat="46.62178" lon="5.47081">
        <ele>243.8</ele>
        <time>2022-02-26T13:24:16Z</time>
      </trkpt>
      <trkpt lat="46.62187" lon="5.47068">
        <ele>243.4</ele>
        <time>2022-02-26T13:24:18Z</time>
      </trkpt>
      <trkpt lat="46.62201" lon="5.47048">
        <ele>242.4</ele>
        <time>2022-02-26T13:24:21Z</time>
      </trkpt>
      <trkpt lat="46.62214" lon="5.47029">
        <ele>242</ele>
        <time>2022-02-26T13:24:24Z</time>
      </trkpt>
      <trkpt lat="46.62224" lon="5.47018">
        <ele>241.4</ele>
        <time>2022-02-26T13:24:26Z</time>
      </trkpt>
      <trkpt lat="46.62253" lon="5.47001">
        <ele>240.8</ele>
        <time>2022-02-26T13:24:31Z</time>
      </trkpt>
      <trkpt lat="46.62281" lon="5.46986">
        <ele>240.4</ele>
        <time>2022-02-26T13:24:36Z</time>
      </trkpt>
      <trkpt lat="46.62286" lon="5.46981">
        <ele>240.4</ele>
        <time>2022-02-26T13:24:37Z</time>
      </trkpt>
      <trkpt lat="46.6229" lon="5.46974">
        <ele>240.4</ele>
        <time>2022-02-26T13:24:38Z</time>
      </trkpt>
      <trkpt lat="46.623" lon="5.46951">
        <ele>240.4</ele>
        <time>2022-02-26T13:24:41Z</time>
      </trkpt>
      <trkpt lat="46.62311" lon="5.4692">
        <ele>240.2</ele>
        <time>2022-02-26T13:24:45Z</time>
      </trkpt>
      <trkpt lat="46.62316" lon="5.46903">
        <ele>240</ele>
        <time>2022-02-26T13:24:47Z</time>
      </trkpt>
      <trkpt lat="46.62317" lon="5.46894">
        <ele>240</ele>
        <time>2022-02-26T13:24:48Z</time>
      </trkpt>
      <trkpt lat="46.62324" lon="5.46815">
        <ele>239.4</ele>
        <time>2022-02-26T13:24:56Z</time>
      </trkpt>
      <trkpt lat="46.62326" lon="5.46794">
        <ele>239</ele>
        <time>2022-02-26T13:24:58Z</time>
      </trkpt>
      <trkpt lat="46.62329" lon="5.46738">
        <ele>237.8</ele>
        <time>2022-02-26T13:25:03Z</time>
      </trkpt>
      <trkpt lat="46.6233" lon="5.46726">
        <ele>237.6</ele>
        <time>2022-02-26T13:25:04Z</time>
      </trkpt>
      <trkpt lat="46.62331" lon="5.46715">
        <ele>236.8</ele>
        <time>2022-02-26T13:25:05Z</time>
      </trkpt>
      <trkpt lat="46.62336" lon="5.46679">
        <ele>235.6</ele>
        <time>2022-02-26T13:25:08Z</time>
      </trkpt>
      <trkpt lat="46.62341" lon="5.46655">
        <ele>234.6</ele>
        <time>2022-02-26T13:25:10Z</time>
      </trkpt>
      <trkpt lat="46.62344" lon="5.46643">
        <ele>234.2</ele>
        <time>2022-02-26T13:25:11Z</time>
      </trkpt>
      <trkpt lat="46.62353" lon="5.46604">
        <ele>233.2</ele>
        <time>2022-02-26T13:25:14Z</time>
      </trkpt>
      <trkpt lat="46.6236" lon="5.46577">
        <ele>232.2</ele>
        <time>2022-02-26T13:25:16Z</time>
      </trkpt>
      <trkpt lat="46.62363" lon="5.46563">
        <ele>231.8</ele>
        <time>2022-02-26T13:25:17Z</time>
      </trkpt>
      <trkpt lat="46.62366" lon="5.4655">
        <ele>230</ele>
        <time>2022-02-26T13:25:18Z</time>
      </trkpt>
      <trkpt lat="46.62373" lon="5.46522">
        <ele>228.4</ele>
        <time>2022-02-26T13:25:20Z</time>
      </trkpt>
      <trkpt lat="46.62379" lon="5.46494">
        <ele>227.2</ele>
        <time>2022-02-26T13:25:22Z</time>
      </trkpt>
      <trkpt lat="46.62386" lon="5.46466">
        <ele>226.2</ele>
        <time>2022-02-26T13:25:24Z</time>
      </trkpt>
      <trkpt lat="46.62395" lon="5.46424">
        <ele>225.2</ele>
        <time>2022-02-26T13:25:27Z</time>
      </trkpt>
      <trkpt lat="46.62406" lon="5.46383">
        <ele>223.8</ele>
        <time>2022-02-26T13:25:30Z</time>
      </trkpt>
      <trkpt lat="46.62415" lon="5.46358">
        <ele>223</ele>
        <time>2022-02-26T13:25:32Z</time>
      </trkpt>
      <trkpt lat="46.62419" lon="5.46347">
        <ele>222.8</ele>
        <time>2022-02-26T13:25:33Z</time>
      </trkpt>
      <trkpt lat="46.62438" lon="5.46303">
        <ele>222</ele>
        <time>2022-02-26T13:25:37Z</time>
      </trkpt>
      <trkpt lat="46.62456" lon="5.46265">
        <ele>221.8</ele>
        <time>2022-02-26T13:25:41Z</time>
      </trkpt>
      <trkpt lat="46.62469" lon="5.46255">
        <ele>221.8</ele>
        <time>2022-02-26T13:25:43Z</time>
      </trkpt>
      <trkpt lat="46.62475" lon="5.46252">
        <ele>221.8</ele>
        <time>2022-02-26T13:25:44Z</time>
      </trkpt>
      <trkpt lat="46.62482" lon="5.4625">
        <ele>221.8</ele>
        <time>2022-02-26T13:25:45Z</time>
      </trkpt>
      <trkpt lat="46.62505" lon="5.46249">
        <ele>222.4</ele>
        <time>2022-02-26T13:25:49Z</time>
      </trkpt>
      <trkpt lat="46.62537" lon="5.4625">
        <ele>224</ele>
        <time>2022-02-26T13:25:55Z</time>
      </trkpt>
      <trkpt lat="46.62542" lon="5.46251">
        <ele>224</ele>
        <time>2022-02-26T13:25:56Z</time>
      </trkpt>
      <trkpt lat="46.62563" lon="5.46253">
        <ele>225</ele>
        <time>2022-02-26T13:26:00Z</time>
      </trkpt>
      <trkpt lat="46.62589" lon="5.46255">
        <ele>225.8</ele>
        <time>2022-02-26T13:26:05Z</time>
      </trkpt>
      <trkpt lat="46.62599" lon="5.46257">
        <ele>226</ele>
        <time>2022-02-26T13:26:07Z</time>
      </trkpt>
      <trkpt lat="46.62631" lon="5.46262">
        <ele>226.4</ele>
        <time>2022-02-26T13:26:13Z</time>
      </trkpt>
      <trkpt lat="46.6265" lon="5.46267">
        <ele>227</ele>
        <time>2022-02-26T13:26:17Z</time>
      </trkpt>
      <trkpt lat="46.62667" lon="5.4627">
        <ele>227.8</ele>
        <time>2022-02-26T13:26:21Z</time>
      </trkpt>
      <trkpt lat="46.62684" lon="5.46273">
        <ele>228</ele>
        <time>2022-02-26T13:26:25Z</time>
      </trkpt>
      <trkpt lat="46.62693" lon="5.46274">
        <ele>228.2</ele>
        <time>2022-02-26T13:26:27Z</time>
      </trkpt>
      <trkpt lat="46.62697" lon="5.46275">
        <ele>228.2</ele>
        <time>2022-02-26T13:26:28Z</time>
      </trkpt>
      <trkpt lat="46.62709" lon="5.46277">
        <ele>229</ele>
        <time>2022-02-26T13:26:31Z</time>
      </trkpt>
      <trkpt lat="46.62726" lon="5.46281">
        <ele>230.2</ele>
        <time>2022-02-26T13:26:35Z</time>
      </trkpt>
      <trkpt lat="46.62733" lon="5.46283">
        <ele>230.8</ele>
        <time>2022-02-26T13:26:37Z</time>
      </trkpt>
      <trkpt lat="46.62741" lon="5.46285">
        <ele>231.2</ele>
        <time>2022-02-26T13:26:39Z</time>
      </trkpt>
      <trkpt lat="46.62759" lon="5.46288">
        <ele>232.4</ele>
        <time>2022-02-26T13:26:43Z</time>
      </trkpt>
      <trkpt lat="46.62767" lon="5.4629">
        <ele>232.8</ele>
        <time>2022-02-26T13:26:45Z</time>
      </trkpt>
      <trkpt lat="46.62781" lon="5.46292">
        <ele>233.4</ele>
        <time>2022-02-26T13:26:48Z</time>
      </trkpt>
      <trkpt lat="46.62814" lon="5.46299">
        <ele>234.2</ele>
        <time>2022-02-26T13:26:55Z</time>
      </trkpt>
      <trkpt lat="46.62823" lon="5.46301">
        <ele>234.6</ele>
        <time>2022-02-26T13:26:57Z</time>
      </trkpt>
      <trkpt lat="46.62852" lon="5.46308">
        <ele>235.6</ele>
        <time>2022-02-26T13:27:04Z</time>
      </trkpt>
      <trkpt lat="46.62856" lon="5.46308">
        <ele>235.6</ele>
        <time>2022-02-26T13:27:05Z</time>
      </trkpt>
      <trkpt lat="46.62877" lon="5.46312">
        <ele>236.6</ele>
        <time>2022-02-26T13:27:10Z</time>
      </trkpt>
      <trkpt lat="46.62903" lon="5.46316">
        <ele>237.4</ele>
        <time>2022-02-26T13:27:16Z</time>
      </trkpt>
      <trkpt lat="46.62925" lon="5.4632">
        <ele>237.8</ele>
        <time>2022-02-26T13:27:21Z</time>
      </trkpt>
      <trkpt lat="46.62947" lon="5.46324">
        <ele>238</ele>
        <time>2022-02-26T13:27:26Z</time>
      </trkpt>
      <trkpt lat="46.62992" lon="5.46332">
        <ele>238.8</ele>
        <time>2022-02-26T13:27:36Z</time>
      </trkpt>
      <trkpt lat="46.63001" lon="5.46333">
        <ele>239</ele>
        <time>2022-02-26T13:27:38Z</time>
      </trkpt>
      <trkpt lat="46.63056" lon="5.46344">
        <ele>239.8</ele>
        <time>2022-02-26T13:27:50Z</time>
      </trkpt>
      <trkpt lat="46.6306" lon="5.46345">
        <ele>240</ele>
        <time>2022-02-26T13:27:51Z</time>
      </trkpt>
      <trkpt lat="46.63094" lon="5.46352">
        <ele>241</ele>
        <time>2022-02-26T13:27:58Z</time>
      </trkpt>
      <trkpt lat="46.63104" lon="5.46353">
        <ele>241.2</ele>
        <time>2022-02-26T13:28:00Z</time>
      </trkpt>
      <trkpt lat="46.63162" lon="5.46365">
        <ele>241.8</ele>
        <time>2022-02-26T13:28:12Z</time>
      </trkpt>
      <trkpt lat="46.63206" lon="5.46373">
        <ele>242.2</ele>
        <time>2022-02-26T13:28:21Z</time>
      </trkpt>
      <trkpt lat="46.63258" lon="5.46383">
        <ele>243.2</ele>
        <time>2022-02-26T13:28:32Z</time>
      </trkpt>
      <trkpt lat="46.63263" lon="5.46383">
        <ele>243.4</ele>
        <time>2022-02-26T13:28:33Z</time>
      </trkpt>
      <trkpt lat="46.63304" lon="5.46392">
        <ele>244</ele>
        <time>2022-02-26T13:28:41Z</time>
      </trkpt>
      <trkpt lat="46.63358" lon="5.46406">
        <ele>243.6</ele>
        <time>2022-02-26T13:28:51Z</time>
      </trkpt>
      <trkpt lat="46.63363" lon="5.46408">
        <ele>243.6</ele>
        <time>2022-02-26T13:28:52Z</time>
      </trkpt>
      <trkpt lat="46.63416" lon="5.46426">
        <ele>243</ele>
        <time>2022-02-26T13:29:02Z</time>
      </trkpt>
      <trkpt lat="46.63426" lon="5.4643">
        <ele>243</ele>
        <time>2022-02-26T13:29:04Z</time>
      </trkpt>
      <trkpt lat="46.63478" lon="5.46454">
        <ele>242.8</ele>
        <time>2022-02-26T13:29:14Z</time>
      </trkpt>
      <trkpt lat="46.63484" lon="5.46456">
        <ele>242.8</ele>
        <time>2022-02-26T13:29:15Z</time>
      </trkpt>
      <trkpt lat="46.635" lon="5.46463">
        <ele>242.2</ele>
        <time>2022-02-26T13:29:18Z</time>
      </trkpt>
      <trkpt lat="46.63546" lon="5.46485">
        <ele>241.8</ele>
        <time>2022-02-26T13:29:27Z</time>
      </trkpt>
      <trkpt lat="46.63599" lon="5.46509">
        <ele>242.6</ele>
        <time>2022-02-26T13:29:37Z</time>
      </trkpt>
      <trkpt lat="46.6361" lon="5.46514">
        <ele>242.8</ele>
        <time>2022-02-26T13:29:39Z</time>
      </trkpt>
      <trkpt lat="46.63648" lon="5.46531">
        <ele>243.4</ele>
        <time>2022-02-26T13:29:46Z</time>
      </trkpt>
      <trkpt lat="46.63665" lon="5.46538">
        <ele>243.6</ele>
        <time>2022-02-26T13:29:49Z</time>
      </trkpt>
      <trkpt lat="46.63717" lon="5.46563">
        <ele>242.6</ele>
        <time>2022-02-26T13:29:58Z</time>
      </trkpt>
      <trkpt lat="46.63722" lon="5.46567">
        <ele>242.2</ele>
        <time>2022-02-26T13:29:59Z</time>
      </trkpt>
      <trkpt lat="46.6376" lon="5.46602">
        <ele>242</ele>
        <time>2022-02-26T13:30:06Z</time>
      </trkpt>
      <trkpt lat="46.63807" lon="5.46638">
        <ele>242</ele>
        <time>2022-02-26T13:30:14Z</time>
      </trkpt>
      <trkpt lat="46.63825" lon="5.46645">
        <ele>241</ele>
        <time>2022-02-26T13:30:17Z</time>
      </trkpt>
      <trkpt lat="46.63855" lon="5.46656">
        <ele>239.8</ele>
        <time>2022-02-26T13:30:22Z</time>
      </trkpt>
      <trkpt lat="46.63861" lon="5.46657">
        <ele>239.8</ele>
        <time>2022-02-26T13:30:23Z</time>
      </trkpt>
      <trkpt lat="46.63915" lon="5.46673">
        <ele>239.4</ele>
        <time>2022-02-26T13:30:32Z</time>
      </trkpt>
      <trkpt lat="46.63922" lon="5.46674">
        <ele>239.2</ele>
        <time>2022-02-26T13:30:33Z</time>
      </trkpt>
      <trkpt lat="46.63953" lon="5.46683">
        <ele>238.6</ele>
        <time>2022-02-26T13:30:38Z</time>
      </trkpt>
      <trkpt lat="46.63973" lon="5.46688">
        <ele>238.4</ele>
        <time>2022-02-26T13:30:41Z</time>
      </trkpt>
      <trkpt lat="46.64013" lon="5.467">
        <ele>237.6</ele>
        <time>2022-02-26T13:30:47Z</time>
      </trkpt>
      <trkpt lat="46.64039" lon="5.46708">
        <ele>236.8</ele>
        <time>2022-02-26T13:30:51Z</time>
      </trkpt>
      <trkpt lat="46.64046" lon="5.46711">
        <ele>236.4</ele>
        <time>2022-02-26T13:30:52Z</time>
      </trkpt>
      <trkpt lat="46.64092" lon="5.46727">
        <ele>235.4</ele>
        <time>2022-02-26T13:30:59Z</time>
      </trkpt>
      <trkpt lat="46.64097" lon="5.46731">
        <ele>235.2</ele>
        <time>2022-02-26T13:31:00Z</time>
      </trkpt>
      <trkpt lat="46.64112" lon="5.46742">
        <ele>235.4</ele>
        <time>2022-02-26T13:31:03Z</time>
      </trkpt>
      <trkpt lat="46.64134" lon="5.46763">
        <ele>235.8</ele>
        <time>2022-02-26T13:31:08Z</time>
      </trkpt>
      <trkpt lat="46.64138" lon="5.46768">
        <ele>235.8</ele>
        <time>2022-02-26T13:31:09Z</time>
      </trkpt>
      <trkpt lat="46.64146" lon="5.46777">
        <ele>236.4</ele>
        <time>2022-02-26T13:31:11Z</time>
      </trkpt>
      <trkpt lat="46.64164" lon="5.46803">
        <ele>237.4</ele>
        <time>2022-02-26T13:31:16Z</time>
      </trkpt>
      <trkpt lat="46.64185" lon="5.46841">
        <ele>238.4</ele>
        <time>2022-02-26T13:31:23Z</time>
      </trkpt>
      <trkpt lat="46.64187" lon="5.46846">
        <ele>238.4</ele>
        <time>2022-02-26T13:31:24Z</time>
      </trkpt>
      <trkpt lat="46.64192" lon="5.46856">
        <ele>239</ele>
        <time>2022-02-26T13:31:26Z</time>
      </trkpt>
      <trkpt lat="46.64194" lon="5.46862">
        <ele>239</ele>
        <time>2022-02-26T13:31:27Z</time>
      </trkpt>
      <trkpt lat="46.64196" lon="5.46867">
        <ele>239.2</ele>
        <time>2022-02-26T13:31:28Z</time>
      </trkpt>
      <trkpt lat="46.64201" lon="5.46878">
        <ele>239.6</ele>
        <time>2022-02-26T13:31:30Z</time>
      </trkpt>
      <trkpt lat="46.64208" lon="5.46893">
        <ele>240.4</ele>
        <time>2022-02-26T13:31:33Z</time>
      </trkpt>
      <trkpt lat="46.64214" lon="5.46904">
        <ele>240.6</ele>
        <time>2022-02-26T13:31:35Z</time>
      </trkpt>
      <trkpt lat="46.64217" lon="5.46909">
        <ele>240.8</ele>
        <time>2022-02-26T13:31:36Z</time>
      </trkpt>
      <trkpt lat="46.64228" lon="5.46926">
        <ele>241.2</ele>
        <time>2022-02-26T13:31:39Z</time>
      </trkpt>
      <trkpt lat="46.64239" lon="5.46941">
        <ele>242</ele>
        <time>2022-02-26T13:31:42Z</time>
      </trkpt>
      <trkpt lat="46.64261" lon="5.46971">
        <ele>243.2</ele>
        <time>2022-02-26T13:31:48Z</time>
      </trkpt>
      <trkpt lat="46.64269" lon="5.46981">
        <ele>243.6</ele>
        <time>2022-02-26T13:31:50Z</time>
      </trkpt>
      <trkpt lat="46.64298" lon="5.47023">
        <ele>244.2</ele>
        <time>2022-02-26T13:31:58Z</time>
      </trkpt>
      <trkpt lat="46.64323" lon="5.4706">
        <ele>244</ele>
        <time>2022-02-26T13:32:05Z</time>
      </trkpt>
      <trkpt lat="46.64332" lon="5.47068">
        <ele>243.8</ele>
        <time>2022-02-26T13:32:07Z</time>
      </trkpt>
      <trkpt lat="46.64354" lon="5.47084">
        <ele>243.4</ele>
        <time>2022-02-26T13:32:11Z</time>
      </trkpt>
      <trkpt lat="46.64363" lon="5.47095">
        <ele>242.8</ele>
        <time>2022-02-26T13:32:13Z</time>
      </trkpt>
      <trkpt lat="46.64369" lon="5.47109">
        <ele>242.8</ele>
        <time>2022-02-26T13:32:15Z</time>
      </trkpt>
      <trkpt lat="46.64387" lon="5.47167">
        <ele>243</ele>
        <time>2022-02-26T13:32:23Z</time>
      </trkpt>
      <trkpt lat="46.64408" lon="5.47234">
        <ele>243.8</ele>
        <time>2022-02-26T13:32:32Z</time>
      </trkpt>
      <trkpt lat="46.64427" lon="5.47287">
        <ele>243.8</ele>
        <time>2022-02-26T13:32:39Z</time>
      </trkpt>
      <trkpt lat="46.64451" lon="5.47361">
        <ele>243.8</ele>
        <time>2022-02-26T13:32:48Z</time>
      </trkpt>
      <trkpt lat="46.64454" lon="5.47368">
        <ele>243.8</ele>
        <time>2022-02-26T13:32:49Z</time>
      </trkpt>
      <trkpt lat="46.64481" lon="5.47443">
        <ele>244.2</ele>
        <time>2022-02-26T13:32:59Z</time>
      </trkpt>
      <trkpt lat="46.64484" lon="5.4745">
        <ele>244.2</ele>
        <time>2022-02-26T13:33:00Z</time>
      </trkpt>
      <trkpt lat="46.64489" lon="5.47465">
        <ele>244.6</ele>
        <time>2022-02-26T13:33:02Z</time>
      </trkpt>
      <trkpt lat="46.64503" lon="5.47509">
        <ele>245.2</ele>
        <time>2022-02-26T13:33:08Z</time>
      </trkpt>
      <trkpt lat="46.64516" lon="5.47545">
        <ele>245.6</ele>
        <time>2022-02-26T13:33:13Z</time>
      </trkpt>
      <trkpt lat="46.64531" lon="5.47591">
        <ele>246.2</ele>
        <time>2022-02-26T13:33:20Z</time>
      </trkpt>
      <trkpt lat="46.64535" lon="5.47601">
        <ele>246.6</ele>
        <time>2022-02-26T13:33:22Z</time>
      </trkpt>
      <trkpt lat="46.6454" lon="5.47616">
        <ele>247</ele>
        <time>2022-02-26T13:33:25Z</time>
      </trkpt>
      <trkpt lat="46.64553" lon="5.47657">
        <ele>247.4</ele>
        <time>2022-02-26T13:33:32Z</time>
      </trkpt>
      <trkpt lat="46.64571" lon="5.4771">
        <ele>247.6</ele>
        <time>2022-02-26T13:33:40Z</time>
      </trkpt>
      <trkpt lat="46.64583" lon="5.47744">
        <ele>247.8</ele>
        <time>2022-02-26T13:33:45Z</time>
      </trkpt>
      <trkpt lat="46.64593" lon="5.47773">
        <ele>248.2</ele>
        <time>2022-02-26T13:33:49Z</time>
      </trkpt>
      <trkpt lat="46.64605" lon="5.47809">
        <ele>249</ele>
        <time>2022-02-26T13:33:54Z</time>
      </trkpt>
      <trkpt lat="46.64613" lon="5.47831">
        <ele>249</ele>
        <time>2022-02-26T13:33:57Z</time>
      </trkpt>
      <trkpt lat="46.64631" lon="5.47901">
        <ele>248.6</ele>
        <time>2022-02-26T13:34:06Z</time>
      </trkpt>
      <trkpt lat="46.64642" lon="5.4797">
        <ele>249.4</ele>
        <time>2022-02-26T13:34:15Z</time>
      </trkpt>
      <trkpt lat="46.64648" lon="5.48008">
        <ele>250</ele>
        <time>2022-02-26T13:34:20Z</time>
      </trkpt>
      <trkpt lat="46.64653" lon="5.48038">
        <ele>250.4</ele>
        <time>2022-02-26T13:34:24Z</time>
      </trkpt>
      <trkpt lat="46.64659" lon="5.48089">
        <ele>250.6</ele>
        <time>2022-02-26T13:34:31Z</time>
      </trkpt>
      <trkpt lat="46.64665" lon="5.48146">
        <ele>251</ele>
        <time>2022-02-26T13:34:39Z</time>
      </trkpt>
      <trkpt lat="46.64671" lon="5.48182">
        <ele>252</ele>
        <time>2022-02-26T13:34:44Z</time>
      </trkpt>
      <trkpt lat="46.64675" lon="5.48204">
        <ele>252.6</ele>
        <time>2022-02-26T13:34:47Z</time>
      </trkpt>
      <trkpt lat="46.64677" lon="5.4821">
        <ele>252.6</ele>
        <time>2022-02-26T13:34:48Z</time>
      </trkpt>
      <trkpt lat="46.64678" lon="5.48217">
        <ele>252.8</ele>
        <time>2022-02-26T13:34:49Z</time>
      </trkpt>
      <trkpt lat="46.64681" lon="5.48232">
        <ele>252.8</ele>
        <time>2022-02-26T13:34:51Z</time>
      </trkpt>
      <trkpt lat="46.64683" lon="5.48238">
        <ele>252.8</ele>
        <time>2022-02-26T13:34:52Z</time>
      </trkpt>
      <trkpt lat="46.64687" lon="5.48244">
        <ele>252.8</ele>
        <time>2022-02-26T13:34:53Z</time>
      </trkpt>
      <trkpt lat="46.64696" lon="5.48249">
        <ele>253</ele>
        <time>2022-02-26T13:34:55Z</time>
      </trkpt>
      <trkpt lat="46.64716" lon="5.48252">
        <ele>253</ele>
        <time>2022-02-26T13:34:59Z</time>
      </trkpt>
      <trkpt lat="46.6472" lon="5.48254">
        <ele>253</ele>
        <time>2022-02-26T13:35:00Z</time>
      </trkpt>
      <trkpt lat="46.64725" lon="5.48257">
        <ele>253</ele>
        <time>2022-02-26T13:35:01Z</time>
      </trkpt>
      <trkpt lat="46.64747" lon="5.48274">
        <ele>253</ele>
        <time>2022-02-26T13:35:06Z</time>
      </trkpt>
      <trkpt lat="46.64751" lon="5.48277">
        <ele>253</ele>
        <time>2022-02-26T13:35:07Z</time>
      </trkpt>
      <trkpt lat="46.64787" lon="5.48305">
        <ele>254</ele>
        <time>2022-02-26T13:35:15Z</time>
      </trkpt>
      <trkpt lat="46.64797" lon="5.4831">
        <ele>254.2</ele>
        <time>2022-02-26T13:35:17Z</time>
      </trkpt>
      <trkpt lat="46.64836" lon="5.4834">
        <ele>254.6</ele>
        <time>2022-02-26T13:35:25Z</time>
      </trkpt>
      <trkpt lat="46.64885" lon="5.48377">
        <ele>253.4</ele>
        <time>2022-02-26T13:35:35Z</time>
      </trkpt>
      <trkpt lat="46.64899" lon="5.48388">
        <ele>253</ele>
        <time>2022-02-26T13:35:38Z</time>
      </trkpt>
      <trkpt lat="46.64927" lon="5.48414">
        <ele>253</ele>
        <time>2022-02-26T13:35:44Z</time>
      </trkpt>
      <trkpt lat="46.64974" lon="5.48457">
        <ele>253</ele>
        <time>2022-02-26T13:35:54Z</time>
      </trkpt>
      <trkpt lat="46.64979" lon="5.48461">
        <ele>253</ele>
        <time>2022-02-26T13:35:55Z</time>
      </trkpt>
      <trkpt lat="46.6499" lon="5.48469">
        <ele>253</ele>
        <time>2022-02-26T13:35:57Z</time>
      </trkpt>
      <trkpt lat="46.65027" lon="5.48497">
        <ele>252.8</ele>
        <time>2022-02-26T13:36:04Z</time>
      </trkpt>
      <trkpt lat="46.65078" lon="5.4853">
        <ele>252.2</ele>
        <time>2022-02-26T13:36:13Z</time>
      </trkpt>
      <trkpt lat="46.65084" lon="5.48534">
        <ele>252.2</ele>
        <time>2022-02-26T13:36:14Z</time>
      </trkpt>
      <trkpt lat="46.65137" lon="5.48563">
        <ele>252</ele>
        <time>2022-02-26T13:36:23Z</time>
      </trkpt>
      <trkpt lat="46.65149" lon="5.4857">
        <ele>252.2</ele>
        <time>2022-02-26T13:36:25Z</time>
      </trkpt>
      <trkpt lat="46.65198" lon="5.48591">
        <ele>252</ele>
        <time>2022-02-26T13:36:33Z</time>
      </trkpt>
      <trkpt lat="46.65231" lon="5.48609">
        <ele>251.4</ele>
        <time>2022-02-26T13:36:39Z</time>
      </trkpt>
      <trkpt lat="46.6527" lon="5.48635">
        <ele>251.4</ele>
        <time>2022-02-26T13:36:46Z</time>
      </trkpt>
      <trkpt lat="46.65302" lon="5.48651">
        <ele>251.2</ele>
        <time>2022-02-26T13:36:51Z</time>
      </trkpt>
      <trkpt lat="46.65309" lon="5.48652">
        <ele>251</ele>
        <time>2022-02-26T13:36:52Z</time>
      </trkpt>
      <trkpt lat="46.65328" lon="5.48655">
        <ele>250.8</ele>
        <time>2022-02-26T13:36:55Z</time>
      </trkpt>
      <trkpt lat="46.65356" lon="5.48661">
        <ele>249.4</ele>
        <time>2022-02-26T13:36:59Z</time>
      </trkpt>
      <trkpt lat="46.65379" lon="5.4867">
        <ele>248.6</ele>
        <time>2022-02-26T13:37:02Z</time>
      </trkpt>
      <trkpt lat="46.65387" lon="5.48676">
        <ele>248</ele>
        <time>2022-02-26T13:37:03Z</time>
      </trkpt>
      <trkpt lat="46.65409" lon="5.48693">
        <ele>246.4</ele>
        <time>2022-02-26T13:37:06Z</time>
      </trkpt>
      <trkpt lat="46.65426" lon="5.48703">
        <ele>244.2</ele>
        <time>2022-02-26T13:37:08Z</time>
      </trkpt>
      <trkpt lat="46.65435" lon="5.48707">
        <ele>243.6</ele>
        <time>2022-02-26T13:37:09Z</time>
      </trkpt>
      <trkpt lat="46.65445" lon="5.48709">
        <ele>242.6</ele>
        <time>2022-02-26T13:37:10Z</time>
      </trkpt>
      <trkpt lat="46.65473" lon="5.48708">
        <ele>241.2</ele>
        <time>2022-02-26T13:37:13Z</time>
      </trkpt>
      <trkpt lat="46.65507" lon="5.48704">
        <ele>239.6</ele>
        <time>2022-02-26T13:37:17Z</time>
      </trkpt>
      <trkpt lat="46.65547" lon="5.487">
        <ele>238.2</ele>
        <time>2022-02-26T13:37:22Z</time>
      </trkpt>
      <trkpt lat="46.65554" lon="5.48701">
        <ele>238</ele>
        <time>2022-02-26T13:37:23Z</time>
      </trkpt>
      <trkpt lat="46.65574" lon="5.4871">
        <ele>237.6</ele>
        <time>2022-02-26T13:37:26Z</time>
      </trkpt>
      <trkpt lat="46.65585" lon="5.4872">
        <ele>237.6</ele>
        <time>2022-02-26T13:37:28Z</time>
      </trkpt>
      <trkpt lat="46.65593" lon="5.48731">
        <ele>238</ele>
        <time>2022-02-26T13:37:30Z</time>
      </trkpt>
      <trkpt lat="46.65616" lon="5.48762">
        <ele>239.2</ele>
        <time>2022-02-26T13:37:36Z</time>
      </trkpt>
      <trkpt lat="46.6562" lon="5.48767">
        <ele>239.4</ele>
        <time>2022-02-26T13:37:37Z</time>
      </trkpt>
      <trkpt lat="46.65624" lon="5.48772">
        <ele>239.6</ele>
        <time>2022-02-26T13:37:38Z</time>
      </trkpt>
      <trkpt lat="46.6563" lon="5.48782">
        <ele>239.8</ele>
        <time>2022-02-26T13:37:40Z</time>
      </trkpt>
      <trkpt lat="46.65637" lon="5.48791">
        <ele>240</ele>
        <time>2022-02-26T13:37:42Z</time>
      </trkpt>
      <trkpt lat="46.65643" lon="5.48801">
        <ele>240.4</ele>
        <time>2022-02-26T13:37:44Z</time>
      </trkpt>
      <trkpt lat="46.65654" lon="5.48821">
        <ele>241.4</ele>
        <time>2022-02-26T13:37:48Z</time>
      </trkpt>
      <trkpt lat="46.65656" lon="5.48826">
        <ele>241.6</ele>
        <time>2022-02-26T13:37:49Z</time>
      </trkpt>
      <trkpt lat="46.65662" lon="5.48837">
        <ele>242</ele>
        <time>2022-02-26T13:37:51Z</time>
      </trkpt>
      <trkpt lat="46.65665" lon="5.48847">
        <ele>242.4</ele>
        <time>2022-02-26T13:37:53Z</time>
      </trkpt>
      <trkpt lat="46.65665" lon="5.48852">
        <ele>242.8</ele>
        <time>2022-02-26T13:37:54Z</time>
      </trkpt>
      <trkpt lat="46.65668" lon="5.48868">
        <ele>243.6</ele>
        <time>2022-02-26T13:37:57Z</time>
      </trkpt>
      <trkpt lat="46.65668" lon="5.48873">
        <ele>244.4</ele>
        <time>2022-02-26T13:37:58Z</time>
      </trkpt>
      <trkpt lat="46.6567" lon="5.48891">
        <ele>245.4</ele>
        <time>2022-02-26T13:38:01Z</time>
      </trkpt>
      <trkpt lat="46.65671" lon="5.48903">
        <ele>245.8</ele>
        <time>2022-02-26T13:38:03Z</time>
      </trkpt>
      <trkpt lat="46.65671" lon="5.48908">
        <ele>246</ele>
        <time>2022-02-26T13:38:04Z</time>
      </trkpt>
      <trkpt lat="46.65675" lon="5.48928">
        <ele>246.4</ele>
        <time>2022-02-26T13:38:07Z</time>
      </trkpt>
      <trkpt lat="46.65676" lon="5.48939">
        <ele>246.8</ele>
        <time>2022-02-26T13:38:09Z</time>
      </trkpt>
      <trkpt lat="46.65678" lon="5.48958">
        <ele>248</ele>
        <time>2022-02-26T13:38:12Z</time>
      </trkpt>
      <trkpt lat="46.65686" lon="5.48979">
        <ele>248.6</ele>
        <time>2022-02-26T13:38:15Z</time>
      </trkpt>
      <trkpt lat="46.65687" lon="5.48993">
        <ele>249.4</ele>
        <time>2022-02-26T13:38:17Z</time>
      </trkpt>
      <trkpt lat="46.65688" lon="5.49005">
        <ele>249.6</ele>
        <time>2022-02-26T13:38:19Z</time>
      </trkpt>
      <trkpt lat="46.65691" lon="5.49023">
        <ele>250</ele>
        <time>2022-02-26T13:38:22Z</time>
      </trkpt>
      <trkpt lat="46.65693" lon="5.4903">
        <ele>250.2</ele>
        <time>2022-02-26T13:38:23Z</time>
      </trkpt>
      <trkpt lat="46.65694" lon="5.49035">
        <ele>250.6</ele>
        <time>2022-02-26T13:38:24Z</time>
      </trkpt>
      <trkpt lat="46.657" lon="5.49058">
        <ele>251.2</ele>
        <time>2022-02-26T13:38:28Z</time>
      </trkpt>
      <trkpt lat="46.65704" lon="5.49075">
        <ele>251.6</ele>
        <time>2022-02-26T13:38:31Z</time>
      </trkpt>
      <trkpt lat="46.65709" lon="5.49093">
        <ele>252.6</ele>
        <time>2022-02-26T13:38:34Z</time>
      </trkpt>
      <trkpt lat="46.6571" lon="5.491">
        <ele>252.8</ele>
        <time>2022-02-26T13:38:35Z</time>
      </trkpt>
      <trkpt lat="46.65724" lon="5.49158">
        <ele>253.4</ele>
        <time>2022-02-26T13:38:44Z</time>
      </trkpt>
      <trkpt lat="46.65733" lon="5.49198">
        <ele>253.6</ele>
        <time>2022-02-26T13:38:50Z</time>
      </trkpt>
      <trkpt lat="46.65747" lon="5.49253">
        <ele>253.8</ele>
        <time>2022-02-26T13:38:58Z</time>
      </trkpt>
      <trkpt lat="46.65754" lon="5.49279">
        <ele>253.8</ele>
        <time>2022-02-26T13:39:02Z</time>
      </trkpt>
      <trkpt lat="46.65769" lon="5.49331">
        <ele>254.2</ele>
        <time>2022-02-26T13:39:10Z</time>
      </trkpt>
      <trkpt lat="46.65787" lon="5.494">
        <ele>254</ele>
        <time>2022-02-26T13:39:20Z</time>
      </trkpt>
      <trkpt lat="46.65804" lon="5.49458">
        <ele>254.8</ele>
        <time>2022-02-26T13:39:28Z</time>
      </trkpt>
      <trkpt lat="46.65806" lon="5.49464">
        <ele>254.8</ele>
        <time>2022-02-26T13:39:29Z</time>
      </trkpt>
      <trkpt lat="46.65825" lon="5.49518">
        <ele>255.4</ele>
        <time>2022-02-26T13:39:37Z</time>
      </trkpt>
      <trkpt lat="46.65833" lon="5.49548">
        <ele>256</ele>
        <time>2022-02-26T13:39:41Z</time>
      </trkpt>
      <trkpt lat="46.65838" lon="5.49578">
        <ele>256</ele>
        <time>2022-02-26T13:39:45Z</time>
      </trkpt>
      <trkpt lat="46.65839" lon="5.49586">
        <ele>256</ele>
        <time>2022-02-26T13:39:46Z</time>
      </trkpt>
      <trkpt lat="46.65846" lon="5.49623">
        <ele>256</ele>
        <time>2022-02-26T13:39:51Z</time>
      </trkpt>
      <trkpt lat="46.6585" lon="5.49646">
        <ele>256</ele>
        <time>2022-02-26T13:39:54Z</time>
      </trkpt>
      <trkpt lat="46.65854" lon="5.49669">
        <ele>256.2</ele>
        <time>2022-02-26T13:39:57Z</time>
      </trkpt>
      <trkpt lat="46.65865" lon="5.49723">
        <ele>257</ele>
        <time>2022-02-26T13:40:04Z</time>
      </trkpt>
      <trkpt lat="46.65868" lon="5.4974">
        <ele>257</ele>
        <time>2022-02-26T13:40:06Z</time>
      </trkpt>
      <trkpt lat="46.65879" lon="5.49799">
        <ele>257</ele>
        <time>2022-02-26T13:40:14Z</time>
      </trkpt>
      <trkpt lat="46.65888" lon="5.49841">
        <ele>257.6</ele>
        <time>2022-02-26T13:40:20Z</time>
      </trkpt>
      <trkpt lat="46.6589" lon="5.49853">
        <ele>257.8</ele>
        <time>2022-02-26T13:40:22Z</time>
      </trkpt>
      <trkpt lat="46.65893" lon="5.49869">
        <ele>258</ele>
        <time>2022-02-26T13:40:25Z</time>
      </trkpt>
      <trkpt lat="46.65895" lon="5.49884">
        <ele>258</ele>
        <time>2022-02-26T13:40:28Z</time>
      </trkpt>
      <trkpt lat="46.65895" lon="5.49894">
        <ele>258</ele>
        <time>2022-02-26T13:40:30Z</time>
      </trkpt>
      <trkpt lat="46.65893" lon="5.49899">
        <ele>258.2</ele>
        <time>2022-02-26T13:40:31Z</time>
      </trkpt>
      <trkpt lat="46.65886" lon="5.49904">
        <ele>258.4</ele>
        <time>2022-02-26T13:40:33Z</time>
      </trkpt>
      <trkpt lat="46.65878" lon="5.4991">
        <ele>258.4</ele>
        <time>2022-02-26T13:40:35Z</time>
      </trkpt>
      <trkpt lat="46.65865" lon="5.49919">
        <ele>259</ele>
        <time>2022-02-26T13:40:38Z</time>
      </trkpt>
      <trkpt lat="46.6583" lon="5.49941">
        <ele>259.2</ele>
        <time>2022-02-26T13:40:46Z</time>
      </trkpt>
      <trkpt lat="46.65795" lon="5.49963">
        <ele>259.2</ele>
        <time>2022-02-26T13:40:54Z</time>
      </trkpt>
      <trkpt lat="46.65749" lon="5.49991">
        <ele>258.8</ele>
        <time>2022-02-26T13:41:03Z</time>
      </trkpt>
      <trkpt lat="46.65731" lon="5.50003">
        <ele>258.6</ele>
        <time>2022-02-26T13:41:05Z</time>
      </trkpt>
      <trkpt lat="46.65711" lon="5.50019">
        <ele>258.4</ele>
        <time>2022-02-26T13:41:08Z</time>
      </trkpt>
      <trkpt lat="46.65696" lon="5.50033">
        <ele>257.6</ele>
        <time>2022-02-26T13:41:10Z</time>
      </trkpt>
      <trkpt lat="46.65689" lon="5.50042">
        <ele>256.6</ele>
        <time>2022-02-26T13:41:12Z</time>
      </trkpt>
      <trkpt lat="46.65677" lon="5.50064">
        <ele>256</ele>
        <time>2022-02-26T13:41:13Z</time>
      </trkpt>
      <trkpt lat="46.65673" lon="5.50076">
        <ele>255.2</ele>
        <time>2022-02-26T13:41:14Z</time>
      </trkpt>
      <trkpt lat="46.65669" lon="5.50089">
        <ele>254</ele>
        <time>2022-02-26T13:41:16Z</time>
      </trkpt>
      <trkpt lat="46.65662" lon="5.50114">
        <ele>252.6</ele>
        <time>2022-02-26T13:41:18Z</time>
      </trkpt>
      <trkpt lat="46.65659" lon="5.50125">
        <ele>251.8</ele>
        <time>2022-02-26T13:41:19Z</time>
      </trkpt>
      <trkpt lat="46.65658" lon="5.50148">
        <ele>251</ele>
        <time>2022-02-26T13:41:21Z</time>
      </trkpt>
      <trkpt lat="46.65663" lon="5.5017">
        <ele>250.6</ele>
        <time>2022-02-26T13:41:22Z</time>
      </trkpt>
      <trkpt lat="46.65671" lon="5.50199">
        <ele>249.8</ele>
        <time>2022-02-26T13:41:26Z</time>
      </trkpt>
      <trkpt lat="46.65678" lon="5.50226">
        <ele>249.2</ele>
        <time>2022-02-26T13:41:28Z</time>
      </trkpt>
      <trkpt lat="46.65682" lon="5.50244">
        <ele>248.8</ele>
        <time>2022-02-26T13:41:31Z</time>
      </trkpt>
      <trkpt lat="46.65685" lon="5.50262">
        <ele>248.8</ele>
        <time>2022-02-26T13:41:32Z</time>
      </trkpt>
      <trkpt lat="46.65685" lon="5.50271">
        <ele>248.8</ele>
        <time>2022-02-26T13:41:33Z</time>
      </trkpt>
      <trkpt lat="46.65693" lon="5.50332">
        <ele>249</ele>
        <time>2022-02-26T13:41:41Z</time>
      </trkpt>
      <trkpt lat="46.65697" lon="5.50419">
        <ele>249</ele>
        <time>2022-02-26T13:41:50Z</time>
      </trkpt>
      <trkpt lat="46.65697" lon="5.50419">
        <ele>249</ele>
        <time>2022-02-26T13:41:51Z</time>
      </trkpt>
      <trkpt lat="46.65698" lon="5.50479">
        <ele>250</ele>
        <time>2022-02-26T13:41:58Z</time>
      </trkpt>
      <trkpt lat="46.65701" lon="5.50521">
        <ele>250.4</ele>
        <time>2022-02-26T13:42:02Z</time>
      </trkpt>
      <trkpt lat="46.65707" lon="5.50544">
        <ele>250.4</ele>
        <time>2022-02-26T13:42:05Z</time>
      </trkpt>
      <trkpt lat="46.65714" lon="5.50565">
        <ele>250.4</ele>
        <time>2022-02-26T13:42:08Z</time>
      </trkpt>
      <trkpt lat="46.65717" lon="5.50575">
        <ele>250.4</ele>
        <time>2022-02-26T13:42:09Z</time>
      </trkpt>
      <trkpt lat="46.65718" lon="5.50591">
        <ele>250.4</ele>
        <time>2022-02-26T13:42:11Z</time>
      </trkpt>
      <trkpt lat="46.65719" lon="5.50605">
        <ele>250.4</ele>
        <time>2022-02-26T13:42:13Z</time>
      </trkpt>
      <trkpt lat="46.65718" lon="5.50624">
        <ele>250.4</ele>
        <time>2022-02-26T13:42:15Z</time>
      </trkpt>
      <trkpt lat="46.65707" lon="5.50667">
        <ele>251</ele>
        <time>2022-02-26T13:42:21Z</time>
      </trkpt>
      <trkpt lat="46.65705" lon="5.50675">
        <ele>251</ele>
        <time>2022-02-26T13:42:22Z</time>
      </trkpt>
      <trkpt lat="46.6569" lon="5.50736">
        <ele>251.8</ele>
        <time>2022-02-26T13:42:30Z</time>
      </trkpt>
      <trkpt lat="46.6569" lon="5.50752">
        <ele>252</ele>
        <time>2022-02-26T13:42:33Z</time>
      </trkpt>
      <trkpt lat="46.6569" lon="5.50782">
        <ele>252.2</ele>
        <time>2022-02-26T13:42:36Z</time>
      </trkpt>
      <trkpt lat="46.6569" lon="5.5079">
        <ele>252.4</ele>
        <time>2022-02-26T13:42:37Z</time>
      </trkpt>
      <trkpt lat="46.65691" lon="5.50803">
        <ele>253</ele>
        <time>2022-02-26T13:42:40Z</time>
      </trkpt>
      <trkpt lat="46.65692" lon="5.50808">
        <ele>253.4</ele>
        <time>2022-02-26T13:42:41Z</time>
      </trkpt>
      <trkpt lat="46.65695" lon="5.5082">
        <ele>253.6</ele>
        <time>2022-02-26T13:42:42Z</time>
      </trkpt>
      <trkpt lat="46.65697" lon="5.50825">
        <ele>253.8</ele>
        <time>2022-02-26T13:42:43Z</time>
      </trkpt>
      <trkpt lat="46.65702" lon="5.50836">
        <ele>254.2</ele>
        <time>2022-02-26T13:42:45Z</time>
      </trkpt>
      <trkpt lat="46.65705" lon="5.5084">
        <ele>254.4</ele>
        <time>2022-02-26T13:42:46Z</time>
      </trkpt>
      <trkpt lat="46.65708" lon="5.50844">
        <ele>254.6</ele>
        <time>2022-02-26T13:42:47Z</time>
      </trkpt>
      <trkpt lat="46.65708" lon="5.50844">
        <ele>254.8</ele>
        <time>2022-02-26T13:42:48Z</time>
      </trkpt>
      <trkpt lat="46.65715" lon="5.50851">
        <ele>254.8</ele>
        <time>2022-02-26T13:42:49Z</time>
      </trkpt>
      <trkpt lat="46.65723" lon="5.50857">
        <ele>255.2</ele>
        <time>2022-02-26T13:42:51Z</time>
      </trkpt>
      <trkpt lat="46.65723" lon="5.50857">
        <ele>255.8</ele>
        <time>2022-02-26T13:42:52Z</time>
      </trkpt>
      <trkpt lat="46.65732" lon="5.50864">
        <ele>256.6</ele>
        <time>2022-02-26T13:42:55Z</time>
      </trkpt>
      <trkpt lat="46.65736" lon="5.50866">
        <ele>257</ele>
        <time>2022-02-26T13:42:56Z</time>
      </trkpt>
      <trkpt lat="46.65754" lon="5.50878">
        <ele>258.2</ele>
        <time>2022-02-26T13:43:00Z</time>
      </trkpt>
      <trkpt lat="46.65763" lon="5.50888">
        <ele>259.2</ele>
        <time>2022-02-26T13:43:03Z</time>
      </trkpt>
      <trkpt lat="46.65766" lon="5.50893">
        <ele>259.6</ele>
        <time>2022-02-26T13:43:04Z</time>
      </trkpt>
      <trkpt lat="46.65772" lon="5.50907">
        <ele>260.6</ele>
        <time>2022-02-26T13:43:07Z</time>
      </trkpt>
      <trkpt lat="46.65774" lon="5.50913">
        <ele>261</ele>
        <time>2022-02-26T13:43:08Z</time>
      </trkpt>
      <trkpt lat="46.65776" lon="5.50929">
        <ele>261.6</ele>
        <time>2022-02-26T13:43:11Z</time>
      </trkpt>
      <trkpt lat="46.65776" lon="5.50946">
        <ele>262.6</ele>
        <time>2022-02-26T13:43:14Z</time>
      </trkpt>
      <trkpt lat="46.65774" lon="5.50969">
        <ele>263.8</ele>
        <time>2022-02-26T13:43:18Z</time>
      </trkpt>
      <trkpt lat="46.65773" lon="5.50997">
        <ele>265</ele>
        <time>2022-02-26T13:43:23Z</time>
      </trkpt>
      <trkpt lat="46.65773" lon="5.51002">
        <ele>265.4</ele>
        <time>2022-02-26T13:43:24Z</time>
      </trkpt>
      <trkpt lat="46.65774" lon="5.51014">
        <ele>266.2</ele>
        <time>2022-02-26T13:43:27Z</time>
      </trkpt>
      <trkpt lat="46.65774" lon="5.51042">
        <ele>267.2</ele>
        <time>2022-02-26T13:43:32Z</time>
      </trkpt>
      <trkpt lat="46.65775" lon="5.51065">
        <ele>267.6</ele>
        <time>2022-02-26T13:43:35Z</time>
      </trkpt>
      <trkpt lat="46.65775" lon="5.51088">
        <ele>268.4</ele>
        <time>2022-02-26T13:43:39Z</time>
      </trkpt>
      <trkpt lat="46.65775" lon="5.51106">
        <ele>269</ele>
        <time>2022-02-26T13:43:42Z</time>
      </trkpt>
      <trkpt lat="46.65776" lon="5.5113">
        <ele>269.4</ele>
        <time>2022-02-26T13:43:46Z</time>
      </trkpt>
      <trkpt lat="46.65778" lon="5.51167">
        <ele>269.6</ele>
        <time>2022-02-26T13:43:52Z</time>
      </trkpt>
      <trkpt lat="46.65779" lon="5.51227">
        <ele>270.4</ele>
        <time>2022-02-26T13:44:01Z</time>
      </trkpt>
      <trkpt lat="46.6578" lon="5.51289">
        <ele>270.4</ele>
        <time>2022-02-26T13:44:10Z</time>
      </trkpt>
      <trkpt lat="46.65782" lon="5.51339">
        <ele>271.6</ele>
        <time>2022-02-26T13:44:17Z</time>
      </trkpt>
      <trkpt lat="46.65782" lon="5.51346">
        <ele>271.6</ele>
        <time>2022-02-26T13:44:18Z</time>
      </trkpt>
      <trkpt lat="46.65783" lon="5.51413">
        <ele>272</ele>
        <time>2022-02-26T13:44:28Z</time>
      </trkpt>
      <trkpt lat="46.65783" lon="5.51461">
        <ele>272.4</ele>
        <time>2022-02-26T13:44:34Z</time>
      </trkpt>
      <trkpt lat="46.65782" lon="5.51467">
        <ele>272.6</ele>
        <time>2022-02-26T13:44:35Z</time>
      </trkpt>
      <trkpt lat="46.6578" lon="5.51474">
        <ele>272.6</ele>
        <time>2022-02-26T13:44:36Z</time>
      </trkpt>
      <trkpt lat="46.6577" lon="5.51491">
        <ele>273</ele>
        <time>2022-02-26T13:44:39Z</time>
      </trkpt>
      <trkpt lat="46.65769" lon="5.51498">
        <ele>273</ele>
        <time>2022-02-26T13:44:40Z</time>
      </trkpt>
      <trkpt lat="46.65769" lon="5.51505">
        <ele>273.2</ele>
        <time>2022-02-26T13:44:41Z</time>
      </trkpt>
      <trkpt lat="46.65774" lon="5.51517">
        <ele>273.2</ele>
        <time>2022-02-26T13:44:43Z</time>
      </trkpt>
      <trkpt lat="46.65783" lon="5.51534">
        <ele>273.4</ele>
        <time>2022-02-26T13:44:46Z</time>
      </trkpt>
      <trkpt lat="46.65786" lon="5.51549">
        <ele>273.4</ele>
        <time>2022-02-26T13:44:48Z</time>
      </trkpt>
      <trkpt lat="46.65787" lon="5.51556">
        <ele>273.4</ele>
        <time>2022-02-26T13:44:49Z</time>
      </trkpt>
      <trkpt lat="46.65796" lon="5.51598">
        <ele>273.4</ele>
        <time>2022-02-26T13:44:55Z</time>
      </trkpt>
      <trkpt lat="46.65804" lon="5.51632">
        <ele>273.8</ele>
        <time>2022-02-26T13:45:00Z</time>
      </trkpt>
      <trkpt lat="46.65809" lon="5.51662">
        <ele>274.2</ele>
        <time>2022-02-26T13:45:04Z</time>
      </trkpt>
      <trkpt lat="46.6582" lon="5.51738">
        <ele>275</ele>
        <time>2022-02-26T13:45:14Z</time>
      </trkpt>
      <trkpt lat="46.6583" lon="5.51805">
        <ele>275.4</ele>
        <time>2022-02-26T13:45:23Z</time>
      </trkpt>
      <trkpt lat="46.65836" lon="5.51842">
        <ele>276.2</ele>
        <time>2022-02-26T13:45:28Z</time>
      </trkpt>
      <trkpt lat="46.65838" lon="5.51857">
        <ele>276.4</ele>
        <time>2022-02-26T13:45:30Z</time>
      </trkpt>
      <trkpt lat="46.65852" lon="5.5194">
        <ele>277</ele>
        <time>2022-02-26T13:45:41Z</time>
      </trkpt>
      <trkpt lat="46.65854" lon="5.51948">
        <ele>277.2</ele>
        <time>2022-02-26T13:45:42Z</time>
      </trkpt>
      <trkpt lat="46.65866" lon="5.52017">
        <ele>277.4</ele>
        <time>2022-02-26T13:45:51Z</time>
      </trkpt>
      <trkpt lat="46.65867" lon="5.52024">
        <ele>277.4</ele>
        <time>2022-02-26T13:45:52Z</time>
      </trkpt>
      <trkpt lat="46.65867" lon="5.52048">
        <ele>277</ele>
        <time>2022-02-26T13:45:55Z</time>
      </trkpt>
      <trkpt lat="46.65865" lon="5.52056">
        <ele>276.8</ele>
        <time>2022-02-26T13:45:56Z</time>
      </trkpt>
      <trkpt lat="46.65857" lon="5.5207">
        <ele>276.2</ele>
        <time>2022-02-26T13:45:58Z</time>
      </trkpt>
      <trkpt lat="46.65853" lon="5.52076">
        <ele>276.2</ele>
        <time>2022-02-26T13:45:59Z</time>
      </trkpt>
      <trkpt lat="46.65836" lon="5.52094">
        <ele>275.6</ele>
        <time>2022-02-26T13:46:03Z</time>
      </trkpt>
      <trkpt lat="46.65828" lon="5.52104">
        <ele>275.2</ele>
        <time>2022-02-26T13:46:05Z</time>
      </trkpt>
      <trkpt lat="46.65825" lon="5.52108">
        <ele>275.2</ele>
        <time>2022-02-26T13:46:06Z</time>
      </trkpt>
      <trkpt lat="46.65804" lon="5.52134">
        <ele>275</ele>
        <time>2022-02-26T13:46:12Z</time>
      </trkpt>
      <trkpt lat="46.65789" lon="5.52154">
        <ele>275</ele>
        <time>2022-02-26T13:46:17Z</time>
      </trkpt>
      <trkpt lat="46.65786" lon="5.52159">
        <ele>275.2</ele>
        <time>2022-02-26T13:46:18Z</time>
      </trkpt>
      <trkpt lat="46.65765" lon="5.52202">
        <ele>274.8</ele>
        <time>2022-02-26T13:46:25Z</time>
      </trkpt>
      <trkpt lat="46.65755" lon="5.52222">
        <ele>274.6</ele>
        <time>2022-02-26T13:46:28Z</time>
      </trkpt>
      <trkpt lat="46.65747" lon="5.52233">
        <ele>274</ele>
        <time>2022-02-26T13:46:30Z</time>
      </trkpt>
      <trkpt lat="46.65741" lon="5.52241">
        <ele>273.8</ele>
        <time>2022-02-26T13:46:31Z</time>
      </trkpt>
      <trkpt lat="46.65725" lon="5.52259">
        <ele>273</ele>
        <time>2022-02-26T13:46:34Z</time>
      </trkpt>
      <trkpt lat="46.6571" lon="5.52273">
        <ele>272.4</ele>
        <time>2022-02-26T13:46:36Z</time>
      </trkpt>
      <trkpt lat="46.65697" lon="5.52284">
        <ele>271.4</ele>
        <time>2022-02-26T13:46:38Z</time>
      </trkpt>
      <trkpt lat="46.65672" lon="5.52303">
        <ele>270.2</ele>
        <time>2022-02-26T13:46:41Z</time>
      </trkpt>
      <trkpt lat="46.65655" lon="5.52314">
        <ele>269.4</ele>
        <time>2022-02-26T13:46:43Z</time>
      </trkpt>
      <trkpt lat="46.6564" lon="5.52324">
        <ele>268.8</ele>
        <time>2022-02-26T13:46:45Z</time>
      </trkpt>
      <trkpt lat="46.65583" lon="5.52359">
        <ele>267.8</ele>
        <time>2022-02-26T13:46:52Z</time>
      </trkpt>
      <trkpt lat="46.65569" lon="5.52369">
        <ele>267.8</ele>
        <time>2022-02-26T13:46:54Z</time>
      </trkpt>
      <trkpt lat="46.65542" lon="5.52391">
        <ele>268.2</ele>
        <time>2022-02-26T13:46:58Z</time>
      </trkpt>
      <trkpt lat="46.65492" lon="5.52435">
        <ele>268.4</ele>
        <time>2022-02-26T13:47:06Z</time>
      </trkpt>
      <trkpt lat="46.65486" lon="5.52441">
        <ele>268.4</ele>
        <time>2022-02-26T13:47:07Z</time>
      </trkpt>
      <trkpt lat="46.65439" lon="5.52483">
        <ele>268.6</ele>
        <time>2022-02-26T13:47:15Z</time>
      </trkpt>
      <trkpt lat="46.65432" lon="5.52489">
        <ele>268.8</ele>
        <time>2022-02-26T13:47:16Z</time>
      </trkpt>
      <trkpt lat="46.65412" lon="5.52512">
        <ele>268.8</ele>
        <time>2022-02-26T13:47:20Z</time>
      </trkpt>
      <trkpt lat="46.65407" lon="5.52519">
        <ele>268.8</ele>
        <time>2022-02-26T13:47:21Z</time>
      </trkpt>
      <trkpt lat="46.65403" lon="5.52526">
        <ele>269</ele>
        <time>2022-02-26T13:47:22Z</time>
      </trkpt>
      <trkpt lat="46.65396" lon="5.52542">
        <ele>269.2</ele>
        <time>2022-02-26T13:47:24Z</time>
      </trkpt>
      <trkpt lat="46.6539" lon="5.52558">
        <ele>269.4</ele>
        <time>2022-02-26T13:47:26Z</time>
      </trkpt>
      <trkpt lat="46.65388" lon="5.52566">
        <ele>269.6</ele>
        <time>2022-02-26T13:47:27Z</time>
      </trkpt>
      <trkpt lat="46.65379" lon="5.52599">
        <ele>270</ele>
        <time>2022-02-26T13:47:31Z</time>
      </trkpt>
      <trkpt lat="46.65367" lon="5.52638">
        <ele>270.6</ele>
        <time>2022-02-26T13:47:36Z</time>
      </trkpt>
      <trkpt lat="46.65341" lon="5.52684">
        <ele>271</ele>
        <time>2022-02-26T13:47:43Z</time>
      </trkpt>
      <trkpt lat="46.6531" lon="5.52719">
        <ele>271.6</ele>
        <time>2022-02-26T13:47:50Z</time>
      </trkpt>
      <trkpt lat="46.65292" lon="5.52739">
        <ele>272.6</ele>
        <time>2022-02-26T13:47:54Z</time>
      </trkpt>
      <trkpt lat="46.65279" lon="5.5275">
        <ele>273</ele>
        <time>2022-02-26T13:47:57Z</time>
      </trkpt>
      <trkpt lat="46.65266" lon="5.52762">
        <ele>273.4</ele>
        <time>2022-02-26T13:48:00Z</time>
      </trkpt>
      <trkpt lat="46.65257" lon="5.52769">
        <ele>273.6</ele>
        <time>2022-02-26T13:48:02Z</time>
      </trkpt>
      <trkpt lat="46.65253" lon="5.52773">
        <ele>273.8</ele>
        <time>2022-02-26T13:48:03Z</time>
      </trkpt>
      <trkpt lat="46.65249" lon="5.52776">
        <ele>274</ele>
        <time>2022-02-26T13:48:04Z</time>
      </trkpt>
      <trkpt lat="46.65239" lon="5.52782">
        <ele>274.2</ele>
        <time>2022-02-26T13:48:07Z</time>
      </trkpt>
      <trkpt lat="46.6523" lon="5.52784">
        <ele>274.8</ele>
        <time>2022-02-26T13:48:10Z</time>
      </trkpt>
      <trkpt lat="46.65223" lon="5.52784">
        <ele>275.2</ele>
        <time>2022-02-26T13:48:12Z</time>
      </trkpt>
      <trkpt lat="46.65213" lon="5.52787">
        <ele>276</ele>
        <time>2022-02-26T13:48:15Z</time>
      </trkpt>
      <trkpt lat="46.65208" lon="5.52789">
        <ele>276.2</ele>
        <time>2022-02-26T13:48:17Z</time>
      </trkpt>
      <trkpt lat="46.65205" lon="5.52793">
        <ele>276.2</ele>
        <time>2022-02-26T13:48:18Z</time>
      </trkpt>
      <trkpt lat="46.65201" lon="5.52803">
        <ele>276.4</ele>
        <time>2022-02-26T13:48:20Z</time>
      </trkpt>
      <trkpt lat="46.65198" lon="5.52816">
        <ele>276.6</ele>
        <time>2022-02-26T13:48:22Z</time>
      </trkpt>
      <trkpt lat="46.65192" lon="5.52852">
        <ele>277</ele>
        <time>2022-02-26T13:48:27Z</time>
      </trkpt>
      <trkpt lat="46.65184" lon="5.52871">
        <ele>277</ele>
        <time>2022-02-26T13:48:30Z</time>
      </trkpt>
      <trkpt lat="46.65174" lon="5.52891">
        <ele>276.8</ele>
        <time>2022-02-26T13:48:34Z</time>
      </trkpt>
      <trkpt lat="46.65151" lon="5.52933">
        <ele>276</ele>
        <time>2022-02-26T13:48:40Z</time>
      </trkpt>
      <trkpt lat="46.65134" lon="5.52964">
        <ele>276</ele>
        <time>2022-02-26T13:48:45Z</time>
      </trkpt>
      <trkpt lat="46.65129" lon="5.52976">
        <ele>276</ele>
        <time>2022-02-26T13:48:47Z</time>
      </trkpt>
      <trkpt lat="46.65121" lon="5.52993">
        <ele>276.2</ele>
        <time>2022-02-26T13:48:50Z</time>
      </trkpt>
      <trkpt lat="46.65116" lon="5.53005">
        <ele>276.2</ele>
        <time>2022-02-26T13:48:52Z</time>
      </trkpt>
      <trkpt lat="46.65101" lon="5.53036">
        <ele>276.6</ele>
        <time>2022-02-26T13:48:57Z</time>
      </trkpt>
      <trkpt lat="46.65092" lon="5.53056">
        <ele>276.8</ele>
        <time>2022-02-26T13:49:00Z</time>
      </trkpt>
      <trkpt lat="46.65089" lon="5.53063">
        <ele>276.8</ele>
        <time>2022-02-26T13:49:01Z</time>
      </trkpt>
      <trkpt lat="46.65077" lon="5.53088">
        <ele>277</ele>
        <time>2022-02-26T13:49:05Z</time>
      </trkpt>
      <trkpt lat="46.65074" lon="5.53095">
        <ele>277.2</ele>
        <time>2022-02-26T13:49:06Z</time>
      </trkpt>
      <trkpt lat="46.65067" lon="5.53107">
        <ele>277.2</ele>
        <time>2022-02-26T13:49:08Z</time>
      </trkpt>
      <trkpt lat="46.65063" lon="5.53113">
        <ele>277.2</ele>
        <time>2022-02-26T13:49:09Z</time>
      </trkpt>
      <trkpt lat="46.65044" lon="5.53151">
        <ele>277.8</ele>
        <time>2022-02-26T13:49:15Z</time>
      </trkpt>
      <trkpt lat="46.65041" lon="5.53157">
        <ele>278</ele>
        <time>2022-02-26T13:49:16Z</time>
      </trkpt>
      <trkpt lat="46.65038" lon="5.53164">
        <ele>278</ele>
        <time>2022-02-26T13:49:17Z</time>
      </trkpt>
      <trkpt lat="46.65028" lon="5.53191">
        <ele>278.2</ele>
        <time>2022-02-26T13:49:21Z</time>
      </trkpt>
      <trkpt lat="46.65011" lon="5.53237">
        <ele>278.8</ele>
        <time>2022-02-26T13:49:28Z</time>
      </trkpt>
      <trkpt lat="46.65006" lon="5.53249">
        <ele>279</ele>
        <time>2022-02-26T13:49:30Z</time>
      </trkpt>
      <trkpt lat="46.6499" lon="5.53279">
        <ele>279.4</ele>
        <time>2022-02-26T13:49:35Z</time>
      </trkpt>
      <trkpt lat="46.64958" lon="5.53345">
        <ele>280</ele>
        <time>2022-02-26T13:49:46Z</time>
      </trkpt>
      <trkpt lat="46.64956" lon="5.53352">
        <ele>280</ele>
        <time>2022-02-26T13:49:47Z</time>
      </trkpt>
      <trkpt lat="46.64931" lon="5.53412">
        <ele>281</ele>
        <time>2022-02-26T13:49:57Z</time>
      </trkpt>
      <trkpt lat="46.64923" lon="5.53432">
        <ele>281</ele>
        <time>2022-02-26T13:50:00Z</time>
      </trkpt>
      <trkpt lat="46.64906" lon="5.5347">
        <ele>281.4</ele>
        <time>2022-02-26T13:50:06Z</time>
      </trkpt>
      <trkpt lat="46.64887" lon="5.53515">
        <ele>282.2</ele>
        <time>2022-02-26T13:50:13Z</time>
      </trkpt>
      <trkpt lat="46.64884" lon="5.53522">
        <ele>282.2</ele>
        <time>2022-02-26T13:50:14Z</time>
      </trkpt>
      <trkpt lat="46.64867" lon="5.53567">
        <ele>283</ele>
        <time>2022-02-26T13:50:21Z</time>
      </trkpt>
      <trkpt lat="46.64865" lon="5.53573">
        <ele>283.2</ele>
        <time>2022-02-26T13:50:22Z</time>
      </trkpt>
      <trkpt lat="46.64839" lon="5.5364">
        <ele>284</ele>
        <time>2022-02-26T13:50:32Z</time>
      </trkpt>
      <trkpt lat="46.64828" lon="5.53667">
        <ele>284.2</ele>
        <time>2022-02-26T13:50:36Z</time>
      </trkpt>
      <trkpt lat="46.64807" lon="5.53728">
        <ele>284.6</ele>
        <time>2022-02-26T13:50:45Z</time>
      </trkpt>
      <trkpt lat="46.64787" lon="5.53783">
        <ele>285</ele>
        <time>2022-02-26T13:50:53Z</time>
      </trkpt>
      <trkpt lat="46.64783" lon="5.53791">
        <ele>285</ele>
        <time>2022-02-26T13:50:54Z</time>
      </trkpt>
      <trkpt lat="46.6476" lon="5.53836">
        <ele>285.2</ele>
        <time>2022-02-26T13:51:01Z</time>
      </trkpt>
      <trkpt lat="46.64756" lon="5.53842">
        <ele>285.2</ele>
        <time>2022-02-26T13:51:02Z</time>
      </trkpt>
      <trkpt lat="46.64744" lon="5.53857">
        <ele>285.4</ele>
        <time>2022-02-26T13:51:05Z</time>
      </trkpt>
      <trkpt lat="46.64735" lon="5.53865">
        <ele>285.6</ele>
        <time>2022-02-26T13:51:07Z</time>
      </trkpt>
      <trkpt lat="46.6473" lon="5.53868">
        <ele>285.6</ele>
        <time>2022-02-26T13:51:08Z</time>
      </trkpt>
      <trkpt lat="46.647" lon="5.5388">
        <ele>286.2</ele>
        <time>2022-02-26T13:51:14Z</time>
      </trkpt>
      <trkpt lat="46.64695" lon="5.53881">
        <ele>286.2</ele>
        <time>2022-02-26T13:51:15Z</time>
      </trkpt>
      <trkpt lat="46.64675" lon="5.53883">
        <ele>286.4</ele>
        <time>2022-02-26T13:51:19Z</time>
      </trkpt>
      <trkpt lat="46.64667" lon="5.53888">
        <ele>286.6</ele>
        <time>2022-02-26T13:51:21Z</time>
      </trkpt>
      <trkpt lat="46.64654" lon="5.53899">
        <ele>287</ele>
        <time>2022-02-26T13:51:24Z</time>
      </trkpt>
      <trkpt lat="46.64643" lon="5.53904">
        <ele>287.4</ele>
        <time>2022-02-26T13:51:26Z</time>
      </trkpt>
      <trkpt lat="46.64611" lon="5.53919">
        <ele>288.2</ele>
        <time>2022-02-26T13:51:32Z</time>
      </trkpt>
      <trkpt lat="46.64601" lon="5.53927">
        <ele>288.4</ele>
        <time>2022-02-26T13:51:34Z</time>
      </trkpt>
      <trkpt lat="46.64579" lon="5.53942">
        <ele>288.8</ele>
        <time>2022-02-26T13:51:39Z</time>
      </trkpt>
      <trkpt lat="46.6455" lon="5.53963">
        <ele>289.2</ele>
        <time>2022-02-26T13:51:45Z</time>
      </trkpt>
      <trkpt lat="46.64541" lon="5.5397">
        <ele>289.2</ele>
        <time>2022-02-26T13:51:47Z</time>
      </trkpt>
      <trkpt lat="46.64523" lon="5.53984">
        <ele>289.6</ele>
        <time>2022-02-26T13:51:51Z</time>
      </trkpt>
      <trkpt lat="46.64502" lon="5.53994">
        <ele>289.8</ele>
        <time>2022-02-26T13:51:55Z</time>
      </trkpt>
      <trkpt lat="46.64465" lon="5.54">
        <ele>290.4</ele>
        <time>2022-02-26T13:52:02Z</time>
      </trkpt>
      <trkpt lat="46.64451" lon="5.54003">
        <ele>290.4</ele>
        <time>2022-02-26T13:52:05Z</time>
      </trkpt>
      <trkpt lat="46.64443" lon="5.54009">
        <ele>290.6</ele>
        <time>2022-02-26T13:52:07Z</time>
      </trkpt>
      <trkpt lat="46.64423" lon="5.54027">
        <ele>291.8</ele>
        <time>2022-02-26T13:52:14Z</time>
      </trkpt>
      <trkpt lat="46.6442" lon="5.54029">
        <ele>292.8</ele>
        <time>2022-02-26T13:52:18Z</time>
      </trkpt>
      <trkpt lat="46.64418" lon="5.54032">
        <ele>293</ele>
        <time>2022-02-26T13:52:32Z</time>
      </trkpt>
      <trkpt lat="46.64418" lon="5.54039">
        <ele>293</ele>
        <time>2022-02-26T13:52:34Z</time>
      </trkpt>
      <trkpt lat="46.6442" lon="5.54061">
        <ele>293</ele>
        <time>2022-02-26T13:52:38Z</time>
      </trkpt>
      <trkpt lat="46.64419" lon="5.54067">
        <ele>293</ele>
        <time>2022-02-26T13:52:39Z</time>
      </trkpt>
      <trkpt lat="46.64417" lon="5.54076">
        <ele>293</ele>
        <time>2022-02-26T13:52:40Z</time>
      </trkpt>
      <trkpt lat="46.6441" lon="5.54087">
        <ele>293</ele>
        <time>2022-02-26T13:52:42Z</time>
      </trkpt>
      <trkpt lat="46.64385" lon="5.54121">
        <ele>292.6</ele>
        <time>2022-02-26T13:52:49Z</time>
      </trkpt>
      <trkpt lat="46.64379" lon="5.54129">
        <ele>292.6</ele>
        <time>2022-02-26T13:52:51Z</time>
      </trkpt>
      <trkpt lat="46.64373" lon="5.54134">
        <ele>292.6</ele>
        <time>2022-02-26T13:52:53Z</time>
      </trkpt>
      <trkpt lat="46.64361" lon="5.54139">
        <ele>293.2</ele>
        <time>2022-02-26T13:52:57Z</time>
      </trkpt>
      <trkpt lat="46.64349" lon="5.54143">
        <ele>293.8</ele>
        <time>2022-02-26T13:53:00Z</time>
      </trkpt>
      <trkpt lat="46.6434" lon="5.54146">
        <ele>294.4</ele>
        <time>2022-02-26T13:53:02Z</time>
      </trkpt>
      <trkpt lat="46.6433" lon="5.54148">
        <ele>294.8</ele>
        <time>2022-02-26T13:53:04Z</time>
      </trkpt>
      <trkpt lat="46.64322" lon="5.54148">
        <ele>294.8</ele>
        <time>2022-02-26T13:53:06Z</time>
      </trkpt>
      <trkpt lat="46.64318" lon="5.54147">
        <ele>295</ele>
        <time>2022-02-26T13:53:07Z</time>
      </trkpt>
      <trkpt lat="46.64313" lon="5.54147">
        <ele>295</ele>
        <time>2022-02-26T13:53:08Z</time>
      </trkpt>
      <trkpt lat="46.64305" lon="5.54146">
        <ele>295.2</ele>
        <time>2022-02-26T13:53:10Z</time>
      </trkpt>
      <trkpt lat="46.643" lon="5.54147">
        <ele>295.2</ele>
        <time>2022-02-26T13:53:11Z</time>
      </trkpt>
      <trkpt lat="46.64287" lon="5.54149">
        <ele>295.6</ele>
        <time>2022-02-26T13:53:14Z</time>
      </trkpt>
      <trkpt lat="46.64279" lon="5.54152">
        <ele>295.8</ele>
        <time>2022-02-26T13:53:16Z</time>
      </trkpt>
      <trkpt lat="46.64274" lon="5.54156">
        <ele>296</ele>
        <time>2022-02-26T13:53:17Z</time>
      </trkpt>
      <trkpt lat="46.6427" lon="5.54159">
        <ele>296</ele>
        <time>2022-02-26T13:53:18Z</time>
      </trkpt>
      <trkpt lat="46.6426" lon="5.54173">
        <ele>296</ele>
        <time>2022-02-26T13:53:21Z</time>
      </trkpt>
      <trkpt lat="46.64256" lon="5.54177">
        <ele>296.2</ele>
        <time>2022-02-26T13:53:22Z</time>
      </trkpt>
      <trkpt lat="46.64236" lon="5.54188">
        <ele>297</ele>
        <time>2022-02-26T13:53:27Z</time>
      </trkpt>
      <trkpt lat="46.64231" lon="5.54188">
        <ele>297</ele>
        <time>2022-02-26T13:53:28Z</time>
      </trkpt>
      <trkpt lat="46.64191" lon="5.54191">
        <ele>297.6</ele>
        <time>2022-02-26T13:53:36Z</time>
      </trkpt>
      <trkpt lat="46.64155" lon="5.54202">
        <ele>298</ele>
        <time>2022-02-26T13:53:43Z</time>
      </trkpt>
      <trkpt lat="46.6415" lon="5.54205">
        <ele>298</ele>
        <time>2022-02-26T13:53:44Z</time>
      </trkpt>
      <trkpt lat="46.64121" lon="5.54233">
        <ele>298.8</ele>
        <time>2022-02-26T13:53:52Z</time>
      </trkpt>
      <trkpt lat="46.64112" lon="5.54243">
        <ele>299.6</ele>
        <time>2022-02-26T13:53:55Z</time>
      </trkpt>
      <trkpt lat="46.64097" lon="5.54259">
        <ele>301.2</ele>
        <time>2022-02-26T13:54:00Z</time>
      </trkpt>
      <trkpt lat="46.64087" lon="5.5427">
        <ele>302.4</ele>
        <time>2022-02-26T13:54:04Z</time>
      </trkpt>
      <trkpt lat="46.64075" lon="5.54281">
        <ele>303.2</ele>
        <time>2022-02-26T13:54:08Z</time>
      </trkpt>
      <trkpt lat="46.64072" lon="5.54283">
        <ele>303.6</ele>
        <time>2022-02-26T13:54:09Z</time>
      </trkpt>
      <trkpt lat="46.6405" lon="5.54298">
        <ele>304.8</ele>
        <time>2022-02-26T13:54:16Z</time>
      </trkpt>
      <trkpt lat="46.64047" lon="5.54299">
        <ele>304.8</ele>
        <time>2022-02-26T13:54:17Z</time>
      </trkpt>
      <trkpt lat="46.64035" lon="5.54304">
        <ele>305.8</ele>
        <time>2022-02-26T13:54:21Z</time>
      </trkpt>
      <trkpt lat="46.64024" lon="5.54305">
        <ele>306.6</ele>
        <time>2022-02-26T13:54:25Z</time>
      </trkpt>
      <trkpt lat="46.64021" lon="5.54306">
        <ele>306.8</ele>
        <time>2022-02-26T13:54:26Z</time>
      </trkpt>
      <trkpt lat="46.64011" lon="5.54309">
        <ele>307.8</ele>
        <time>2022-02-26T13:54:29Z</time>
      </trkpt>
      <trkpt lat="46.63994" lon="5.54312">
        <ele>308.6</ele>
        <time>2022-02-26T13:54:34Z</time>
      </trkpt>
      <trkpt lat="46.63987" lon="5.54315">
        <ele>309</ele>
        <time>2022-02-26T13:54:36Z</time>
      </trkpt>
      <trkpt lat="46.63974" lon="5.5432">
        <ele>310.2</ele>
        <time>2022-02-26T13:54:40Z</time>
      </trkpt>
      <trkpt lat="46.63967" lon="5.54322">
        <ele>310.6</ele>
        <time>2022-02-26T13:54:42Z</time>
      </trkpt>
      <trkpt lat="46.63957" lon="5.54326">
        <ele>311.8</ele>
        <time>2022-02-26T13:54:46Z</time>
      </trkpt>
      <trkpt lat="46.63945" lon="5.54332">
        <ele>312.4</ele>
        <time>2022-02-26T13:54:50Z</time>
      </trkpt>
      <trkpt lat="46.63933" lon="5.54339">
        <ele>312.8</ele>
        <time>2022-02-26T13:54:54Z</time>
      </trkpt>
      <trkpt lat="46.63923" lon="5.54346">
        <ele>314</ele>
        <time>2022-02-26T13:54:57Z</time>
      </trkpt>
      <trkpt lat="46.6392" lon="5.54348">
        <ele>314.2</ele>
        <time>2022-02-26T13:54:58Z</time>
      </trkpt>
      <trkpt lat="46.63912" lon="5.54354">
        <ele>314.8</ele>
        <time>2022-02-26T13:55:01Z</time>
      </trkpt>
      <trkpt lat="46.63906" lon="5.54358">
        <ele>315.2</ele>
        <time>2022-02-26T13:55:03Z</time>
      </trkpt>
      <trkpt lat="46.63898" lon="5.54364">
        <ele>316.4</ele>
        <time>2022-02-26T13:55:06Z</time>
      </trkpt>
      <trkpt lat="46.63892" lon="5.54369">
        <ele>316.8</ele>
        <time>2022-02-26T13:55:08Z</time>
      </trkpt>
      <trkpt lat="46.63877" lon="5.54384">
        <ele>317.6</ele>
        <time>2022-02-26T13:55:14Z</time>
      </trkpt>
      <trkpt lat="46.63865" lon="5.54394">
        <ele>318.8</ele>
        <time>2022-02-26T13:55:18Z</time>
      </trkpt>
      <trkpt lat="46.63848" lon="5.54415">
        <ele>320</ele>
        <time>2022-02-26T13:55:25Z</time>
      </trkpt>
      <trkpt lat="46.63839" lon="5.54426">
        <ele>320.6</ele>
        <time>2022-02-26T13:55:29Z</time>
      </trkpt>
      <trkpt lat="46.63835" lon="5.54431">
        <ele>321</ele>
        <time>2022-02-26T13:55:31Z</time>
      </trkpt>
      <trkpt lat="46.63824" lon="5.54446">
        <ele>322.2</ele>
        <time>2022-02-26T13:55:36Z</time>
      </trkpt>
      <trkpt lat="46.63814" lon="5.54455">
        <ele>323.2</ele>
        <time>2022-02-26T13:55:40Z</time>
      </trkpt>
      <trkpt lat="46.63802" lon="5.54466">
        <ele>324.2</ele>
        <time>2022-02-26T13:55:44Z</time>
      </trkpt>
      <trkpt lat="46.63799" lon="5.54467">
        <ele>324.4</ele>
        <time>2022-02-26T13:55:45Z</time>
      </trkpt>
      <trkpt lat="46.6378" lon="5.54478">
        <ele>325.6</ele>
        <time>2022-02-26T13:55:52Z</time>
      </trkpt>
      <trkpt lat="46.63771" lon="5.54482">
        <ele>326</ele>
        <time>2022-02-26T13:55:55Z</time>
      </trkpt>
      <trkpt lat="46.63761" lon="5.54487">
        <ele>326.8</ele>
        <time>2022-02-26T13:55:58Z</time>
      </trkpt>
      <trkpt lat="46.63749" lon="5.54493">
        <ele>327.8</ele>
        <time>2022-02-26T13:56:02Z</time>
      </trkpt>
      <trkpt lat="46.63746" lon="5.54495">
        <ele>328.2</ele>
        <time>2022-02-26T13:56:03Z</time>
      </trkpt>
      <trkpt lat="46.6374" lon="5.54498">
        <ele>328.8</ele>
        <time>2022-02-26T13:56:05Z</time>
      </trkpt>
      <trkpt lat="46.63738" lon="5.54501">
        <ele>329</ele>
        <time>2022-02-26T13:56:06Z</time>
      </trkpt>
      <trkpt lat="46.63723" lon="5.54518">
        <ele>330</ele>
        <time>2022-02-26T13:56:12Z</time>
      </trkpt>
      <trkpt lat="46.63717" lon="5.54534">
        <ele>331.2</ele>
        <time>2022-02-26T13:56:16Z</time>
      </trkpt>
      <trkpt lat="46.63714" lon="5.54547">
        <ele>332</ele>
        <time>2022-02-26T13:56:19Z</time>
      </trkpt>
      <trkpt lat="46.63714" lon="5.54551">
        <ele>332.2</ele>
        <time>2022-02-26T13:56:20Z</time>
      </trkpt>
      <trkpt lat="46.63706" lon="5.54568">
        <ele>333.2</ele>
        <time>2022-02-26T13:56:25Z</time>
      </trkpt>
      <trkpt lat="46.63704" lon="5.54572">
        <ele>333.2</ele>
        <time>2022-02-26T13:56:26Z</time>
      </trkpt>
      <trkpt lat="46.63696" lon="5.5459">
        <ele>334.2</ele>
        <time>2022-02-26T13:56:31Z</time>
      </trkpt>
      <trkpt lat="46.63694" lon="5.54593">
        <ele>334.4</ele>
        <time>2022-02-26T13:56:32Z</time>
      </trkpt>
      <trkpt lat="46.63686" lon="5.54608">
        <ele>335.4</ele>
        <time>2022-02-26T13:56:37Z</time>
      </trkpt>
      <trkpt lat="46.63685" lon="5.5461">
        <ele>335.4</ele>
        <time>2022-02-26T13:56:38Z</time>
      </trkpt>
      <trkpt lat="46.6368" lon="5.54618">
        <ele>336</ele>
        <time>2022-02-26T13:56:41Z</time>
      </trkpt>
      <trkpt lat="46.63674" lon="5.54625">
        <ele>336.6</ele>
        <time>2022-02-26T13:56:44Z</time>
      </trkpt>
      <trkpt lat="46.63669" lon="5.54629">
        <ele>336.8</ele>
        <time>2022-02-26T13:56:46Z</time>
      </trkpt>
      <trkpt lat="46.63664" lon="5.5463">
        <ele>337.6</ele>
        <time>2022-02-26T13:56:49Z</time>
      </trkpt>
      <trkpt lat="46.63662" lon="5.5463">
        <ele>337.8</ele>
        <time>2022-02-26T13:56:50Z</time>
      </trkpt>
      <trkpt lat="46.63657" lon="5.5463">
        <ele>338.8</ele>
        <time>2022-02-26T13:56:53Z</time>
      </trkpt>
      <trkpt lat="46.6365" lon="5.54634">
        <ele>339.2</ele>
        <time>2022-02-26T13:56:55Z</time>
      </trkpt>
      <trkpt lat="46.6364" lon="5.54638">
        <ele>340</ele>
        <time>2022-02-26T13:56:58Z</time>
      </trkpt>
      <trkpt lat="46.63635" lon="5.54639">
        <ele>340.4</ele>
        <time>2022-02-26T13:57:00Z</time>
      </trkpt>
      <trkpt lat="46.63622" lon="5.54643">
        <ele>341</ele>
        <time>2022-02-26T13:57:04Z</time>
      </trkpt>
      <trkpt lat="46.63608" lon="5.54647">
        <ele>342</ele>
        <time>2022-02-26T13:57:08Z</time>
      </trkpt>
      <trkpt lat="46.63605" lon="5.54648">
        <ele>342.2</ele>
        <time>2022-02-26T13:57:09Z</time>
      </trkpt>
      <trkpt lat="46.63589" lon="5.54652">
        <ele>343.2</ele>
        <time>2022-02-26T13:57:14Z</time>
      </trkpt>
      <trkpt lat="46.6358" lon="5.54654">
        <ele>343.4</ele>
        <time>2022-02-26T13:57:17Z</time>
      </trkpt>
      <trkpt lat="46.63567" lon="5.5466">
        <ele>344.2</ele>
        <time>2022-02-26T13:57:21Z</time>
      </trkpt>
      <trkpt lat="46.6356" lon="5.54662">
        <ele>344.6</ele>
        <time>2022-02-26T13:57:23Z</time>
      </trkpt>
      <trkpt lat="46.63551" lon="5.54667">
        <ele>345.4</ele>
        <time>2022-02-26T13:57:26Z</time>
      </trkpt>
      <trkpt lat="46.63533" lon="5.54676">
        <ele>346.6</ele>
        <time>2022-02-26T13:57:31Z</time>
      </trkpt>
      <trkpt lat="46.63522" lon="5.54682">
        <ele>347.2</ele>
        <time>2022-02-26T13:57:34Z</time>
      </trkpt>
      <trkpt lat="46.63519" lon="5.54684">
        <ele>347.6</ele>
        <time>2022-02-26T13:57:35Z</time>
      </trkpt>
      <trkpt lat="46.63506" lon="5.54689">
        <ele>348.8</ele>
        <time>2022-02-26T13:57:39Z</time>
      </trkpt>
      <trkpt lat="46.63501" lon="5.54691">
        <ele>349.2</ele>
        <time>2022-02-26T13:57:41Z</time>
      </trkpt>
      <trkpt lat="46.63492" lon="5.54694">
        <ele>350</ele>
        <time>2022-02-26T13:57:44Z</time>
      </trkpt>
      <trkpt lat="46.63475" lon="5.54705">
        <ele>350.8</ele>
        <time>2022-02-26T13:57:50Z</time>
      </trkpt>
      <trkpt lat="46.63472" lon="5.54706">
        <ele>351.2</ele>
        <time>2022-02-26T13:57:51Z</time>
      </trkpt>
      <trkpt lat="46.63457" lon="5.54716">
        <ele>352.4</ele>
        <time>2022-02-26T13:57:56Z</time>
      </trkpt>
      <trkpt lat="46.63451" lon="5.54719">
        <ele>352.8</ele>
        <time>2022-02-26T13:57:58Z</time>
      </trkpt>
      <trkpt lat="46.63437" lon="5.54728">
        <ele>353.6</ele>
        <time>2022-02-26T13:58:02Z</time>
      </trkpt>
      <trkpt lat="46.63425" lon="5.54735">
        <ele>354.4</ele>
        <time>2022-02-26T13:58:06Z</time>
      </trkpt>
      <trkpt lat="46.63418" lon="5.5474">
        <ele>354.8</ele>
        <time>2022-02-26T13:58:08Z</time>
      </trkpt>
      <trkpt lat="46.63404" lon="5.54744">
        <ele>356</ele>
        <time>2022-02-26T13:58:13Z</time>
      </trkpt>
      <trkpt lat="46.63383" lon="5.54745">
        <ele>357.2</ele>
        <time>2022-02-26T13:58:19Z</time>
      </trkpt>
      <trkpt lat="46.6337" lon="5.54745">
        <ele>358.4</ele>
        <time>2022-02-26T13:58:23Z</time>
      </trkpt>
      <trkpt lat="46.63339" lon="5.54751">
        <ele>359.4</ele>
        <time>2022-02-26T13:58:32Z</time>
      </trkpt>
      <trkpt lat="46.63318" lon="5.54759">
        <ele>360.4</ele>
        <time>2022-02-26T13:58:38Z</time>
      </trkpt>
      <trkpt lat="46.63308" lon="5.54761">
        <ele>360.8</ele>
        <time>2022-02-26T13:58:41Z</time>
      </trkpt>
      <trkpt lat="46.6329" lon="5.54764">
        <ele>361.6</ele>
        <time>2022-02-26T13:58:46Z</time>
      </trkpt>
      <trkpt lat="46.63286" lon="5.54764">
        <ele>361.6</ele>
        <time>2022-02-26T13:58:47Z</time>
      </trkpt>
      <trkpt lat="46.63261" lon="5.54766">
        <ele>362.6</ele>
        <time>2022-02-26T13:58:54Z</time>
      </trkpt>
      <trkpt lat="46.63244" lon="5.54769">
        <ele>363.6</ele>
        <time>2022-02-26T13:58:59Z</time>
      </trkpt>
      <trkpt lat="46.6324" lon="5.5477">
        <ele>363.6</ele>
        <time>2022-02-26T13:59:00Z</time>
      </trkpt>
      <trkpt lat="46.63221" lon="5.54774">
        <ele>364.6</ele>
        <time>2022-02-26T13:59:05Z</time>
      </trkpt>
      <trkpt lat="46.63214" lon="5.54775">
        <ele>364.8</ele>
        <time>2022-02-26T13:59:07Z</time>
      </trkpt>
      <trkpt lat="46.63193" lon="5.54772">
        <ele>366</ele>
        <time>2022-02-26T13:59:13Z</time>
      </trkpt>
      <trkpt lat="46.63175" lon="5.54767">
        <ele>367</ele>
        <time>2022-02-26T13:59:18Z</time>
      </trkpt>
      <trkpt lat="46.63164" lon="5.54764">
        <ele>367.4</ele>
        <time>2022-02-26T13:59:21Z</time>
      </trkpt>
      <trkpt lat="46.6315" lon="5.5476">
        <ele>368.2</ele>
        <time>2022-02-26T13:59:25Z</time>
      </trkpt>
      <trkpt lat="46.63136" lon="5.54756">
        <ele>369.4</ele>
        <time>2022-02-26T13:59:29Z</time>
      </trkpt>
      <trkpt lat="46.63132" lon="5.54755">
        <ele>369.4</ele>
        <time>2022-02-26T13:59:30Z</time>
      </trkpt>
      <trkpt lat="46.63111" lon="5.5475">
        <ele>370.6</ele>
        <time>2022-02-26T13:59:36Z</time>
      </trkpt>
      <trkpt lat="46.63107" lon="5.54749">
        <ele>370.8</ele>
        <time>2022-02-26T13:59:37Z</time>
      </trkpt>
      <trkpt lat="46.63084" lon="5.54746">
        <ele>371.6</ele>
        <time>2022-02-26T13:59:43Z</time>
      </trkpt>
      <trkpt lat="46.63067" lon="5.54747">
        <ele>372.4</ele>
        <time>2022-02-26T13:59:47Z</time>
      </trkpt>
      <trkpt lat="46.63055" lon="5.54749">
        <ele>372.8</ele>
        <time>2022-02-26T13:59:50Z</time>
      </trkpt>
      <trkpt lat="46.63031" lon="5.54756">
        <ele>373.4</ele>
        <time>2022-02-26T13:59:56Z</time>
      </trkpt>
      <trkpt lat="46.6302" lon="5.54758">
        <ele>373.8</ele>
        <time>2022-02-26T13:59:59Z</time>
      </trkpt>
      <trkpt lat="46.63002" lon="5.54763">
        <ele>374.2</ele>
        <time>2022-02-26T14:00:04Z</time>
      </trkpt>
      <trkpt lat="46.62995" lon="5.54766">
        <ele>375</ele>
        <time>2022-02-26T14:00:06Z</time>
      </trkpt>
      <trkpt lat="46.62974" lon="5.54779">
        <ele>375.8</ele>
        <time>2022-02-26T14:00:12Z</time>
      </trkpt>
      <trkpt lat="46.62971" lon="5.54782">
        <ele>376</ele>
        <time>2022-02-26T14:00:13Z</time>
      </trkpt>
      <trkpt lat="46.62959" lon="5.54791">
        <ele>377</ele>
        <time>2022-02-26T14:00:17Z</time>
      </trkpt>
      <trkpt lat="46.62949" lon="5.54796">
        <ele>377.6</ele>
        <time>2022-02-26T14:00:20Z</time>
      </trkpt>
      <trkpt lat="46.62942" lon="5.54799">
        <ele>378.2</ele>
        <time>2022-02-26T14:00:22Z</time>
      </trkpt>
      <trkpt lat="46.62923" lon="5.54809">
        <ele>379.2</ele>
        <time>2022-02-26T14:00:28Z</time>
      </trkpt>
      <trkpt lat="46.6291" lon="5.54817">
        <ele>380.2</ele>
        <time>2022-02-26T14:00:32Z</time>
      </trkpt>
      <trkpt lat="46.62904" lon="5.5482">
        <ele>380.6</ele>
        <time>2022-02-26T14:00:34Z</time>
      </trkpt>
      <trkpt lat="46.62896" lon="5.54828">
        <ele>381.8</ele>
        <time>2022-02-26T14:00:37Z</time>
      </trkpt>
      <trkpt lat="46.62885" lon="5.54837">
        <ele>382.6</ele>
        <time>2022-02-26T14:00:41Z</time>
      </trkpt>
      <trkpt lat="46.62882" lon="5.5484">
        <ele>383</ele>
        <time>2022-02-26T14:00:42Z</time>
      </trkpt>
      <trkpt lat="46.62873" lon="5.54847">
        <ele>384.4</ele>
        <time>2022-02-26T14:00:45Z</time>
      </trkpt>
      <trkpt lat="46.6286" lon="5.54857">
        <ele>385</ele>
        <time>2022-02-26T14:00:49Z</time>
      </trkpt>
      <trkpt lat="46.62851" lon="5.54866">
        <ele>385.4</ele>
        <time>2022-02-26T14:00:52Z</time>
      </trkpt>
      <trkpt lat="46.62835" lon="5.54885">
        <ele>386.6</ele>
        <time>2022-02-26T14:00:58Z</time>
      </trkpt>
      <trkpt lat="46.62833" lon="5.54888">
        <ele>386.8</ele>
        <time>2022-02-26T14:00:59Z</time>
      </trkpt>
      <trkpt lat="46.62828" lon="5.54894">
        <ele>387.6</ele>
        <time>2022-02-26T14:01:01Z</time>
      </trkpt>
      <trkpt lat="46.62818" lon="5.54906">
        <ele>388.6</ele>
        <time>2022-02-26T14:01:05Z</time>
      </trkpt>
      <trkpt lat="46.62803" lon="5.5492">
        <ele>389.6</ele>
        <time>2022-02-26T14:01:10Z</time>
      </trkpt>
      <trkpt lat="46.62798" lon="5.54926">
        <ele>389.6</ele>
        <time>2022-02-26T14:01:12Z</time>
      </trkpt>
      <trkpt lat="46.62783" lon="5.54939">
        <ele>390.8</ele>
        <time>2022-02-26T14:01:17Z</time>
      </trkpt>
      <trkpt lat="46.62777" lon="5.54943">
        <ele>391</ele>
        <time>2022-02-26T14:01:19Z</time>
      </trkpt>
      <trkpt lat="46.62762" lon="5.54953">
        <ele>392</ele>
        <time>2022-02-26T14:01:24Z</time>
      </trkpt>
      <trkpt lat="46.62749" lon="5.5496">
        <ele>393.2</ele>
        <time>2022-02-26T14:01:28Z</time>
      </trkpt>
      <trkpt lat="46.62732" lon="5.54968">
        <ele>394.4</ele>
        <time>2022-02-26T14:01:33Z</time>
      </trkpt>
      <trkpt lat="46.62722" lon="5.54971">
        <ele>395.2</ele>
        <time>2022-02-26T14:01:36Z</time>
      </trkpt>
      <trkpt lat="46.62712" lon="5.54973">
        <ele>395.8</ele>
        <time>2022-02-26T14:01:39Z</time>
      </trkpt>
      <trkpt lat="46.62695" lon="5.54978">
        <ele>397</ele>
        <time>2022-02-26T14:01:44Z</time>
      </trkpt>
      <trkpt lat="46.62691" lon="5.54979">
        <ele>397.2</ele>
        <time>2022-02-26T14:01:45Z</time>
      </trkpt>
      <trkpt lat="46.62678" lon="5.54981">
        <ele>398</ele>
        <time>2022-02-26T14:01:49Z</time>
      </trkpt>
      <trkpt lat="46.62661" lon="5.5498">
        <ele>399</ele>
        <time>2022-02-26T14:01:54Z</time>
      </trkpt>
      <trkpt lat="46.62657" lon="5.5498">
        <ele>399.2</ele>
        <time>2022-02-26T14:01:55Z</time>
      </trkpt>
      <trkpt lat="46.62637" lon="5.5498">
        <ele>400.4</ele>
        <time>2022-02-26T14:02:01Z</time>
      </trkpt>
      <trkpt lat="46.62634" lon="5.5498">
        <ele>400.8</ele>
        <time>2022-02-26T14:02:02Z</time>
      </trkpt>
      <trkpt lat="46.62627" lon="5.54981">
        <ele>401.4</ele>
        <time>2022-02-26T14:02:04Z</time>
      </trkpt>
      <trkpt lat="46.62613" lon="5.54982">
        <ele>402.4</ele>
        <time>2022-02-26T14:02:08Z</time>
      </trkpt>
      <trkpt lat="46.62606" lon="5.54985">
        <ele>402.8</ele>
        <time>2022-02-26T14:02:10Z</time>
      </trkpt>
      <trkpt lat="46.62595" lon="5.54993">
        <ele>403.8</ele>
        <time>2022-02-26T14:02:14Z</time>
      </trkpt>
      <trkpt lat="46.62584" lon="5.55002">
        <ele>405</ele>
        <time>2022-02-26T14:02:18Z</time>
      </trkpt>
      <trkpt lat="46.62581" lon="5.55005">
        <ele>405.2</ele>
        <time>2022-02-26T14:02:19Z</time>
      </trkpt>
      <trkpt lat="46.62571" lon="5.55018">
        <ele>406.4</ele>
        <time>2022-02-26T14:02:23Z</time>
      </trkpt>
      <trkpt lat="46.6256" lon="5.5503">
        <ele>407.4</ele>
        <time>2022-02-26T14:02:27Z</time>
      </trkpt>
      <trkpt lat="46.62554" lon="5.55036">
        <ele>407.6</ele>
        <time>2022-02-26T14:02:29Z</time>
      </trkpt>
      <trkpt lat="46.62541" lon="5.55048">
        <ele>408.6</ele>
        <time>2022-02-26T14:02:34Z</time>
      </trkpt>
      <trkpt lat="46.62523" lon="5.55057">
        <ele>409.8</ele>
        <time>2022-02-26T14:02:40Z</time>
      </trkpt>
      <trkpt lat="46.6252" lon="5.55058">
        <ele>410.2</ele>
        <time>2022-02-26T14:02:41Z</time>
      </trkpt>
      <trkpt lat="46.62513" lon="5.55059">
        <ele>411</ele>
        <time>2022-02-26T14:02:44Z</time>
      </trkpt>
      <trkpt lat="46.625" lon="5.55065">
        <ele>412</ele>
        <time>2022-02-26T14:02:48Z</time>
      </trkpt>
      <trkpt lat="46.62497" lon="5.55067">
        <ele>412.2</ele>
        <time>2022-02-26T14:02:49Z</time>
      </trkpt>
      <trkpt lat="46.62485" lon="5.55078">
        <ele>413.2</ele>
        <time>2022-02-26T14:02:53Z</time>
      </trkpt>
      <trkpt lat="46.62473" lon="5.55092">
        <ele>414</ele>
        <time>2022-02-26T14:02:57Z</time>
      </trkpt>
      <trkpt lat="46.6247" lon="5.55097">
        <ele>414.2</ele>
        <time>2022-02-26T14:02:58Z</time>
      </trkpt>
      <trkpt lat="46.62455" lon="5.55117">
        <ele>415.4</ele>
        <time>2022-02-26T14:03:04Z</time>
      </trkpt>
      <trkpt lat="46.62446" lon="5.55126">
        <ele>416.6</ele>
        <time>2022-02-26T14:03:08Z</time>
      </trkpt>
      <trkpt lat="46.62444" lon="5.55127">
        <ele>417</ele>
        <time>2022-02-26T14:03:09Z</time>
      </trkpt>
      <trkpt lat="46.62431" lon="5.55135">
        <ele>417.8</ele>
        <time>2022-02-26T14:03:13Z</time>
      </trkpt>
      <trkpt lat="46.62425" lon="5.55138">
        <ele>418.4</ele>
        <time>2022-02-26T14:03:15Z</time>
      </trkpt>
      <trkpt lat="46.62415" lon="5.55142">
        <ele>419</ele>
        <time>2022-02-26T14:03:18Z</time>
      </trkpt>
      <trkpt lat="46.62405" lon="5.55144">
        <ele>419.4</ele>
        <time>2022-02-26T14:03:21Z</time>
      </trkpt>
      <trkpt lat="46.62395" lon="5.55143">
        <ele>420</ele>
        <time>2022-02-26T14:03:24Z</time>
      </trkpt>
      <trkpt lat="46.62387" lon="5.5514">
        <ele>420.4</ele>
        <time>2022-02-26T14:03:26Z</time>
      </trkpt>
      <trkpt lat="46.6238" lon="5.55137">
        <ele>421</ele>
        <time>2022-02-26T14:03:28Z</time>
      </trkpt>
      <trkpt lat="46.62361" lon="5.55134">
        <ele>421.8</ele>
        <time>2022-02-26T14:03:32Z</time>
      </trkpt>
      <trkpt lat="46.62357" lon="5.55132">
        <ele>422</ele>
        <time>2022-02-26T14:03:33Z</time>
      </trkpt>
      <trkpt lat="46.62338" lon="5.55116">
        <ele>423.2</ele>
        <time>2022-02-26T14:03:39Z</time>
      </trkpt>
      <trkpt lat="46.62328" lon="5.55098">
        <ele>424.2</ele>
        <time>2022-02-26T14:03:43Z</time>
      </trkpt>
      <trkpt lat="46.62325" lon="5.5509">
        <ele>424.6</ele>
        <time>2022-02-26T14:03:45Z</time>
      </trkpt>
      <trkpt lat="46.62318" lon="5.55081">
        <ele>425.4</ele>
        <time>2022-02-26T14:03:48Z</time>
      </trkpt>
      <trkpt lat="46.62312" lon="5.55076">
        <ele>425.6</ele>
        <time>2022-02-26T14:03:50Z</time>
      </trkpt>
      <trkpt lat="46.62305" lon="5.55072">
        <ele>426.4</ele>
        <time>2022-02-26T14:03:52Z</time>
      </trkpt>
      <trkpt lat="46.62294" lon="5.55072">
        <ele>427.4</ele>
        <time>2022-02-26T14:03:55Z</time>
      </trkpt>
      <trkpt lat="46.62291" lon="5.55073">
        <ele>427.6</ele>
        <time>2022-02-26T14:03:56Z</time>
      </trkpt>
      <trkpt lat="46.62282" lon="5.55079">
        <ele>428.8</ele>
        <time>2022-02-26T14:03:59Z</time>
      </trkpt>
      <trkpt lat="46.62279" lon="5.55081">
        <ele>429</ele>
        <time>2022-02-26T14:04:00Z</time>
      </trkpt>
      <trkpt lat="46.62269" lon="5.55092">
        <ele>430.2</ele>
        <time>2022-02-26T14:04:04Z</time>
      </trkpt>
      <trkpt lat="46.62258" lon="5.55101">
        <ele>431</ele>
        <time>2022-02-26T14:04:08Z</time>
      </trkpt>
      <trkpt lat="46.62253" lon="5.55104">
        <ele>431.2</ele>
        <time>2022-02-26T14:04:10Z</time>
      </trkpt>
      <trkpt lat="46.62241" lon="5.55111">
        <ele>432.4</ele>
        <time>2022-02-26T14:04:14Z</time>
      </trkpt>
      <trkpt lat="46.62227" lon="5.55116">
        <ele>433.2</ele>
        <time>2022-02-26T14:04:18Z</time>
      </trkpt>
      <trkpt lat="46.62221" lon="5.55117">
        <ele>433.6</ele>
        <time>2022-02-26T14:04:20Z</time>
      </trkpt>
      <trkpt lat="46.62208" lon="5.55119">
        <ele>434.8</ele>
        <time>2022-02-26T14:04:24Z</time>
      </trkpt>
      <trkpt lat="46.62195" lon="5.55121">
        <ele>435.8</ele>
        <time>2022-02-26T14:04:28Z</time>
      </trkpt>
      <trkpt lat="46.62189" lon="5.55121">
        <ele>436.4</ele>
        <time>2022-02-26T14:04:30Z</time>
      </trkpt>
      <trkpt lat="46.6218" lon="5.55121">
        <ele>436.8</ele>
        <time>2022-02-26T14:04:33Z</time>
      </trkpt>
      <trkpt lat="46.62168" lon="5.55122">
        <ele>437.6</ele>
        <time>2022-02-26T14:04:37Z</time>
      </trkpt>
      <trkpt lat="46.62165" lon="5.55123">
        <ele>438</ele>
        <time>2022-02-26T14:04:38Z</time>
      </trkpt>
      <trkpt lat="46.62156" lon="5.55126">
        <ele>439</ele>
        <time>2022-02-26T14:04:41Z</time>
      </trkpt>
      <trkpt lat="46.62141" lon="5.55132">
        <ele>439.8</ele>
        <time>2022-02-26T14:04:46Z</time>
      </trkpt>
      <trkpt lat="46.62138" lon="5.55133">
        <ele>440.2</ele>
        <time>2022-02-26T14:04:47Z</time>
      </trkpt>
      <trkpt lat="46.62126" lon="5.55135">
        <ele>441.4</ele>
        <time>2022-02-26T14:04:52Z</time>
      </trkpt>
      <trkpt lat="46.62123" lon="5.55136">
        <ele>441.4</ele>
        <time>2022-02-26T14:04:53Z</time>
      </trkpt>
      <trkpt lat="46.62106" lon="5.5514">
        <ele>442.6</ele>
        <time>2022-02-26T14:04:59Z</time>
      </trkpt>
      <trkpt lat="46.62103" lon="5.5514">
        <ele>442.6</ele>
        <time>2022-02-26T14:05:00Z</time>
      </trkpt>
      <trkpt lat="46.62092" lon="5.5514">
        <ele>444</ele>
        <time>2022-02-26T14:05:04Z</time>
      </trkpt>
      <trkpt lat="46.62085" lon="5.5514">
        <ele>444.6</ele>
        <time>2022-02-26T14:05:06Z</time>
      </trkpt>
      <trkpt lat="46.62082" lon="5.5514">
        <ele>444.6</ele>
        <time>2022-02-26T14:05:07Z</time>
      </trkpt>
      <trkpt lat="46.62074" lon="5.55142">
        <ele>444.8</ele>
        <time>2022-02-26T14:05:09Z</time>
      </trkpt>
      <trkpt lat="46.62056" lon="5.55149">
        <ele>446</ele>
        <time>2022-02-26T14:05:14Z</time>
      </trkpt>
      <trkpt lat="46.6205" lon="5.5515">
        <ele>446</ele>
        <time>2022-02-26T14:05:15Z</time>
      </trkpt>
      <trkpt lat="46.62043" lon="5.55151">
        <ele>447</ele>
        <time>2022-02-26T14:05:18Z</time>
      </trkpt>
      <trkpt lat="46.62037" lon="5.55151">
        <ele>447.2</ele>
        <time>2022-02-26T14:05:20Z</time>
      </trkpt>
      <trkpt lat="46.6201" lon="5.55162">
        <ele>448</ele>
        <time>2022-02-26T14:05:26Z</time>
      </trkpt>
      <trkpt lat="46.62008" lon="5.55163">
        <ele>448.4</ele>
        <time>2022-02-26T14:05:27Z</time>
      </trkpt>
      <trkpt lat="46.61998" lon="5.55167">
        <ele>449.4</ele>
        <time>2022-02-26T14:05:31Z</time>
      </trkpt>
      <trkpt lat="46.61995" lon="5.55168">
        <ele>449.6</ele>
        <time>2022-02-26T14:05:32Z</time>
      </trkpt>
      <trkpt lat="46.61985" lon="5.55171">
        <ele>450.6</ele>
        <time>2022-02-26T14:05:35Z</time>
      </trkpt>
      <trkpt lat="46.61978" lon="5.55176">
        <ele>451.6</ele>
        <time>2022-02-26T14:05:38Z</time>
      </trkpt>
      <trkpt lat="46.61977" lon="5.55187">
        <ele>452.6</ele>
        <time>2022-02-26T14:05:41Z</time>
      </trkpt>
      <trkpt lat="46.61978" lon="5.55191">
        <ele>453.2</ele>
        <time>2022-02-26T14:05:42Z</time>
      </trkpt>
      <trkpt lat="46.61981" lon="5.55194">
        <ele>453.6</ele>
        <time>2022-02-26T14:05:43Z</time>
      </trkpt>
      <trkpt lat="46.61988" lon="5.55196">
        <ele>454</ele>
        <time>2022-02-26T14:05:45Z</time>
      </trkpt>
      <trkpt lat="46.61992" lon="5.55196">
        <ele>454.2</ele>
        <time>2022-02-26T14:05:46Z</time>
      </trkpt>
      <trkpt lat="46.62003" lon="5.55194">
        <ele>455</ele>
        <time>2022-02-26T14:05:49Z</time>
      </trkpt>
      <trkpt lat="46.62007" lon="5.55193">
        <ele>455.4</ele>
        <time>2022-02-26T14:05:50Z</time>
      </trkpt>
      <trkpt lat="46.62027" lon="5.55189">
        <ele>456.2</ele>
        <time>2022-02-26T14:05:55Z</time>
      </trkpt>
      <trkpt lat="46.62035" lon="5.55186">
        <ele>456.2</ele>
        <time>2022-02-26T14:05:57Z</time>
      </trkpt>
      <trkpt lat="46.62056" lon="5.55184">
        <ele>457.4</ele>
        <time>2022-02-26T14:06:03Z</time>
      </trkpt>
      <trkpt lat="46.62063" lon="5.55183">
        <ele>457.6</ele>
        <time>2022-02-26T14:06:05Z</time>
      </trkpt>
      <trkpt lat="46.6207" lon="5.55183">
        <ele>458.2</ele>
        <time>2022-02-26T14:06:07Z</time>
      </trkpt>
      <trkpt lat="46.62079" lon="5.55183">
        <ele>459</ele>
        <time>2022-02-26T14:06:10Z</time>
      </trkpt>
      <trkpt lat="46.62086" lon="5.55183">
        <ele>459.6</ele>
        <time>2022-02-26T14:06:12Z</time>
      </trkpt>
      <trkpt lat="46.62097" lon="5.55181">
        <ele>460.2</ele>
        <time>2022-02-26T14:06:15Z</time>
      </trkpt>
      <trkpt lat="46.62104" lon="5.5518">
        <ele>460.8</ele>
        <time>2022-02-26T14:06:17Z</time>
      </trkpt>
      <trkpt lat="46.62121" lon="5.55183">
        <ele>461.6</ele>
        <time>2022-02-26T14:06:22Z</time>
      </trkpt>
      <trkpt lat="46.62124" lon="5.55184">
        <ele>461.8</ele>
        <time>2022-02-26T14:06:23Z</time>
      </trkpt>
      <trkpt lat="46.62133" lon="5.55187">
        <ele>463</ele>
        <time>2022-02-26T14:06:26Z</time>
      </trkpt>
      <trkpt lat="46.62148" lon="5.55194">
        <ele>464</ele>
        <time>2022-02-26T14:06:31Z</time>
      </trkpt>
      <trkpt lat="46.62154" lon="5.55197">
        <ele>464.2</ele>
        <time>2022-02-26T14:06:33Z</time>
      </trkpt>
      <trkpt lat="46.62169" lon="5.55204">
        <ele>465.2</ele>
        <time>2022-02-26T14:06:38Z</time>
      </trkpt>
      <trkpt lat="46.62182" lon="5.55207">
        <ele>465.8</ele>
        <time>2022-02-26T14:06:42Z</time>
      </trkpt>
      <trkpt lat="46.62188" lon="5.55208">
        <ele>466.2</ele>
        <time>2022-02-26T14:06:44Z</time>
      </trkpt>
      <trkpt lat="46.62203" lon="5.5521">
        <ele>467.4</ele>
        <time>2022-02-26T14:06:49Z</time>
      </trkpt>
      <trkpt lat="46.62206" lon="5.5521">
        <ele>467.4</ele>
        <time>2022-02-26T14:06:50Z</time>
      </trkpt>
      <trkpt lat="46.62209" lon="5.5521">
        <ele>467.8</ele>
        <time>2022-02-26T14:06:51Z</time>
      </trkpt>
      <trkpt lat="46.6222" lon="5.55212">
        <ele>468.4</ele>
        <time>2022-02-26T14:06:55Z</time>
      </trkpt>
      <trkpt lat="46.62229" lon="5.55213">
        <ele>469.2</ele>
        <time>2022-02-26T14:06:58Z</time>
      </trkpt>
      <trkpt lat="46.62235" lon="5.55215">
        <ele>469.6</ele>
        <time>2022-02-26T14:07:00Z</time>
      </trkpt>
      <trkpt lat="46.62243" lon="5.55216">
        <ele>470.6</ele>
        <time>2022-02-26T14:07:03Z</time>
      </trkpt>
      <trkpt lat="46.62257" lon="5.55218">
        <ele>471.8</ele>
        <time>2022-02-26T14:07:08Z</time>
      </trkpt>
      <trkpt lat="46.6226" lon="5.55218">
        <ele>472</ele>
        <time>2022-02-26T14:07:09Z</time>
      </trkpt>
      <trkpt lat="46.62269" lon="5.55219">
        <ele>472.8</ele>
        <time>2022-02-26T14:07:12Z</time>
      </trkpt>
      <trkpt lat="46.6229" lon="5.5522">
        <ele>473.6</ele>
        <time>2022-02-26T14:07:18Z</time>
      </trkpt>
      <trkpt lat="46.62299" lon="5.55224">
        <ele>474</ele>
        <time>2022-02-26T14:07:21Z</time>
      </trkpt>
      <trkpt lat="46.6231" lon="5.55233">
        <ele>474.8</ele>
        <time>2022-02-26T14:07:25Z</time>
      </trkpt>
      <trkpt lat="46.62313" lon="5.55236">
        <ele>475.2</ele>
        <time>2022-02-26T14:07:26Z</time>
      </trkpt>
      <trkpt lat="46.62324" lon="5.55253">
        <ele>476.2</ele>
        <time>2022-02-26T14:07:31Z</time>
      </trkpt>
      <trkpt lat="46.62326" lon="5.55257">
        <ele>476.4</ele>
        <time>2022-02-26T14:07:32Z</time>
      </trkpt>
      <trkpt lat="46.62331" lon="5.55265">
        <ele>476.8</ele>
        <time>2022-02-26T14:07:34Z</time>
      </trkpt>
      <trkpt lat="46.62338" lon="5.55277">
        <ele>477.2</ele>
        <time>2022-02-26T14:07:37Z</time>
      </trkpt>
      <trkpt lat="46.62352" lon="5.55306">
        <ele>478.4</ele>
        <time>2022-02-26T14:07:43Z</time>
      </trkpt>
      <trkpt lat="46.62354" lon="5.55311">
        <ele>478.6</ele>
        <time>2022-02-26T14:07:44Z</time>
      </trkpt>
      <trkpt lat="46.62357" lon="5.55323">
        <ele>478.8</ele>
        <time>2022-02-26T14:07:46Z</time>
      </trkpt>
      <trkpt lat="46.62357" lon="5.55335">
        <ele>479</ele>
        <time>2022-02-26T14:07:48Z</time>
      </trkpt>
      <trkpt lat="46.62356" lon="5.55341">
        <ele>479.4</ele>
        <time>2022-02-26T14:07:49Z</time>
      </trkpt>
      <trkpt lat="46.62354" lon="5.55346">
        <ele>479.4</ele>
        <time>2022-02-26T14:07:50Z</time>
      </trkpt>
      <trkpt lat="46.62347" lon="5.55354">
        <ele>479.4</ele>
        <time>2022-02-26T14:07:52Z</time>
      </trkpt>
      <trkpt lat="46.62324" lon="5.55364">
        <ele>479.6</ele>
        <time>2022-02-26T14:07:58Z</time>
      </trkpt>
      <trkpt lat="46.62301" lon="5.55371">
        <ele>480.6</ele>
        <time>2022-02-26T14:08:04Z</time>
      </trkpt>
      <trkpt lat="46.62298" lon="5.55372">
        <ele>480.8</ele>
        <time>2022-02-26T14:08:05Z</time>
      </trkpt>
      <trkpt lat="46.62272" lon="5.55378">
        <ele>482</ele>
        <time>2022-02-26T14:08:12Z</time>
      </trkpt>
      <trkpt lat="46.62262" lon="5.55379">
        <ele>482.6</ele>
        <time>2022-02-26T14:08:15Z</time>
      </trkpt>
      <trkpt lat="46.62259" lon="5.55379">
        <ele>483.2</ele>
        <time>2022-02-26T14:08:16Z</time>
      </trkpt>
      <trkpt lat="46.62242" lon="5.55382">
        <ele>484.6</ele>
        <time>2022-02-26T14:08:21Z</time>
      </trkpt>
      <trkpt lat="46.62239" lon="5.55382">
        <ele>484.6</ele>
        <time>2022-02-26T14:08:22Z</time>
      </trkpt>
      <trkpt lat="46.62232" lon="5.55381">
        <ele>485.4</ele>
        <time>2022-02-26T14:08:24Z</time>
      </trkpt>
      <trkpt lat="46.62228" lon="5.55381">
        <ele>485.8</ele>
        <time>2022-02-26T14:08:25Z</time>
      </trkpt>
      <trkpt lat="46.62217" lon="5.55381">
        <ele>486.6</ele>
        <time>2022-02-26T14:08:28Z</time>
      </trkpt>
      <trkpt lat="46.62214" lon="5.55382">
        <ele>487</ele>
        <time>2022-02-26T14:08:29Z</time>
      </trkpt>
      <trkpt lat="46.62198" lon="5.55378">
        <ele>488.4</ele>
        <time>2022-02-26T14:08:34Z</time>
      </trkpt>
      <trkpt lat="46.62181" lon="5.55378">
        <ele>489.6</ele>
        <time>2022-02-26T14:08:39Z</time>
      </trkpt>
      <trkpt lat="46.62156" lon="5.55374">
        <ele>490.6</ele>
        <time>2022-02-26T14:08:46Z</time>
      </trkpt>
      <trkpt lat="46.62136" lon="5.55369">
        <ele>491.6</ele>
        <time>2022-02-26T14:08:52Z</time>
      </trkpt>
      <trkpt lat="46.62129" lon="5.55367">
        <ele>492.6</ele>
        <time>2022-02-26T14:08:54Z</time>
      </trkpt>
      <trkpt lat="46.62126" lon="5.55366">
        <ele>493</ele>
        <time>2022-02-26T14:08:55Z</time>
      </trkpt>
      <trkpt lat="46.62103" lon="5.55356">
        <ele>494.4</ele>
        <time>2022-02-26T14:09:02Z</time>
      </trkpt>
      <trkpt lat="46.621" lon="5.55354">
        <ele>494.4</ele>
        <time>2022-02-26T14:09:03Z</time>
      </trkpt>
      <trkpt lat="46.62091" lon="5.55351">
        <ele>495.4</ele>
        <time>2022-02-26T14:09:06Z</time>
      </trkpt>
      <trkpt lat="46.62067" lon="5.55345">
        <ele>496.8</ele>
        <time>2022-02-26T14:09:13Z</time>
      </trkpt>
      <trkpt lat="46.62063" lon="5.55345">
        <ele>496.8</ele>
        <time>2022-02-26T14:09:14Z</time>
      </trkpt>
      <trkpt lat="46.62047" lon="5.55346">
        <ele>498</ele>
        <time>2022-02-26T14:09:18Z</time>
      </trkpt>
      <trkpt lat="46.62031" lon="5.55351">
        <ele>498.4</ele>
        <time>2022-02-26T14:09:22Z</time>
      </trkpt>
      <trkpt lat="46.62017" lon="5.55358">
        <ele>499</ele>
        <time>2022-02-26T14:09:26Z</time>
      </trkpt>
      <trkpt lat="46.61998" lon="5.55367">
        <ele>500</ele>
        <time>2022-02-26T14:09:31Z</time>
      </trkpt>
      <trkpt lat="46.61977" lon="5.55377">
        <ele>501.2</ele>
        <time>2022-02-26T14:09:37Z</time>
      </trkpt>
      <trkpt lat="46.61967" lon="5.55382">
        <ele>502.2</ele>
        <time>2022-02-26T14:09:40Z</time>
      </trkpt>
      <trkpt lat="46.61963" lon="5.55384">
        <ele>502.6</ele>
        <time>2022-02-26T14:09:41Z</time>
      </trkpt>
      <trkpt lat="46.61951" lon="5.55392">
        <ele>503.6</ele>
        <time>2022-02-26T14:09:45Z</time>
      </trkpt>
      <trkpt lat="46.61942" lon="5.55398">
        <ele>504.6</ele>
        <time>2022-02-26T14:09:48Z</time>
      </trkpt>
      <trkpt lat="46.61939" lon="5.554">
        <ele>504.8</ele>
        <time>2022-02-26T14:09:49Z</time>
      </trkpt>
      <trkpt lat="46.61923" lon="5.55407">
        <ele>506</ele>
        <time>2022-02-26T14:09:54Z</time>
      </trkpt>
      <trkpt lat="46.6192" lon="5.55409">
        <ele>506.2</ele>
        <time>2022-02-26T14:09:55Z</time>
      </trkpt>
      <trkpt lat="46.6191" lon="5.55414">
        <ele>507</ele>
        <time>2022-02-26T14:09:58Z</time>
      </trkpt>
      <trkpt lat="46.61898" lon="5.55419">
        <ele>508.2</ele>
        <time>2022-02-26T14:10:01Z</time>
      </trkpt>
      <trkpt lat="46.6189" lon="5.55422">
        <ele>508.8</ele>
        <time>2022-02-26T14:10:03Z</time>
      </trkpt>
      <trkpt lat="46.61882" lon="5.55424">
        <ele>509.4</ele>
        <time>2022-02-26T14:10:05Z</time>
      </trkpt>
      <trkpt lat="46.61864" lon="5.55427">
        <ele>510.6</ele>
        <time>2022-02-26T14:10:10Z</time>
      </trkpt>
      <trkpt lat="46.61861" lon="5.55427">
        <ele>510.8</ele>
        <time>2022-02-26T14:10:11Z</time>
      </trkpt>
      <trkpt lat="46.61826" lon="5.55434">
        <ele>511.6</ele>
        <time>2022-02-26T14:10:20Z</time>
      </trkpt>
      <trkpt lat="46.61802" lon="5.55438">
        <ele>511.8</ele>
        <time>2022-02-26T14:10:26Z</time>
      </trkpt>
      <trkpt lat="46.61791" lon="5.55441">
        <ele>513</ele>
        <time>2022-02-26T14:10:29Z</time>
      </trkpt>
      <trkpt lat="46.61779" lon="5.55443">
        <ele>513.6</ele>
        <time>2022-02-26T14:10:32Z</time>
      </trkpt>
      <trkpt lat="46.61749" lon="5.55449">
        <ele>514</ele>
        <time>2022-02-26T14:10:40Z</time>
      </trkpt>
      <trkpt lat="46.61724" lon="5.55454">
        <ele>515.2</ele>
        <time>2022-02-26T14:10:47Z</time>
      </trkpt>
      <trkpt lat="46.61707" lon="5.55458">
        <ele>516.4</ele>
        <time>2022-02-26T14:10:52Z</time>
      </trkpt>
      <trkpt lat="46.61697" lon="5.55459">
        <ele>517.2</ele>
        <time>2022-02-26T14:10:55Z</time>
      </trkpt>
      <trkpt lat="46.61693" lon="5.55459">
        <ele>517.6</ele>
        <time>2022-02-26T14:10:56Z</time>
      </trkpt>
      <trkpt lat="46.61683" lon="5.55463">
        <ele>518.4</ele>
        <time>2022-02-26T14:11:00Z</time>
      </trkpt>
      <trkpt lat="46.61683" lon="5.55465">
        <ele>518.6</ele>
        <time>2022-02-26T14:11:01Z</time>
      </trkpt>
      <trkpt lat="46.61683" lon="5.55484">
        <ele>519.6</ele>
        <time>2022-02-26T14:11:05Z</time>
      </trkpt>
      <trkpt lat="46.61684" lon="5.55488">
        <ele>519.8</ele>
        <time>2022-02-26T14:11:06Z</time>
      </trkpt>
      <trkpt lat="46.61684" lon="5.55492">
        <ele>520</ele>
        <time>2022-02-26T14:11:09Z</time>
      </trkpt>
      <trkpt lat="46.61684" lon="5.55492">
        <ele>520</ele>
        <time>2022-02-26T14:11:10Z</time>
      </trkpt>
      <trkpt lat="46.61685" lon="5.55488">
        <ele>520.6</ele>
        <time>2022-02-26T14:12:08Z</time>
      </trkpt>
      <trkpt lat="46.61685" lon="5.55477">
        <ele>520.6</ele>
        <time>2022-02-26T14:12:10Z</time>
      </trkpt>
      <trkpt lat="46.6168" lon="5.55453">
        <ele>521</ele>
        <time>2022-02-26T14:12:15Z</time>
      </trkpt>
      <trkpt lat="46.61662" lon="5.55438">
        <ele>521.6</ele>
        <time>2022-02-26T14:12:19Z</time>
      </trkpt>
      <trkpt lat="46.61657" lon="5.55435">
        <ele>521.6</ele>
        <time>2022-02-26T14:12:20Z</time>
      </trkpt>
      <trkpt lat="46.61651" lon="5.55431">
        <ele>521.6</ele>
        <time>2022-02-26T14:12:21Z</time>
      </trkpt>
      <trkpt lat="46.61636" lon="5.55419">
        <ele>521.4</ele>
        <time>2022-02-26T14:12:24Z</time>
      </trkpt>
      <trkpt lat="46.61618" lon="5.5541">
        <ele>521.2</ele>
        <time>2022-02-26T14:12:27Z</time>
      </trkpt>
      <trkpt lat="46.61606" lon="5.55411">
        <ele>521.2</ele>
        <time>2022-02-26T14:12:29Z</time>
      </trkpt>
      <trkpt lat="46.61592" lon="5.55413">
        <ele>520.8</ele>
        <time>2022-02-26T14:12:31Z</time>
      </trkpt>
      <trkpt lat="46.61561" lon="5.55419">
        <ele>520.2</ele>
        <time>2022-02-26T14:12:36Z</time>
      </trkpt>
      <trkpt lat="46.61547" lon="5.55419">
        <ele>520.2</ele>
        <time>2022-02-26T14:12:38Z</time>
      </trkpt>
      <trkpt lat="46.61542" lon="5.55419">
        <ele>520.2</ele>
        <time>2022-02-26T14:12:39Z</time>
      </trkpt>
      <trkpt lat="46.61527" lon="5.5542">
        <ele>520.2</ele>
        <time>2022-02-26T14:12:42Z</time>
      </trkpt>
      <trkpt lat="46.61523" lon="5.55419">
        <ele>520.6</ele>
        <time>2022-02-26T14:12:45Z</time>
      </trkpt>
      <trkpt lat="46.61523" lon="5.55419">
        <ele>520.8</ele>
        <time>2022-02-26T14:12:47Z</time>
      </trkpt>
      <trkpt lat="46.61521" lon="5.55417">
        <ele>521</ele>
        <time>2022-02-26T14:13:06Z</time>
      </trkpt>
      <trkpt lat="46.61521" lon="5.55417">
        <ele>521</ele>
        <time>2022-02-26T14:13:07Z</time>
      </trkpt>
      <trkpt lat="46.61521" lon="5.55417">
        <ele>520.8</ele>
        <time>2022-02-26T14:13:08Z</time>
      </trkpt>
      <trkpt lat="46.61519" lon="5.55423">
        <ele>523.2</ele>
        <time>2022-02-26T14:17:12Z</time>
      </trkpt>
      <trkpt lat="46.61521" lon="5.55429">
        <ele>523</ele>
        <time>2022-02-26T14:17:14Z</time>
      </trkpt>
      <trkpt lat="46.61522" lon="5.55445">
        <ele>523.4</ele>
        <time>2022-02-26T14:17:21Z</time>
      </trkpt>
      <trkpt lat="46.61522" lon="5.55449">
        <ele>523.4</ele>
        <time>2022-02-26T14:17:22Z</time>
      </trkpt>
      <trkpt lat="46.61523" lon="5.55462">
        <ele>523.8</ele>
        <time>2022-02-26T14:17:26Z</time>
      </trkpt>
      <trkpt lat="46.61526" lon="5.55488">
        <ele>524.2</ele>
        <time>2022-02-26T14:17:32Z</time>
      </trkpt>
      <trkpt lat="46.61523" lon="5.55521">
        <ele>524.8</ele>
        <time>2022-02-26T14:17:39Z</time>
      </trkpt>
      <trkpt lat="46.61522" lon="5.55541">
        <ele>525</ele>
        <time>2022-02-26T14:17:43Z</time>
      </trkpt>
      <trkpt lat="46.61523" lon="5.55551">
        <ele>525</ele>
        <time>2022-02-26T14:17:45Z</time>
      </trkpt>
      <trkpt lat="46.61523" lon="5.55571">
        <ele>525.2</ele>
        <time>2022-02-26T14:17:49Z</time>
      </trkpt>
      <trkpt lat="46.61523" lon="5.55598">
        <ele>526.2</ele>
        <time>2022-02-26T14:17:54Z</time>
      </trkpt>
      <trkpt lat="46.6152" lon="5.55641">
        <ele>526.4</ele>
        <time>2022-02-26T14:18:02Z</time>
      </trkpt>
      <trkpt lat="46.61514" lon="5.55667">
        <ele>526.8</ele>
        <time>2022-02-26T14:18:08Z</time>
      </trkpt>
      <trkpt lat="46.61512" lon="5.55685">
        <ele>527.6</ele>
        <time>2022-02-26T14:18:13Z</time>
      </trkpt>
      <trkpt lat="46.61511" lon="5.55689">
        <ele>527.8</ele>
        <time>2022-02-26T14:18:14Z</time>
      </trkpt>
      <trkpt lat="46.61505" lon="5.55707">
        <ele>529</ele>
        <time>2022-02-26T14:18:19Z</time>
      </trkpt>
      <trkpt lat="46.61503" lon="5.55715">
        <ele>529.8</ele>
        <time>2022-02-26T14:18:21Z</time>
      </trkpt>
      <trkpt lat="46.61502" lon="5.55723">
        <ele>530.2</ele>
        <time>2022-02-26T14:18:23Z</time>
      </trkpt>
      <trkpt lat="46.61502" lon="5.55732">
        <ele>530.6</ele>
        <time>2022-02-26T14:18:25Z</time>
      </trkpt>
      <trkpt lat="46.61503" lon="5.55743">
        <ele>531.2</ele>
        <time>2022-02-26T14:18:28Z</time>
      </trkpt>
      <trkpt lat="46.61504" lon="5.55747">
        <ele>531.2</ele>
        <time>2022-02-26T14:18:29Z</time>
      </trkpt>
      <trkpt lat="46.61515" lon="5.55772">
        <ele>532.2</ele>
        <time>2022-02-26T14:18:35Z</time>
      </trkpt>
      <trkpt lat="46.61518" lon="5.55779">
        <ele>532.4</ele>
        <time>2022-02-26T14:18:37Z</time>
      </trkpt>
      <trkpt lat="46.61532" lon="5.55794">
        <ele>533.4</ele>
        <time>2022-02-26T14:18:42Z</time>
      </trkpt>
      <trkpt lat="46.61538" lon="5.55799">
        <ele>533.8</ele>
        <time>2022-02-26T14:18:44Z</time>
      </trkpt>
      <trkpt lat="46.61556" lon="5.55815">
        <ele>534.2</ele>
        <time>2022-02-26T14:18:50Z</time>
      </trkpt>
      <trkpt lat="46.61583" lon="5.55849">
        <ele>534.6</ele>
        <time>2022-02-26T14:18:59Z</time>
      </trkpt>
      <trkpt lat="46.6159" lon="5.55861">
        <ele>534.8</ele>
        <time>2022-02-26T14:19:02Z</time>
      </trkpt>
      <trkpt lat="46.616" lon="5.55884">
        <ele>534.8</ele>
        <time>2022-02-26T14:19:07Z</time>
      </trkpt>
      <trkpt lat="46.61604" lon="5.55914">
        <ele>535.4</ele>
        <time>2022-02-26T14:19:13Z</time>
      </trkpt>
      <trkpt lat="46.61604" lon="5.55925">
        <ele>535.8</ele>
        <time>2022-02-26T14:19:15Z</time>
      </trkpt>
      <trkpt lat="46.61604" lon="5.5593">
        <ele>535.8</ele>
        <time>2022-02-26T14:19:16Z</time>
      </trkpt>
      <trkpt lat="46.61603" lon="5.55956">
        <ele>536.4</ele>
        <time>2022-02-26T14:19:21Z</time>
      </trkpt>
      <trkpt lat="46.61602" lon="5.55988">
        <ele>536.8</ele>
        <time>2022-02-26T14:19:27Z</time>
      </trkpt>
      <trkpt lat="46.61602" lon="5.55998">
        <ele>537</ele>
        <time>2022-02-26T14:19:29Z</time>
      </trkpt>
      <trkpt lat="46.61602" lon="5.56024">
        <ele>538</ele>
        <time>2022-02-26T14:19:34Z</time>
      </trkpt>
      <trkpt lat="46.61603" lon="5.5603">
        <ele>538.2</ele>
        <time>2022-02-26T14:19:35Z</time>
      </trkpt>
      <trkpt lat="46.61604" lon="5.5605">
        <ele>539.2</ele>
        <time>2022-02-26T14:19:39Z</time>
      </trkpt>
      <trkpt lat="46.61604" lon="5.56081">
        <ele>540.2</ele>
        <time>2022-02-26T14:19:45Z</time>
      </trkpt>
      <trkpt lat="46.61605" lon="5.56091">
        <ele>540.2</ele>
        <time>2022-02-26T14:19:47Z</time>
      </trkpt>
      <trkpt lat="46.61604" lon="5.56101">
        <ele>540.4</ele>
        <time>2022-02-26T14:19:49Z</time>
      </trkpt>
      <trkpt lat="46.61605" lon="5.56119">
        <ele>540.6</ele>
        <time>2022-02-26T14:19:52Z</time>
      </trkpt>
      <trkpt lat="46.61606" lon="5.56144">
        <ele>541.6</ele>
        <time>2022-02-26T14:19:56Z</time>
      </trkpt>
      <trkpt lat="46.61608" lon="5.56168">
        <ele>542.4</ele>
        <time>2022-02-26T14:20:00Z</time>
      </trkpt>
      <trkpt lat="46.6161" lon="5.56179">
        <ele>542.6</ele>
        <time>2022-02-26T14:20:02Z</time>
      </trkpt>
      <trkpt lat="46.61611" lon="5.56185">
        <ele>542.6</ele>
        <time>2022-02-26T14:20:03Z</time>
      </trkpt>
      <trkpt lat="46.61616" lon="5.56205">
        <ele>543.4</ele>
        <time>2022-02-26T14:20:07Z</time>
      </trkpt>
      <trkpt lat="46.61618" lon="5.56215">
        <ele>543.6</ele>
        <time>2022-02-26T14:20:09Z</time>
      </trkpt>
      <trkpt lat="46.6163" lon="5.5625">
        <ele>544.2</ele>
        <time>2022-02-26T14:20:16Z</time>
      </trkpt>
      <trkpt lat="46.61635" lon="5.56266">
        <ele>544.6</ele>
        <time>2022-02-26T14:20:19Z</time>
      </trkpt>
      <trkpt lat="46.6164" lon="5.56289">
        <ele>545.8</ele>
        <time>2022-02-26T14:20:23Z</time>
      </trkpt>
      <trkpt lat="46.61642" lon="5.56301">
        <ele>546.4</ele>
        <time>2022-02-26T14:20:25Z</time>
      </trkpt>
      <trkpt lat="46.61643" lon="5.56327">
        <ele>546.8</ele>
        <time>2022-02-26T14:20:29Z</time>
      </trkpt>
      <trkpt lat="46.61644" lon="5.56361">
        <ele>547.4</ele>
        <time>2022-02-26T14:20:34Z</time>
      </trkpt>
      <trkpt lat="46.61644" lon="5.5641">
        <ele>547.4</ele>
        <time>2022-02-26T14:20:40Z</time>
      </trkpt>
      <trkpt lat="46.61644" lon="5.56439">
        <ele>547</ele>
        <time>2022-02-26T14:20:43Z</time>
      </trkpt>
      <trkpt lat="46.61647" lon="5.56457">
        <ele>546.4</ele>
        <time>2022-02-26T14:20:45Z</time>
      </trkpt>
      <trkpt lat="46.61651" lon="5.56474">
        <ele>545.4</ele>
        <time>2022-02-26T14:20:47Z</time>
      </trkpt>
      <trkpt lat="46.61662" lon="5.56521">
        <ele>544.6</ele>
        <time>2022-02-26T14:20:52Z</time>
      </trkpt>
      <trkpt lat="46.61665" lon="5.56532">
        <ele>544.6</ele>
        <time>2022-02-26T14:20:53Z</time>
      </trkpt>
      <trkpt lat="46.61666" lon="5.56543">
        <ele>544.2</ele>
        <time>2022-02-26T14:20:54Z</time>
      </trkpt>
      <trkpt lat="46.61665" lon="5.56566">
        <ele>543.6</ele>
        <time>2022-02-26T14:20:56Z</time>
      </trkpt>
      <trkpt lat="46.61663" lon="5.56577">
        <ele>543</ele>
        <time>2022-02-26T14:20:57Z</time>
      </trkpt>
      <trkpt lat="46.6166" lon="5.56588">
        <ele>542.6</ele>
        <time>2022-02-26T14:20:58Z</time>
      </trkpt>
      <trkpt lat="46.61655" lon="5.566">
        <ele>542.2</ele>
        <time>2022-02-26T14:20:59Z</time>
      </trkpt>
      <trkpt lat="46.61646" lon="5.56616">
        <ele>541.4</ele>
        <time>2022-02-26T14:21:01Z</time>
      </trkpt>
      <trkpt lat="46.61637" lon="5.56634">
        <ele>541</ele>
        <time>2022-02-26T14:21:03Z</time>
      </trkpt>
      <trkpt lat="46.61619" lon="5.56668">
        <ele>540</ele>
        <time>2022-02-26T14:21:07Z</time>
      </trkpt>
      <trkpt lat="46.61607" lon="5.56694">
        <ele>539.6</ele>
        <time>2022-02-26T14:21:10Z</time>
      </trkpt>
      <trkpt lat="46.61589" lon="5.56742">
        <ele>539.6</ele>
        <time>2022-02-26T14:21:15Z</time>
      </trkpt>
      <trkpt lat="46.61587" lon="5.56751">
        <ele>539.6</ele>
        <time>2022-02-26T14:21:16Z</time>
      </trkpt>
      <trkpt lat="46.61582" lon="5.56809">
        <ele>538.8</ele>
        <time>2022-02-26T14:21:22Z</time>
      </trkpt>
      <trkpt lat="46.61576" lon="5.56886">
        <ele>538.4</ele>
        <time>2022-02-26T14:21:30Z</time>
      </trkpt>
      <trkpt lat="46.61578" lon="5.56959">
        <ele>537.6</ele>
        <time>2022-02-26T14:21:37Z</time>
      </trkpt>
      <trkpt lat="46.61583" lon="5.57042">
        <ele>536.6</ele>
        <time>2022-02-26T14:21:45Z</time>
      </trkpt>
      <trkpt lat="46.61576" lon="5.5712">
        <ele>536.8</ele>
        <time>2022-02-26T14:21:53Z</time>
      </trkpt>
      <trkpt lat="46.61563" lon="5.57193">
        <ele>537</ele>
        <time>2022-02-26T14:22:01Z</time>
      </trkpt>
      <trkpt lat="46.61558" lon="5.57252">
        <ele>537.2</ele>
        <time>2022-02-26T14:22:08Z</time>
      </trkpt>
      <trkpt lat="46.61555" lon="5.57275">
        <ele>537.4</ele>
        <time>2022-02-26T14:22:11Z</time>
      </trkpt>
      <trkpt lat="46.6155" lon="5.57288">
        <ele>537.6</ele>
        <time>2022-02-26T14:22:13Z</time>
      </trkpt>
      <trkpt lat="46.6154" lon="5.57291">
        <ele>537.6</ele>
        <time>2022-02-26T14:22:15Z</time>
      </trkpt>
      <trkpt lat="46.61534" lon="5.5729">
        <ele>537.6</ele>
        <time>2022-02-26T14:22:16Z</time>
      </trkpt>
      <trkpt lat="46.61498" lon="5.57279">
        <ele>537.6</ele>
        <time>2022-02-26T14:22:22Z</time>
      </trkpt>
      <trkpt lat="46.61439" lon="5.57259">
        <ele>537</ele>
        <time>2022-02-26T14:22:31Z</time>
      </trkpt>
      <trkpt lat="46.61397" lon="5.57244">
        <ele>537.6</ele>
        <time>2022-02-26T14:22:38Z</time>
      </trkpt>
      <trkpt lat="46.6137" lon="5.57235">
        <ele>538.8</ele>
        <time>2022-02-26T14:22:43Z</time>
      </trkpt>
      <trkpt lat="46.61347" lon="5.57228">
        <ele>539.4</ele>
        <time>2022-02-26T14:22:47Z</time>
      </trkpt>
      <trkpt lat="46.61302" lon="5.57219">
        <ele>539.8</ele>
        <time>2022-02-26T14:22:54Z</time>
      </trkpt>
      <trkpt lat="46.61252" lon="5.57203">
        <ele>539.6</ele>
        <time>2022-02-26T14:23:02Z</time>
      </trkpt>
      <trkpt lat="46.61197" lon="5.57182">
        <ele>540</ele>
        <time>2022-02-26T14:23:11Z</time>
      </trkpt>
      <trkpt lat="46.61186" lon="5.57178">
        <ele>540.2</ele>
        <time>2022-02-26T14:23:13Z</time>
      </trkpt>
      <trkpt lat="46.61158" lon="5.57169">
        <ele>541.4</ele>
        <time>2022-02-26T14:23:18Z</time>
      </trkpt>
      <trkpt lat="46.61133" lon="5.57159">
        <ele>542</ele>
        <time>2022-02-26T14:23:22Z</time>
      </trkpt>
      <trkpt lat="46.61122" lon="5.57153">
        <ele>542.4</ele>
        <time>2022-02-26T14:23:24Z</time>
      </trkpt>
      <trkpt lat="46.61104" lon="5.5714">
        <ele>542.8</ele>
        <time>2022-02-26T14:23:27Z</time>
      </trkpt>
      <trkpt lat="46.61056" lon="5.57103">
        <ele>542.8</ele>
        <time>2022-02-26T14:23:35Z</time>
      </trkpt>
      <trkpt lat="46.61039" lon="5.5709">
        <ele>542.8</ele>
        <time>2022-02-26T14:23:38Z</time>
      </trkpt>
      <trkpt lat="46.6101" lon="5.57071">
        <ele>543.6</ele>
        <time>2022-02-26T14:23:43Z</time>
      </trkpt>
      <trkpt lat="46.60993" lon="5.57061">
        <ele>544</ele>
        <time>2022-02-26T14:23:46Z</time>
      </trkpt>
      <trkpt lat="46.60948" lon="5.57036">
        <ele>544.6</ele>
        <time>2022-02-26T14:23:54Z</time>
      </trkpt>
      <trkpt lat="46.60936" lon="5.5703">
        <ele>545</ele>
        <time>2022-02-26T14:23:56Z</time>
      </trkpt>
      <trkpt lat="46.60907" lon="5.57019">
        <ele>545.8</ele>
        <time>2022-02-26T14:24:01Z</time>
      </trkpt>
      <trkpt lat="46.60863" lon="5.57001">
        <ele>546.2</ele>
        <time>2022-02-26T14:24:08Z</time>
      </trkpt>
      <trkpt lat="46.60809" lon="5.56981">
        <ele>546</ele>
        <time>2022-02-26T14:24:16Z</time>
      </trkpt>
      <trkpt lat="46.60802" lon="5.56978">
        <ele>546</ele>
        <time>2022-02-26T14:24:17Z</time>
      </trkpt>
      <trkpt lat="46.60745" lon="5.56959">
        <ele>546</ele>
        <time>2022-02-26T14:24:26Z</time>
      </trkpt>
      <trkpt lat="46.60722" lon="5.56949">
        <ele>547</ele>
        <time>2022-02-26T14:24:30Z</time>
      </trkpt>
      <trkpt lat="46.60704" lon="5.56941">
        <ele>547.4</ele>
        <time>2022-02-26T14:24:33Z</time>
      </trkpt>
      <trkpt lat="46.60683" lon="5.56929">
        <ele>548</ele>
        <time>2022-02-26T14:24:37Z</time>
      </trkpt>
      <trkpt lat="46.60672" lon="5.56924">
        <ele>548.4</ele>
        <time>2022-02-26T14:24:39Z</time>
      </trkpt>
      <trkpt lat="46.60661" lon="5.5692">
        <ele>548.6</ele>
        <time>2022-02-26T14:24:41Z</time>
      </trkpt>
      <trkpt lat="46.6065" lon="5.56918">
        <ele>549.2</ele>
        <time>2022-02-26T14:24:43Z</time>
      </trkpt>
      <trkpt lat="46.60604" lon="5.56909">
        <ele>550</ele>
        <time>2022-02-26T14:24:51Z</time>
      </trkpt>
      <trkpt lat="46.60586" lon="5.56907">
        <ele>550.2</ele>
        <time>2022-02-26T14:24:54Z</time>
      </trkpt>
      <trkpt lat="46.60566" lon="5.56909">
        <ele>550.6</ele>
        <time>2022-02-26T14:24:58Z</time>
      </trkpt>
      <trkpt lat="46.60553" lon="5.56912">
        <ele>551.4</ele>
        <time>2022-02-26T14:25:01Z</time>
      </trkpt>
      <trkpt lat="46.60544" lon="5.56913">
        <ele>551.8</ele>
        <time>2022-02-26T14:25:03Z</time>
      </trkpt>
      <trkpt lat="46.60524" lon="5.56917">
        <ele>552.8</ele>
        <time>2022-02-26T14:25:07Z</time>
      </trkpt>
      <trkpt lat="46.60501" lon="5.5692">
        <ele>554.2</ele>
        <time>2022-02-26T14:25:12Z</time>
      </trkpt>
      <trkpt lat="46.60488" lon="5.56922">
        <ele>555.4</ele>
        <time>2022-02-26T14:25:15Z</time>
      </trkpt>
      <trkpt lat="46.60465" lon="5.56923">
        <ele>556.6</ele>
        <time>2022-02-26T14:25:20Z</time>
      </trkpt>
      <trkpt lat="46.60451" lon="5.56922">
        <ele>557.8</ele>
        <time>2022-02-26T14:25:23Z</time>
      </trkpt>
      <trkpt lat="46.60431" lon="5.56915">
        <ele>558.8</ele>
        <time>2022-02-26T14:25:27Z</time>
      </trkpt>
      <trkpt lat="46.60426" lon="5.56913">
        <ele>559</ele>
        <time>2022-02-26T14:25:28Z</time>
      </trkpt>
      <trkpt lat="46.60391" lon="5.56893">
        <ele>559.4</ele>
        <time>2022-02-26T14:25:35Z</time>
      </trkpt>
      <trkpt lat="46.60369" lon="5.56875">
        <ele>560</ele>
        <time>2022-02-26T14:25:41Z</time>
      </trkpt>
      <trkpt lat="46.60349" lon="5.56861">
        <ele>561.2</ele>
        <time>2022-02-26T14:25:46Z</time>
      </trkpt>
      <trkpt lat="46.60341" lon="5.56856">
        <ele>561.6</ele>
        <time>2022-02-26T14:25:48Z</time>
      </trkpt>
      <trkpt lat="46.60328" lon="5.56851">
        <ele>562.4</ele>
        <time>2022-02-26T14:25:51Z</time>
      </trkpt>
      <trkpt lat="46.60309" lon="5.56846">
        <ele>563.2</ele>
        <time>2022-02-26T14:25:55Z</time>
      </trkpt>
      <trkpt lat="46.60303" lon="5.56845">
        <ele>563.6</ele>
        <time>2022-02-26T14:25:56Z</time>
      </trkpt>
      <trkpt lat="46.60271" lon="5.56837">
        <ele>564.4</ele>
        <time>2022-02-26T14:26:03Z</time>
      </trkpt>
      <trkpt lat="46.60261" lon="5.56834">
        <ele>564.6</ele>
        <time>2022-02-26T14:26:05Z</time>
      </trkpt>
      <trkpt lat="46.6022" lon="5.56823">
        <ele>565.6</ele>
        <time>2022-02-26T14:26:13Z</time>
      </trkpt>
      <trkpt lat="46.60204" lon="5.56818">
        <ele>565.8</ele>
        <time>2022-02-26T14:26:16Z</time>
      </trkpt>
      <trkpt lat="46.60162" lon="5.56802">
        <ele>566.2</ele>
        <time>2022-02-26T14:26:24Z</time>
      </trkpt>
      <trkpt lat="46.60127" lon="5.56799">
        <ele>566.4</ele>
        <time>2022-02-26T14:26:30Z</time>
      </trkpt>
      <trkpt lat="46.60106" lon="5.56803">
        <ele>567</ele>
        <time>2022-02-26T14:26:34Z</time>
      </trkpt>
      <trkpt lat="46.60086" lon="5.56805">
        <ele>567.4</ele>
        <time>2022-02-26T14:26:38Z</time>
      </trkpt>
      <trkpt lat="46.6006" lon="5.56805">
        <ele>568.2</ele>
        <time>2022-02-26T14:26:43Z</time>
      </trkpt>
      <trkpt lat="46.60055" lon="5.56805">
        <ele>568.4</ele>
        <time>2022-02-26T14:26:44Z</time>
      </trkpt>
      <trkpt lat="46.6002" lon="5.56801">
        <ele>569.4</ele>
        <time>2022-02-26T14:26:51Z</time>
      </trkpt>
      <trkpt lat="46.60016" lon="5.56801">
        <ele>569.6</ele>
        <time>2022-02-26T14:26:52Z</time>
      </trkpt>
      <trkpt lat="46.60002" lon="5.56801">
        <ele>570.4</ele>
        <time>2022-02-26T14:26:55Z</time>
      </trkpt>
      <trkpt lat="46.59984" lon="5.56801">
        <ele>571.2</ele>
        <time>2022-02-26T14:26:59Z</time>
      </trkpt>
      <trkpt lat="46.5998" lon="5.56801">
        <ele>571.4</ele>
        <time>2022-02-26T14:27:00Z</time>
      </trkpt>
      <trkpt lat="46.59957" lon="5.56801">
        <ele>572.6</ele>
        <time>2022-02-26T14:27:05Z</time>
      </trkpt>
      <trkpt lat="46.59938" lon="5.56805">
        <ele>574</ele>
        <time>2022-02-26T14:27:09Z</time>
      </trkpt>
      <trkpt lat="46.59901" lon="5.56825">
        <ele>575.2</ele>
        <time>2022-02-26T14:27:17Z</time>
      </trkpt>
      <trkpt lat="46.59897" lon="5.56827">
        <ele>575.2</ele>
        <time>2022-02-26T14:27:18Z</time>
      </trkpt>
      <trkpt lat="46.59867" lon="5.56849">
        <ele>576.2</ele>
        <time>2022-02-26T14:27:25Z</time>
      </trkpt>
      <trkpt lat="46.59863" lon="5.56853">
        <ele>576.2</ele>
        <time>2022-02-26T14:27:26Z</time>
      </trkpt>
      <trkpt lat="46.59838" lon="5.56872">
        <ele>576.8</ele>
        <time>2022-02-26T14:27:32Z</time>
      </trkpt>
      <trkpt lat="46.59817" lon="5.56879">
        <ele>577.4</ele>
        <time>2022-02-26T14:27:36Z</time>
      </trkpt>
      <trkpt lat="46.59811" lon="5.56882">
        <ele>577.2</ele>
        <time>2022-02-26T14:27:37Z</time>
      </trkpt>
      <trkpt lat="46.59797" lon="5.56884">
        <ele>577.2</ele>
        <time>2022-02-26T14:27:39Z</time>
      </trkpt>
      <trkpt lat="46.59785" lon="5.56884">
        <ele>577.2</ele>
        <time>2022-02-26T14:27:41Z</time>
      </trkpt>
      <trkpt lat="46.59757" lon="5.5688">
        <ele>576.8</ele>
        <time>2022-02-26T14:27:45Z</time>
      </trkpt>
      <trkpt lat="46.5975" lon="5.56874">
        <ele>576.6</ele>
        <time>2022-02-26T14:27:46Z</time>
      </trkpt>
      <trkpt lat="46.59746" lon="5.56866">
        <ele>576.4</ele>
        <time>2022-02-26T14:27:47Z</time>
      </trkpt>
      <trkpt lat="46.59743" lon="5.56855">
        <ele>575.8</ele>
        <time>2022-02-26T14:27:48Z</time>
      </trkpt>
      <trkpt lat="46.59736" lon="5.56834">
        <ele>574.8</ele>
        <time>2022-02-26T14:27:50Z</time>
      </trkpt>
      <trkpt lat="46.59725" lon="5.56816">
        <ele>574</ele>
        <time>2022-02-26T14:27:52Z</time>
      </trkpt>
      <trkpt lat="46.59712" lon="5.56805">
        <ele>573.6</ele>
        <time>2022-02-26T14:27:54Z</time>
      </trkpt>
      <trkpt lat="46.59697" lon="5.56796">
        <ele>573.4</ele>
        <time>2022-02-26T14:27:56Z</time>
      </trkpt>
      <trkpt lat="46.59681" lon="5.56789">
        <ele>573.2</ele>
        <time>2022-02-26T14:27:58Z</time>
      </trkpt>
      <trkpt lat="46.59664" lon="5.56787">
        <ele>573</ele>
        <time>2022-02-26T14:28:00Z</time>
      </trkpt>
      <trkpt lat="46.59655" lon="5.56788">
        <ele>572.6</ele>
        <time>2022-02-26T14:28:01Z</time>
      </trkpt>
      <trkpt lat="46.59646" lon="5.56791">
        <ele>572.4</ele>
        <time>2022-02-26T14:28:02Z</time>
      </trkpt>
      <trkpt lat="46.59637" lon="5.56795">
        <ele>572.2</ele>
        <time>2022-02-26T14:28:03Z</time>
      </trkpt>
      <trkpt lat="46.59602" lon="5.56821">
        <ele>571.4</ele>
        <time>2022-02-26T14:28:07Z</time>
      </trkpt>
      <trkpt lat="46.59593" lon="5.56827">
        <ele>570.8</ele>
        <time>2022-02-26T14:28:08Z</time>
      </trkpt>
      <trkpt lat="46.59572" lon="5.56834">
        <ele>569.8</ele>
        <time>2022-02-26T14:28:10Z</time>
      </trkpt>
      <trkpt lat="46.59552" lon="5.56832">
        <ele>568.6</ele>
        <time>2022-02-26T14:28:12Z</time>
      </trkpt>
      <trkpt lat="46.59543" lon="5.5683">
        <ele>567.8</ele>
        <time>2022-02-26T14:28:13Z</time>
      </trkpt>
      <trkpt lat="46.59533" lon="5.56827">
        <ele>567.2</ele>
        <time>2022-02-26T14:28:14Z</time>
      </trkpt>
      <trkpt lat="46.59506" lon="5.56825">
        <ele>566.2</ele>
        <time>2022-02-26T14:28:17Z</time>
      </trkpt>
      <trkpt lat="46.59497" lon="5.56825">
        <ele>566</ele>
        <time>2022-02-26T14:28:18Z</time>
      </trkpt>
      <trkpt lat="46.59442" lon="5.56832">
        <ele>565.8</ele>
        <time>2022-02-26T14:28:24Z</time>
      </trkpt>
      <trkpt lat="46.59433" lon="5.56832">
        <ele>565.8</ele>
        <time>2022-02-26T14:28:25Z</time>
      </trkpt>
      <trkpt lat="46.59397" lon="5.56821">
        <ele>565.8</ele>
        <time>2022-02-26T14:28:29Z</time>
      </trkpt>
      <trkpt lat="46.59361" lon="5.56803">
        <ele>565.8</ele>
        <time>2022-02-26T14:28:34Z</time>
      </trkpt>
      <trkpt lat="46.59337" lon="5.56792">
        <ele>567.4</ele>
        <time>2022-02-26T14:28:38Z</time>
      </trkpt>
      <trkpt lat="46.59332" lon="5.5679">
        <ele>567.6</ele>
        <time>2022-02-26T14:28:39Z</time>
      </trkpt>
      <trkpt lat="46.5932" lon="5.56787">
        <ele>568.6</ele>
        <time>2022-02-26T14:28:41Z</time>
      </trkpt>
      <trkpt lat="46.59309" lon="5.56783">
        <ele>569.6</ele>
        <time>2022-02-26T14:28:43Z</time>
      </trkpt>
      <trkpt lat="46.59293" lon="5.56777">
        <ele>570.8</ele>
        <time>2022-02-26T14:28:46Z</time>
      </trkpt>
      <trkpt lat="46.59282" lon="5.56772">
        <ele>571.4</ele>
        <time>2022-02-26T14:28:48Z</time>
      </trkpt>
      <trkpt lat="46.59272" lon="5.56764">
        <ele>572</ele>
        <time>2022-02-26T14:28:50Z</time>
      </trkpt>
      <trkpt lat="46.59268" lon="5.5676">
        <ele>572.4</ele>
        <time>2022-02-26T14:28:51Z</time>
      </trkpt>
      <trkpt lat="46.5926" lon="5.56749">
        <ele>573.2</ele>
        <time>2022-02-26T14:28:53Z</time>
      </trkpt>
      <trkpt lat="46.59249" lon="5.56721">
        <ele>574.2</ele>
        <time>2022-02-26T14:28:57Z</time>
      </trkpt>
      <trkpt lat="46.59244" lon="5.56707">
        <ele>575</ele>
        <time>2022-02-26T14:28:59Z</time>
      </trkpt>
      <trkpt lat="46.59241" lon="5.567">
        <ele>575.2</ele>
        <time>2022-02-26T14:29:00Z</time>
      </trkpt>
      <trkpt lat="46.59234" lon="5.56686">
        <ele>575.8</ele>
        <time>2022-02-26T14:29:02Z</time>
      </trkpt>
      <trkpt lat="46.59226" lon="5.56675">
        <ele>576.4</ele>
        <time>2022-02-26T14:29:04Z</time>
      </trkpt>
      <trkpt lat="46.59215" lon="5.56668">
        <ele>576.8</ele>
        <time>2022-02-26T14:29:06Z</time>
      </trkpt>
      <trkpt lat="46.59203" lon="5.56664">
        <ele>577</ele>
        <time>2022-02-26T14:29:08Z</time>
      </trkpt>
      <trkpt lat="46.59163" lon="5.56665">
        <ele>576.8</ele>
        <time>2022-02-26T14:29:14Z</time>
      </trkpt>
      <trkpt lat="46.59114" lon="5.5666">
        <ele>577.2</ele>
        <time>2022-02-26T14:29:22Z</time>
      </trkpt>
      <trkpt lat="46.59108" lon="5.56659">
        <ele>577.6</ele>
        <time>2022-02-26T14:29:23Z</time>
      </trkpt>
      <trkpt lat="46.59063" lon="5.56649">
        <ele>578.6</ele>
        <time>2022-02-26T14:29:30Z</time>
      </trkpt>
      <trkpt lat="46.59017" lon="5.56632">
        <ele>578.2</ele>
        <time>2022-02-26T14:29:37Z</time>
      </trkpt>
      <trkpt lat="46.58965" lon="5.56618">
        <ele>577.6</ele>
        <time>2022-02-26T14:29:44Z</time>
      </trkpt>
      <trkpt lat="46.58932" lon="5.56615">
        <ele>576.6</ele>
        <time>2022-02-26T14:29:48Z</time>
      </trkpt>
      <trkpt lat="46.58924" lon="5.56615">
        <ele>576.6</ele>
        <time>2022-02-26T14:29:49Z</time>
      </trkpt>
      <trkpt lat="46.58891" lon="5.56616">
        <ele>575.6</ele>
        <time>2022-02-26T14:29:53Z</time>
      </trkpt>
      <trkpt lat="46.58878" lon="5.56616">
        <ele>575.4</ele>
        <time>2022-02-26T14:29:55Z</time>
      </trkpt>
      <trkpt lat="46.5885" lon="5.56619">
        <ele>574.8</ele>
        <time>2022-02-26T14:30:00Z</time>
      </trkpt>
      <trkpt lat="46.58838" lon="5.56621">
        <ele>574.6</ele>
        <time>2022-02-26T14:30:02Z</time>
      </trkpt>
      <trkpt lat="46.58831" lon="5.5662">
        <ele>574.6</ele>
        <time>2022-02-26T14:30:03Z</time>
      </trkpt>
      <trkpt lat="46.58817" lon="5.56617">
        <ele>574.4</ele>
        <time>2022-02-26T14:30:05Z</time>
      </trkpt>
      <trkpt lat="46.58765" lon="5.56597">
        <ele>573.6</ele>
        <time>2022-02-26T14:30:12Z</time>
      </trkpt>
      <trkpt lat="46.58709" lon="5.56576">
        <ele>572.8</ele>
        <time>2022-02-26T14:30:19Z</time>
      </trkpt>
      <trkpt lat="46.58701" lon="5.56573">
        <ele>572.6</ele>
        <time>2022-02-26T14:30:20Z</time>
      </trkpt>
      <trkpt lat="46.58693" lon="5.5657">
        <ele>572.4</ele>
        <time>2022-02-26T14:30:21Z</time>
      </trkpt>
      <trkpt lat="46.58637" lon="5.56549">
        <ele>572</ele>
        <time>2022-02-26T14:30:28Z</time>
      </trkpt>
      <trkpt lat="46.58621" lon="5.56543">
        <ele>571.6</ele>
        <time>2022-02-26T14:30:30Z</time>
      </trkpt>
      <trkpt lat="46.58613" lon="5.5654">
        <ele>571.4</ele>
        <time>2022-02-26T14:30:31Z</time>
      </trkpt>
      <trkpt lat="46.58556" lon="5.5652">
        <ele>571.2</ele>
        <time>2022-02-26T14:30:38Z</time>
      </trkpt>
      <trkpt lat="46.58547" lon="5.56518">
        <ele>571.2</ele>
        <time>2022-02-26T14:30:39Z</time>
      </trkpt>
      <trkpt lat="46.58493" lon="5.56514">
        <ele>570.6</ele>
        <time>2022-02-26T14:30:45Z</time>
      </trkpt>
      <trkpt lat="46.58472" lon="5.56514">
        <ele>570.2</ele>
        <time>2022-02-26T14:30:47Z</time>
      </trkpt>
      <trkpt lat="46.58455" lon="5.56514">
        <ele>569.2</ele>
        <time>2022-02-26T14:30:49Z</time>
      </trkpt>
      <trkpt lat="46.58436" lon="5.56514">
        <ele>568.2</ele>
        <time>2022-02-26T14:30:51Z</time>
      </trkpt>
      <trkpt lat="46.58409" lon="5.56512">
        <ele>567</ele>
        <time>2022-02-26T14:30:54Z</time>
      </trkpt>
      <trkpt lat="46.58369" lon="5.56504">
        <ele>566.8</ele>
        <time>2022-02-26T14:30:59Z</time>
      </trkpt>
      <trkpt lat="46.58316" lon="5.56483">
        <ele>567.4</ele>
        <time>2022-02-26T14:31:06Z</time>
      </trkpt>
      <trkpt lat="46.58264" lon="5.5647">
        <ele>567</ele>
        <time>2022-02-26T14:31:12Z</time>
      </trkpt>
      <trkpt lat="46.58204" lon="5.56458">
        <ele>566.2</ele>
        <time>2022-02-26T14:31:19Z</time>
      </trkpt>
      <trkpt lat="46.58179" lon="5.56453">
        <ele>566</ele>
        <time>2022-02-26T14:31:22Z</time>
      </trkpt>
      <trkpt lat="46.58163" lon="5.5645">
        <ele>566</ele>
        <time>2022-02-26T14:31:24Z</time>
      </trkpt>
      <trkpt lat="46.58115" lon="5.56433">
        <ele>565.8</ele>
        <time>2022-02-26T14:31:30Z</time>
      </trkpt>
      <trkpt lat="46.58068" lon="5.56409">
        <ele>565.6</ele>
        <time>2022-02-26T14:31:36Z</time>
      </trkpt>
      <trkpt lat="46.58014" lon="5.56383">
        <ele>565.6</ele>
        <time>2022-02-26T14:31:43Z</time>
      </trkpt>
      <trkpt lat="46.57998" lon="5.56378">
        <ele>566</ele>
        <time>2022-02-26T14:31:45Z</time>
      </trkpt>
      <trkpt lat="46.57951" lon="5.56365">
        <ele>567.2</ele>
        <time>2022-02-26T14:31:51Z</time>
      </trkpt>
      <trkpt lat="46.57918" lon="5.56357">
        <ele>567.4</ele>
        <time>2022-02-26T14:31:55Z</time>
      </trkpt>
      <trkpt lat="46.57865" lon="5.56349">
        <ele>566</ele>
        <time>2022-02-26T14:32:01Z</time>
      </trkpt>
      <trkpt lat="46.57848" lon="5.56347">
        <ele>566</ele>
        <time>2022-02-26T14:32:03Z</time>
      </trkpt>
      <trkpt lat="46.57788" lon="5.5634">
        <ele>565.6</ele>
        <time>2022-02-26T14:32:10Z</time>
      </trkpt>
      <trkpt lat="46.57771" lon="5.56335">
        <ele>565.6</ele>
        <time>2022-02-26T14:32:12Z</time>
      </trkpt>
      <trkpt lat="46.57713" lon="5.5631">
        <ele>565.6</ele>
        <time>2022-02-26T14:32:19Z</time>
      </trkpt>
      <trkpt lat="46.57705" lon="5.56307">
        <ele>565.6</ele>
        <time>2022-02-26T14:32:20Z</time>
      </trkpt>
      <trkpt lat="46.57652" lon="5.56289">
        <ele>565.8</ele>
        <time>2022-02-26T14:32:26Z</time>
      </trkpt>
      <trkpt lat="46.57633" lon="5.56282">
        <ele>565.6</ele>
        <time>2022-02-26T14:32:28Z</time>
      </trkpt>
      <trkpt lat="46.5758" lon="5.56263">
        <ele>565.2</ele>
        <time>2022-02-26T14:32:34Z</time>
      </trkpt>
      <trkpt lat="46.57571" lon="5.56259">
        <ele>565</ele>
        <time>2022-02-26T14:32:35Z</time>
      </trkpt>
      <trkpt lat="46.57562" lon="5.56256">
        <ele>564.8</ele>
        <time>2022-02-26T14:32:36Z</time>
      </trkpt>
      <trkpt lat="46.57534" lon="5.56246">
        <ele>563.6</ele>
        <time>2022-02-26T14:32:39Z</time>
      </trkpt>
      <trkpt lat="46.57475" lon="5.56225">
        <ele>562.6</ele>
        <time>2022-02-26T14:32:45Z</time>
      </trkpt>
      <trkpt lat="46.57465" lon="5.56222">
        <ele>562.2</ele>
        <time>2022-02-26T14:32:46Z</time>
      </trkpt>
      <trkpt lat="46.57417" lon="5.56214">
        <ele>561.2</ele>
        <time>2022-02-26T14:32:51Z</time>
      </trkpt>
      <trkpt lat="46.57371" lon="5.5621">
        <ele>561</ele>
        <time>2022-02-26T14:32:56Z</time>
      </trkpt>
      <trkpt lat="46.57316" lon="5.56204">
        <ele>562</ele>
        <time>2022-02-26T14:33:02Z</time>
      </trkpt>
      <trkpt lat="46.57305" lon="5.56203">
        <ele>562</ele>
        <time>2022-02-26T14:33:03Z</time>
      </trkpt>
      <trkpt lat="46.57243" lon="5.56197">
        <ele>562</ele>
        <time>2022-02-26T14:33:10Z</time>
      </trkpt>
      <trkpt lat="46.57205" lon="5.56194">
        <ele>561.4</ele>
        <time>2022-02-26T14:33:14Z</time>
      </trkpt>
      <trkpt lat="46.5715" lon="5.56186">
        <ele>560.6</ele>
        <time>2022-02-26T14:33:20Z</time>
      </trkpt>
      <trkpt lat="46.57133" lon="5.5618">
        <ele>560.4</ele>
        <time>2022-02-26T14:33:22Z</time>
      </trkpt>
      <trkpt lat="46.57107" lon="5.56168">
        <ele>560</ele>
        <time>2022-02-26T14:33:25Z</time>
      </trkpt>
      <trkpt lat="46.57062" lon="5.56147">
        <ele>559.4</ele>
        <time>2022-02-26T14:33:30Z</time>
      </trkpt>
      <trkpt lat="46.57025" lon="5.56132">
        <ele>559</ele>
        <time>2022-02-26T14:33:34Z</time>
      </trkpt>
      <trkpt lat="46.56987" lon="5.5612">
        <ele>558.4</ele>
        <time>2022-02-26T14:33:38Z</time>
      </trkpt>
      <trkpt lat="46.56958" lon="5.56111">
        <ele>558</ele>
        <time>2022-02-26T14:33:41Z</time>
      </trkpt>
      <trkpt lat="46.56908" lon="5.56094">
        <ele>557.2</ele>
        <time>2022-02-26T14:33:46Z</time>
      </trkpt>
      <trkpt lat="46.56888" lon="5.56084">
        <ele>556.6</ele>
        <time>2022-02-26T14:33:48Z</time>
      </trkpt>
      <trkpt lat="46.56879" lon="5.56078">
        <ele>556.4</ele>
        <time>2022-02-26T14:33:49Z</time>
      </trkpt>
      <trkpt lat="46.56871" lon="5.56072">
        <ele>556.2</ele>
        <time>2022-02-26T14:33:50Z</time>
      </trkpt>
      <trkpt lat="46.56865" lon="5.56066">
        <ele>556</ele>
        <time>2022-02-26T14:33:51Z</time>
      </trkpt>
      <trkpt lat="46.5686" lon="5.5606">
        <ele>555.6</ele>
        <time>2022-02-26T14:33:52Z</time>
      </trkpt>
      <trkpt lat="46.56857" lon="5.56057">
        <ele>555</ele>
        <time>2022-02-26T14:33:53Z</time>
      </trkpt>
      <trkpt lat="46.56853" lon="5.56052">
        <ele>554.4</ele>
        <time>2022-02-26T14:33:55Z</time>
      </trkpt>
      <trkpt lat="46.5685" lon="5.56049">
        <ele>554</ele>
        <time>2022-02-26T14:33:57Z</time>
      </trkpt>
      <trkpt lat="46.5685" lon="5.56052">
        <ele>553.8</ele>
        <time>2022-02-26T14:34:00Z</time>
      </trkpt>
      <trkpt lat="46.56857" lon="5.56059">
        <ele>553.4</ele>
        <time>2022-02-26T14:34:04Z</time>
      </trkpt>
      <trkpt lat="46.56859" lon="5.56062">
        <ele>553.4</ele>
        <time>2022-02-26T14:34:05Z</time>
      </trkpt>
      <trkpt lat="46.56876" lon="5.56078">
        <ele>553.4</ele>
        <time>2022-02-26T14:34:10Z</time>
      </trkpt>
      <trkpt lat="46.56908" lon="5.56098">
        <ele>554.4</ele>
        <time>2022-02-26T14:34:17Z</time>
      </trkpt>
      <trkpt lat="46.56912" lon="5.561">
        <ele>554.8</ele>
        <time>2022-02-26T14:34:18Z</time>
      </trkpt>
      <trkpt lat="46.56935" lon="5.56108">
        <ele>555.8</ele>
        <time>2022-02-26T14:34:23Z</time>
      </trkpt>
      <trkpt lat="46.56948" lon="5.56112">
        <ele>556.4</ele>
        <time>2022-02-26T14:34:26Z</time>
      </trkpt>
      <trkpt lat="46.56961" lon="5.56116">
        <ele>556.6</ele>
        <time>2022-02-26T14:34:29Z</time>
      </trkpt>
      <trkpt lat="46.56966" lon="5.56117">
        <ele>556.6</ele>
        <time>2022-02-26T14:34:30Z</time>
      </trkpt>
      <trkpt lat="46.56974" lon="5.5612">
        <ele>556.6</ele>
        <time>2022-02-26T14:34:32Z</time>
      </trkpt>
      <trkpt lat="46.56982" lon="5.56123">
        <ele>556.8</ele>
        <time>2022-02-26T14:34:34Z</time>
      </trkpt>
      <trkpt lat="46.56998" lon="5.56128">
        <ele>557.8</ele>
        <time>2022-02-26T14:34:39Z</time>
      </trkpt>
      <trkpt lat="46.57" lon="5.56128">
        <ele>558</ele>
        <time>2022-02-26T14:34:40Z</time>
      </trkpt>
      <trkpt lat="46.57002" lon="5.56126">
        <ele>558.4</ele>
        <time>2022-02-26T14:34:42Z</time>
      </trkpt>
      <trkpt lat="46.57001" lon="5.56126">
        <ele>558.8</ele>
        <time>2022-02-26T14:34:47Z</time>
      </trkpt>
      <trkpt lat="46.57001" lon="5.56126">
        <ele>558.8</ele>
        <time>2022-02-26T14:34:48Z</time>
      </trkpt>
      <trkpt lat="46.56998" lon="5.56127">
        <ele>560.4</ele>
        <time>2022-02-26T14:45:46Z</time>
      </trkpt>
      <trkpt lat="46.56993" lon="5.56125">
        <ele>560.4</ele>
        <time>2022-02-26T14:45:48Z</time>
      </trkpt>
      <trkpt lat="46.56971" lon="5.5612">
        <ele>560</ele>
        <time>2022-02-26T14:45:54Z</time>
      </trkpt>
      <trkpt lat="46.56939" lon="5.5611">
        <ele>559.4</ele>
        <time>2022-02-26T14:46:01Z</time>
      </trkpt>
      <trkpt lat="46.56929" lon="5.56106">
        <ele>559.4</ele>
        <time>2022-02-26T14:46:03Z</time>
      </trkpt>
      <trkpt lat="46.569" lon="5.56094">
        <ele>558.6</ele>
        <time>2022-02-26T14:46:08Z</time>
      </trkpt>
      <trkpt lat="46.56889" lon="5.56087">
        <ele>558.2</ele>
        <time>2022-02-26T14:46:10Z</time>
      </trkpt>
      <trkpt lat="46.5687" lon="5.56073">
        <ele>557.6</ele>
        <time>2022-02-26T14:46:13Z</time>
      </trkpt>
      <trkpt lat="46.56845" lon="5.56047">
        <ele>557</ele>
        <time>2022-02-26T14:46:17Z</time>
      </trkpt>
      <trkpt lat="46.56825" lon="5.56026">
        <ele>555.6</ele>
        <time>2022-02-26T14:46:20Z</time>
      </trkpt>
      <trkpt lat="46.56803" lon="5.56005">
        <ele>554.6</ele>
        <time>2022-02-26T14:46:23Z</time>
      </trkpt>
      <trkpt lat="46.56796" lon="5.55999">
        <ele>554.2</ele>
        <time>2022-02-26T14:46:24Z</time>
      </trkpt>
      <trkpt lat="46.5678" lon="5.5599">
        <ele>554</ele>
        <time>2022-02-26T14:46:26Z</time>
      </trkpt>
      <trkpt lat="46.56755" lon="5.55981">
        <ele>553.2</ele>
        <time>2022-02-26T14:46:29Z</time>
      </trkpt>
      <trkpt lat="46.56721" lon="5.5597">
        <ele>552.6</ele>
        <time>2022-02-26T14:46:33Z</time>
      </trkpt>
      <trkpt lat="46.56686" lon="5.55959">
        <ele>552.2</ele>
        <time>2022-02-26T14:46:37Z</time>
      </trkpt>
      <trkpt lat="46.56677" lon="5.55956">
        <ele>552</ele>
        <time>2022-02-26T14:46:38Z</time>
      </trkpt>
      <trkpt lat="46.56659" lon="5.55949">
        <ele>551.6</ele>
        <time>2022-02-26T14:46:40Z</time>
      </trkpt>
      <trkpt lat="46.56623" lon="5.55937">
        <ele>551.2</ele>
        <time>2022-02-26T14:46:44Z</time>
      </trkpt>
      <trkpt lat="46.56604" lon="5.55931">
        <ele>551</ele>
        <time>2022-02-26T14:46:46Z</time>
      </trkpt>
      <trkpt lat="46.56576" lon="5.55921">
        <ele>550.4</ele>
        <time>2022-02-26T14:46:49Z</time>
      </trkpt>
      <trkpt lat="46.56527" lon="5.55903">
        <ele>549</ele>
        <time>2022-02-26T14:46:54Z</time>
      </trkpt>
      <trkpt lat="46.56507" lon="5.55896">
        <ele>548.6</ele>
        <time>2022-02-26T14:46:56Z</time>
      </trkpt>
      <trkpt lat="46.56476" lon="5.55888">
        <ele>547.8</ele>
        <time>2022-02-26T14:46:59Z</time>
      </trkpt>
      <trkpt lat="46.56454" lon="5.55888">
        <ele>547.4</ele>
        <time>2022-02-26T14:47:01Z</time>
      </trkpt>
      <trkpt lat="46.56442" lon="5.5589">
        <ele>547.2</ele>
        <time>2022-02-26T14:47:02Z</time>
      </trkpt>
      <trkpt lat="46.56431" lon="5.55893">
        <ele>546.8</ele>
        <time>2022-02-26T14:47:03Z</time>
      </trkpt>
      <trkpt lat="46.56397" lon="5.55901">
        <ele>545.4</ele>
        <time>2022-02-26T14:47:06Z</time>
      </trkpt>
      <trkpt lat="46.56385" lon="5.55903">
        <ele>544.2</ele>
        <time>2022-02-26T14:47:07Z</time>
      </trkpt>
      <trkpt lat="46.56363" lon="5.55903">
        <ele>543.2</ele>
        <time>2022-02-26T14:47:09Z</time>
      </trkpt>
      <trkpt lat="46.56353" lon="5.55903">
        <ele>542.4</ele>
        <time>2022-02-26T14:47:10Z</time>
      </trkpt>
      <trkpt lat="46.56342" lon="5.55901">
        <ele>542</ele>
        <time>2022-02-26T14:47:11Z</time>
      </trkpt>
      <trkpt lat="46.56332" lon="5.55899">
        <ele>541.4</ele>
        <time>2022-02-26T14:47:12Z</time>
      </trkpt>
      <trkpt lat="46.56322" lon="5.55894">
        <ele>541.2</ele>
        <time>2022-02-26T14:47:13Z</time>
      </trkpt>
      <trkpt lat="46.56312" lon="5.55887">
        <ele>540.8</ele>
        <time>2022-02-26T14:47:14Z</time>
      </trkpt>
      <trkpt lat="46.56295" lon="5.55869">
        <ele>540.4</ele>
        <time>2022-02-26T14:47:16Z</time>
      </trkpt>
      <trkpt lat="46.56258" lon="5.55823">
        <ele>539.8</ele>
        <time>2022-02-26T14:47:21Z</time>
      </trkpt>
      <trkpt lat="46.56242" lon="5.55807">
        <ele>539.6</ele>
        <time>2022-02-26T14:47:23Z</time>
      </trkpt>
      <trkpt lat="46.56234" lon="5.558">
        <ele>539.4</ele>
        <time>2022-02-26T14:47:24Z</time>
      </trkpt>
      <trkpt lat="46.56202" lon="5.5577">
        <ele>538.8</ele>
        <time>2022-02-26T14:47:28Z</time>
      </trkpt>
      <trkpt lat="46.56194" lon="5.55763">
        <ele>538.6</ele>
        <time>2022-02-26T14:47:29Z</time>
      </trkpt>
      <trkpt lat="46.56152" lon="5.55736">
        <ele>537.6</ele>
        <time>2022-02-26T14:47:34Z</time>
      </trkpt>
      <trkpt lat="46.5611" lon="5.55716">
        <ele>536.4</ele>
        <time>2022-02-26T14:47:39Z</time>
      </trkpt>
      <trkpt lat="46.56085" lon="5.55709">
        <ele>535.8</ele>
        <time>2022-02-26T14:47:42Z</time>
      </trkpt>
      <trkpt lat="46.56068" lon="5.55708">
        <ele>535.4</ele>
        <time>2022-02-26T14:47:44Z</time>
      </trkpt>
      <trkpt lat="46.56051" lon="5.55708">
        <ele>535</ele>
        <time>2022-02-26T14:47:46Z</time>
      </trkpt>
      <trkpt lat="46.56035" lon="5.55709">
        <ele>534.8</ele>
        <time>2022-02-26T14:47:48Z</time>
      </trkpt>
      <trkpt lat="46.55995" lon="5.55709">
        <ele>534.4</ele>
        <time>2022-02-26T14:47:53Z</time>
      </trkpt>
      <trkpt lat="46.55965" lon="5.55708">
        <ele>534</ele>
        <time>2022-02-26T14:47:57Z</time>
      </trkpt>
      <trkpt lat="46.55958" lon="5.55707">
        <ele>534</ele>
        <time>2022-02-26T14:47:58Z</time>
      </trkpt>
      <trkpt lat="46.55944" lon="5.55701">
        <ele>533.8</ele>
        <time>2022-02-26T14:48:00Z</time>
      </trkpt>
      <trkpt lat="46.55938" lon="5.55696">
        <ele>533.8</ele>
        <time>2022-02-26T14:48:01Z</time>
      </trkpt>
      <trkpt lat="46.55925" lon="5.55683">
        <ele>533.2</ele>
        <time>2022-02-26T14:48:03Z</time>
      </trkpt>
      <trkpt lat="46.5592" lon="5.55677">
        <ele>533</ele>
        <time>2022-02-26T14:48:04Z</time>
      </trkpt>
      <trkpt lat="46.55908" lon="5.55666">
        <ele>532.6</ele>
        <time>2022-02-26T14:48:06Z</time>
      </trkpt>
      <trkpt lat="46.55894" lon="5.55655">
        <ele>532.2</ele>
        <time>2022-02-26T14:48:08Z</time>
      </trkpt>
      <trkpt lat="46.55881" lon="5.55643">
        <ele>531.8</ele>
        <time>2022-02-26T14:48:10Z</time>
      </trkpt>
      <trkpt lat="46.55869" lon="5.5563">
        <ele>531.2</ele>
        <time>2022-02-26T14:48:12Z</time>
      </trkpt>
      <trkpt lat="46.55863" lon="5.55623">
        <ele>531</ele>
        <time>2022-02-26T14:48:13Z</time>
      </trkpt>
      <trkpt lat="46.55846" lon="5.55605">
        <ele>529.4</ele>
        <time>2022-02-26T14:48:16Z</time>
      </trkpt>
      <trkpt lat="46.5584" lon="5.556">
        <ele>529</ele>
        <time>2022-02-26T14:48:17Z</time>
      </trkpt>
      <trkpt lat="46.55833" lon="5.55595">
        <ele>528.8</ele>
        <time>2022-02-26T14:48:18Z</time>
      </trkpt>
      <trkpt lat="46.55819" lon="5.55587">
        <ele>528.6</ele>
        <time>2022-02-26T14:48:20Z</time>
      </trkpt>
      <trkpt lat="46.55766" lon="5.55557">
        <ele>527.8</ele>
        <time>2022-02-26T14:48:27Z</time>
      </trkpt>
      <trkpt lat="46.55744" lon="5.55544">
        <ele>527.8</ele>
        <time>2022-02-26T14:48:30Z</time>
      </trkpt>
      <trkpt lat="46.55727" lon="5.55538">
        <ele>527.8</ele>
        <time>2022-02-26T14:48:32Z</time>
      </trkpt>
      <trkpt lat="46.55686" lon="5.55535">
        <ele>527.8</ele>
        <time>2022-02-26T14:48:37Z</time>
      </trkpt>
      <trkpt lat="46.55655" lon="5.55536">
        <ele>527.8</ele>
        <time>2022-02-26T14:48:41Z</time>
      </trkpt>
      <trkpt lat="46.55623" lon="5.55533">
        <ele>528</ele>
        <time>2022-02-26T14:48:45Z</time>
      </trkpt>
      <trkpt lat="46.55572" lon="5.55522">
        <ele>529.2</ele>
        <time>2022-02-26T14:48:52Z</time>
      </trkpt>
      <trkpt lat="46.55557" lon="5.55514">
        <ele>529.4</ele>
        <time>2022-02-26T14:48:54Z</time>
      </trkpt>
      <trkpt lat="46.55536" lon="5.55498">
        <ele>529.4</ele>
        <time>2022-02-26T14:48:57Z</time>
      </trkpt>
      <trkpt lat="46.55492" lon="5.55465">
        <ele>528.8</ele>
        <time>2022-02-26T14:49:03Z</time>
      </trkpt>
      <trkpt lat="46.55439" lon="5.55435">
        <ele>528</ele>
        <time>2022-02-26T14:49:10Z</time>
      </trkpt>
      <trkpt lat="46.55423" lon="5.55428">
        <ele>527.8</ele>
        <time>2022-02-26T14:49:12Z</time>
      </trkpt>
      <trkpt lat="46.55391" lon="5.55414">
        <ele>527.6</ele>
        <time>2022-02-26T14:49:16Z</time>
      </trkpt>
      <trkpt lat="46.55347" lon="5.55397">
        <ele>527.2</ele>
        <time>2022-02-26T14:49:21Z</time>
      </trkpt>
      <trkpt lat="46.55329" lon="5.5539">
        <ele>527</ele>
        <time>2022-02-26T14:49:23Z</time>
      </trkpt>
      <trkpt lat="46.55284" lon="5.55372">
        <ele>526.4</ele>
        <time>2022-02-26T14:49:28Z</time>
      </trkpt>
      <trkpt lat="46.55257" lon="5.55361">
        <ele>525.6</ele>
        <time>2022-02-26T14:49:31Z</time>
      </trkpt>
      <trkpt lat="46.55248" lon="5.55357">
        <ele>525.2</ele>
        <time>2022-02-26T14:49:32Z</time>
      </trkpt>
      <trkpt lat="46.55188" lon="5.55337">
        <ele>525</ele>
        <time>2022-02-26T14:49:39Z</time>
      </trkpt>
      <trkpt lat="46.55137" lon="5.55337">
        <ele>525.2</ele>
        <time>2022-02-26T14:49:45Z</time>
      </trkpt>
      <trkpt lat="46.55085" lon="5.55339">
        <ele>525.2</ele>
        <time>2022-02-26T14:49:51Z</time>
      </trkpt>
      <trkpt lat="46.55029" lon="5.55341">
        <ele>526</ele>
        <time>2022-02-26T14:49:58Z</time>
      </trkpt>
      <trkpt lat="46.55004" lon="5.55344">
        <ele>526.4</ele>
        <time>2022-02-26T14:50:01Z</time>
      </trkpt>
      <trkpt lat="46.54979" lon="5.55353">
        <ele>526.6</ele>
        <time>2022-02-26T14:50:04Z</time>
      </trkpt>
      <trkpt lat="46.54925" lon="5.55383">
        <ele>526.4</ele>
        <time>2022-02-26T14:50:11Z</time>
      </trkpt>
      <trkpt lat="46.54912" lon="5.55391">
        <ele>526.6</ele>
        <time>2022-02-26T14:50:13Z</time>
      </trkpt>
      <trkpt lat="46.5486" lon="5.55422">
        <ele>527.8</ele>
        <time>2022-02-26T14:50:21Z</time>
      </trkpt>
      <trkpt lat="46.54834" lon="5.55439">
        <ele>529.2</ele>
        <time>2022-02-26T14:50:25Z</time>
      </trkpt>
      <trkpt lat="46.54805" lon="5.55455">
        <ele>529.6</ele>
        <time>2022-02-26T14:50:29Z</time>
      </trkpt>
      <trkpt lat="46.54798" lon="5.55458">
        <ele>529.8</ele>
        <time>2022-02-26T14:50:30Z</time>
      </trkpt>
      <trkpt lat="46.5479" lon="5.55461">
        <ele>529.8</ele>
        <time>2022-02-26T14:50:31Z</time>
      </trkpt>
      <trkpt lat="46.54765" lon="5.55464">
        <ele>529.6</ele>
        <time>2022-02-26T14:50:34Z</time>
      </trkpt>
      <trkpt lat="46.5472" lon="5.55455">
        <ele>529</ele>
        <time>2022-02-26T14:50:39Z</time>
      </trkpt>
      <trkpt lat="46.54684" lon="5.55446">
        <ele>528</ele>
        <time>2022-02-26T14:50:43Z</time>
      </trkpt>
      <trkpt lat="46.54646" lon="5.55436">
        <ele>526.4</ele>
        <time>2022-02-26T14:50:47Z</time>
      </trkpt>
      <trkpt lat="46.54615" lon="5.55428">
        <ele>525</ele>
        <time>2022-02-26T14:50:50Z</time>
      </trkpt>
      <trkpt lat="46.54559" lon="5.55412">
        <ele>524.2</ele>
        <time>2022-02-26T14:50:56Z</time>
      </trkpt>
      <trkpt lat="46.5454" lon="5.55408">
        <ele>524.2</ele>
        <time>2022-02-26T14:50:58Z</time>
      </trkpt>
      <trkpt lat="46.54505" lon="5.55406">
        <ele>524.2</ele>
        <time>2022-02-26T14:51:02Z</time>
      </trkpt>
      <trkpt lat="46.54454" lon="5.55416">
        <ele>525.4</ele>
        <time>2022-02-26T14:51:08Z</time>
      </trkpt>
      <trkpt lat="46.54393" lon="5.55432">
        <ele>526.2</ele>
        <time>2022-02-26T14:51:15Z</time>
      </trkpt>
      <trkpt lat="46.54385" lon="5.55436">
        <ele>526.2</ele>
        <time>2022-02-26T14:51:16Z</time>
      </trkpt>
      <trkpt lat="46.54326" lon="5.55468">
        <ele>526.8</ele>
        <time>2022-02-26T14:51:23Z</time>
      </trkpt>
      <trkpt lat="46.54318" lon="5.55473">
        <ele>526.8</ele>
        <time>2022-02-26T14:51:24Z</time>
      </trkpt>
      <trkpt lat="46.54263" lon="5.55503">
        <ele>526.2</ele>
        <time>2022-02-26T14:51:30Z</time>
      </trkpt>
      <trkpt lat="46.54254" lon="5.55508">
        <ele>526.2</ele>
        <time>2022-02-26T14:51:31Z</time>
      </trkpt>
      <trkpt lat="46.54207" lon="5.5553">
        <ele>525.4</ele>
        <time>2022-02-26T14:51:36Z</time>
      </trkpt>
      <trkpt lat="46.54189" lon="5.55534">
        <ele>525</ele>
        <time>2022-02-26T14:51:38Z</time>
      </trkpt>
      <trkpt lat="46.54152" lon="5.55538">
        <ele>524.4</ele>
        <time>2022-02-26T14:51:42Z</time>
      </trkpt>
      <trkpt lat="46.54124" lon="5.55535">
        <ele>524</ele>
        <time>2022-02-26T14:51:45Z</time>
      </trkpt>
      <trkpt lat="46.54106" lon="5.55531">
        <ele>523.8</ele>
        <time>2022-02-26T14:51:47Z</time>
      </trkpt>
      <trkpt lat="46.54053" lon="5.55512">
        <ele>523.6</ele>
        <time>2022-02-26T14:51:53Z</time>
      </trkpt>
      <trkpt lat="46.54035" lon="5.55507">
        <ele>523.2</ele>
        <time>2022-02-26T14:51:55Z</time>
      </trkpt>
      <trkpt lat="46.54017" lon="5.55504">
        <ele>523</ele>
        <time>2022-02-26T14:51:57Z</time>
      </trkpt>
      <trkpt lat="46.53989" lon="5.55506">
        <ele>522.6</ele>
        <time>2022-02-26T14:52:00Z</time>
      </trkpt>
      <trkpt lat="46.53943" lon="5.55519">
        <ele>521.8</ele>
        <time>2022-02-26T14:52:05Z</time>
      </trkpt>
      <trkpt lat="46.53934" lon="5.55523">
        <ele>521.8</ele>
        <time>2022-02-26T14:52:06Z</time>
      </trkpt>
      <trkpt lat="46.53926" lon="5.55527">
        <ele>521.4</ele>
        <time>2022-02-26T14:52:07Z</time>
      </trkpt>
      <trkpt lat="46.53891" lon="5.55537">
        <ele>521.2</ele>
        <time>2022-02-26T14:52:11Z</time>
      </trkpt>
      <trkpt lat="46.53865" lon="5.55539">
        <ele>520.8</ele>
        <time>2022-02-26T14:52:14Z</time>
      </trkpt>
      <trkpt lat="46.53831" lon="5.55541">
        <ele>520.6</ele>
        <time>2022-02-26T14:52:18Z</time>
      </trkpt>
      <trkpt lat="46.53788" lon="5.55533">
        <ele>520.6</ele>
        <time>2022-02-26T14:52:23Z</time>
      </trkpt>
      <trkpt lat="46.53729" lon="5.55516">
        <ele>520.6</ele>
        <time>2022-02-26T14:52:30Z</time>
      </trkpt>
      <trkpt lat="46.53722" lon="5.55514">
        <ele>520.6</ele>
        <time>2022-02-26T14:52:31Z</time>
      </trkpt>
      <trkpt lat="46.53661" lon="5.555">
        <ele>521</ele>
        <time>2022-02-26T14:52:38Z</time>
      </trkpt>
      <trkpt lat="46.53636" lon="5.55493">
        <ele>521</ele>
        <time>2022-02-26T14:52:41Z</time>
      </trkpt>
      <trkpt lat="46.53579" lon="5.55476">
        <ele>521</ele>
        <time>2022-02-26T14:52:48Z</time>
      </trkpt>
      <trkpt lat="46.53547" lon="5.55466">
        <ele>521.2</ele>
        <time>2022-02-26T14:52:52Z</time>
      </trkpt>
      <trkpt lat="46.53487" lon="5.55444">
        <ele>520.8</ele>
        <time>2022-02-26T14:52:59Z</time>
      </trkpt>
      <trkpt lat="46.53452" lon="5.55432">
        <ele>520</ele>
        <time>2022-02-26T14:53:03Z</time>
      </trkpt>
      <trkpt lat="46.53407" lon="5.55423">
        <ele>519</ele>
        <time>2022-02-26T14:53:08Z</time>
      </trkpt>
      <trkpt lat="46.53389" lon="5.55424">
        <ele>519</ele>
        <time>2022-02-26T14:53:10Z</time>
      </trkpt>
      <trkpt lat="46.53362" lon="5.55429">
        <ele>518.6</ele>
        <time>2022-02-26T14:53:13Z</time>
      </trkpt>
      <trkpt lat="46.53336" lon="5.55429">
        <ele>518.6</ele>
        <time>2022-02-26T14:53:16Z</time>
      </trkpt>
      <trkpt lat="46.53328" lon="5.55426">
        <ele>518.6</ele>
        <time>2022-02-26T14:53:17Z</time>
      </trkpt>
      <trkpt lat="46.53312" lon="5.55417">
        <ele>518.8</ele>
        <time>2022-02-26T14:53:19Z</time>
      </trkpt>
      <trkpt lat="46.53297" lon="5.55405">
        <ele>518.8</ele>
        <time>2022-02-26T14:53:21Z</time>
      </trkpt>
      <trkpt lat="46.5325" lon="5.55355">
        <ele>519.2</ele>
        <time>2022-02-26T14:53:28Z</time>
      </trkpt>
      <trkpt lat="46.53243" lon="5.55348">
        <ele>519.2</ele>
        <time>2022-02-26T14:53:29Z</time>
      </trkpt>
      <trkpt lat="46.53214" lon="5.5532">
        <ele>518.8</ele>
        <time>2022-02-26T14:53:33Z</time>
      </trkpt>
      <trkpt lat="46.53201" lon="5.55303">
        <ele>518.8</ele>
        <time>2022-02-26T14:53:35Z</time>
      </trkpt>
      <trkpt lat="46.53168" lon="5.55268">
        <ele>519</ele>
        <time>2022-02-26T14:53:40Z</time>
      </trkpt>
      <trkpt lat="46.53115" lon="5.55236">
        <ele>519.8</ele>
        <time>2022-02-26T14:53:47Z</time>
      </trkpt>
      <trkpt lat="46.5306" lon="5.55204">
        <ele>519.6</ele>
        <time>2022-02-26T14:53:54Z</time>
      </trkpt>
      <trkpt lat="46.53044" lon="5.55196">
        <ele>519.4</ele>
        <time>2022-02-26T14:53:56Z</time>
      </trkpt>
      <trkpt lat="46.52991" lon="5.55172">
        <ele>519</ele>
        <time>2022-02-26T14:54:03Z</time>
      </trkpt>
      <trkpt lat="46.52983" lon="5.55168">
        <ele>519</ele>
        <time>2022-02-26T14:54:04Z</time>
      </trkpt>
      <trkpt lat="46.52943" lon="5.55151">
        <ele>519.4</ele>
        <time>2022-02-26T14:54:10Z</time>
      </trkpt>
      <trkpt lat="46.52888" lon="5.55126">
        <ele>519.6</ele>
        <time>2022-02-26T14:54:18Z</time>
      </trkpt>
      <trkpt lat="46.5283" lon="5.55102">
        <ele>519.4</ele>
        <time>2022-02-26T14:54:26Z</time>
      </trkpt>
      <trkpt lat="46.52822" lon="5.55099">
        <ele>519.2</ele>
        <time>2022-02-26T14:54:27Z</time>
      </trkpt>
      <trkpt lat="46.52766" lon="5.55086">
        <ele>519.2</ele>
        <time>2022-02-26T14:54:35Z</time>
      </trkpt>
      <trkpt lat="46.52759" lon="5.55085">
        <ele>519.2</ele>
        <time>2022-02-26T14:54:36Z</time>
      </trkpt>
      <trkpt lat="46.52725" lon="5.55077">
        <ele>519.4</ele>
        <time>2022-02-26T14:54:42Z</time>
      </trkpt>
      <trkpt lat="46.52703" lon="5.55073">
        <ele>519.4</ele>
        <time>2022-02-26T14:54:47Z</time>
      </trkpt>
      <trkpt lat="46.52696" lon="5.55067">
        <ele>519.4</ele>
        <time>2022-02-26T14:54:51Z</time>
      </trkpt>
      <trkpt lat="46.52695" lon="5.55066">
        <ele>519.4</ele>
        <time>2022-02-26T14:54:53Z</time>
      </trkpt>
      <trkpt lat="46.52696" lon="5.55055">
        <ele>519.6</ele>
        <time>2022-02-26T14:55:59Z</time>
      </trkpt>
      <trkpt lat="46.52698" lon="5.5503">
        <ele>520</ele>
        <time>2022-02-26T14:56:05Z</time>
      </trkpt>
      <trkpt lat="46.52702" lon="5.54991">
        <ele>520.2</ele>
        <time>2022-02-26T14:56:12Z</time>
      </trkpt>
      <trkpt lat="46.52705" lon="5.54955">
        <ele>520.8</ele>
        <time>2022-02-26T14:56:18Z</time>
      </trkpt>
      <trkpt lat="46.52706" lon="5.54936">
        <ele>521</ele>
        <time>2022-02-26T14:56:21Z</time>
      </trkpt>
      <trkpt lat="46.52709" lon="5.54906">
        <ele>522</ele>
        <time>2022-02-26T14:56:26Z</time>
      </trkpt>
      <trkpt lat="46.52711" lon="5.54882">
        <ele>522.8</ele>
        <time>2022-02-26T14:56:30Z</time>
      </trkpt>
      <trkpt lat="46.52711" lon="5.54863">
        <ele>523</ele>
        <time>2022-02-26T14:56:33Z</time>
      </trkpt>
      <trkpt lat="46.52713" lon="5.54837">
        <ele>523.6</ele>
        <time>2022-02-26T14:56:37Z</time>
      </trkpt>
      <trkpt lat="46.52714" lon="5.5483">
        <ele>524</ele>
        <time>2022-02-26T14:56:38Z</time>
      </trkpt>
      <trkpt lat="46.52714" lon="5.54824">
        <ele>524</ele>
        <time>2022-02-26T14:56:39Z</time>
      </trkpt>
      <trkpt lat="46.52719" lon="5.54773">
        <ele>525.2</ele>
        <time>2022-02-26T14:56:47Z</time>
      </trkpt>
      <trkpt lat="46.52723" lon="5.54724">
        <ele>526.2</ele>
        <time>2022-02-26T14:56:54Z</time>
      </trkpt>
      <trkpt lat="46.52724" lon="5.54703">
        <ele>526.4</ele>
        <time>2022-02-26T14:56:57Z</time>
      </trkpt>
      <trkpt lat="46.5273" lon="5.54637">
        <ele>527.4</ele>
        <time>2022-02-26T14:57:07Z</time>
      </trkpt>
      <trkpt lat="46.52732" lon="5.54631">
        <ele>527.8</ele>
        <time>2022-02-26T14:57:08Z</time>
      </trkpt>
      <trkpt lat="46.52736" lon="5.5462">
        <ele>528.2</ele>
        <time>2022-02-26T14:57:10Z</time>
      </trkpt>
      <trkpt lat="46.52739" lon="5.54616">
        <ele>528.2</ele>
        <time>2022-02-26T14:57:11Z</time>
      </trkpt>
      <trkpt lat="46.52742" lon="5.54613">
        <ele>528.4</ele>
        <time>2022-02-26T14:57:12Z</time>
      </trkpt>
      <trkpt lat="46.52749" lon="5.54608">
        <ele>528.6</ele>
        <time>2022-02-26T14:57:14Z</time>
      </trkpt>
      <trkpt lat="46.52753" lon="5.54607">
        <ele>529</ele>
        <time>2022-02-26T14:57:15Z</time>
      </trkpt>
      <trkpt lat="46.52758" lon="5.54607">
        <ele>529.2</ele>
        <time>2022-02-26T14:57:16Z</time>
      </trkpt>
      <trkpt lat="46.52764" lon="5.54607">
        <ele>529.6</ele>
        <time>2022-02-26T14:57:18Z</time>
      </trkpt>
      <trkpt lat="46.52768" lon="5.54608">
        <ele>529.8</ele>
        <time>2022-02-26T14:57:19Z</time>
      </trkpt>
      <trkpt lat="46.52776" lon="5.54609">
        <ele>530.4</ele>
        <time>2022-02-26T14:57:21Z</time>
      </trkpt>
      <trkpt lat="46.52788" lon="5.5461">
        <ele>530.8</ele>
        <time>2022-02-26T14:57:24Z</time>
      </trkpt>
      <trkpt lat="46.52812" lon="5.54611">
        <ele>532.2</ele>
        <time>2022-02-26T14:57:30Z</time>
      </trkpt>
      <trkpt lat="46.52824" lon="5.54611">
        <ele>533.2</ele>
        <time>2022-02-26T14:57:33Z</time>
      </trkpt>
      <trkpt lat="46.52835" lon="5.54612">
        <ele>534.4</ele>
        <time>2022-02-26T14:57:36Z</time>
      </trkpt>
      <trkpt lat="46.52845" lon="5.54613">
        <ele>535.2</ele>
        <time>2022-02-26T14:57:39Z</time>
      </trkpt>
      <trkpt lat="46.52848" lon="5.54614">
        <ele>535.6</ele>
        <time>2022-02-26T14:57:40Z</time>
      </trkpt>
      <trkpt lat="46.52864" lon="5.54615">
        <ele>536.8</ele>
        <time>2022-02-26T14:57:44Z</time>
      </trkpt>
      <trkpt lat="46.52885" lon="5.54616">
        <ele>537.6</ele>
        <time>2022-02-26T14:57:49Z</time>
      </trkpt>
      <trkpt lat="46.52889" lon="5.54617">
        <ele>537.8</ele>
        <time>2022-02-26T14:57:50Z</time>
      </trkpt>
      <trkpt lat="46.52897" lon="5.54617">
        <ele>538</ele>
        <time>2022-02-26T14:57:52Z</time>
      </trkpt>
      <trkpt lat="46.52918" lon="5.54618">
        <ele>538.6</ele>
        <time>2022-02-26T14:57:57Z</time>
      </trkpt>
      <trkpt lat="46.52927" lon="5.54619">
        <ele>538.8</ele>
        <time>2022-02-26T14:57:59Z</time>
      </trkpt>
      <trkpt lat="46.52949" lon="5.5462">
        <ele>539.6</ele>
        <time>2022-02-26T14:58:04Z</time>
      </trkpt>
      <trkpt lat="46.52954" lon="5.54621">
        <ele>539.8</ele>
        <time>2022-02-26T14:58:05Z</time>
      </trkpt>
      <trkpt lat="46.52959" lon="5.54621">
        <ele>539.8</ele>
        <time>2022-02-26T14:58:06Z</time>
      </trkpt>
      <trkpt lat="46.52999" lon="5.54625">
        <ele>540.4</ele>
        <time>2022-02-26T14:58:15Z</time>
      </trkpt>
      <trkpt lat="46.53017" lon="5.54627">
        <ele>541</ele>
        <time>2022-02-26T14:58:19Z</time>
      </trkpt>
      <trkpt lat="46.53034" lon="5.54629">
        <ele>542</ele>
        <time>2022-02-26T14:58:23Z</time>
      </trkpt>
      <trkpt lat="46.53037" lon="5.5463">
        <ele>542</ele>
        <time>2022-02-26T14:58:24Z</time>
      </trkpt>
      <trkpt lat="46.53062" lon="5.54632">
        <ele>542.8</ele>
        <time>2022-02-26T14:58:31Z</time>
      </trkpt>
      <trkpt lat="46.5307" lon="5.54633">
        <ele>543</ele>
        <time>2022-02-26T14:58:33Z</time>
      </trkpt>
      <trkpt lat="46.53088" lon="5.54633">
        <ele>544</ele>
        <time>2022-02-26T14:58:37Z</time>
      </trkpt>
      <trkpt lat="46.53093" lon="5.54634">
        <ele>544.2</ele>
        <time>2022-02-26T14:58:38Z</time>
      </trkpt>
      <trkpt lat="46.53122" lon="5.54637">
        <ele>545.2</ele>
        <time>2022-02-26T14:58:44Z</time>
      </trkpt>
      <trkpt lat="46.53136" lon="5.54641">
        <ele>545.8</ele>
        <time>2022-02-26T14:58:47Z</time>
      </trkpt>
      <trkpt lat="46.53153" lon="5.54644">
        <ele>546.6</ele>
        <time>2022-02-26T14:58:51Z</time>
      </trkpt>
      <trkpt lat="46.53177" lon="5.54649">
        <ele>547.8</ele>
        <time>2022-02-26T14:58:57Z</time>
      </trkpt>
      <trkpt lat="46.5319" lon="5.54649">
        <ele>549</ele>
        <time>2022-02-26T14:59:00Z</time>
      </trkpt>
      <trkpt lat="46.53212" lon="5.54651">
        <ele>550</ele>
        <time>2022-02-26T14:59:05Z</time>
      </trkpt>
      <trkpt lat="46.53221" lon="5.54653">
        <ele>550.6</ele>
        <time>2022-02-26T14:59:07Z</time>
      </trkpt>
      <trkpt lat="46.5324" lon="5.54656">
        <ele>551.2</ele>
        <time>2022-02-26T14:59:11Z</time>
      </trkpt>
      <trkpt lat="46.53253" lon="5.54659">
        <ele>551.8</ele>
        <time>2022-02-26T14:59:14Z</time>
      </trkpt>
      <trkpt lat="46.53275" lon="5.54664">
        <ele>552.4</ele>
        <time>2022-02-26T14:59:19Z</time>
      </trkpt>
      <trkpt lat="46.53311" lon="5.54674">
        <ele>553.2</ele>
        <time>2022-02-26T14:59:27Z</time>
      </trkpt>
      <trkpt lat="46.5332" lon="5.54677">
        <ele>553.4</ele>
        <time>2022-02-26T14:59:29Z</time>
      </trkpt>
      <trkpt lat="46.53347" lon="5.54685">
        <ele>554.6</ele>
        <time>2022-02-26T14:59:35Z</time>
      </trkpt>
      <trkpt lat="46.53361" lon="5.5469">
        <ele>555</ele>
        <time>2022-02-26T14:59:38Z</time>
      </trkpt>
      <trkpt lat="46.53376" lon="5.54694">
        <ele>555.2</ele>
        <time>2022-02-26T14:59:41Z</time>
      </trkpt>
      <trkpt lat="46.53405" lon="5.54704">
        <ele>555.6</ele>
        <time>2022-02-26T14:59:47Z</time>
      </trkpt>
      <trkpt lat="46.5341" lon="5.54706">
        <ele>555.6</ele>
        <time>2022-02-26T14:59:48Z</time>
      </trkpt>
      <trkpt lat="46.53463" lon="5.54724">
        <ele>556.4</ele>
        <time>2022-02-26T14:59:59Z</time>
      </trkpt>
      <trkpt lat="46.53467" lon="5.54725">
        <ele>556.6</ele>
        <time>2022-02-26T15:00:00Z</time>
      </trkpt>
      <trkpt lat="46.53475" lon="5.54728">
        <ele>557</ele>
        <time>2022-02-26T15:00:02Z</time>
      </trkpt>
      <trkpt lat="46.53498" lon="5.54736">
        <ele>557.8</ele>
        <time>2022-02-26T15:00:07Z</time>
      </trkpt>
      <trkpt lat="46.53531" lon="5.54746">
        <ele>558.8</ele>
        <time>2022-02-26T15:00:14Z</time>
      </trkpt>
      <trkpt lat="46.5355" lon="5.54752">
        <ele>559.8</ele>
        <time>2022-02-26T15:00:18Z</time>
      </trkpt>
      <trkpt lat="46.53577" lon="5.54762">
        <ele>560.8</ele>
        <time>2022-02-26T15:00:24Z</time>
      </trkpt>
      <trkpt lat="46.53586" lon="5.54765">
        <ele>561</ele>
        <time>2022-02-26T15:00:26Z</time>
      </trkpt>
      <trkpt lat="46.53618" lon="5.54775">
        <ele>562.2</ele>
        <time>2022-02-26T15:00:33Z</time>
      </trkpt>
      <trkpt lat="46.53637" lon="5.54781">
        <ele>562.6</ele>
        <time>2022-02-26T15:00:37Z</time>
      </trkpt>
      <trkpt lat="46.5366" lon="5.54788">
        <ele>563.2</ele>
        <time>2022-02-26T15:00:42Z</time>
      </trkpt>
      <trkpt lat="46.53683" lon="5.54797">
        <ele>564.4</ele>
        <time>2022-02-26T15:00:47Z</time>
      </trkpt>
      <trkpt lat="46.53693" lon="5.548">
        <ele>564.6</ele>
        <time>2022-02-26T15:00:49Z</time>
      </trkpt>
      <trkpt lat="46.53718" lon="5.54809">
        <ele>565.6</ele>
        <time>2022-02-26T15:00:54Z</time>
      </trkpt>
      <trkpt lat="46.53747" lon="5.54818">
        <ele>566.4</ele>
        <time>2022-02-26T15:01:00Z</time>
      </trkpt>
      <trkpt lat="46.53757" lon="5.54821">
        <ele>566.8</ele>
        <time>2022-02-26T15:01:02Z</time>
      </trkpt>
      <trkpt lat="46.53787" lon="5.54822">
        <ele>567.2</ele>
        <time>2022-02-26T15:01:08Z</time>
      </trkpt>
      <trkpt lat="46.53813" lon="5.54816">
        <ele>567.8</ele>
        <time>2022-02-26T15:01:13Z</time>
      </trkpt>
      <trkpt lat="46.53833" lon="5.54812">
        <ele>568.8</ele>
        <time>2022-02-26T15:01:17Z</time>
      </trkpt>
      <trkpt lat="46.53838" lon="5.54811">
        <ele>569</ele>
        <time>2022-02-26T15:01:18Z</time>
      </trkpt>
      <trkpt lat="46.53868" lon="5.54804">
        <ele>569.8</ele>
        <time>2022-02-26T15:01:24Z</time>
      </trkpt>
      <trkpt lat="46.53879" lon="5.54801">
        <ele>570</ele>
        <time>2022-02-26T15:01:26Z</time>
      </trkpt>
      <trkpt lat="46.53919" lon="5.54782">
        <ele>570</ele>
        <time>2022-02-26T15:01:34Z</time>
      </trkpt>
      <trkpt lat="46.53959" lon="5.54748">
        <ele>571</ele>
        <time>2022-02-26T15:01:43Z</time>
      </trkpt>
      <trkpt lat="46.53991" lon="5.54706">
        <ele>571.6</ele>
        <time>2022-02-26T15:01:49Z</time>
      </trkpt>
      <trkpt lat="46.54001" lon="5.54681">
        <ele>571.6</ele>
        <time>2022-02-26T15:01:52Z</time>
      </trkpt>
      <trkpt lat="46.5401" lon="5.54651">
        <ele>571.6</ele>
        <time>2022-02-26T15:01:55Z</time>
      </trkpt>
      <trkpt lat="46.54029" lon="5.54586">
        <ele>570.2</ele>
        <time>2022-02-26T15:02:01Z</time>
      </trkpt>
      <trkpt lat="46.54032" lon="5.54573">
        <ele>570.2</ele>
        <time>2022-02-26T15:02:02Z</time>
      </trkpt>
      <trkpt lat="46.54045" lon="5.54523">
        <ele>569.6</ele>
        <time>2022-02-26T15:02:07Z</time>
      </trkpt>
      <trkpt lat="46.54064" lon="5.54449">
        <ele>569</ele>
        <time>2022-02-26T15:02:14Z</time>
      </trkpt>
      <trkpt lat="46.54079" lon="5.54395">
        <ele>567.8</ele>
        <time>2022-02-26T15:02:19Z</time>
      </trkpt>
      <trkpt lat="46.54091" lon="5.54347">
        <ele>567.4</ele>
        <time>2022-02-26T15:02:23Z</time>
      </trkpt>
      <trkpt lat="46.54101" lon="5.54311">
        <ele>567</ele>
        <time>2022-02-26T15:02:26Z</time>
      </trkpt>
      <trkpt lat="46.54108" lon="5.54285">
        <ele>565.8</ele>
        <time>2022-02-26T15:02:28Z</time>
      </trkpt>
      <trkpt lat="46.54112" lon="5.54272">
        <ele>565.6</ele>
        <time>2022-02-26T15:02:29Z</time>
      </trkpt>
      <trkpt lat="46.54119" lon="5.54243">
        <ele>564.8</ele>
        <time>2022-02-26T15:02:31Z</time>
      </trkpt>
      <trkpt lat="46.54128" lon="5.54215">
        <ele>563.8</ele>
        <time>2022-02-26T15:02:33Z</time>
      </trkpt>
      <trkpt lat="46.54132" lon="5.54201">
        <ele>562.6</ele>
        <time>2022-02-26T15:02:34Z</time>
      </trkpt>
      <trkpt lat="46.54139" lon="5.54173">
        <ele>561.2</ele>
        <time>2022-02-26T15:02:36Z</time>
      </trkpt>
      <trkpt lat="46.54151" lon="5.5413">
        <ele>560</ele>
        <time>2022-02-26T15:02:39Z</time>
      </trkpt>
      <trkpt lat="46.54163" lon="5.54088">
        <ele>559</ele>
        <time>2022-02-26T15:02:42Z</time>
      </trkpt>
      <trkpt lat="46.54167" lon="5.54075">
        <ele>557.8</ele>
        <time>2022-02-26T15:02:43Z</time>
      </trkpt>
      <trkpt lat="46.54179" lon="5.54034">
        <ele>556.6</ele>
        <time>2022-02-26T15:02:46Z</time>
      </trkpt>
      <trkpt lat="46.54199" lon="5.53954">
        <ele>555.8</ele>
        <time>2022-02-26T15:02:52Z</time>
      </trkpt>
      <trkpt lat="46.54204" lon="5.53914">
        <ele>555.6</ele>
        <time>2022-02-26T15:02:55Z</time>
      </trkpt>
      <trkpt lat="46.54204" lon="5.53901">
        <ele>555.6</ele>
        <time>2022-02-26T15:02:56Z</time>
      </trkpt>
      <trkpt lat="46.54204" lon="5.53901">
        <ele>555.4</ele>
        <time>2022-02-26T15:02:57Z</time>
      </trkpt>
      <trkpt lat="46.54202" lon="5.53815">
        <ele>555.4</ele>
        <time>2022-02-26T15:03:03Z</time>
      </trkpt>
      <trkpt lat="46.54207" lon="5.53726">
        <ele>554.8</ele>
        <time>2022-02-26T15:03:10Z</time>
      </trkpt>
      <trkpt lat="46.54211" lon="5.53687">
        <ele>554.4</ele>
        <time>2022-02-26T15:03:13Z</time>
      </trkpt>
      <trkpt lat="46.54214" lon="5.53675">
        <ele>554.2</ele>
        <time>2022-02-26T15:03:14Z</time>
      </trkpt>
      <trkpt lat="46.54218" lon="5.53664">
        <ele>554</ele>
        <time>2022-02-26T15:03:15Z</time>
      </trkpt>
      <trkpt lat="46.54233" lon="5.53632">
        <ele>553.2</ele>
        <time>2022-02-26T15:03:18Z</time>
      </trkpt>
      <trkpt lat="46.54242" lon="5.53614">
        <ele>552.8</ele>
        <time>2022-02-26T15:03:20Z</time>
      </trkpt>
      <trkpt lat="46.54272" lon="5.53547">
        <ele>552.2</ele>
        <time>2022-02-26T15:03:26Z</time>
      </trkpt>
      <trkpt lat="46.54279" lon="5.53526">
        <ele>551.8</ele>
        <time>2022-02-26T15:03:28Z</time>
      </trkpt>
      <trkpt lat="46.54293" lon="5.53482">
        <ele>551.2</ele>
        <time>2022-02-26T15:03:32Z</time>
      </trkpt>
      <trkpt lat="46.54298" lon="5.53472">
        <ele>551</ele>
        <time>2022-02-26T15:03:33Z</time>
      </trkpt>
      <trkpt lat="46.54304" lon="5.53461">
        <ele>550.8</ele>
        <time>2022-02-26T15:03:34Z</time>
      </trkpt>
      <trkpt lat="46.54321" lon="5.53438">
        <ele>550.4</ele>
        <time>2022-02-26T15:03:37Z</time>
      </trkpt>
      <trkpt lat="46.54343" lon="5.5341">
        <ele>549.8</ele>
        <time>2022-02-26T15:03:40Z</time>
      </trkpt>
      <trkpt lat="46.54351" lon="5.5339">
        <ele>549.4</ele>
        <time>2022-02-26T15:03:42Z</time>
      </trkpt>
      <trkpt lat="46.5436" lon="5.5335">
        <ele>548.6</ele>
        <time>2022-02-26T15:03:45Z</time>
      </trkpt>
      <trkpt lat="46.54363" lon="5.53338">
        <ele>548.4</ele>
        <time>2022-02-26T15:03:46Z</time>
      </trkpt>
      <trkpt lat="46.54371" lon="5.53313">
        <ele>548</ele>
        <time>2022-02-26T15:03:48Z</time>
      </trkpt>
      <trkpt lat="46.54382" lon="5.53291">
        <ele>547.4</ele>
        <time>2022-02-26T15:03:50Z</time>
      </trkpt>
      <trkpt lat="46.54399" lon="5.53274">
        <ele>546.8</ele>
        <time>2022-02-26T15:03:52Z</time>
      </trkpt>
      <trkpt lat="46.54409" lon="5.53269">
        <ele>546.6</ele>
        <time>2022-02-26T15:03:53Z</time>
      </trkpt>
      <trkpt lat="46.54418" lon="5.53265">
        <ele>546</ele>
        <time>2022-02-26T15:03:54Z</time>
      </trkpt>
      <trkpt lat="46.54438" lon="5.5326">
        <ele>544.8</ele>
        <time>2022-02-26T15:03:56Z</time>
      </trkpt>
      <trkpt lat="46.54449" lon="5.53258">
        <ele>544.2</ele>
        <time>2022-02-26T15:03:57Z</time>
      </trkpt>
      <trkpt lat="46.54459" lon="5.53255">
        <ele>543.2</ele>
        <time>2022-02-26T15:03:58Z</time>
      </trkpt>
      <trkpt lat="46.54467" lon="5.53254">
        <ele>541.8</ele>
        <time>2022-02-26T15:03:59Z</time>
      </trkpt>
      <trkpt lat="46.5449" lon="5.53248">
        <ele>540.2</ele>
        <time>2022-02-26T15:04:01Z</time>
      </trkpt>
      <trkpt lat="46.54509" lon="5.53244">
        <ele>538.4</ele>
        <time>2022-02-26T15:04:03Z</time>
      </trkpt>
      <trkpt lat="46.54532" lon="5.53239">
        <ele>537</ele>
        <time>2022-02-26T15:04:05Z</time>
      </trkpt>
      <trkpt lat="46.54552" lon="5.53234">
        <ele>535.8</ele>
        <time>2022-02-26T15:04:07Z</time>
      </trkpt>
      <trkpt lat="46.54571" lon="5.53228">
        <ele>534.8</ele>
        <time>2022-02-26T15:04:09Z</time>
      </trkpt>
      <trkpt lat="46.54581" lon="5.53224">
        <ele>533.6</ele>
        <time>2022-02-26T15:04:10Z</time>
      </trkpt>
      <trkpt lat="46.54602" lon="5.53217">
        <ele>532.6</ele>
        <time>2022-02-26T15:04:12Z</time>
      </trkpt>
      <trkpt lat="46.54612" lon="5.53213">
        <ele>532.2</ele>
        <time>2022-02-26T15:04:13Z</time>
      </trkpt>
      <trkpt lat="46.54632" lon="5.53204">
        <ele>530.8</ele>
        <time>2022-02-26T15:04:15Z</time>
      </trkpt>
      <trkpt lat="46.54655" lon="5.53197">
        <ele>529.6</ele>
        <time>2022-02-26T15:04:17Z</time>
      </trkpt>
      <trkpt lat="46.54674" lon="5.53195">
        <ele>528.6</ele>
        <time>2022-02-26T15:04:19Z</time>
      </trkpt>
      <trkpt lat="46.54685" lon="5.53195">
        <ele>528.2</ele>
        <time>2022-02-26T15:04:20Z</time>
      </trkpt>
      <trkpt lat="46.54707" lon="5.53197">
        <ele>527</ele>
        <time>2022-02-26T15:04:22Z</time>
      </trkpt>
      <trkpt lat="46.54729" lon="5.532">
        <ele>525.8</ele>
        <time>2022-02-26T15:04:24Z</time>
      </trkpt>
      <trkpt lat="46.54752" lon="5.532">
        <ele>524.2</ele>
        <time>2022-02-26T15:04:26Z</time>
      </trkpt>
      <trkpt lat="46.54773" lon="5.53195">
        <ele>522.4</ele>
        <time>2022-02-26T15:04:28Z</time>
      </trkpt>
      <trkpt lat="46.5479" lon="5.53188">
        <ele>520.8</ele>
        <time>2022-02-26T15:04:30Z</time>
      </trkpt>
      <trkpt lat="46.54811" lon="5.53178">
        <ele>520</ele>
        <time>2022-02-26T15:04:32Z</time>
      </trkpt>
      <trkpt lat="46.5482" lon="5.53173">
        <ele>519.6</ele>
        <time>2022-02-26T15:04:33Z</time>
      </trkpt>
      <trkpt lat="46.54864" lon="5.53147">
        <ele>518.6</ele>
        <time>2022-02-26T15:04:38Z</time>
      </trkpt>
      <trkpt lat="46.54872" lon="5.53141">
        <ele>518.4</ele>
        <time>2022-02-26T15:04:39Z</time>
      </trkpt>
      <trkpt lat="46.54886" lon="5.53124">
        <ele>518</ele>
        <time>2022-02-26T15:04:41Z</time>
      </trkpt>
      <trkpt lat="46.54897" lon="5.53104">
        <ele>517.6</ele>
        <time>2022-02-26T15:04:43Z</time>
      </trkpt>
      <trkpt lat="46.54902" lon="5.53092">
        <ele>517.4</ele>
        <time>2022-02-26T15:04:44Z</time>
      </trkpt>
      <trkpt lat="46.54929" lon="5.53034">
        <ele>516.2</ele>
        <time>2022-02-26T15:04:49Z</time>
      </trkpt>
      <trkpt lat="46.54942" lon="5.52999">
        <ele>515</ele>
        <time>2022-02-26T15:04:52Z</time>
      </trkpt>
      <trkpt lat="46.54947" lon="5.52983">
        <ele>514</ele>
        <time>2022-02-26T15:04:53Z</time>
      </trkpt>
      <trkpt lat="46.5495" lon="5.5297">
        <ele>513.8</ele>
        <time>2022-02-26T15:04:54Z</time>
      </trkpt>
      <trkpt lat="46.54956" lon="5.52941">
        <ele>513.2</ele>
        <time>2022-02-26T15:04:56Z</time>
      </trkpt>
      <trkpt lat="46.54963" lon="5.52913">
        <ele>512.8</ele>
        <time>2022-02-26T15:04:58Z</time>
      </trkpt>
      <trkpt lat="46.54966" lon="5.529">
        <ele>512.6</ele>
        <time>2022-02-26T15:04:59Z</time>
      </trkpt>
      <trkpt lat="46.54976" lon="5.52875">
        <ele>512</ele>
        <time>2022-02-26T15:05:01Z</time>
      </trkpt>
      <trkpt lat="46.54981" lon="5.52863">
        <ele>511.4</ele>
        <time>2022-02-26T15:05:02Z</time>
      </trkpt>
      <trkpt lat="46.55" lon="5.52833">
        <ele>510</ele>
        <time>2022-02-26T15:05:05Z</time>
      </trkpt>
      <trkpt lat="46.55036" lon="5.52781">
        <ele>509.2</ele>
        <time>2022-02-26T15:05:11Z</time>
      </trkpt>
      <trkpt lat="46.55063" lon="5.52724">
        <ele>509.4</ele>
        <time>2022-02-26T15:05:17Z</time>
      </trkpt>
      <trkpt lat="46.55093" lon="5.52653">
        <ele>509.8</ele>
        <time>2022-02-26T15:05:24Z</time>
      </trkpt>
      <trkpt lat="46.55096" lon="5.52644">
        <ele>510</ele>
        <time>2022-02-26T15:05:25Z</time>
      </trkpt>
      <trkpt lat="46.551" lon="5.52625">
        <ele>510.2</ele>
        <time>2022-02-26T15:05:27Z</time>
      </trkpt>
      <trkpt lat="46.55101" lon="5.52616">
        <ele>510.4</ele>
        <time>2022-02-26T15:05:28Z</time>
      </trkpt>
      <trkpt lat="46.55101" lon="5.52607">
        <ele>510.6</ele>
        <time>2022-02-26T15:05:29Z</time>
      </trkpt>
      <trkpt lat="46.55097" lon="5.52591">
        <ele>511</ele>
        <time>2022-02-26T15:05:31Z</time>
      </trkpt>
      <trkpt lat="46.55094" lon="5.52583">
        <ele>511.2</ele>
        <time>2022-02-26T15:05:32Z</time>
      </trkpt>
      <trkpt lat="46.55085" lon="5.52557">
        <ele>512.4</ele>
        <time>2022-02-26T15:05:36Z</time>
      </trkpt>
      <trkpt lat="46.55083" lon="5.52552">
        <ele>512.8</ele>
        <time>2022-02-26T15:05:37Z</time>
      </trkpt>
      <trkpt lat="46.55076" lon="5.52534">
        <ele>513.4</ele>
        <time>2022-02-26T15:05:40Z</time>
      </trkpt>
      <trkpt lat="46.55068" lon="5.52511">
        <ele>514.6</ele>
        <time>2022-02-26T15:05:44Z</time>
      </trkpt>
      <trkpt lat="46.55059" lon="5.52487">
        <ele>515.6</ele>
        <time>2022-02-26T15:05:48Z</time>
      </trkpt>
      <trkpt lat="46.5505" lon="5.52457">
        <ele>516.8</ele>
        <time>2022-02-26T15:05:53Z</time>
      </trkpt>
      <trkpt lat="46.55049" lon="5.52453">
        <ele>517</ele>
        <time>2022-02-26T15:05:54Z</time>
      </trkpt>
      <trkpt lat="46.55042" lon="5.52429">
        <ele>517.8</ele>
        <time>2022-02-26T15:05:58Z</time>
      </trkpt>
      <trkpt lat="46.55033" lon="5.52401">
        <ele>519.4</ele>
        <time>2022-02-26T15:06:03Z</time>
      </trkpt>
      <trkpt lat="46.55032" lon="5.52396">
        <ele>519.6</ele>
        <time>2022-02-26T15:06:04Z</time>
      </trkpt>
      <trkpt lat="46.55026" lon="5.52379">
        <ele>520.6</ele>
        <time>2022-02-26T15:06:07Z</time>
      </trkpt>
      <trkpt lat="46.55017" lon="5.52353">
        <ele>521.6</ele>
        <time>2022-02-26T15:06:12Z</time>
      </trkpt>
      <trkpt lat="46.5501" lon="5.52334">
        <ele>522.8</ele>
        <time>2022-02-26T15:06:16Z</time>
      </trkpt>
      <trkpt lat="46.55" lon="5.52315">
        <ele>524</ele>
        <time>2022-02-26T15:06:20Z</time>
      </trkpt>
      <trkpt lat="46.54986" lon="5.52295">
        <ele>525.2</ele>
        <time>2022-02-26T15:06:25Z</time>
      </trkpt>
      <trkpt lat="46.54967" lon="5.52276">
        <ele>526.2</ele>
        <time>2022-02-26T15:06:31Z</time>
      </trkpt>
      <trkpt lat="46.54964" lon="5.52274">
        <ele>526.6</ele>
        <time>2022-02-26T15:06:32Z</time>
      </trkpt>
      <trkpt lat="46.5496" lon="5.52272">
        <ele>526.6</ele>
        <time>2022-02-26T15:06:33Z</time>
      </trkpt>
      <trkpt lat="46.54948" lon="5.52265">
        <ele>527.6</ele>
        <time>2022-02-26T15:06:36Z</time>
      </trkpt>
      <trkpt lat="46.54937" lon="5.5226">
        <ele>528.6</ele>
        <time>2022-02-26T15:06:39Z</time>
      </trkpt>
      <trkpt lat="46.54932" lon="5.52258">
        <ele>529</ele>
        <time>2022-02-26T15:06:40Z</time>
      </trkpt>
      <trkpt lat="46.54914" lon="5.5225">
        <ele>530</ele>
        <time>2022-02-26T15:06:45Z</time>
      </trkpt>
      <trkpt lat="46.5489" lon="5.52242">
        <ele>531.2</ele>
        <time>2022-02-26T15:06:51Z</time>
      </trkpt>
      <trkpt lat="46.54882" lon="5.52239">
        <ele>531.4</ele>
        <time>2022-02-26T15:06:53Z</time>
      </trkpt>
      <trkpt lat="46.54867" lon="5.52233">
        <ele>532.4</ele>
        <time>2022-02-26T15:06:57Z</time>
      </trkpt>
      <trkpt lat="46.54847" lon="5.52224">
        <ele>533.4</ele>
        <time>2022-02-26T15:07:02Z</time>
      </trkpt>
      <trkpt lat="46.54843" lon="5.52222">
        <ele>533.6</ele>
        <time>2022-02-26T15:07:03Z</time>
      </trkpt>
      <trkpt lat="46.54824" lon="5.52211">
        <ele>534.6</ele>
        <time>2022-02-26T15:07:08Z</time>
      </trkpt>
      <trkpt lat="46.54809" lon="5.522">
        <ele>535.8</ele>
        <time>2022-02-26T15:07:12Z</time>
      </trkpt>
      <trkpt lat="46.54802" lon="5.52194">
        <ele>536.6</ele>
        <time>2022-02-26T15:07:14Z</time>
      </trkpt>
      <trkpt lat="46.54799" lon="5.52192">
        <ele>537</ele>
        <time>2022-02-26T15:07:15Z</time>
      </trkpt>
      <trkpt lat="46.54784" lon="5.5218">
        <ele>538.2</ele>
        <time>2022-02-26T15:07:19Z</time>
      </trkpt>
      <trkpt lat="46.54765" lon="5.52165">
        <ele>539.4</ele>
        <time>2022-02-26T15:07:24Z</time>
      </trkpt>
      <trkpt lat="46.54757" lon="5.5216">
        <ele>540</ele>
        <time>2022-02-26T15:07:26Z</time>
      </trkpt>
      <trkpt lat="46.54745" lon="5.52154">
        <ele>541</ele>
        <time>2022-02-26T15:07:29Z</time>
      </trkpt>
      <trkpt lat="46.54729" lon="5.52147">
        <ele>542</ele>
        <time>2022-02-26T15:07:33Z</time>
      </trkpt>
      <trkpt lat="46.54713" lon="5.52141">
        <ele>543.2</ele>
        <time>2022-02-26T15:07:37Z</time>
      </trkpt>
      <trkpt lat="46.54687" lon="5.52132">
        <ele>544.4</ele>
        <time>2022-02-26T15:07:43Z</time>
      </trkpt>
      <trkpt lat="46.54673" lon="5.52127">
        <ele>545.4</ele>
        <time>2022-02-26T15:07:46Z</time>
      </trkpt>
      <trkpt lat="46.54664" lon="5.52122">
        <ele>546</ele>
        <time>2022-02-26T15:07:48Z</time>
      </trkpt>
      <trkpt lat="46.5466" lon="5.5212">
        <ele>546.4</ele>
        <time>2022-02-26T15:07:49Z</time>
      </trkpt>
      <trkpt lat="46.54643" lon="5.52109">
        <ele>547.6</ele>
        <time>2022-02-26T15:07:53Z</time>
      </trkpt>
      <trkpt lat="46.5463" lon="5.52099">
        <ele>548.8</ele>
        <time>2022-02-26T15:07:56Z</time>
      </trkpt>
      <trkpt lat="46.54622" lon="5.52092">
        <ele>549.2</ele>
        <time>2022-02-26T15:07:58Z</time>
      </trkpt>
      <trkpt lat="46.54607" lon="5.52076">
        <ele>549.8</ele>
        <time>2022-02-26T15:08:02Z</time>
      </trkpt>
      <trkpt lat="46.54586" lon="5.52054">
        <ele>550.4</ele>
        <time>2022-02-26T15:08:07Z</time>
      </trkpt>
      <trkpt lat="46.54554" lon="5.52018">
        <ele>551</ele>
        <time>2022-02-26T15:08:14Z</time>
      </trkpt>
      <trkpt lat="46.54544" lon="5.52008">
        <ele>551</ele>
        <time>2022-02-26T15:08:16Z</time>
      </trkpt>
      <trkpt lat="46.54498" lon="5.51955">
        <ele>551.8</ele>
        <time>2022-02-26T15:08:25Z</time>
      </trkpt>
      <trkpt lat="46.54462" lon="5.51915">
        <ele>551.2</ele>
        <time>2022-02-26T15:08:31Z</time>
      </trkpt>
      <trkpt lat="46.54416" lon="5.51863">
        <ele>550.8</ele>
        <time>2022-02-26T15:08:39Z</time>
      </trkpt>
      <trkpt lat="46.5441" lon="5.51857">
        <ele>550.8</ele>
        <time>2022-02-26T15:08:40Z</time>
      </trkpt>
      <trkpt lat="46.54386" lon="5.51829">
        <ele>551.8</ele>
        <time>2022-02-26T15:08:45Z</time>
      </trkpt>
      <trkpt lat="46.54377" lon="5.51819">
        <ele>552</ele>
        <time>2022-02-26T15:08:47Z</time>
      </trkpt>
      <trkpt lat="46.54359" lon="5.518">
        <ele>553.2</ele>
        <time>2022-02-26T15:08:51Z</time>
      </trkpt>
      <trkpt lat="46.54334" lon="5.51782">
        <ele>554.4</ele>
        <time>2022-02-26T15:08:56Z</time>
      </trkpt>
      <trkpt lat="46.54328" lon="5.51779">
        <ele>554.6</ele>
        <time>2022-02-26T15:08:57Z</time>
      </trkpt>
      <trkpt lat="46.54313" lon="5.51773">
        <ele>555.6</ele>
        <time>2022-02-26T15:09:00Z</time>
      </trkpt>
      <trkpt lat="46.5429" lon="5.51765">
        <ele>556.6</ele>
        <time>2022-02-26T15:09:04Z</time>
      </trkpt>
      <trkpt lat="46.54278" lon="5.51762">
        <ele>557.2</ele>
        <time>2022-02-26T15:09:06Z</time>
      </trkpt>
      <trkpt lat="46.54273" lon="5.5176">
        <ele>557.4</ele>
        <time>2022-02-26T15:09:07Z</time>
      </trkpt>
      <trkpt lat="46.54263" lon="5.51754">
        <ele>558</ele>
        <time>2022-02-26T15:09:09Z</time>
      </trkpt>
      <trkpt lat="46.54253" lon="5.51748">
        <ele>558.2</ele>
        <time>2022-02-26T15:09:11Z</time>
      </trkpt>
      <trkpt lat="46.54227" lon="5.51727">
        <ele>559</ele>
        <time>2022-02-26T15:09:17Z</time>
      </trkpt>
      <trkpt lat="46.54223" lon="5.51722">
        <ele>559.2</ele>
        <time>2022-02-26T15:09:18Z</time>
      </trkpt>
      <trkpt lat="46.54203" lon="5.51699">
        <ele>559.8</ele>
        <time>2022-02-26T15:09:23Z</time>
      </trkpt>
      <trkpt lat="46.54195" lon="5.51689">
        <ele>560</ele>
        <time>2022-02-26T15:09:25Z</time>
      </trkpt>
      <trkpt lat="46.54179" lon="5.51672">
        <ele>560</ele>
        <time>2022-02-26T15:09:29Z</time>
      </trkpt>
      <trkpt lat="46.54168" lon="5.51657">
        <ele>559.8</ele>
        <time>2022-02-26T15:09:32Z</time>
      </trkpt>
      <trkpt lat="46.54132" lon="5.51612">
        <ele>560.2</ele>
        <time>2022-02-26T15:09:41Z</time>
      </trkpt>
      <trkpt lat="46.54128" lon="5.51607">
        <ele>560.2</ele>
        <time>2022-02-26T15:09:42Z</time>
      </trkpt>
      <trkpt lat="46.54088" lon="5.51557">
        <ele>560.4</ele>
        <time>2022-02-26T15:09:51Z</time>
      </trkpt>
      <trkpt lat="46.54065" lon="5.51528">
        <ele>560</ele>
        <time>2022-02-26T15:09:56Z</time>
      </trkpt>
      <trkpt lat="46.54056" lon="5.51515">
        <ele>559.8</ele>
        <time>2022-02-26T15:09:58Z</time>
      </trkpt>
      <trkpt lat="46.54012" lon="5.51463">
        <ele>559.2</ele>
        <time>2022-02-26T15:10:07Z</time>
      </trkpt>
      <trkpt lat="46.54007" lon="5.51459">
        <ele>559.4</ele>
        <time>2022-02-26T15:10:08Z</time>
      </trkpt>
      <trkpt lat="46.54003" lon="5.51454">
        <ele>559.4</ele>
        <time>2022-02-26T15:10:09Z</time>
      </trkpt>
      <trkpt lat="46.53988" lon="5.51433">
        <ele>559.8</ele>
        <time>2022-02-26T15:10:13Z</time>
      </trkpt>
      <trkpt lat="46.53962" lon="5.51401">
        <ele>561.6</ele>
        <time>2022-02-26T15:10:20Z</time>
      </trkpt>
      <trkpt lat="46.53951" lon="5.51388">
        <ele>563</ele>
        <time>2022-02-26T15:10:23Z</time>
      </trkpt>
      <trkpt lat="46.53927" lon="5.51362">
        <ele>564.2</ele>
        <time>2022-02-26T15:10:29Z</time>
      </trkpt>
      <trkpt lat="46.53915" lon="5.5135">
        <ele>565.4</ele>
        <time>2022-02-26T15:10:32Z</time>
      </trkpt>
      <trkpt lat="46.5389" lon="5.51324">
        <ele>566.6</ele>
        <time>2022-02-26T15:10:38Z</time>
      </trkpt>
      <trkpt lat="46.53886" lon="5.5132">
        <ele>566.8</ele>
        <time>2022-02-26T15:10:39Z</time>
      </trkpt>
      <trkpt lat="46.53854" lon="5.51285">
        <ele>567.8</ele>
        <time>2022-02-26T15:10:47Z</time>
      </trkpt>
      <trkpt lat="46.53842" lon="5.51272">
        <ele>568.2</ele>
        <time>2022-02-26T15:10:50Z</time>
      </trkpt>
      <trkpt lat="46.53826" lon="5.51253">
        <ele>568.8</ele>
        <time>2022-02-26T15:10:54Z</time>
      </trkpt>
      <trkpt lat="46.53811" lon="5.5123">
        <ele>569.2</ele>
        <time>2022-02-26T15:10:58Z</time>
      </trkpt>
      <trkpt lat="46.53803" lon="5.51216">
        <ele>569.4</ele>
        <time>2022-02-26T15:11:00Z</time>
      </trkpt>
      <trkpt lat="46.53791" lon="5.51192">
        <ele>569.4</ele>
        <time>2022-02-26T15:11:03Z</time>
      </trkpt>
      <trkpt lat="46.53767" lon="5.51144">
        <ele>568.6</ele>
        <time>2022-02-26T15:11:08Z</time>
      </trkpt>
      <trkpt lat="46.53756" lon="5.51122">
        <ele>567.8</ele>
        <time>2022-02-26T15:11:10Z</time>
      </trkpt>
      <trkpt lat="46.53739" lon="5.51087">
        <ele>566.8</ele>
        <time>2022-02-26T15:11:13Z</time>
      </trkpt>
      <trkpt lat="46.53733" lon="5.51075">
        <ele>566.6</ele>
        <time>2022-02-26T15:11:14Z</time>
      </trkpt>
      <trkpt lat="46.53715" lon="5.51038">
        <ele>565.2</ele>
        <time>2022-02-26T15:11:17Z</time>
      </trkpt>
      <trkpt lat="46.53696" lon="5.51001">
        <ele>563.8</ele>
        <time>2022-02-26T15:11:20Z</time>
      </trkpt>
      <trkpt lat="46.53689" lon="5.50988">
        <ele>563.6</ele>
        <time>2022-02-26T15:11:21Z</time>
      </trkpt>
      <trkpt lat="46.53676" lon="5.50961">
        <ele>562.4</ele>
        <time>2022-02-26T15:11:23Z</time>
      </trkpt>
      <trkpt lat="46.53656" lon="5.50919">
        <ele>561</ele>
        <time>2022-02-26T15:11:26Z</time>
      </trkpt>
      <trkpt lat="46.53635" lon="5.50877">
        <ele>559.4</ele>
        <time>2022-02-26T15:11:29Z</time>
      </trkpt>
      <trkpt lat="46.53621" lon="5.5085">
        <ele>558.4</ele>
        <time>2022-02-26T15:11:31Z</time>
      </trkpt>
      <trkpt lat="46.53594" lon="5.50794">
        <ele>557.2</ele>
        <time>2022-02-26T15:11:35Z</time>
      </trkpt>
      <trkpt lat="46.5358" lon="5.50767">
        <ele>555.8</ele>
        <time>2022-02-26T15:11:37Z</time>
      </trkpt>
      <trkpt lat="46.53573" lon="5.50753">
        <ele>555.2</ele>
        <time>2022-02-26T15:11:38Z</time>
      </trkpt>
      <trkpt lat="46.5356" lon="5.50726">
        <ele>554.4</ele>
        <time>2022-02-26T15:11:40Z</time>
      </trkpt>
      <trkpt lat="46.53533" lon="5.50671">
        <ele>553.4</ele>
        <time>2022-02-26T15:11:44Z</time>
      </trkpt>
      <trkpt lat="46.53499" lon="5.50602">
        <ele>552.2</ele>
        <time>2022-02-26T15:11:49Z</time>
      </trkpt>
      <trkpt lat="46.53472" lon="5.50548">
        <ele>551</ele>
        <time>2022-02-26T15:11:53Z</time>
      </trkpt>
      <trkpt lat="46.53441" lon="5.50484">
        <ele>550</ele>
        <time>2022-02-26T15:11:58Z</time>
      </trkpt>
      <trkpt lat="46.53435" lon="5.50471">
        <ele>550</ele>
        <time>2022-02-26T15:11:59Z</time>
      </trkpt>
      <trkpt lat="46.53399" lon="5.504">
        <ele>550</ele>
        <time>2022-02-26T15:12:05Z</time>
      </trkpt>
      <trkpt lat="46.53393" lon="5.50388">
        <ele>550</ele>
        <time>2022-02-26T15:12:06Z</time>
      </trkpt>
      <trkpt lat="46.53357" lon="5.50316">
        <ele>550.2</ele>
        <time>2022-02-26T15:12:12Z</time>
      </trkpt>
      <trkpt lat="46.53319" lon="5.5024">
        <ele>550.2</ele>
        <time>2022-02-26T15:12:18Z</time>
      </trkpt>
      <trkpt lat="46.53293" lon="5.50187">
        <ele>549.2</ele>
        <time>2022-02-26T15:12:22Z</time>
      </trkpt>
      <trkpt lat="46.53286" lon="5.50173">
        <ele>548.8</ele>
        <time>2022-02-26T15:12:23Z</time>
      </trkpt>
      <trkpt lat="46.53266" lon="5.50132">
        <ele>547</ele>
        <time>2022-02-26T15:12:26Z</time>
      </trkpt>
      <trkpt lat="46.53252" lon="5.50104">
        <ele>545.8</ele>
        <time>2022-02-26T15:12:28Z</time>
      </trkpt>
      <trkpt lat="46.53237" lon="5.50074">
        <ele>544.8</ele>
        <time>2022-02-26T15:12:30Z</time>
      </trkpt>
      <trkpt lat="46.5323" lon="5.50058">
        <ele>543.6</ele>
        <time>2022-02-26T15:12:31Z</time>
      </trkpt>
      <trkpt lat="46.53214" lon="5.50027">
        <ele>542.2</ele>
        <time>2022-02-26T15:12:33Z</time>
      </trkpt>
      <trkpt lat="46.53198" lon="5.49995">
        <ele>541</ele>
        <time>2022-02-26T15:12:35Z</time>
      </trkpt>
      <trkpt lat="46.5319" lon="5.49979">
        <ele>540.2</ele>
        <time>2022-02-26T15:12:36Z</time>
      </trkpt>
      <trkpt lat="46.53183" lon="5.49963">
        <ele>537.8</ele>
        <time>2022-02-26T15:12:37Z</time>
      </trkpt>
      <trkpt lat="46.53175" lon="5.49946">
        <ele>536.6</ele>
        <time>2022-02-26T15:12:38Z</time>
      </trkpt>
      <trkpt lat="46.53166" lon="5.4993">
        <ele>535.4</ele>
        <time>2022-02-26T15:12:39Z</time>
      </trkpt>
      <trkpt lat="46.5315" lon="5.49897">
        <ele>534</ele>
        <time>2022-02-26T15:12:41Z</time>
      </trkpt>
      <trkpt lat="46.53134" lon="5.49865">
        <ele>532.8</ele>
        <time>2022-02-26T15:12:43Z</time>
      </trkpt>
      <trkpt lat="46.53113" lon="5.49821">
        <ele>531.2</ele>
        <time>2022-02-26T15:12:46Z</time>
      </trkpt>
      <trkpt lat="46.53097" lon="5.49789">
        <ele>530</ele>
        <time>2022-02-26T15:12:48Z</time>
      </trkpt>
      <trkpt lat="46.53084" lon="5.49761">
        <ele>529.2</ele>
        <time>2022-02-26T15:12:50Z</time>
      </trkpt>
      <trkpt lat="46.53078" lon="5.4975">
        <ele>529</ele>
        <time>2022-02-26T15:12:51Z</time>
      </trkpt>
      <trkpt lat="46.53048" lon="5.49686">
        <ele>528.4</ele>
        <time>2022-02-26T15:12:56Z</time>
      </trkpt>
      <trkpt lat="46.53019" lon="5.4963">
        <ele>528.6</ele>
        <time>2022-02-26T15:13:01Z</time>
      </trkpt>
      <trkpt lat="46.52985" lon="5.49583">
        <ele>530</ele>
        <time>2022-02-26T15:13:07Z</time>
      </trkpt>
      <trkpt lat="46.52979" lon="5.49576">
        <ele>530.4</ele>
        <time>2022-02-26T15:13:08Z</time>
      </trkpt>
      <trkpt lat="46.52967" lon="5.49562">
        <ele>531.4</ele>
        <time>2022-02-26T15:13:10Z</time>
      </trkpt>
      <trkpt lat="46.5295" lon="5.49542">
        <ele>532.6</ele>
        <time>2022-02-26T15:13:13Z</time>
      </trkpt>
      <trkpt lat="46.52932" lon="5.49523">
        <ele>533.6</ele>
        <time>2022-02-26T15:13:16Z</time>
      </trkpt>
      <trkpt lat="46.52926" lon="5.49516">
        <ele>533.8</ele>
        <time>2022-02-26T15:13:17Z</time>
      </trkpt>
      <trkpt lat="46.52891" lon="5.49471">
        <ele>535</ele>
        <time>2022-02-26T15:13:23Z</time>
      </trkpt>
      <trkpt lat="46.5288" lon="5.49455">
        <ele>535</ele>
        <time>2022-02-26T15:13:25Z</time>
      </trkpt>
      <trkpt lat="46.52841" lon="5.49397">
        <ele>535</ele>
        <time>2022-02-26T15:13:32Z</time>
      </trkpt>
      <trkpt lat="46.5283" lon="5.49381">
        <ele>535</ele>
        <time>2022-02-26T15:13:34Z</time>
      </trkpt>
      <trkpt lat="46.52791" lon="5.49324">
        <ele>535.2</ele>
        <time>2022-02-26T15:13:41Z</time>
      </trkpt>
      <trkpt lat="46.52769" lon="5.4929">
        <ele>535.2</ele>
        <time>2022-02-26T15:13:45Z</time>
      </trkpt>
      <trkpt lat="46.5273" lon="5.49232">
        <ele>535.2</ele>
        <time>2022-02-26T15:13:52Z</time>
      </trkpt>
      <trkpt lat="46.52719" lon="5.49216">
        <ele>535.6</ele>
        <time>2022-02-26T15:13:54Z</time>
      </trkpt>
      <trkpt lat="46.52699" lon="5.49186">
        <ele>536.2</ele>
        <time>2022-02-26T15:13:58Z</time>
      </trkpt>
      <trkpt lat="46.52679" lon="5.49157">
        <ele>537.2</ele>
        <time>2022-02-26T15:14:02Z</time>
      </trkpt>
      <trkpt lat="46.52675" lon="5.49151">
        <ele>537.2</ele>
        <time>2022-02-26T15:14:03Z</time>
      </trkpt>
      <trkpt lat="46.52653" lon="5.49119">
        <ele>538.4</ele>
        <time>2022-02-26T15:14:08Z</time>
      </trkpt>
      <trkpt lat="46.52636" lon="5.49093">
        <ele>539.4</ele>
        <time>2022-02-26T15:14:12Z</time>
      </trkpt>
      <trkpt lat="46.52619" lon="5.49068">
        <ele>540.8</ele>
        <time>2022-02-26T15:14:16Z</time>
      </trkpt>
      <trkpt lat="46.5261" lon="5.49055">
        <ele>541.2</ele>
        <time>2022-02-26T15:14:18Z</time>
      </trkpt>
      <trkpt lat="46.52595" lon="5.49015">
        <ele>541.8</ele>
        <time>2022-02-26T15:14:23Z</time>
      </trkpt>
      <trkpt lat="46.5258" lon="5.48936">
        <ele>542</ele>
        <time>2022-02-26T15:14:31Z</time>
      </trkpt>
      <trkpt lat="46.52566" lon="5.48852">
        <ele>541.2</ele>
        <time>2022-02-26T15:14:39Z</time>
      </trkpt>
      <trkpt lat="46.52565" lon="5.4883">
        <ele>541.2</ele>
        <time>2022-02-26T15:14:41Z</time>
      </trkpt>
      <trkpt lat="46.52567" lon="5.48808">
        <ele>540.8</ele>
        <time>2022-02-26T15:14:43Z</time>
      </trkpt>
      <trkpt lat="46.5257" lon="5.48788">
        <ele>540.8</ele>
        <time>2022-02-26T15:14:45Z</time>
      </trkpt>
      <trkpt lat="46.5258" lon="5.4875">
        <ele>540.6</ele>
        <time>2022-02-26T15:14:49Z</time>
      </trkpt>
      <trkpt lat="46.52595" lon="5.48673">
        <ele>540.6</ele>
        <time>2022-02-26T15:14:57Z</time>
      </trkpt>
      <trkpt lat="46.52597" lon="5.48663">
        <ele>540.6</ele>
        <time>2022-02-26T15:14:58Z</time>
      </trkpt>
      <trkpt lat="46.52607" lon="5.48605">
        <ele>540.6</ele>
        <time>2022-02-26T15:15:03Z</time>
      </trkpt>
      <trkpt lat="46.52612" lon="5.48584">
        <ele>540.4</ele>
        <time>2022-02-26T15:15:05Z</time>
      </trkpt>
      <trkpt lat="46.52621" lon="5.48565">
        <ele>539.8</ele>
        <time>2022-02-26T15:15:07Z</time>
      </trkpt>
      <trkpt lat="46.52638" lon="5.48543">
        <ele>539</ele>
        <time>2022-02-26T15:15:10Z</time>
      </trkpt>
      <trkpt lat="46.52643" lon="5.48534">
        <ele>538.8</ele>
        <time>2022-02-26T15:15:11Z</time>
      </trkpt>
      <trkpt lat="46.52646" lon="5.48525">
        <ele>538.6</ele>
        <time>2022-02-26T15:15:12Z</time>
      </trkpt>
      <trkpt lat="46.52647" lon="5.48503">
        <ele>538.2</ele>
        <time>2022-02-26T15:15:14Z</time>
      </trkpt>
      <trkpt lat="46.5264" lon="5.48481">
        <ele>538</ele>
        <time>2022-02-26T15:15:16Z</time>
      </trkpt>
      <trkpt lat="46.52635" lon="5.4847">
        <ele>537.8</ele>
        <time>2022-02-26T15:15:17Z</time>
      </trkpt>
      <trkpt lat="46.52626" lon="5.48446">
        <ele>537.4</ele>
        <time>2022-02-26T15:15:19Z</time>
      </trkpt>
      <trkpt lat="46.52618" lon="5.48418">
        <ele>536.8</ele>
        <time>2022-02-26T15:15:21Z</time>
      </trkpt>
      <trkpt lat="46.52614" lon="5.48388">
        <ele>536</ele>
        <time>2022-02-26T15:15:23Z</time>
      </trkpt>
      <trkpt lat="46.52613" lon="5.48373">
        <ele>535</ele>
        <time>2022-02-26T15:15:24Z</time>
      </trkpt>
      <trkpt lat="46.52612" lon="5.48358">
        <ele>534.6</ele>
        <time>2022-02-26T15:15:25Z</time>
      </trkpt>
      <trkpt lat="46.52609" lon="5.48327">
        <ele>533.6</ele>
        <time>2022-02-26T15:15:27Z</time>
      </trkpt>
      <trkpt lat="46.52602" lon="5.48298">
        <ele>531.8</ele>
        <time>2022-02-26T15:15:29Z</time>
      </trkpt>
      <trkpt lat="46.52597" lon="5.48284">
        <ele>531.2</ele>
        <time>2022-02-26T15:15:30Z</time>
      </trkpt>
      <trkpt lat="46.5259" lon="5.48271">
        <ele>530.4</ele>
        <time>2022-02-26T15:15:31Z</time>
      </trkpt>
      <trkpt lat="46.52575" lon="5.48248">
        <ele>529.4</ele>
        <time>2022-02-26T15:15:33Z</time>
      </trkpt>
      <trkpt lat="46.52567" lon="5.4824">
        <ele>529.2</ele>
        <time>2022-02-26T15:15:34Z</time>
      </trkpt>
      <trkpt lat="46.52556" lon="5.48229">
        <ele>528.6</ele>
        <time>2022-02-26T15:15:35Z</time>
      </trkpt>
      <trkpt lat="46.52536" lon="5.48214">
        <ele>527.6</ele>
        <time>2022-02-26T15:15:37Z</time>
      </trkpt>
      <trkpt lat="46.52514" lon="5.48201">
        <ele>526.4</ele>
        <time>2022-02-26T15:15:39Z</time>
      </trkpt>
      <trkpt lat="46.52492" lon="5.48189">
        <ele>525</ele>
        <time>2022-02-26T15:15:41Z</time>
      </trkpt>
      <trkpt lat="46.52481" lon="5.48183">
        <ele>524</ele>
        <time>2022-02-26T15:15:42Z</time>
      </trkpt>
      <trkpt lat="46.52458" lon="5.48175">
        <ele>522.8</ele>
        <time>2022-02-26T15:15:44Z</time>
      </trkpt>
      <trkpt lat="46.52435" lon="5.4817">
        <ele>521.6</ele>
        <time>2022-02-26T15:15:46Z</time>
      </trkpt>
      <trkpt lat="46.52401" lon="5.48169">
        <ele>520</ele>
        <time>2022-02-26T15:15:49Z</time>
      </trkpt>
      <trkpt lat="46.52391" lon="5.4817">
        <ele>519.8</ele>
        <time>2022-02-26T15:15:50Z</time>
      </trkpt>
      <trkpt lat="46.52382" lon="5.48172">
        <ele>519</ele>
        <time>2022-02-26T15:15:51Z</time>
      </trkpt>
      <trkpt lat="46.52367" lon="5.48172">
        <ele>518</ele>
        <time>2022-02-26T15:15:53Z</time>
      </trkpt>
      <trkpt lat="46.52362" lon="5.48169">
        <ele>517.6</ele>
        <time>2022-02-26T15:15:54Z</time>
      </trkpt>
      <trkpt lat="46.52359" lon="5.48164">
        <ele>517.4</ele>
        <time>2022-02-26T15:15:55Z</time>
      </trkpt>
      <trkpt lat="46.52359" lon="5.48157">
        <ele>516.6</ele>
        <time>2022-02-26T15:15:56Z</time>
      </trkpt>
      <trkpt lat="46.52362" lon="5.48152">
        <ele>516.2</ele>
        <time>2022-02-26T15:15:57Z</time>
      </trkpt>
      <trkpt lat="46.52375" lon="5.48147">
        <ele>515.4</ele>
        <time>2022-02-26T15:15:59Z</time>
      </trkpt>
      <trkpt lat="46.52384" lon="5.48146">
        <ele>514.8</ele>
        <time>2022-02-26T15:16:00Z</time>
      </trkpt>
      <trkpt lat="46.52392" lon="5.48144">
        <ele>514</ele>
        <time>2022-02-26T15:16:01Z</time>
      </trkpt>
      <trkpt lat="46.52409" lon="5.4814">
        <ele>513</ele>
        <time>2022-02-26T15:16:03Z</time>
      </trkpt>
      <trkpt lat="46.52427" lon="5.48135">
        <ele>511.2</ele>
        <time>2022-02-26T15:16:05Z</time>
      </trkpt>
      <trkpt lat="46.52445" lon="5.48129">
        <ele>509.4</ele>
        <time>2022-02-26T15:16:07Z</time>
      </trkpt>
      <trkpt lat="46.52463" lon="5.48124">
        <ele>508</ele>
        <time>2022-02-26T15:16:09Z</time>
      </trkpt>
      <trkpt lat="46.52491" lon="5.48116">
        <ele>506</ele>
        <time>2022-02-26T15:16:12Z</time>
      </trkpt>
      <trkpt lat="46.52517" lon="5.48108">
        <ele>504.4</ele>
        <time>2022-02-26T15:16:15Z</time>
      </trkpt>
      <trkpt lat="46.52535" lon="5.48106">
        <ele>502.8</ele>
        <time>2022-02-26T15:16:17Z</time>
      </trkpt>
      <trkpt lat="46.52544" lon="5.48106">
        <ele>502.6</ele>
        <time>2022-02-26T15:16:18Z</time>
      </trkpt>
      <trkpt lat="46.52562" lon="5.48109">
        <ele>501.6</ele>
        <time>2022-02-26T15:16:20Z</time>
      </trkpt>
      <trkpt lat="46.52589" lon="5.48113">
        <ele>500</ele>
        <time>2022-02-26T15:16:23Z</time>
      </trkpt>
      <trkpt lat="46.52599" lon="5.48115">
        <ele>499.8</ele>
        <time>2022-02-26T15:16:24Z</time>
      </trkpt>
      <trkpt lat="46.52618" lon="5.48119">
        <ele>498.6</ele>
        <time>2022-02-26T15:16:26Z</time>
      </trkpt>
      <trkpt lat="46.52657" lon="5.48127">
        <ele>497.6</ele>
        <time>2022-02-26T15:16:30Z</time>
      </trkpt>
      <trkpt lat="46.52677" lon="5.48132">
        <ele>495.8</ele>
        <time>2022-02-26T15:16:32Z</time>
      </trkpt>
      <trkpt lat="46.52697" lon="5.48136">
        <ele>494.2</ele>
        <time>2022-02-26T15:16:34Z</time>
      </trkpt>
      <trkpt lat="46.52706" lon="5.48138">
        <ele>492.6</ele>
        <time>2022-02-26T15:16:35Z</time>
      </trkpt>
      <trkpt lat="46.52724" lon="5.48141">
        <ele>491.2</ele>
        <time>2022-02-26T15:16:37Z</time>
      </trkpt>
      <trkpt lat="46.52732" lon="5.48143">
        <ele>490.8</ele>
        <time>2022-02-26T15:16:38Z</time>
      </trkpt>
      <trkpt lat="46.52755" lon="5.48146">
        <ele>490.2</ele>
        <time>2022-02-26T15:16:41Z</time>
      </trkpt>
      <trkpt lat="46.52785" lon="5.4815">
        <ele>490</ele>
        <time>2022-02-26T15:16:45Z</time>
      </trkpt>
      <trkpt lat="46.528" lon="5.4815">
        <ele>490.4</ele>
        <time>2022-02-26T15:16:47Z</time>
      </trkpt>
      <trkpt lat="46.52807" lon="5.48148">
        <ele>490.4</ele>
        <time>2022-02-26T15:16:48Z</time>
      </trkpt>
      <trkpt lat="46.52813" lon="5.48142">
        <ele>490.2</ele>
        <time>2022-02-26T15:16:49Z</time>
      </trkpt>
      <trkpt lat="46.52825" lon="5.48127">
        <ele>490.2</ele>
        <time>2022-02-26T15:16:51Z</time>
      </trkpt>
      <trkpt lat="46.5283" lon="5.48118">
        <ele>490</ele>
        <time>2022-02-26T15:16:52Z</time>
      </trkpt>
      <trkpt lat="46.52842" lon="5.48086">
        <ele>489.4</ele>
        <time>2022-02-26T15:16:55Z</time>
      </trkpt>
      <trkpt lat="46.52845" lon="5.48075">
        <ele>489.2</ele>
        <time>2022-02-26T15:16:56Z</time>
      </trkpt>
      <trkpt lat="46.52852" lon="5.48051">
        <ele>488</ele>
        <time>2022-02-26T15:16:58Z</time>
      </trkpt>
      <trkpt lat="46.52859" lon="5.48027">
        <ele>487.4</ele>
        <time>2022-02-26T15:17:00Z</time>
      </trkpt>
      <trkpt lat="46.52862" lon="5.48016">
        <ele>487</ele>
        <time>2022-02-26T15:17:01Z</time>
      </trkpt>
      <trkpt lat="46.52868" lon="5.47995">
        <ele>485.8</ele>
        <time>2022-02-26T15:17:03Z</time>
      </trkpt>
      <trkpt lat="46.52874" lon="5.47978">
        <ele>485.2</ele>
        <time>2022-02-26T15:17:05Z</time>
      </trkpt>
      <trkpt lat="46.52877" lon="5.47963">
        <ele>484.6</ele>
        <time>2022-02-26T15:17:07Z</time>
      </trkpt>
      <trkpt lat="46.52879" lon="5.47952">
        <ele>484.2</ele>
        <time>2022-02-26T15:17:09Z</time>
      </trkpt>
      <trkpt lat="46.52879" lon="5.47948">
        <ele>483.6</ele>
        <time>2022-02-26T15:17:12Z</time>
      </trkpt>
      <trkpt lat="46.52879" lon="5.47948">
        <ele>483.6</ele>
        <time>2022-02-26T15:17:13Z</time>
      </trkpt>
      <trkpt lat="46.52878" lon="5.4794">
        <ele>483.4</ele>
        <time>2022-02-26T15:17:17Z</time>
      </trkpt>
      <trkpt lat="46.52874" lon="5.47938">
        <ele>483.2</ele>
        <time>2022-02-26T15:17:19Z</time>
      </trkpt>
      <trkpt lat="46.52855" lon="5.47931">
        <ele>483</ele>
        <time>2022-02-26T15:17:26Z</time>
      </trkpt>
      <trkpt lat="46.52832" lon="5.47924">
        <ele>482.8</ele>
        <time>2022-02-26T15:17:33Z</time>
      </trkpt>
      <trkpt lat="46.52809" lon="5.47916">
        <ele>482.8</ele>
        <time>2022-02-26T15:17:38Z</time>
      </trkpt>
      <trkpt lat="46.52782" lon="5.47907">
        <ele>482.4</ele>
        <time>2022-02-26T15:17:43Z</time>
      </trkpt>
      <trkpt lat="46.52776" lon="5.47905">
        <ele>482.4</ele>
        <time>2022-02-26T15:17:44Z</time>
      </trkpt>
      <trkpt lat="46.52731" lon="5.4789">
        <ele>482.2</ele>
        <time>2022-02-26T15:17:52Z</time>
      </trkpt>
      <trkpt lat="46.5268" lon="5.47873">
        <ele>482.2</ele>
        <time>2022-02-26T15:18:01Z</time>
      </trkpt>
      <trkpt lat="46.52628" lon="5.47853">
        <ele>481.4</ele>
        <time>2022-02-26T15:18:10Z</time>
      </trkpt>
      <trkpt lat="46.52621" lon="5.47851">
        <ele>481.4</ele>
        <time>2022-02-26T15:18:11Z</time>
      </trkpt>
      <trkpt lat="46.52585" lon="5.47838">
        <ele>481</ele>
        <time>2022-02-26T15:18:16Z</time>
      </trkpt>
      <trkpt lat="46.52546" lon="5.47824">
        <ele>480.2</ele>
        <time>2022-02-26T15:18:21Z</time>
      </trkpt>
      <trkpt lat="46.52531" lon="5.47818">
        <ele>480</ele>
        <time>2022-02-26T15:18:23Z</time>
      </trkpt>
      <trkpt lat="46.52496" lon="5.47806">
        <ele>479.2</ele>
        <time>2022-02-26T15:18:27Z</time>
      </trkpt>
      <trkpt lat="46.52455" lon="5.4779">
        <ele>478.4</ele>
        <time>2022-02-26T15:18:32Z</time>
      </trkpt>
      <trkpt lat="46.52429" lon="5.47781">
        <ele>478.4</ele>
        <time>2022-02-26T15:18:35Z</time>
      </trkpt>
      <trkpt lat="46.52371" lon="5.47756">
        <ele>477.8</ele>
        <time>2022-02-26T15:18:42Z</time>
      </trkpt>
      <trkpt lat="46.52329" lon="5.47736">
        <ele>477.2</ele>
        <time>2022-02-26T15:18:47Z</time>
      </trkpt>
      <trkpt lat="46.52304" lon="5.47724">
        <ele>476.8</ele>
        <time>2022-02-26T15:18:50Z</time>
      </trkpt>
      <trkpt lat="46.52255" lon="5.47701">
        <ele>476.2</ele>
        <time>2022-02-26T15:18:56Z</time>
      </trkpt>
      <trkpt lat="46.52207" lon="5.47677">
        <ele>476.2</ele>
        <time>2022-02-26T15:19:02Z</time>
      </trkpt>
      <trkpt lat="46.52151" lon="5.47648">
        <ele>476.2</ele>
        <time>2022-02-26T15:19:09Z</time>
      </trkpt>
      <trkpt lat="46.52136" lon="5.4764">
        <ele>476.4</ele>
        <time>2022-02-26T15:19:11Z</time>
      </trkpt>
      <trkpt lat="46.52088" lon="5.4762">
        <ele>476.6</ele>
        <time>2022-02-26T15:19:17Z</time>
      </trkpt>
      <trkpt lat="46.5203" lon="5.47597">
        <ele>476.4</ele>
        <time>2022-02-26T15:19:24Z</time>
      </trkpt>
      <trkpt lat="46.51998" lon="5.47585">
        <ele>476</ele>
        <time>2022-02-26T15:19:28Z</time>
      </trkpt>
      <trkpt lat="46.51939" lon="5.4756">
        <ele>475.2</ele>
        <time>2022-02-26T15:19:35Z</time>
      </trkpt>
      <trkpt lat="46.5193" lon="5.47557">
        <ele>475.2</ele>
        <time>2022-02-26T15:19:36Z</time>
      </trkpt>
      <trkpt lat="46.51882" lon="5.47537">
        <ele>475</ele>
        <time>2022-02-26T15:19:42Z</time>
      </trkpt>
      <trkpt lat="46.51828" lon="5.47516">
        <ele>474.8</ele>
        <time>2022-02-26T15:19:49Z</time>
      </trkpt>
      <trkpt lat="46.5182" lon="5.47512">
        <ele>474.8</ele>
        <time>2022-02-26T15:19:50Z</time>
      </trkpt>
      <trkpt lat="46.51764" lon="5.4749">
        <ele>475</ele>
        <time>2022-02-26T15:19:57Z</time>
      </trkpt>
      <trkpt lat="46.51732" lon="5.47477">
        <ele>474.8</ele>
        <time>2022-02-26T15:20:01Z</time>
      </trkpt>
      <trkpt lat="46.51675" lon="5.47454">
        <ele>474.2</ele>
        <time>2022-02-26T15:20:08Z</time>
      </trkpt>
      <trkpt lat="46.51659" lon="5.47447">
        <ele>474.2</ele>
        <time>2022-02-26T15:20:10Z</time>
      </trkpt>
      <trkpt lat="46.51626" lon="5.47433">
        <ele>473.8</ele>
        <time>2022-02-26T15:20:14Z</time>
      </trkpt>
      <trkpt lat="46.51576" lon="5.47413">
        <ele>473.2</ele>
        <time>2022-02-26T15:20:20Z</time>
      </trkpt>
      <trkpt lat="46.51517" lon="5.4739">
        <ele>472.6</ele>
        <time>2022-02-26T15:20:27Z</time>
      </trkpt>
      <trkpt lat="46.5146" lon="5.47367">
        <ele>472.4</ele>
        <time>2022-02-26T15:20:34Z</time>
      </trkpt>
      <trkpt lat="46.51436" lon="5.47358">
        <ele>472.4</ele>
        <time>2022-02-26T15:20:37Z</time>
      </trkpt>
      <trkpt lat="46.51377" lon="5.47334">
        <ele>472.6</ele>
        <time>2022-02-26T15:20:44Z</time>
      </trkpt>
      <trkpt lat="46.51368" lon="5.47331">
        <ele>472.6</ele>
        <time>2022-02-26T15:20:45Z</time>
      </trkpt>
      <trkpt lat="46.51308" lon="5.47307">
        <ele>472.6</ele>
        <time>2022-02-26T15:20:52Z</time>
      </trkpt>
      <trkpt lat="46.51291" lon="5.473">
        <ele>472.6</ele>
        <time>2022-02-26T15:20:54Z</time>
      </trkpt>
      <trkpt lat="46.51235" lon="5.47278">
        <ele>472.4</ele>
        <time>2022-02-26T15:21:01Z</time>
      </trkpt>
      <trkpt lat="46.5122" lon="5.47272">
        <ele>472.6</ele>
        <time>2022-02-26T15:21:03Z</time>
      </trkpt>
      <trkpt lat="46.51164" lon="5.4725">
        <ele>472.8</ele>
        <time>2022-02-26T15:21:10Z</time>
      </trkpt>
      <trkpt lat="46.5114" lon="5.47241">
        <ele>472.6</ele>
        <time>2022-02-26T15:21:13Z</time>
      </trkpt>
      <trkpt lat="46.51084" lon="5.47222">
        <ele>472.4</ele>
        <time>2022-02-26T15:21:20Z</time>
      </trkpt>
      <trkpt lat="46.51045" lon="5.47208">
        <ele>472.2</ele>
        <time>2022-02-26T15:21:25Z</time>
      </trkpt>
      <trkpt lat="46.51022" lon="5.47199">
        <ele>472</ele>
        <time>2022-02-26T15:21:28Z</time>
      </trkpt>
      <trkpt lat="46.50975" lon="5.4718">
        <ele>472</ele>
        <time>2022-02-26T15:21:34Z</time>
      </trkpt>
      <trkpt lat="46.5092" lon="5.47154">
        <ele>472.4</ele>
        <time>2022-02-26T15:21:41Z</time>
      </trkpt>
      <trkpt lat="46.50897" lon="5.47143">
        <ele>472.2</ele>
        <time>2022-02-26T15:21:44Z</time>
      </trkpt>
      <trkpt lat="46.50843" lon="5.4712">
        <ele>472.2</ele>
        <time>2022-02-26T15:21:51Z</time>
      </trkpt>
      <trkpt lat="46.50827" lon="5.47113">
        <ele>472.4</ele>
        <time>2022-02-26T15:21:53Z</time>
      </trkpt>
      <trkpt lat="46.50771" lon="5.47089">
        <ele>472.4</ele>
        <time>2022-02-26T15:22:00Z</time>
      </trkpt>
      <trkpt lat="46.50745" lon="5.47078">
        <ele>471.6</ele>
        <time>2022-02-26T15:22:03Z</time>
      </trkpt>
      <trkpt lat="46.50685" lon="5.47055">
        <ele>471.2</ele>
        <time>2022-02-26T15:22:10Z</time>
      </trkpt>
      <trkpt lat="46.50668" lon="5.4705">
        <ele>471</ele>
        <time>2022-02-26T15:22:12Z</time>
      </trkpt>
      <trkpt lat="46.50632" lon="5.47039">
        <ele>471</ele>
        <time>2022-02-26T15:22:16Z</time>
      </trkpt>
      <trkpt lat="46.50578" lon="5.47022">
        <ele>470.6</ele>
        <time>2022-02-26T15:22:22Z</time>
      </trkpt>
      <trkpt lat="46.50518" lon="5.47002">
        <ele>470</ele>
        <time>2022-02-26T15:22:29Z</time>
      </trkpt>
      <trkpt lat="46.50494" lon="5.46994">
        <ele>470</ele>
        <time>2022-02-26T15:22:32Z</time>
      </trkpt>
      <trkpt lat="46.50486" lon="5.46991">
        <ele>470</ele>
        <time>2022-02-26T15:22:33Z</time>
      </trkpt>
      <trkpt lat="46.50432" lon="5.46973">
        <ele>470.6</ele>
        <time>2022-02-26T15:22:40Z</time>
      </trkpt>
      <trkpt lat="46.50417" lon="5.46969">
        <ele>471.2</ele>
        <time>2022-02-26T15:22:42Z</time>
      </trkpt>
      <trkpt lat="46.50387" lon="5.46966">
        <ele>472.2</ele>
        <time>2022-02-26T15:22:46Z</time>
      </trkpt>
      <trkpt lat="46.50372" lon="5.46965">
        <ele>472.6</ele>
        <time>2022-02-26T15:22:48Z</time>
      </trkpt>
      <trkpt lat="46.50319" lon="5.46967">
        <ele>473</ele>
        <time>2022-02-26T15:22:55Z</time>
      </trkpt>
      <trkpt lat="46.50304" lon="5.46968">
        <ele>473.4</ele>
        <time>2022-02-26T15:22:57Z</time>
      </trkpt>
      <trkpt lat="46.50281" lon="5.46969">
        <ele>473.8</ele>
        <time>2022-02-26T15:23:00Z</time>
      </trkpt>
      <trkpt lat="46.50241" lon="5.46971">
        <ele>474.4</ele>
        <time>2022-02-26T15:23:05Z</time>
      </trkpt>
      <trkpt lat="46.50209" lon="5.46975">
        <ele>474.6</ele>
        <time>2022-02-26T15:23:09Z</time>
      </trkpt>
      <trkpt lat="46.50153" lon="5.46995">
        <ele>474.6</ele>
        <time>2022-02-26T15:23:16Z</time>
      </trkpt>
      <trkpt lat="46.50094" lon="5.47017">
        <ele>474.8</ele>
        <time>2022-02-26T15:23:23Z</time>
      </trkpt>
      <trkpt lat="46.50077" lon="5.47022">
        <ele>474.8</ele>
        <time>2022-02-26T15:23:25Z</time>
      </trkpt>
      <trkpt lat="46.50014" lon="5.47027">
        <ele>473.6</ele>
        <time>2022-02-26T15:23:32Z</time>
      </trkpt>
      <trkpt lat="46.50005" lon="5.47026">
        <ele>473.2</ele>
        <time>2022-02-26T15:23:33Z</time>
      </trkpt>
      <trkpt lat="46.49951" lon="5.47012">
        <ele>472.6</ele>
        <time>2022-02-26T15:23:39Z</time>
      </trkpt>
      <trkpt lat="46.49933" lon="5.47007">
        <ele>472</ele>
        <time>2022-02-26T15:23:41Z</time>
      </trkpt>
      <trkpt lat="46.49879" lon="5.46995">
        <ele>471.6</ele>
        <time>2022-02-26T15:23:47Z</time>
      </trkpt>
      <trkpt lat="46.49833" lon="5.46986">
        <ele>470.8</ele>
        <time>2022-02-26T15:23:52Z</time>
      </trkpt>
      <trkpt lat="46.49805" lon="5.46981">
        <ele>470.6</ele>
        <time>2022-02-26T15:23:55Z</time>
      </trkpt>
      <trkpt lat="46.49748" lon="5.46971">
        <ele>470</ele>
        <time>2022-02-26T15:24:01Z</time>
      </trkpt>
      <trkpt lat="46.4973" lon="5.46968">
        <ele>469.6</ele>
        <time>2022-02-26T15:24:03Z</time>
      </trkpt>
      <trkpt lat="46.49721" lon="5.46966">
        <ele>469.4</ele>
        <time>2022-02-26T15:24:04Z</time>
      </trkpt>
      <trkpt lat="46.49683" lon="5.4696">
        <ele>468.6</ele>
        <time>2022-02-26T15:24:08Z</time>
      </trkpt>
      <trkpt lat="46.49663" lon="5.46956">
        <ele>468.4</ele>
        <time>2022-02-26T15:24:10Z</time>
      </trkpt>
      <trkpt lat="46.496" lon="5.4694">
        <ele>467.6</ele>
        <time>2022-02-26T15:24:16Z</time>
      </trkpt>
      <trkpt lat="46.4956" lon="5.46925">
        <ele>466.4</ele>
        <time>2022-02-26T15:24:20Z</time>
      </trkpt>
      <trkpt lat="46.49531" lon="5.46912">
        <ele>465.2</ele>
        <time>2022-02-26T15:24:23Z</time>
      </trkpt>
      <trkpt lat="46.49521" lon="5.46907">
        <ele>465</ele>
        <time>2022-02-26T15:24:24Z</time>
      </trkpt>
      <trkpt lat="46.49484" lon="5.46888">
        <ele>464.4</ele>
        <time>2022-02-26T15:24:28Z</time>
      </trkpt>
      <trkpt lat="46.49435" lon="5.46863">
        <ele>463.2</ele>
        <time>2022-02-26T15:24:33Z</time>
      </trkpt>
      <trkpt lat="46.49406" lon="5.46848">
        <ele>462.2</ele>
        <time>2022-02-26T15:24:36Z</time>
      </trkpt>
      <trkpt lat="46.49356" lon="5.46822">
        <ele>461</ele>
        <time>2022-02-26T15:24:41Z</time>
      </trkpt>
      <trkpt lat="46.49346" lon="5.46816">
        <ele>460.8</ele>
        <time>2022-02-26T15:24:42Z</time>
      </trkpt>
      <trkpt lat="46.49325" lon="5.46804">
        <ele>460</ele>
        <time>2022-02-26T15:24:44Z</time>
      </trkpt>
      <trkpt lat="46.49292" lon="5.46785">
        <ele>459.2</ele>
        <time>2022-02-26T15:24:47Z</time>
      </trkpt>
      <trkpt lat="46.49281" lon="5.46779">
        <ele>458.6</ele>
        <time>2022-02-26T15:24:48Z</time>
      </trkpt>
      <trkpt lat="46.4927" lon="5.46772">
        <ele>457.6</ele>
        <time>2022-02-26T15:24:49Z</time>
      </trkpt>
      <trkpt lat="46.49248" lon="5.4676">
        <ele>455.4</ele>
        <time>2022-02-26T15:24:51Z</time>
      </trkpt>
      <trkpt lat="46.49226" lon="5.4675">
        <ele>453.8</ele>
        <time>2022-02-26T15:24:53Z</time>
      </trkpt>
      <trkpt lat="46.4919" lon="5.46744">
        <ele>452.4</ele>
        <time>2022-02-26T15:24:56Z</time>
      </trkpt>
      <trkpt lat="46.49178" lon="5.46745">
        <ele>452</ele>
        <time>2022-02-26T15:24:57Z</time>
      </trkpt>
      <trkpt lat="46.49166" lon="5.46748">
        <ele>450.8</ele>
        <time>2022-02-26T15:24:58Z</time>
      </trkpt>
      <trkpt lat="46.49142" lon="5.46759">
        <ele>449.4</ele>
        <time>2022-02-26T15:25:00Z</time>
      </trkpt>
      <trkpt lat="46.4912" lon="5.46776">
        <ele>447.8</ele>
        <time>2022-02-26T15:25:02Z</time>
      </trkpt>
      <trkpt lat="46.49099" lon="5.46795">
        <ele>446.6</ele>
        <time>2022-02-26T15:25:04Z</time>
      </trkpt>
      <trkpt lat="46.49067" lon="5.46823">
        <ele>445.2</ele>
        <time>2022-02-26T15:25:07Z</time>
      </trkpt>
      <trkpt lat="46.49025" lon="5.46861">
        <ele>443.2</ele>
        <time>2022-02-26T15:25:11Z</time>
      </trkpt>
      <trkpt lat="46.49004" lon="5.4688">
        <ele>441.6</ele>
        <time>2022-02-26T15:25:13Z</time>
      </trkpt>
      <trkpt lat="46.48981" lon="5.46898">
        <ele>440.2</ele>
        <time>2022-02-26T15:25:15Z</time>
      </trkpt>
      <trkpt lat="46.4897" lon="5.46907">
        <ele>438.8</ele>
        <time>2022-02-26T15:25:16Z</time>
      </trkpt>
      <trkpt lat="46.48958" lon="5.46914">
        <ele>438.4</ele>
        <time>2022-02-26T15:25:17Z</time>
      </trkpt>
      <trkpt lat="46.48946" lon="5.46919">
        <ele>437.4</ele>
        <time>2022-02-26T15:25:18Z</time>
      </trkpt>
      <trkpt lat="46.48934" lon="5.46921">
        <ele>437.2</ele>
        <time>2022-02-26T15:25:19Z</time>
      </trkpt>
      <trkpt lat="46.48921" lon="5.46921">
        <ele>436</ele>
        <time>2022-02-26T15:25:20Z</time>
      </trkpt>
      <trkpt lat="46.48906" lon="5.4692">
        <ele>435.4</ele>
        <time>2022-02-26T15:25:21Z</time>
      </trkpt>
      <trkpt lat="46.48896" lon="5.46918">
        <ele>433.8</ele>
        <time>2022-02-26T15:25:22Z</time>
      </trkpt>
      <trkpt lat="46.48883" lon="5.46915">
        <ele>432.6</ele>
        <time>2022-02-26T15:25:23Z</time>
      </trkpt>
      <trkpt lat="46.48858" lon="5.46907">
        <ele>431.4</ele>
        <time>2022-02-26T15:25:25Z</time>
      </trkpt>
      <trkpt lat="46.48846" lon="5.46902">
        <ele>431.2</ele>
        <time>2022-02-26T15:25:26Z</time>
      </trkpt>
      <trkpt lat="46.48822" lon="5.46889">
        <ele>430</ele>
        <time>2022-02-26T15:25:28Z</time>
      </trkpt>
      <trkpt lat="46.4881" lon="5.46882">
        <ele>429</ele>
        <time>2022-02-26T15:25:29Z</time>
      </trkpt>
      <trkpt lat="46.48798" lon="5.46875">
        <ele>427.6</ele>
        <time>2022-02-26T15:25:30Z</time>
      </trkpt>
      <trkpt lat="46.48786" lon="5.46868">
        <ele>427</ele>
        <time>2022-02-26T15:25:31Z</time>
      </trkpt>
      <trkpt lat="46.48774" lon="5.4686">
        <ele>426</ele>
        <time>2022-02-26T15:25:32Z</time>
      </trkpt>
      <trkpt lat="46.48751" lon="5.46845">
        <ele>424.6</ele>
        <time>2022-02-26T15:25:34Z</time>
      </trkpt>
      <trkpt lat="46.48727" lon="5.46831">
        <ele>423.2</ele>
        <time>2022-02-26T15:25:36Z</time>
      </trkpt>
      <trkpt lat="46.48703" lon="5.46817">
        <ele>422.2</ele>
        <time>2022-02-26T15:25:38Z</time>
      </trkpt>
      <trkpt lat="46.4868" lon="5.46803">
        <ele>421</ele>
        <time>2022-02-26T15:25:40Z</time>
      </trkpt>
      <trkpt lat="46.48669" lon="5.46795">
        <ele>420.6</ele>
        <time>2022-02-26T15:25:41Z</time>
      </trkpt>
      <trkpt lat="46.48657" lon="5.46789">
        <ele>420</ele>
        <time>2022-02-26T15:25:42Z</time>
      </trkpt>
      <trkpt lat="46.48624" lon="5.46769">
        <ele>418.4</ele>
        <time>2022-02-26T15:25:45Z</time>
      </trkpt>
      <trkpt lat="46.48581" lon="5.46743">
        <ele>417.6</ele>
        <time>2022-02-26T15:25:49Z</time>
      </trkpt>
      <trkpt lat="46.48571" lon="5.46737">
        <ele>417.4</ele>
        <time>2022-02-26T15:25:50Z</time>
      </trkpt>
      <trkpt lat="46.48541" lon="5.46719">
        <ele>416.4</ele>
        <time>2022-02-26T15:25:53Z</time>
      </trkpt>
      <trkpt lat="46.48521" lon="5.46707">
        <ele>416</ele>
        <time>2022-02-26T15:25:55Z</time>
      </trkpt>
      <trkpt lat="46.48483" lon="5.46683">
        <ele>415</ele>
        <time>2022-02-26T15:25:59Z</time>
      </trkpt>
      <trkpt lat="46.48455" lon="5.46667">
        <ele>414.2</ele>
        <time>2022-02-26T15:26:02Z</time>
      </trkpt>
      <trkpt lat="46.48418" lon="5.46644">
        <ele>414</ele>
        <time>2022-02-26T15:26:06Z</time>
      </trkpt>
      <trkpt lat="46.48392" lon="5.46628">
        <ele>413.8</ele>
        <time>2022-02-26T15:26:09Z</time>
      </trkpt>
      <trkpt lat="46.48362" lon="5.46609">
        <ele>413.8</ele>
        <time>2022-02-26T15:26:13Z</time>
      </trkpt>
      <trkpt lat="46.48357" lon="5.46601">
        <ele>413.6</ele>
        <time>2022-02-26T15:26:14Z</time>
      </trkpt>
      <trkpt lat="46.48354" lon="5.46592">
        <ele>413.6</ele>
        <time>2022-02-26T15:26:15Z</time>
      </trkpt>
      <trkpt lat="46.48355" lon="5.46582">
        <ele>413.6</ele>
        <time>2022-02-26T15:26:16Z</time>
      </trkpt>
      <trkpt lat="46.48356" lon="5.46573">
        <ele>413.4</ele>
        <time>2022-02-26T15:26:17Z</time>
      </trkpt>
      <trkpt lat="46.48363" lon="5.46557">
        <ele>413.4</ele>
        <time>2022-02-26T15:26:19Z</time>
      </trkpt>
      <trkpt lat="46.48388" lon="5.46493">
        <ele>413.4</ele>
        <time>2022-02-26T15:26:27Z</time>
      </trkpt>
      <trkpt lat="46.48389" lon="5.46474">
        <ele>413.4</ele>
        <time>2022-02-26T15:26:29Z</time>
      </trkpt>
      <trkpt lat="46.48389" lon="5.46455">
        <ele>413.6</ele>
        <time>2022-02-26T15:26:31Z</time>
      </trkpt>
      <trkpt lat="46.48389" lon="5.46426">
        <ele>413.8</ele>
        <time>2022-02-26T15:26:34Z</time>
      </trkpt>
      <trkpt lat="46.48393" lon="5.46407">
        <ele>413.8</ele>
        <time>2022-02-26T15:26:36Z</time>
      </trkpt>
      <trkpt lat="46.48411" lon="5.46357">
        <ele>414</ele>
        <time>2022-02-26T15:26:42Z</time>
      </trkpt>
      <trkpt lat="46.48442" lon="5.46293">
        <ele>414</ele>
        <time>2022-02-26T15:26:51Z</time>
      </trkpt>
      <trkpt lat="46.48444" lon="5.46286">
        <ele>414</ele>
        <time>2022-02-26T15:26:52Z</time>
      </trkpt>
      <trkpt lat="46.48445" lon="5.46272">
        <ele>414.4</ele>
        <time>2022-02-26T15:26:54Z</time>
      </trkpt>
      <trkpt lat="46.48442" lon="5.46259">
        <ele>415</ele>
        <time>2022-02-26T15:26:56Z</time>
      </trkpt>
      <trkpt lat="46.48439" lon="5.46253">
        <ele>415.2</ele>
        <time>2022-02-26T15:26:57Z</time>
      </trkpt>
      <trkpt lat="46.48438" lon="5.46246">
        <ele>415.8</ele>
        <time>2022-02-26T15:26:58Z</time>
      </trkpt>
      <trkpt lat="46.48435" lon="5.46239">
        <ele>416</ele>
        <time>2022-02-26T15:26:59Z</time>
      </trkpt>
      <trkpt lat="46.48428" lon="5.46206">
        <ele>417</ele>
        <time>2022-02-26T15:27:04Z</time>
      </trkpt>
      <trkpt lat="46.48426" lon="5.46199">
        <ele>417.2</ele>
        <time>2022-02-26T15:27:05Z</time>
      </trkpt>
      <trkpt lat="46.48421" lon="5.4618">
        <ele>418.2</ele>
        <time>2022-02-26T15:27:08Z</time>
      </trkpt>
      <trkpt lat="46.48411" lon="5.46154">
        <ele>419.2</ele>
        <time>2022-02-26T15:27:12Z</time>
      </trkpt>
      <trkpt lat="46.48393" lon="5.46117">
        <ele>420.2</ele>
        <time>2022-02-26T15:27:18Z</time>
      </trkpt>
      <trkpt lat="46.48389" lon="5.46111">
        <ele>420.2</ele>
        <time>2022-02-26T15:27:19Z</time>
      </trkpt>
      <trkpt lat="46.48359" lon="5.46051">
        <ele>420.8</ele>
        <time>2022-02-26T15:27:28Z</time>
      </trkpt>
      <trkpt lat="46.48333" lon="5.46004">
        <ele>420.6</ele>
        <time>2022-02-26T15:27:35Z</time>
      </trkpt>
      <trkpt lat="46.48294" lon="5.4594">
        <ele>420.4</ele>
        <time>2022-02-26T15:27:44Z</time>
      </trkpt>
      <trkpt lat="46.48289" lon="5.45932">
        <ele>420.4</ele>
        <time>2022-02-26T15:27:45Z</time>
      </trkpt>
      <trkpt lat="46.48257" lon="5.45886">
        <ele>419.2</ele>
        <time>2022-02-26T15:27:51Z</time>
      </trkpt>
      <trkpt lat="46.48252" lon="5.45878">
        <ele>419.4</ele>
        <time>2022-02-26T15:27:52Z</time>
      </trkpt>
      <trkpt lat="46.48228" lon="5.45848">
        <ele>418.4</ele>
        <time>2022-02-26T15:27:56Z</time>
      </trkpt>
      <trkpt lat="46.48203" lon="5.45816">
        <ele>417</ele>
        <time>2022-02-26T15:28:00Z</time>
      </trkpt>
      <trkpt lat="46.48164" lon="5.45767">
        <ele>415.6</ele>
        <time>2022-02-26T15:28:06Z</time>
      </trkpt>
      <trkpt lat="46.48151" lon="5.4575">
        <ele>415.2</ele>
        <time>2022-02-26T15:28:08Z</time>
      </trkpt>
      <trkpt lat="46.4813" lon="5.45725">
        <ele>414.4</ele>
        <time>2022-02-26T15:28:11Z</time>
      </trkpt>
      <trkpt lat="46.48109" lon="5.45701">
        <ele>413.4</ele>
        <time>2022-02-26T15:28:14Z</time>
      </trkpt>
      <trkpt lat="46.48088" lon="5.45679">
        <ele>412.8</ele>
        <time>2022-02-26T15:28:17Z</time>
      </trkpt>
      <trkpt lat="46.48074" lon="5.45666">
        <ele>412.4</ele>
        <time>2022-02-26T15:28:19Z</time>
      </trkpt>
      <trkpt lat="46.48052" lon="5.45652">
        <ele>412</ele>
        <time>2022-02-26T15:28:22Z</time>
      </trkpt>
      <trkpt lat="46.48005" lon="5.45629">
        <ele>412</ele>
        <time>2022-02-26T15:28:29Z</time>
      </trkpt>
      <trkpt lat="46.47963" lon="5.45615">
        <ele>413.2</ele>
        <time>2022-02-26T15:28:36Z</time>
      </trkpt>
      <trkpt lat="46.47951" lon="5.45611">
        <ele>413.6</ele>
        <time>2022-02-26T15:28:38Z</time>
      </trkpt>
      <trkpt lat="46.47923" lon="5.45601">
        <ele>415.2</ele>
        <time>2022-02-26T15:28:43Z</time>
      </trkpt>
      <trkpt lat="46.47917" lon="5.45598">
        <ele>415.4</ele>
        <time>2022-02-26T15:28:44Z</time>
      </trkpt>
      <trkpt lat="46.47896" lon="5.45587">
        <ele>416.4</ele>
        <time>2022-02-26T15:28:48Z</time>
      </trkpt>
      <trkpt lat="46.47874" lon="5.45577">
        <ele>417.2</ele>
        <time>2022-02-26T15:28:52Z</time>
      </trkpt>
      <trkpt lat="46.47868" lon="5.45575">
        <ele>417.4</ele>
        <time>2022-02-26T15:28:53Z</time>
      </trkpt>
      <trkpt lat="46.47837" lon="5.45564">
        <ele>418.4</ele>
        <time>2022-02-26T15:28:59Z</time>
      </trkpt>
      <trkpt lat="46.47826" lon="5.45561">
        <ele>418.8</ele>
        <time>2022-02-26T15:29:01Z</time>
      </trkpt>
      <trkpt lat="46.47811" lon="5.45557">
        <ele>419.6</ele>
        <time>2022-02-26T15:29:04Z</time>
      </trkpt>
      <trkpt lat="46.47777" lon="5.4555">
        <ele>420.2</ele>
        <time>2022-02-26T15:29:10Z</time>
      </trkpt>
      <trkpt lat="46.47761" lon="5.45544">
        <ele>420.4</ele>
        <time>2022-02-26T15:29:13Z</time>
      </trkpt>
      <trkpt lat="46.47746" lon="5.45532">
        <ele>420.4</ele>
        <time>2022-02-26T15:29:16Z</time>
      </trkpt>
      <trkpt lat="46.47711" lon="5.455">
        <ele>420.4</ele>
        <time>2022-02-26T15:29:23Z</time>
      </trkpt>
      <trkpt lat="46.47686" lon="5.45479">
        <ele>419.6</ele>
        <time>2022-02-26T15:29:28Z</time>
      </trkpt>
      <trkpt lat="46.47675" lon="5.4547">
        <ele>419.2</ele>
        <time>2022-02-26T15:29:30Z</time>
      </trkpt>
      <trkpt lat="46.47659" lon="5.45459">
        <ele>419.2</ele>
        <time>2022-02-26T15:29:33Z</time>
      </trkpt>
      <trkpt lat="46.47641" lon="5.45452">
        <ele>419.2</ele>
        <time>2022-02-26T15:29:36Z</time>
      </trkpt>
      <trkpt lat="46.47602" lon="5.4543">
        <ele>419.2</ele>
        <time>2022-02-26T15:29:43Z</time>
      </trkpt>
      <trkpt lat="46.47556" lon="5.45394">
        <ele>418.6</ele>
        <time>2022-02-26T15:29:51Z</time>
      </trkpt>
      <trkpt lat="46.47545" lon="5.45385">
        <ele>418.4</ele>
        <time>2022-02-26T15:29:53Z</time>
      </trkpt>
      <trkpt lat="46.47518" lon="5.45368">
        <ele>417.8</ele>
        <time>2022-02-26T15:29:57Z</time>
      </trkpt>
      <trkpt lat="46.47511" lon="5.45364">
        <ele>417.2</ele>
        <time>2022-02-26T15:29:58Z</time>
      </trkpt>
      <trkpt lat="46.47472" lon="5.45352">
        <ele>416.4</ele>
        <time>2022-02-26T15:30:03Z</time>
      </trkpt>
      <trkpt lat="46.47441" lon="5.45343">
        <ele>415</ele>
        <time>2022-02-26T15:30:07Z</time>
      </trkpt>
      <trkpt lat="46.47403" lon="5.45333">
        <ele>414</ele>
        <time>2022-02-26T15:30:12Z</time>
      </trkpt>
      <trkpt lat="46.47388" lon="5.45329">
        <ele>414</ele>
        <time>2022-02-26T15:30:14Z</time>
      </trkpt>
      <trkpt lat="46.47342" lon="5.45312">
        <ele>414</ele>
        <time>2022-02-26T15:30:20Z</time>
      </trkpt>
      <trkpt lat="46.47285" lon="5.45288">
        <ele>413.8</ele>
        <time>2022-02-26T15:30:28Z</time>
      </trkpt>
      <trkpt lat="46.47254" lon="5.45273">
        <ele>413.6</ele>
        <time>2022-02-26T15:30:32Z</time>
      </trkpt>
      <trkpt lat="46.47205" lon="5.45251">
        <ele>413</ele>
        <time>2022-02-26T15:30:39Z</time>
      </trkpt>
      <trkpt lat="46.47183" lon="5.45241">
        <ele>412.8</ele>
        <time>2022-02-26T15:30:42Z</time>
      </trkpt>
      <trkpt lat="46.47131" lon="5.45215">
        <ele>412.8</ele>
        <time>2022-02-26T15:30:49Z</time>
      </trkpt>
      <trkpt lat="46.47117" lon="5.45207">
        <ele>412.8</ele>
        <time>2022-02-26T15:30:51Z</time>
      </trkpt>
      <trkpt lat="46.4707" lon="5.45178">
        <ele>412.8</ele>
        <time>2022-02-26T15:30:58Z</time>
      </trkpt>
      <trkpt lat="46.47025" lon="5.4514">
        <ele>412.6</ele>
        <time>2022-02-26T15:31:05Z</time>
      </trkpt>
      <trkpt lat="46.46979" lon="5.45101">
        <ele>412</ele>
        <time>2022-02-26T15:31:12Z</time>
      </trkpt>
      <trkpt lat="46.46972" lon="5.45096">
        <ele>412</ele>
        <time>2022-02-26T15:31:13Z</time>
      </trkpt>
      <trkpt lat="46.46923" lon="5.45057">
        <ele>411</ele>
        <time>2022-02-26T15:31:20Z</time>
      </trkpt>
      <trkpt lat="46.46916" lon="5.45051">
        <ele>410.8</ele>
        <time>2022-02-26T15:31:21Z</time>
      </trkpt>
      <trkpt lat="46.46874" lon="5.45017">
        <ele>410.2</ele>
        <time>2022-02-26T15:31:27Z</time>
      </trkpt>
      <trkpt lat="46.46861" lon="5.45005">
        <ele>410</ele>
        <time>2022-02-26T15:31:29Z</time>
      </trkpt>
      <trkpt lat="46.46839" lon="5.44986">
        <ele>409.8</ele>
        <time>2022-02-26T15:31:32Z</time>
      </trkpt>
      <trkpt lat="46.46805" lon="5.44958">
        <ele>409.6</ele>
        <time>2022-02-26T15:31:37Z</time>
      </trkpt>
      <trkpt lat="46.46756" lon="5.44922">
        <ele>409.6</ele>
        <time>2022-02-26T15:31:44Z</time>
      </trkpt>
      <trkpt lat="46.46705" lon="5.44895">
        <ele>409.6</ele>
        <time>2022-02-26T15:31:51Z</time>
      </trkpt>
      <trkpt lat="46.46698" lon="5.44891">
        <ele>409.4</ele>
        <time>2022-02-26T15:31:52Z</time>
      </trkpt>
      <trkpt lat="46.46643" lon="5.44863">
        <ele>409.4</ele>
        <time>2022-02-26T15:32:00Z</time>
      </trkpt>
      <trkpt lat="46.4659" lon="5.44836">
        <ele>410</ele>
        <time>2022-02-26T15:32:08Z</time>
      </trkpt>
      <trkpt lat="46.46572" lon="5.44826">
        <ele>410.4</ele>
        <time>2022-02-26T15:32:11Z</time>
      </trkpt>
      <trkpt lat="46.4656" lon="5.4482">
        <ele>411</ele>
        <time>2022-02-26T15:32:13Z</time>
      </trkpt>
      <trkpt lat="46.46524" lon="5.44802">
        <ele>411.6</ele>
        <time>2022-02-26T15:32:19Z</time>
      </trkpt>
      <trkpt lat="46.46506" lon="5.44793">
        <ele>412.4</ele>
        <time>2022-02-26T15:32:22Z</time>
      </trkpt>
      <trkpt lat="46.46466" lon="5.44773">
        <ele>413.4</ele>
        <time>2022-02-26T15:32:29Z</time>
      </trkpt>
      <trkpt lat="46.4646" lon="5.4477">
        <ele>413.4</ele>
        <time>2022-02-26T15:32:30Z</time>
      </trkpt>
      <trkpt lat="46.46421" lon="5.4475">
        <ele>414.4</ele>
        <time>2022-02-26T15:32:37Z</time>
      </trkpt>
      <trkpt lat="46.46404" lon="5.44741">
        <ele>415.2</ele>
        <time>2022-02-26T15:32:40Z</time>
      </trkpt>
      <trkpt lat="46.46399" lon="5.44738">
        <ele>415.6</ele>
        <time>2022-02-26T15:32:41Z</time>
      </trkpt>
      <trkpt lat="46.46366" lon="5.44722">
        <ele>416.6</ele>
        <time>2022-02-26T15:32:47Z</time>
      </trkpt>
      <trkpt lat="46.46344" lon="5.44711">
        <ele>417.4</ele>
        <time>2022-02-26T15:32:51Z</time>
      </trkpt>
      <trkpt lat="46.46339" lon="5.44708">
        <ele>417.6</ele>
        <time>2022-02-26T15:32:52Z</time>
      </trkpt>
      <trkpt lat="46.46309" lon="5.44692">
        <ele>418.6</ele>
        <time>2022-02-26T15:32:58Z</time>
      </trkpt>
      <trkpt lat="46.46305" lon="5.44691">
        <ele>419</ele>
        <time>2022-02-26T15:32:59Z</time>
      </trkpt>
      <trkpt lat="46.46297" lon="5.44687">
        <ele>419.2</ele>
        <time>2022-02-26T15:33:01Z</time>
      </trkpt>
      <trkpt lat="46.46285" lon="5.44681">
        <ele>419.6</ele>
        <time>2022-02-26T15:33:04Z</time>
      </trkpt>
      <trkpt lat="46.4627" lon="5.44673">
        <ele>420.6</ele>
        <time>2022-02-26T15:33:08Z</time>
      </trkpt>
      <trkpt lat="46.46266" lon="5.44671">
        <ele>420.8</ele>
        <time>2022-02-26T15:33:09Z</time>
      </trkpt>
      <trkpt lat="46.46249" lon="5.44661">
        <ele>422</ele>
        <time>2022-02-26T15:33:14Z</time>
      </trkpt>
      <trkpt lat="46.46242" lon="5.44657">
        <ele>422.4</ele>
        <time>2022-02-26T15:33:16Z</time>
      </trkpt>
      <trkpt lat="46.46232" lon="5.44649">
        <ele>423.2</ele>
        <time>2022-02-26T15:33:19Z</time>
      </trkpt>
      <trkpt lat="46.46226" lon="5.44642">
        <ele>423.4</ele>
        <time>2022-02-26T15:33:21Z</time>
      </trkpt>
      <trkpt lat="46.46215" lon="5.4463">
        <ele>424.2</ele>
        <time>2022-02-26T15:33:25Z</time>
      </trkpt>
      <trkpt lat="46.4621" lon="5.44621">
        <ele>424.4</ele>
        <time>2022-02-26T15:33:27Z</time>
      </trkpt>
      <trkpt lat="46.46204" lon="5.44603">
        <ele>425.4</ele>
        <time>2022-02-26T15:33:31Z</time>
      </trkpt>
      <trkpt lat="46.46199" lon="5.44584">
        <ele>426.4</ele>
        <time>2022-02-26T15:33:35Z</time>
      </trkpt>
      <trkpt lat="46.46199" lon="5.4458">
        <ele>426.6</ele>
        <time>2022-02-26T15:33:36Z</time>
      </trkpt>
      <trkpt lat="46.46197" lon="5.44561">
        <ele>427.8</ele>
        <time>2022-02-26T15:33:40Z</time>
      </trkpt>
      <trkpt lat="46.46196" lon="5.44547">
        <ele>428.2</ele>
        <time>2022-02-26T15:33:43Z</time>
      </trkpt>
      <trkpt lat="46.46196" lon="5.44527">
        <ele>428.8</ele>
        <time>2022-02-26T15:33:47Z</time>
      </trkpt>
      <trkpt lat="46.46196" lon="5.44517">
        <ele>429.2</ele>
        <time>2022-02-26T15:33:49Z</time>
      </trkpt>
      <trkpt lat="46.46196" lon="5.44503">
        <ele>430</ele>
        <time>2022-02-26T15:33:52Z</time>
      </trkpt>
      <trkpt lat="46.46196" lon="5.44473">
        <ele>431.2</ele>
        <time>2022-02-26T15:33:58Z</time>
      </trkpt>
      <trkpt lat="46.46196" lon="5.44468">
        <ele>431.4</ele>
        <time>2022-02-26T15:33:59Z</time>
      </trkpt>
      <trkpt lat="46.46195" lon="5.44452">
        <ele>432.4</ele>
        <time>2022-02-26T15:34:02Z</time>
      </trkpt>
      <trkpt lat="46.46195" lon="5.44416">
        <ele>433.4</ele>
        <time>2022-02-26T15:34:09Z</time>
      </trkpt>
      <trkpt lat="46.46196" lon="5.4441">
        <ele>433.4</ele>
        <time>2022-02-26T15:34:10Z</time>
      </trkpt>
      <trkpt lat="46.46196" lon="5.44373">
        <ele>434.6</ele>
        <time>2022-02-26T15:34:17Z</time>
      </trkpt>
      <trkpt lat="46.46196" lon="5.44368">
        <ele>435</ele>
        <time>2022-02-26T15:34:18Z</time>
      </trkpt>
      <trkpt lat="46.46197" lon="5.44353">
        <ele>435.6</ele>
        <time>2022-02-26T15:34:21Z</time>
      </trkpt>
      <trkpt lat="46.46199" lon="5.4434">
        <ele>436</ele>
        <time>2022-02-26T15:34:24Z</time>
      </trkpt>
      <trkpt lat="46.46199" lon="5.44326">
        <ele>437</ele>
        <time>2022-02-26T15:34:27Z</time>
      </trkpt>
      <trkpt lat="46.46198" lon="5.44314">
        <ele>437.4</ele>
        <time>2022-02-26T15:34:29Z</time>
      </trkpt>
      <trkpt lat="46.46196" lon="5.44299">
        <ele>438</ele>
        <time>2022-02-26T15:34:32Z</time>
      </trkpt>
      <trkpt lat="46.46192" lon="5.44277">
        <ele>438.8</ele>
        <time>2022-02-26T15:34:36Z</time>
      </trkpt>
      <trkpt lat="46.46191" lon="5.44272">
        <ele>439</ele>
        <time>2022-02-26T15:34:37Z</time>
      </trkpt>
      <trkpt lat="46.46183" lon="5.44237">
        <ele>440.2</ele>
        <time>2022-02-26T15:34:44Z</time>
      </trkpt>
      <trkpt lat="46.46181" lon="5.44232">
        <ele>440.2</ele>
        <time>2022-02-26T15:34:45Z</time>
      </trkpt>
      <trkpt lat="46.46171" lon="5.44204">
        <ele>441.2</ele>
        <time>2022-02-26T15:34:51Z</time>
      </trkpt>
      <trkpt lat="46.46167" lon="5.44192">
        <ele>441.8</ele>
        <time>2022-02-26T15:34:53Z</time>
      </trkpt>
      <trkpt lat="46.46161" lon="5.44175">
        <ele>442.4</ele>
        <time>2022-02-26T15:34:56Z</time>
      </trkpt>
      <trkpt lat="46.46155" lon="5.44154">
        <ele>443.4</ele>
        <time>2022-02-26T15:35:00Z</time>
      </trkpt>
      <trkpt lat="46.46153" lon="5.44148">
        <ele>443.6</ele>
        <time>2022-02-26T15:35:01Z</time>
      </trkpt>
      <trkpt lat="46.46144" lon="5.4412">
        <ele>444.6</ele>
        <time>2022-02-26T15:35:06Z</time>
      </trkpt>
      <trkpt lat="46.46141" lon="5.4411">
        <ele>445</ele>
        <time>2022-02-26T15:35:08Z</time>
      </trkpt>
      <trkpt lat="46.46138" lon="5.44095">
        <ele>445.8</ele>
        <time>2022-02-26T15:35:11Z</time>
      </trkpt>
      <trkpt lat="46.46135" lon="5.44073">
        <ele>447</ele>
        <time>2022-02-26T15:35:15Z</time>
      </trkpt>
      <trkpt lat="46.46132" lon="5.44062">
        <ele>447.4</ele>
        <time>2022-02-26T15:35:17Z</time>
      </trkpt>
      <trkpt lat="46.4613" lon="5.44044">
        <ele>448.4</ele>
        <time>2022-02-26T15:35:20Z</time>
      </trkpt>
      <trkpt lat="46.46127" lon="5.4402">
        <ele>449</ele>
        <time>2022-02-26T15:35:24Z</time>
      </trkpt>
      <trkpt lat="46.46127" lon="5.44009">
        <ele>449.4</ele>
        <time>2022-02-26T15:35:26Z</time>
      </trkpt>
      <trkpt lat="46.46132" lon="5.43976">
        <ele>450.6</ele>
        <time>2022-02-26T15:35:32Z</time>
      </trkpt>
      <trkpt lat="46.46139" lon="5.4395">
        <ele>451.6</ele>
        <time>2022-02-26T15:35:37Z</time>
      </trkpt>
      <trkpt lat="46.46146" lon="5.43925">
        <ele>452.6</ele>
        <time>2022-02-26T15:35:42Z</time>
      </trkpt>
      <trkpt lat="46.4615" lon="5.43909">
        <ele>453.8</ele>
        <time>2022-02-26T15:35:45Z</time>
      </trkpt>
      <trkpt lat="46.4616" lon="5.43871">
        <ele>454.8</ele>
        <time>2022-02-26T15:35:52Z</time>
      </trkpt>
      <trkpt lat="46.46163" lon="5.43861">
        <ele>455.2</ele>
        <time>2022-02-26T15:35:54Z</time>
      </trkpt>
      <trkpt lat="46.46168" lon="5.43846">
        <ele>456.2</ele>
        <time>2022-02-26T15:35:57Z</time>
      </trkpt>
      <trkpt lat="46.46176" lon="5.4382">
        <ele>457.2</ele>
        <time>2022-02-26T15:36:02Z</time>
      </trkpt>
      <trkpt lat="46.46183" lon="5.43794">
        <ele>458.2</ele>
        <time>2022-02-26T15:36:07Z</time>
      </trkpt>
      <trkpt lat="46.4619" lon="5.43769">
        <ele>459.2</ele>
        <time>2022-02-26T15:36:12Z</time>
      </trkpt>
      <trkpt lat="46.46191" lon="5.43764">
        <ele>459.4</ele>
        <time>2022-02-26T15:36:13Z</time>
      </trkpt>
      <trkpt lat="46.46194" lon="5.43741">
        <ele>460.6</ele>
        <time>2022-02-26T15:36:17Z</time>
      </trkpt>
      <trkpt lat="46.46194" lon="5.43723">
        <ele>461.4</ele>
        <time>2022-02-26T15:36:20Z</time>
      </trkpt>
      <trkpt lat="46.46194" lon="5.43718">
        <ele>461.8</ele>
        <time>2022-02-26T15:36:21Z</time>
      </trkpt>
      <trkpt lat="46.46191" lon="5.43693">
        <ele>463</ele>
        <time>2022-02-26T15:36:25Z</time>
      </trkpt>
      <trkpt lat="46.46188" lon="5.43681">
        <ele>463.2</ele>
        <time>2022-02-26T15:36:27Z</time>
      </trkpt>
      <trkpt lat="46.46177" lon="5.43646">
        <ele>463.8</ele>
        <time>2022-02-26T15:36:33Z</time>
      </trkpt>
      <trkpt lat="46.46172" lon="5.43635">
        <ele>464.2</ele>
        <time>2022-02-26T15:36:35Z</time>
      </trkpt>
      <trkpt lat="46.46147" lon="5.43601">
        <ele>464.8</ele>
        <time>2022-02-26T15:36:42Z</time>
      </trkpt>
      <trkpt lat="46.46131" lon="5.43587">
        <ele>464.8</ele>
        <time>2022-02-26T15:36:45Z</time>
      </trkpt>
      <trkpt lat="46.4612" lon="5.4358">
        <ele>464.6</ele>
        <time>2022-02-26T15:36:47Z</time>
      </trkpt>
      <trkpt lat="46.46085" lon="5.43571">
        <ele>464</ele>
        <time>2022-02-26T15:36:52Z</time>
      </trkpt>
      <trkpt lat="46.46061" lon="5.43569">
        <ele>463.2</ele>
        <time>2022-02-26T15:36:55Z</time>
      </trkpt>
      <trkpt lat="46.46044" lon="5.43567">
        <ele>462</ele>
        <time>2022-02-26T15:36:57Z</time>
      </trkpt>
      <trkpt lat="46.46036" lon="5.43566">
        <ele>461.6</ele>
        <time>2022-02-26T15:36:58Z</time>
      </trkpt>
      <trkpt lat="46.4601" lon="5.43558">
        <ele>461</ele>
        <time>2022-02-26T15:37:01Z</time>
      </trkpt>
      <trkpt lat="46.46001" lon="5.43554">
        <ele>460</ele>
        <time>2022-02-26T15:37:02Z</time>
      </trkpt>
      <trkpt lat="46.45993" lon="5.43549">
        <ele>459.6</ele>
        <time>2022-02-26T15:37:03Z</time>
      </trkpt>
      <trkpt lat="46.45949" lon="5.43518">
        <ele>458.6</ele>
        <time>2022-02-26T15:37:08Z</time>
      </trkpt>
      <trkpt lat="46.45941" lon="5.43511">
        <ele>458.2</ele>
        <time>2022-02-26T15:37:09Z</time>
      </trkpt>
      <trkpt lat="46.45895" lon="5.43476">
        <ele>457.2</ele>
        <time>2022-02-26T15:37:14Z</time>
      </trkpt>
      <trkpt lat="46.45876" lon="5.43461">
        <ele>456.4</ele>
        <time>2022-02-26T15:37:16Z</time>
      </trkpt>
      <trkpt lat="46.45856" lon="5.43446">
        <ele>455.2</ele>
        <time>2022-02-26T15:37:18Z</time>
      </trkpt>
      <trkpt lat="46.45826" lon="5.43422">
        <ele>454</ele>
        <time>2022-02-26T15:37:21Z</time>
      </trkpt>
      <trkpt lat="46.45806" lon="5.43407">
        <ele>452.6</ele>
        <time>2022-02-26T15:37:23Z</time>
      </trkpt>
      <trkpt lat="46.45796" lon="5.43399">
        <ele>452.2</ele>
        <time>2022-02-26T15:37:24Z</time>
      </trkpt>
      <trkpt lat="46.45786" lon="5.43391">
        <ele>451.4</ele>
        <time>2022-02-26T15:37:25Z</time>
      </trkpt>
      <trkpt lat="46.45766" lon="5.43373">
        <ele>450.2</ele>
        <time>2022-02-26T15:37:27Z</time>
      </trkpt>
      <trkpt lat="46.45747" lon="5.43353">
        <ele>449</ele>
        <time>2022-02-26T15:37:29Z</time>
      </trkpt>
      <trkpt lat="46.45738" lon="5.43342">
        <ele>448.2</ele>
        <time>2022-02-26T15:37:30Z</time>
      </trkpt>
      <trkpt lat="46.45721" lon="5.43318">
        <ele>447.4</ele>
        <time>2022-02-26T15:37:32Z</time>
      </trkpt>
      <trkpt lat="46.45708" lon="5.43292">
        <ele>447.2</ele>
        <time>2022-02-26T15:37:34Z</time>
      </trkpt>
      <trkpt lat="46.45689" lon="5.43253">
        <ele>446.4</ele>
        <time>2022-02-26T15:37:37Z</time>
      </trkpt>
      <trkpt lat="46.45672" lon="5.43215">
        <ele>445.8</ele>
        <time>2022-02-26T15:37:40Z</time>
      </trkpt>
      <trkpt lat="46.45666" lon="5.43203">
        <ele>445</ele>
        <time>2022-02-26T15:37:41Z</time>
      </trkpt>
      <trkpt lat="46.45639" lon="5.43142">
        <ele>443.6</ele>
        <time>2022-02-26T15:37:46Z</time>
      </trkpt>
      <trkpt lat="46.45634" lon="5.4313">
        <ele>443.6</ele>
        <time>2022-02-26T15:37:47Z</time>
      </trkpt>
      <trkpt lat="46.45604" lon="5.43062">
        <ele>443.8</ele>
        <time>2022-02-26T15:37:53Z</time>
      </trkpt>
      <trkpt lat="46.45594" lon="5.43041">
        <ele>444</ele>
        <time>2022-02-26T15:37:55Z</time>
      </trkpt>
      <trkpt lat="46.45569" lon="5.42998">
        <ele>444.2</ele>
        <time>2022-02-26T15:38:00Z</time>
      </trkpt>
      <trkpt lat="46.4555" lon="5.4297">
        <ele>444.8</ele>
        <time>2022-02-26T15:38:04Z</time>
      </trkpt>
      <trkpt lat="46.4554" lon="5.42958">
        <ele>445.4</ele>
        <time>2022-02-26T15:38:06Z</time>
      </trkpt>
      <trkpt lat="46.4553" lon="5.42946">
        <ele>445.8</ele>
        <time>2022-02-26T15:38:08Z</time>
      </trkpt>
      <trkpt lat="46.45513" lon="5.42924">
        <ele>446.6</ele>
        <time>2022-02-26T15:38:12Z</time>
      </trkpt>
      <trkpt lat="46.45509" lon="5.42918">
        <ele>446.8</ele>
        <time>2022-02-26T15:38:13Z</time>
      </trkpt>
      <trkpt lat="46.45489" lon="5.42889">
        <ele>447.8</ele>
        <time>2022-02-26T15:38:18Z</time>
      </trkpt>
      <trkpt lat="46.45448" lon="5.42843">
        <ele>448.8</ele>
        <time>2022-02-26T15:38:27Z</time>
      </trkpt>
      <trkpt lat="46.45443" lon="5.42839">
        <ele>448.8</ele>
        <time>2022-02-26T15:38:28Z</time>
      </trkpt>
      <trkpt lat="46.45423" lon="5.42821">
        <ele>450</ele>
        <time>2022-02-26T15:38:32Z</time>
      </trkpt>
      <trkpt lat="46.45405" lon="5.42803">
        <ele>450.4</ele>
        <time>2022-02-26T15:38:36Z</time>
      </trkpt>
      <trkpt lat="46.45388" lon="5.42784">
        <ele>451.4</ele>
        <time>2022-02-26T15:38:40Z</time>
      </trkpt>
      <trkpt lat="46.45372" lon="5.42763">
        <ele>452.2</ele>
        <time>2022-02-26T15:38:44Z</time>
      </trkpt>
      <trkpt lat="46.45369" lon="5.42758">
        <ele>452.4</ele>
        <time>2022-02-26T15:38:45Z</time>
      </trkpt>
      <trkpt lat="46.45338" lon="5.42706">
        <ele>453.4</ele>
        <time>2022-02-26T15:38:54Z</time>
      </trkpt>
      <trkpt lat="46.45332" lon="5.42694">
        <ele>454</ele>
        <time>2022-02-26T15:38:56Z</time>
      </trkpt>
      <trkpt lat="46.45319" lon="5.42671">
        <ele>455</ele>
        <time>2022-02-26T15:39:00Z</time>
      </trkpt>
      <trkpt lat="46.453" lon="5.42636">
        <ele>456</ele>
        <time>2022-02-26T15:39:06Z</time>
      </trkpt>
      <trkpt lat="46.45294" lon="5.42625">
        <ele>456.2</ele>
        <time>2022-02-26T15:39:08Z</time>
      </trkpt>
      <trkpt lat="46.45276" lon="5.42592">
        <ele>457.2</ele>
        <time>2022-02-26T15:39:14Z</time>
      </trkpt>
      <trkpt lat="46.4526" lon="5.42564">
        <ele>458.2</ele>
        <time>2022-02-26T15:39:19Z</time>
      </trkpt>
      <trkpt lat="46.4525" lon="5.42547">
        <ele>458.8</ele>
        <time>2022-02-26T15:39:22Z</time>
      </trkpt>
      <trkpt lat="46.45238" lon="5.42523">
        <ele>459.2</ele>
        <time>2022-02-26T15:39:26Z</time>
      </trkpt>
      <trkpt lat="46.45226" lon="5.425">
        <ele>460.4</ele>
        <time>2022-02-26T15:39:30Z</time>
      </trkpt>
      <trkpt lat="46.45212" lon="5.42477">
        <ele>461.4</ele>
        <time>2022-02-26T15:39:34Z</time>
      </trkpt>
      <trkpt lat="46.45209" lon="5.42471">
        <ele>461.6</ele>
        <time>2022-02-26T15:39:35Z</time>
      </trkpt>
      <trkpt lat="46.45183" lon="5.42424">
        <ele>462.8</ele>
        <time>2022-02-26T15:39:43Z</time>
      </trkpt>
      <trkpt lat="46.4518" lon="5.42418">
        <ele>463</ele>
        <time>2022-02-26T15:39:44Z</time>
      </trkpt>
      <trkpt lat="46.45163" lon="5.4239">
        <ele>463.8</ele>
        <time>2022-02-26T15:39:49Z</time>
      </trkpt>
      <trkpt lat="46.45153" lon="5.42375">
        <ele>464.6</ele>
        <time>2022-02-26T15:39:52Z</time>
      </trkpt>
      <trkpt lat="46.45149" lon="5.4237">
        <ele>464.8</ele>
        <time>2022-02-26T15:39:53Z</time>
      </trkpt>
      <trkpt lat="46.45145" lon="5.42365">
        <ele>465.2</ele>
        <time>2022-02-26T15:39:54Z</time>
      </trkpt>
      <trkpt lat="46.45125" lon="5.42341">
        <ele>466</ele>
        <time>2022-02-26T15:39:59Z</time>
      </trkpt>
      <trkpt lat="46.45122" lon="5.42335">
        <ele>466.2</ele>
        <time>2022-02-26T15:40:00Z</time>
      </trkpt>
      <trkpt lat="46.45118" lon="5.4233">
        <ele>466.2</ele>
        <time>2022-02-26T15:40:01Z</time>
      </trkpt>
      <trkpt lat="46.45115" lon="5.42324">
        <ele>466.4</ele>
        <time>2022-02-26T15:40:02Z</time>
      </trkpt>
      <trkpt lat="46.45099" lon="5.42306">
        <ele>467.4</ele>
        <time>2022-02-26T15:40:06Z</time>
      </trkpt>
      <trkpt lat="46.45095" lon="5.42301">
        <ele>467.8</ele>
        <time>2022-02-26T15:40:07Z</time>
      </trkpt>
      <trkpt lat="46.45092" lon="5.42295">
        <ele>467.8</ele>
        <time>2022-02-26T15:40:08Z</time>
      </trkpt>
      <trkpt lat="46.45087" lon="5.42282">
        <ele>468.4</ele>
        <time>2022-02-26T15:40:10Z</time>
      </trkpt>
      <trkpt lat="46.45086" lon="5.42275">
        <ele>468.4</ele>
        <time>2022-02-26T15:40:11Z</time>
      </trkpt>
      <trkpt lat="46.45085" lon="5.42268">
        <ele>468.6</ele>
        <time>2022-02-26T15:40:12Z</time>
      </trkpt>
      <trkpt lat="46.45081" lon="5.42233">
        <ele>469.2</ele>
        <time>2022-02-26T15:40:17Z</time>
      </trkpt>
      <trkpt lat="46.4508" lon="5.42226">
        <ele>469.6</ele>
        <time>2022-02-26T15:40:18Z</time>
      </trkpt>
      <trkpt lat="46.45076" lon="5.42192">
        <ele>470.8</ele>
        <time>2022-02-26T15:40:23Z</time>
      </trkpt>
      <trkpt lat="46.45075" lon="5.42185">
        <ele>471</ele>
        <time>2022-02-26T15:40:24Z</time>
      </trkpt>
      <trkpt lat="46.4507" lon="5.42164">
        <ele>471.6</ele>
        <time>2022-02-26T15:40:27Z</time>
      </trkpt>
      <trkpt lat="46.45063" lon="5.42144">
        <ele>471.8</ele>
        <time>2022-02-26T15:40:30Z</time>
      </trkpt>
      <trkpt lat="46.45039" lon="5.42087">
        <ele>472.2</ele>
        <time>2022-02-26T15:40:38Z</time>
      </trkpt>
      <trkpt lat="46.45013" lon="5.42043">
        <ele>472.8</ele>
        <time>2022-02-26T15:40:45Z</time>
      </trkpt>
      <trkpt lat="46.45009" lon="5.42036">
        <ele>473</ele>
        <time>2022-02-26T15:40:46Z</time>
      </trkpt>
      <trkpt lat="46.44987" lon="5.42001">
        <ele>473.6</ele>
        <time>2022-02-26T15:40:52Z</time>
      </trkpt>
      <trkpt lat="46.44976" lon="5.41984">
        <ele>474</ele>
        <time>2022-02-26T15:40:55Z</time>
      </trkpt>
      <trkpt lat="46.44963" lon="5.4196">
        <ele>474.8</ele>
        <time>2022-02-26T15:40:59Z</time>
      </trkpt>
      <trkpt lat="46.44961" lon="5.41953">
        <ele>475.2</ele>
        <time>2022-02-26T15:41:00Z</time>
      </trkpt>
      <trkpt lat="46.44959" lon="5.41945">
        <ele>475.2</ele>
        <time>2022-02-26T15:41:01Z</time>
      </trkpt>
      <trkpt lat="46.44957" lon="5.41923">
        <ele>475.8</ele>
        <time>2022-02-26T15:41:04Z</time>
      </trkpt>
      <trkpt lat="46.44959" lon="5.41906">
        <ele>476.2</ele>
        <time>2022-02-26T15:41:06Z</time>
      </trkpt>
      <trkpt lat="46.44964" lon="5.41881">
        <ele>476.4</ele>
        <time>2022-02-26T15:41:09Z</time>
      </trkpt>
      <trkpt lat="46.4498" lon="5.41839">
        <ele>477.2</ele>
        <time>2022-02-26T15:41:15Z</time>
      </trkpt>
      <trkpt lat="46.44987" lon="5.41827">
        <ele>477.8</ele>
        <time>2022-02-26T15:41:17Z</time>
      </trkpt>
      <trkpt lat="46.45001" lon="5.41814">
        <ele>478</ele>
        <time>2022-02-26T15:41:20Z</time>
      </trkpt>
      <trkpt lat="46.45011" lon="5.41808">
        <ele>478.6</ele>
        <time>2022-02-26T15:41:22Z</time>
      </trkpt>
      <trkpt lat="46.45023" lon="5.41805">
        <ele>479</ele>
        <time>2022-02-26T15:41:24Z</time>
      </trkpt>
      <trkpt lat="46.45028" lon="5.41805">
        <ele>479</ele>
        <time>2022-02-26T15:41:25Z</time>
      </trkpt>
      <trkpt lat="46.45052" lon="5.4181">
        <ele>479.2</ele>
        <time>2022-02-26T15:41:29Z</time>
      </trkpt>
      <trkpt lat="46.45097" lon="5.41814">
        <ele>479.6</ele>
        <time>2022-02-26T15:41:36Z</time>
      </trkpt>
      <trkpt lat="46.45137" lon="5.41803">
        <ele>479.2</ele>
        <time>2022-02-26T15:41:42Z</time>
      </trkpt>
      <trkpt lat="46.45168" lon="5.41783">
        <ele>478.8</ele>
        <time>2022-02-26T15:41:47Z</time>
      </trkpt>
      <trkpt lat="46.4519" lon="5.41754">
        <ele>478.6</ele>
        <time>2022-02-26T15:41:52Z</time>
      </trkpt>
      <trkpt lat="46.45213" lon="5.41702">
        <ele>478.4</ele>
        <time>2022-02-26T15:41:59Z</time>
      </trkpt>
      <trkpt lat="46.45229" lon="5.41652">
        <ele>479.8</ele>
        <time>2022-02-26T15:42:06Z</time>
      </trkpt>
      <trkpt lat="46.45237" lon="5.41611">
        <ele>481</ele>
        <time>2022-02-26T15:42:12Z</time>
      </trkpt>
      <trkpt lat="46.45238" lon="5.41605">
        <ele>481.2</ele>
        <time>2022-02-26T15:42:13Z</time>
      </trkpt>
      <trkpt lat="46.45241" lon="5.41591">
        <ele>481.6</ele>
        <time>2022-02-26T15:42:15Z</time>
      </trkpt>
      <trkpt lat="46.45245" lon="5.41578">
        <ele>482</ele>
        <time>2022-02-26T15:42:17Z</time>
      </trkpt>
      <trkpt lat="46.45247" lon="5.41572">
        <ele>482.2</ele>
        <time>2022-02-26T15:42:18Z</time>
      </trkpt>
      <trkpt lat="46.45254" lon="5.4156">
        <ele>482.6</ele>
        <time>2022-02-26T15:42:20Z</time>
      </trkpt>
      <trkpt lat="46.45269" lon="5.41541">
        <ele>482.8</ele>
        <time>2022-02-26T15:42:24Z</time>
      </trkpt>
      <trkpt lat="46.45278" lon="5.41536">
        <ele>483</ele>
        <time>2022-02-26T15:42:26Z</time>
      </trkpt>
      <trkpt lat="46.45283" lon="5.41534">
        <ele>483.2</ele>
        <time>2022-02-26T15:42:27Z</time>
      </trkpt>
      <trkpt lat="46.45287" lon="5.41533">
        <ele>483.2</ele>
        <time>2022-02-26T15:42:28Z</time>
      </trkpt>
      <trkpt lat="46.45297" lon="5.41532">
        <ele>483.2</ele>
        <time>2022-02-26T15:42:30Z</time>
      </trkpt>
      <trkpt lat="46.45314" lon="5.41534">
        <ele>483.6</ele>
        <time>2022-02-26T15:42:34Z</time>
      </trkpt>
      <trkpt lat="46.45332" lon="5.41536">
        <ele>484.2</ele>
        <time>2022-02-26T15:42:38Z</time>
      </trkpt>
      <trkpt lat="46.45337" lon="5.41537">
        <ele>484.2</ele>
        <time>2022-02-26T15:42:39Z</time>
      </trkpt>
      <trkpt lat="46.45345" lon="5.41539">
        <ele>484.4</ele>
        <time>2022-02-26T15:42:41Z</time>
      </trkpt>
      <trkpt lat="46.45373" lon="5.41539">
        <ele>485.2</ele>
        <time>2022-02-26T15:42:47Z</time>
      </trkpt>
      <trkpt lat="46.45383" lon="5.41537">
        <ele>485.6</ele>
        <time>2022-02-26T15:42:49Z</time>
      </trkpt>
      <trkpt lat="46.45397" lon="5.41534">
        <ele>486.2</ele>
        <time>2022-02-26T15:42:52Z</time>
      </trkpt>
      <trkpt lat="46.45415" lon="5.41528">
        <ele>487.2</ele>
        <time>2022-02-26T15:42:56Z</time>
      </trkpt>
      <trkpt lat="46.4542" lon="5.41526">
        <ele>487.4</ele>
        <time>2022-02-26T15:42:57Z</time>
      </trkpt>
      <trkpt lat="46.45464" lon="5.41506">
        <ele>488.2</ele>
        <time>2022-02-26T15:43:07Z</time>
      </trkpt>
      <trkpt lat="46.45472" lon="5.41502">
        <ele>488.4</ele>
        <time>2022-02-26T15:43:09Z</time>
      </trkpt>
      <trkpt lat="46.45503" lon="5.41488">
        <ele>489.2</ele>
        <time>2022-02-26T15:43:16Z</time>
      </trkpt>
      <trkpt lat="46.45508" lon="5.41486">
        <ele>489.6</ele>
        <time>2022-02-26T15:43:17Z</time>
      </trkpt>
      <trkpt lat="46.45522" lon="5.41479">
        <ele>490.8</ele>
        <time>2022-02-26T15:43:20Z</time>
      </trkpt>
      <trkpt lat="46.45539" lon="5.41468">
        <ele>491.4</ele>
        <time>2022-02-26T15:43:24Z</time>
      </trkpt>
      <trkpt lat="46.45544" lon="5.41466">
        <ele>491.4</ele>
        <time>2022-02-26T15:43:25Z</time>
      </trkpt>
      <trkpt lat="46.45552" lon="5.41459">
        <ele>491.8</ele>
        <time>2022-02-26T15:43:27Z</time>
      </trkpt>
      <trkpt lat="46.4557" lon="5.41446">
        <ele>492</ele>
        <time>2022-02-26T15:43:31Z</time>
      </trkpt>
      <trkpt lat="46.45591" lon="5.41427">
        <ele>491.8</ele>
        <time>2022-02-26T15:43:36Z</time>
      </trkpt>
      <trkpt lat="46.45597" lon="5.41418">
        <ele>492</ele>
        <time>2022-02-26T15:43:38Z</time>
      </trkpt>
      <trkpt lat="46.45625" lon="5.41363">
        <ele>492.2</ele>
        <time>2022-02-26T15:43:48Z</time>
      </trkpt>
      <trkpt lat="46.45656" lon="5.4131">
        <ele>493</ele>
        <time>2022-02-26T15:43:58Z</time>
      </trkpt>
      <trkpt lat="46.45687" lon="5.41271">
        <ele>492.4</ele>
        <time>2022-02-26T15:44:05Z</time>
      </trkpt>
      <trkpt lat="46.45732" lon="5.4122">
        <ele>492</ele>
        <time>2022-02-26T15:44:15Z</time>
      </trkpt>
      <trkpt lat="46.45752" lon="5.41192">
        <ele>492</ele>
        <time>2022-02-26T15:44:20Z</time>
      </trkpt>
      <trkpt lat="46.45759" lon="5.41179">
        <ele>492.4</ele>
        <time>2022-02-26T15:44:22Z</time>
      </trkpt>
      <trkpt lat="46.45772" lon="5.41135">
        <ele>492.6</ele>
        <time>2022-02-26T15:44:28Z</time>
      </trkpt>
      <trkpt lat="46.45784" lon="5.41084">
        <ele>493</ele>
        <time>2022-02-26T15:44:35Z</time>
      </trkpt>
      <trkpt lat="46.45789" lon="5.41062">
        <ele>493.2</ele>
        <time>2022-02-26T15:44:38Z</time>
      </trkpt>
      <trkpt lat="46.45809" lon="5.40992">
        <ele>493.8</ele>
        <time>2022-02-26T15:44:48Z</time>
      </trkpt>
      <trkpt lat="46.45815" lon="5.40971">
        <ele>494</ele>
        <time>2022-02-26T15:44:51Z</time>
      </trkpt>
      <trkpt lat="46.45825" lon="5.40927">
        <ele>495</ele>
        <time>2022-02-26T15:44:57Z</time>
      </trkpt>
      <trkpt lat="46.45826" lon="5.4092">
        <ele>495.2</ele>
        <time>2022-02-26T15:44:58Z</time>
      </trkpt>
      <trkpt lat="46.4584" lon="5.40848">
        <ele>495.6</ele>
        <time>2022-02-26T15:45:07Z</time>
      </trkpt>
      <trkpt lat="46.45847" lon="5.40765">
        <ele>495</ele>
        <time>2022-02-26T15:45:17Z</time>
      </trkpt>
      <trkpt lat="46.45857" lon="5.40709">
        <ele>495.4</ele>
        <time>2022-02-26T15:45:24Z</time>
      </trkpt>
      <trkpt lat="46.45864" lon="5.40688">
        <ele>496.4</ele>
        <time>2022-02-26T15:45:27Z</time>
      </trkpt>
      <trkpt lat="46.45873" lon="5.40666">
        <ele>497.6</ele>
        <time>2022-02-26T15:45:31Z</time>
      </trkpt>
      <trkpt lat="46.45878" lon="5.40651">
        <ele>498.8</ele>
        <time>2022-02-26T15:45:34Z</time>
      </trkpt>
      <trkpt lat="46.45886" lon="5.40634">
        <ele>499.8</ele>
        <time>2022-02-26T15:45:38Z</time>
      </trkpt>
      <trkpt lat="46.45896" lon="5.40613">
        <ele>501.4</ele>
        <time>2022-02-26T15:45:43Z</time>
      </trkpt>
      <trkpt lat="46.45898" lon="5.4061">
        <ele>501.8</ele>
        <time>2022-02-26T15:45:44Z</time>
      </trkpt>
      <trkpt lat="46.45902" lon="5.40602">
        <ele>502.6</ele>
        <time>2022-02-26T15:45:46Z</time>
      </trkpt>
      <trkpt lat="46.4591" lon="5.40584">
        <ele>504</ele>
        <time>2022-02-26T15:45:50Z</time>
      </trkpt>
      <trkpt lat="46.45915" lon="5.4057">
        <ele>504.8</ele>
        <time>2022-02-26T15:45:53Z</time>
      </trkpt>
      <trkpt lat="46.45917" lon="5.40566">
        <ele>505.2</ele>
        <time>2022-02-26T15:45:54Z</time>
      </trkpt>
      <trkpt lat="46.45928" lon="5.40543">
        <ele>506.4</ele>
        <time>2022-02-26T15:45:59Z</time>
      </trkpt>
      <trkpt lat="46.45936" lon="5.40532">
        <ele>507.2</ele>
        <time>2022-02-26T15:46:02Z</time>
      </trkpt>
      <trkpt lat="46.4594" lon="5.40524">
        <ele>507.6</ele>
        <time>2022-02-26T15:46:04Z</time>
      </trkpt>
      <trkpt lat="46.45947" lon="5.40514">
        <ele>508.4</ele>
        <time>2022-02-26T15:46:07Z</time>
      </trkpt>
      <trkpt lat="46.45952" lon="5.40507">
        <ele>508.6</ele>
        <time>2022-02-26T15:46:09Z</time>
      </trkpt>
      <trkpt lat="46.45962" lon="5.40492">
        <ele>509.8</ele>
        <time>2022-02-26T15:46:13Z</time>
      </trkpt>
      <trkpt lat="46.45972" lon="5.40476">
        <ele>511</ele>
        <time>2022-02-26T15:46:17Z</time>
      </trkpt>
      <trkpt lat="46.45981" lon="5.4046">
        <ele>512</ele>
        <time>2022-02-26T15:46:21Z</time>
      </trkpt>
      <trkpt lat="46.45988" lon="5.40446">
        <ele>512.6</ele>
        <time>2022-02-26T15:46:24Z</time>
      </trkpt>
      <trkpt lat="46.45992" lon="5.40438">
        <ele>513</ele>
        <time>2022-02-26T15:46:26Z</time>
      </trkpt>
      <trkpt lat="46.46001" lon="5.40421">
        <ele>514.2</ele>
        <time>2022-02-26T15:46:30Z</time>
      </trkpt>
      <trkpt lat="46.46006" lon="5.40408">
        <ele>515.2</ele>
        <time>2022-02-26T15:46:33Z</time>
      </trkpt>
      <trkpt lat="46.46007" lon="5.40403">
        <ele>515.4</ele>
        <time>2022-02-26T15:46:34Z</time>
      </trkpt>
      <trkpt lat="46.46014" lon="5.40386">
        <ele>516.6</ele>
        <time>2022-02-26T15:46:38Z</time>
      </trkpt>
      <trkpt lat="46.46021" lon="5.40368">
        <ele>517.8</ele>
        <time>2022-02-26T15:46:42Z</time>
      </trkpt>
      <trkpt lat="46.46035" lon="5.40345">
        <ele>519</ele>
        <time>2022-02-26T15:46:48Z</time>
      </trkpt>
      <trkpt lat="46.4604" lon="5.40338">
        <ele>519.2</ele>
        <time>2022-02-26T15:46:50Z</time>
      </trkpt>
      <trkpt lat="46.46049" lon="5.40332">
        <ele>520.2</ele>
        <time>2022-02-26T15:46:53Z</time>
      </trkpt>
      <trkpt lat="46.46066" lon="5.40322">
        <ele>521.8</ele>
        <time>2022-02-26T15:46:58Z</time>
      </trkpt>
      <trkpt lat="46.46082" lon="5.40315">
        <ele>522.8</ele>
        <time>2022-02-26T15:47:03Z</time>
      </trkpt>
      <trkpt lat="46.46085" lon="5.40314">
        <ele>523.2</ele>
        <time>2022-02-26T15:47:04Z</time>
      </trkpt>
      <trkpt lat="46.46092" lon="5.40311">
        <ele>523.8</ele>
        <time>2022-02-26T15:47:06Z</time>
      </trkpt>
      <trkpt lat="46.46105" lon="5.40304">
        <ele>525</ele>
        <time>2022-02-26T15:47:10Z</time>
      </trkpt>
      <trkpt lat="46.46115" lon="5.40298">
        <ele>525.8</ele>
        <time>2022-02-26T15:47:13Z</time>
      </trkpt>
      <trkpt lat="46.46123" lon="5.40288">
        <ele>526.2</ele>
        <time>2022-02-26T15:47:16Z</time>
      </trkpt>
      <trkpt lat="46.46134" lon="5.40273">
        <ele>526.8</ele>
        <time>2022-02-26T15:47:20Z</time>
      </trkpt>
      <trkpt lat="46.46137" lon="5.40268">
        <ele>527.2</ele>
        <time>2022-02-26T15:47:21Z</time>
      </trkpt>
      <trkpt lat="46.4614" lon="5.40264">
        <ele>527.2</ele>
        <time>2022-02-26T15:47:22Z</time>
      </trkpt>
      <trkpt lat="46.46153" lon="5.4024">
        <ele>528.2</ele>
        <time>2022-02-26T15:47:27Z</time>
      </trkpt>
      <trkpt lat="46.46159" lon="5.4023">
        <ele>528.4</ele>
        <time>2022-02-26T15:47:29Z</time>
      </trkpt>
      <trkpt lat="46.46172" lon="5.40208">
        <ele>529.4</ele>
        <time>2022-02-26T15:47:34Z</time>
      </trkpt>
      <trkpt lat="46.46184" lon="5.40185">
        <ele>530.4</ele>
        <time>2022-02-26T15:47:39Z</time>
      </trkpt>
      <trkpt lat="46.46188" lon="5.40175">
        <ele>530.6</ele>
        <time>2022-02-26T15:47:41Z</time>
      </trkpt>
      <trkpt lat="46.46202" lon="5.40149">
        <ele>531.6</ele>
        <time>2022-02-26T15:47:47Z</time>
      </trkpt>
      <trkpt lat="46.46204" lon="5.40145">
        <ele>532</ele>
        <time>2022-02-26T15:47:48Z</time>
      </trkpt>
      <trkpt lat="46.46222" lon="5.40126">
        <ele>532.6</ele>
        <time>2022-02-26T15:47:54Z</time>
      </trkpt>
      <trkpt lat="46.46224" lon="5.40123">
        <ele>532.6</ele>
        <time>2022-02-26T15:47:55Z</time>
      </trkpt>
      <trkpt lat="46.46246" lon="5.40101">
        <ele>533</ele>
        <time>2022-02-26T15:48:02Z</time>
      </trkpt>
      <trkpt lat="46.46271" lon="5.40092">
        <ele>533.4</ele>
        <time>2022-02-26T15:48:09Z</time>
      </trkpt>
      <trkpt lat="46.46275" lon="5.40092">
        <ele>533.8</ele>
        <time>2022-02-26T15:48:10Z</time>
      </trkpt>
      <trkpt lat="46.46289" lon="5.40091">
        <ele>535</ele>
        <time>2022-02-26T15:48:14Z</time>
      </trkpt>
      <trkpt lat="46.46302" lon="5.40094">
        <ele>535.6</ele>
        <time>2022-02-26T15:48:18Z</time>
      </trkpt>
      <trkpt lat="46.46323" lon="5.40093">
        <ele>536.4</ele>
        <time>2022-02-26T15:48:24Z</time>
      </trkpt>
      <trkpt lat="46.46331" lon="5.40093">
        <ele>536.6</ele>
        <time>2022-02-26T15:48:26Z</time>
      </trkpt>
      <trkpt lat="46.46352" lon="5.4009">
        <ele>537.6</ele>
        <time>2022-02-26T15:48:32Z</time>
      </trkpt>
      <trkpt lat="46.46366" lon="5.40089">
        <ele>538.2</ele>
        <time>2022-02-26T15:48:36Z</time>
      </trkpt>
      <trkpt lat="46.46379" lon="5.40087">
        <ele>538.6</ele>
        <time>2022-02-26T15:48:40Z</time>
      </trkpt>
      <trkpt lat="46.46406" lon="5.40082">
        <ele>539.6</ele>
        <time>2022-02-26T15:48:48Z</time>
      </trkpt>
      <trkpt lat="46.46409" lon="5.40082">
        <ele>539.6</ele>
        <time>2022-02-26T15:48:49Z</time>
      </trkpt>
      <trkpt lat="46.46446" lon="5.40075">
        <ele>540.6</ele>
        <time>2022-02-26T15:49:00Z</time>
      </trkpt>
      <trkpt lat="46.46449" lon="5.40074">
        <ele>540.8</ele>
        <time>2022-02-26T15:49:01Z</time>
      </trkpt>
      <trkpt lat="46.46463" lon="5.40072">
        <ele>541.8</ele>
        <time>2022-02-26T15:49:05Z</time>
      </trkpt>
      <trkpt lat="46.46477" lon="5.40071">
        <ele>542.2</ele>
        <time>2022-02-26T15:49:09Z</time>
      </trkpt>
      <trkpt lat="46.4648" lon="5.40071">
        <ele>542.4</ele>
        <time>2022-02-26T15:49:10Z</time>
      </trkpt>
      <trkpt lat="46.46506" lon="5.40072">
        <ele>542.8</ele>
        <time>2022-02-26T15:49:17Z</time>
      </trkpt>
      <trkpt lat="46.46513" lon="5.40075">
        <ele>543.2</ele>
        <time>2022-02-26T15:49:19Z</time>
      </trkpt>
      <trkpt lat="46.46544" lon="5.40091">
        <ele>544</ele>
        <time>2022-02-26T15:49:28Z</time>
      </trkpt>
      <trkpt lat="46.46561" lon="5.40099">
        <ele>545.2</ele>
        <time>2022-02-26T15:49:33Z</time>
      </trkpt>
      <trkpt lat="46.4657" lon="5.40105">
        <ele>545.4</ele>
        <time>2022-02-26T15:49:36Z</time>
      </trkpt>
      <trkpt lat="46.46597" lon="5.40118">
        <ele>546.2</ele>
        <time>2022-02-26T15:49:44Z</time>
      </trkpt>
      <trkpt lat="46.466" lon="5.40119">
        <ele>546.2</ele>
        <time>2022-02-26T15:49:45Z</time>
      </trkpt>
      <trkpt lat="46.46618" lon="5.40129">
        <ele>547.2</ele>
        <time>2022-02-26T15:49:51Z</time>
      </trkpt>
      <trkpt lat="46.46625" lon="5.40132">
        <ele>547.4</ele>
        <time>2022-02-26T15:49:53Z</time>
      </trkpt>
      <trkpt lat="46.46647" lon="5.40142">
        <ele>548.4</ele>
        <time>2022-02-26T15:50:00Z</time>
      </trkpt>
      <trkpt lat="46.46653" lon="5.40146">
        <ele>548.8</ele>
        <time>2022-02-26T15:50:02Z</time>
      </trkpt>
      <trkpt lat="46.46671" lon="5.40157">
        <ele>549.6</ele>
        <time>2022-02-26T15:50:08Z</time>
      </trkpt>
      <trkpt lat="46.46679" lon="5.40162">
        <ele>550.6</ele>
        <time>2022-02-26T15:50:11Z</time>
      </trkpt>
      <trkpt lat="46.46697" lon="5.40169">
        <ele>551.6</ele>
        <time>2022-02-26T15:50:17Z</time>
      </trkpt>
      <trkpt lat="46.46702" lon="5.40172">
        <ele>552</ele>
        <time>2022-02-26T15:50:19Z</time>
      </trkpt>
      <trkpt lat="46.46713" lon="5.40178">
        <ele>552.8</ele>
        <time>2022-02-26T15:50:23Z</time>
      </trkpt>
      <trkpt lat="46.46724" lon="5.40184">
        <ele>553.4</ele>
        <time>2022-02-26T15:50:27Z</time>
      </trkpt>
      <trkpt lat="46.46729" lon="5.40186">
        <ele>553.8</ele>
        <time>2022-02-26T15:50:29Z</time>
      </trkpt>
      <trkpt lat="46.46743" lon="5.40193">
        <ele>555</ele>
        <time>2022-02-26T15:50:34Z</time>
      </trkpt>
      <trkpt lat="46.46745" lon="5.40194">
        <ele>555</ele>
        <time>2022-02-26T15:50:35Z</time>
      </trkpt>
      <trkpt lat="46.46762" lon="5.40203">
        <ele>556.2</ele>
        <time>2022-02-26T15:50:41Z</time>
      </trkpt>
      <trkpt lat="46.46767" lon="5.40206">
        <ele>556.6</ele>
        <time>2022-02-26T15:50:43Z</time>
      </trkpt>
      <trkpt lat="46.46778" lon="5.40213">
        <ele>557.4</ele>
        <time>2022-02-26T15:50:47Z</time>
      </trkpt>
      <trkpt lat="46.46789" lon="5.40219">
        <ele>558.4</ele>
        <time>2022-02-26T15:50:51Z</time>
      </trkpt>
      <trkpt lat="46.46792" lon="5.40221">
        <ele>558.8</ele>
        <time>2022-02-26T15:50:52Z</time>
      </trkpt>
      <trkpt lat="46.46812" lon="5.40231">
        <ele>560</ele>
        <time>2022-02-26T15:50:59Z</time>
      </trkpt>
      <trkpt lat="46.46824" lon="5.40237">
        <ele>560.4</ele>
        <time>2022-02-26T15:51:03Z</time>
      </trkpt>
      <trkpt lat="46.46833" lon="5.40241">
        <ele>561.6</ele>
        <time>2022-02-26T15:51:06Z</time>
      </trkpt>
      <trkpt lat="46.46851" lon="5.40249">
        <ele>562.8</ele>
        <time>2022-02-26T15:51:11Z</time>
      </trkpt>
      <trkpt lat="46.46858" lon="5.40252">
        <ele>563.6</ele>
        <time>2022-02-26T15:51:14Z</time>
      </trkpt>
      <trkpt lat="46.46869" lon="5.40258">
        <ele>563.8</ele>
        <time>2022-02-26T15:51:17Z</time>
      </trkpt>
      <trkpt lat="46.46893" lon="5.40269">
        <ele>564.6</ele>
        <time>2022-02-26T15:51:25Z</time>
      </trkpt>
      <trkpt lat="46.46902" lon="5.40274">
        <ele>565</ele>
        <time>2022-02-26T15:51:28Z</time>
      </trkpt>
      <trkpt lat="46.46908" lon="5.40282">
        <ele>565.4</ele>
        <time>2022-02-26T15:51:31Z</time>
      </trkpt>
      <trkpt lat="46.46917" lon="5.40291">
        <ele>565.8</ele>
        <time>2022-02-26T15:51:35Z</time>
      </trkpt>
      <trkpt lat="46.46917" lon="5.4029">
        <ele>565.8</ele>
        <time>2022-02-26T15:51:36Z</time>
      </trkpt>
      <trkpt lat="46.46918" lon="5.40287">
        <ele>566</ele>
        <time>2022-02-26T15:51:38Z</time>
      </trkpt>
      <trkpt lat="46.46918" lon="5.40287">
        <ele>566</ele>
        <time>2022-02-26T15:51:41Z</time>
      </trkpt>
      <trkpt lat="46.46925" lon="5.40288">
        <ele>566</ele>
        <time>2022-02-26T15:53:16Z</time>
      </trkpt>
      <trkpt lat="46.46929" lon="5.4029">
        <ele>566</ele>
        <time>2022-02-26T15:53:19Z</time>
      </trkpt>
      <trkpt lat="46.46947" lon="5.40299">
        <ele>566</ele>
        <time>2022-02-26T15:53:23Z</time>
      </trkpt>
      <trkpt lat="46.46956" lon="5.40303">
        <ele>566.2</ele>
        <time>2022-02-26T15:53:25Z</time>
      </trkpt>
      <trkpt lat="46.46975" lon="5.4031">
        <ele>566.8</ele>
        <time>2022-02-26T15:53:29Z</time>
      </trkpt>
      <trkpt lat="46.46989" lon="5.40315">
        <ele>567.6</ele>
        <time>2022-02-26T15:53:32Z</time>
      </trkpt>
      <trkpt lat="46.47007" lon="5.40321">
        <ele>568.8</ele>
        <time>2022-02-26T15:53:36Z</time>
      </trkpt>
      <trkpt lat="46.47015" lon="5.40323">
        <ele>569.2</ele>
        <time>2022-02-26T15:53:38Z</time>
      </trkpt>
      <trkpt lat="46.47051" lon="5.40326">
        <ele>569.6</ele>
        <time>2022-02-26T15:53:45Z</time>
      </trkpt>
      <trkpt lat="46.47063" lon="5.40326">
        <ele>569.6</ele>
        <time>2022-02-26T15:53:47Z</time>
      </trkpt>
      <trkpt lat="46.47083" lon="5.40329">
        <ele>569</ele>
        <time>2022-02-26T15:53:50Z</time>
      </trkpt>
      <trkpt lat="46.47123" lon="5.40333">
        <ele>568</ele>
        <time>2022-02-26T15:53:55Z</time>
      </trkpt>
      <trkpt lat="46.47131" lon="5.40334">
        <ele>567</ele>
        <time>2022-02-26T15:53:56Z</time>
      </trkpt>
      <trkpt lat="46.47147" lon="5.40337">
        <ele>565.8</ele>
        <time>2022-02-26T15:53:58Z</time>
      </trkpt>
      <trkpt lat="46.47147" lon="5.40337">
        <ele>564.4</ele>
        <time>2022-02-26T15:53:59Z</time>
      </trkpt>
      <trkpt lat="46.47163" lon="5.40342">
        <ele>564</ele>
        <time>2022-02-26T15:54:00Z</time>
      </trkpt>
      <trkpt lat="46.47171" lon="5.40346">
        <ele>563.2</ele>
        <time>2022-02-26T15:54:01Z</time>
      </trkpt>
      <trkpt lat="46.47179" lon="5.4035">
        <ele>562.8</ele>
        <time>2022-02-26T15:54:02Z</time>
      </trkpt>
      <trkpt lat="46.47187" lon="5.40355">
        <ele>562.2</ele>
        <time>2022-02-26T15:54:03Z</time>
      </trkpt>
      <trkpt lat="46.47202" lon="5.40369">
        <ele>561.4</ele>
        <time>2022-02-26T15:54:05Z</time>
      </trkpt>
      <trkpt lat="46.47209" lon="5.40378">
        <ele>561</ele>
        <time>2022-02-26T15:54:06Z</time>
      </trkpt>
      <trkpt lat="46.47227" lon="5.40406">
        <ele>559.2</ele>
        <time>2022-02-26T15:54:09Z</time>
      </trkpt>
      <trkpt lat="46.47239" lon="5.4042">
        <ele>557.8</ele>
        <time>2022-02-26T15:54:11Z</time>
      </trkpt>
      <trkpt lat="46.47266" lon="5.40431">
        <ele>556.6</ele>
        <time>2022-02-26T15:54:14Z</time>
      </trkpt>
      <trkpt lat="46.47276" lon="5.40435">
        <ele>556.4</ele>
        <time>2022-02-26T15:54:15Z</time>
      </trkpt>
      <trkpt lat="46.47297" lon="5.4044">
        <ele>555.2</ele>
        <time>2022-02-26T15:54:17Z</time>
      </trkpt>
      <trkpt lat="46.47307" lon="5.40443">
        <ele>555</ele>
        <time>2022-02-26T15:54:18Z</time>
      </trkpt>
      <trkpt lat="46.47317" lon="5.40445">
        <ele>554.2</ele>
        <time>2022-02-26T15:54:20Z</time>
      </trkpt>
      <trkpt lat="46.47338" lon="5.40447">
        <ele>552.8</ele>
        <time>2022-02-26T15:54:22Z</time>
      </trkpt>
      <trkpt lat="46.4737" lon="5.40449">
        <ele>551.6</ele>
        <time>2022-02-26T15:54:24Z</time>
      </trkpt>
      <trkpt lat="46.47392" lon="5.40448">
        <ele>550.6</ele>
        <time>2022-02-26T15:54:26Z</time>
      </trkpt>
      <trkpt lat="46.47402" lon="5.40448">
        <ele>550.4</ele>
        <time>2022-02-26T15:54:27Z</time>
      </trkpt>
      <trkpt lat="46.47433" lon="5.40446">
        <ele>549.2</ele>
        <time>2022-02-26T15:54:30Z</time>
      </trkpt>
      <trkpt lat="46.47463" lon="5.40449">
        <ele>547.4</ele>
        <time>2022-02-26T15:54:33Z</time>
      </trkpt>
      <trkpt lat="46.47481" lon="5.40452">
        <ele>545.8</ele>
        <time>2022-02-26T15:54:35Z</time>
      </trkpt>
      <trkpt lat="46.47488" lon="5.40455">
        <ele>545.4</ele>
        <time>2022-02-26T15:54:36Z</time>
      </trkpt>
      <trkpt lat="46.47496" lon="5.40462">
        <ele>545</ele>
        <time>2022-02-26T15:54:37Z</time>
      </trkpt>
      <trkpt lat="46.47503" lon="5.40471">
        <ele>544.6</ele>
        <time>2022-02-26T15:54:38Z</time>
      </trkpt>
      <trkpt lat="46.47517" lon="5.40486">
        <ele>544.2</ele>
        <time>2022-02-26T15:54:40Z</time>
      </trkpt>
      <trkpt lat="46.47536" lon="5.4048">
        <ele>543.2</ele>
        <time>2022-02-26T15:54:42Z</time>
      </trkpt>
      <trkpt lat="46.47549" lon="5.40445">
        <ele>542</ele>
        <time>2022-02-26T15:54:45Z</time>
      </trkpt>
      <trkpt lat="46.47548" lon="5.40418">
        <ele>541</ele>
        <time>2022-02-26T15:54:47Z</time>
      </trkpt>
      <trkpt lat="46.47544" lon="5.40404">
        <ele>540.6</ele>
        <time>2022-02-26T15:54:48Z</time>
      </trkpt>
      <trkpt lat="46.4754" lon="5.40391">
        <ele>539.6</ele>
        <time>2022-02-26T15:54:50Z</time>
      </trkpt>
      <trkpt lat="46.47528" lon="5.40352">
        <ele>538.8</ele>
        <time>2022-02-26T15:54:52Z</time>
      </trkpt>
      <trkpt lat="46.47529" lon="5.40337">
        <ele>538</ele>
        <time>2022-02-26T15:54:53Z</time>
      </trkpt>
      <trkpt lat="46.47531" lon="5.40324">
        <ele>537.4</ele>
        <time>2022-02-26T15:54:54Z</time>
      </trkpt>
      <trkpt lat="46.47536" lon="5.40308">
        <ele>536.6</ele>
        <time>2022-02-26T15:54:55Z</time>
      </trkpt>
      <trkpt lat="46.47543" lon="5.40296">
        <ele>536.2</ele>
        <time>2022-02-26T15:54:56Z</time>
      </trkpt>
      <trkpt lat="46.47559" lon="5.40277">
        <ele>534.4</ele>
        <time>2022-02-26T15:54:58Z</time>
      </trkpt>
      <trkpt lat="46.47566" lon="5.40271">
        <ele>533.8</ele>
        <time>2022-02-26T15:54:59Z</time>
      </trkpt>
      <trkpt lat="46.47575" lon="5.40264">
        <ele>532.6</ele>
        <time>2022-02-26T15:55:00Z</time>
      </trkpt>
      <trkpt lat="46.47598" lon="5.40258">
        <ele>531.4</ele>
        <time>2022-02-26T15:55:02Z</time>
      </trkpt>
      <trkpt lat="46.47619" lon="5.40254">
        <ele>530.2</ele>
        <time>2022-02-26T15:55:04Z</time>
      </trkpt>
      <trkpt lat="46.47629" lon="5.40252">
        <ele>528.8</ele>
        <time>2022-02-26T15:55:06Z</time>
      </trkpt>
      <trkpt lat="46.47661" lon="5.40248">
        <ele>527.6</ele>
        <time>2022-02-26T15:55:08Z</time>
      </trkpt>
      <trkpt lat="46.47691" lon="5.40248">
        <ele>526.8</ele>
        <time>2022-02-26T15:55:11Z</time>
      </trkpt>
      <trkpt lat="46.477" lon="5.40244">
        <ele>526.6</ele>
        <time>2022-02-26T15:55:12Z</time>
      </trkpt>
      <trkpt lat="46.47706" lon="5.40233">
        <ele>525.8</ele>
        <time>2022-02-26T15:55:13Z</time>
      </trkpt>
      <trkpt lat="46.47712" lon="5.40224">
        <ele>525.2</ele>
        <time>2022-02-26T15:55:14Z</time>
      </trkpt>
      <trkpt lat="46.4772" lon="5.40201">
        <ele>524.4</ele>
        <time>2022-02-26T15:55:16Z</time>
      </trkpt>
      <trkpt lat="46.47723" lon="5.40188">
        <ele>524.2</ele>
        <time>2022-02-26T15:55:17Z</time>
      </trkpt>
      <trkpt lat="46.47728" lon="5.40177">
        <ele>523.6</ele>
        <time>2022-02-26T15:55:18Z</time>
      </trkpt>
      <trkpt lat="46.47735" lon="5.40166">
        <ele>523.4</ele>
        <time>2022-02-26T15:55:19Z</time>
      </trkpt>
      <trkpt lat="46.47744" lon="5.40157">
        <ele>522.8</ele>
        <time>2022-02-26T15:55:20Z</time>
      </trkpt>
      <trkpt lat="46.47752" lon="5.40146">
        <ele>522.6</ele>
        <time>2022-02-26T15:55:21Z</time>
      </trkpt>
      <trkpt lat="46.47762" lon="5.40122">
        <ele>521.4</ele>
        <time>2022-02-26T15:55:23Z</time>
      </trkpt>
      <trkpt lat="46.47766" lon="5.40091">
        <ele>520.4</ele>
        <time>2022-02-26T15:55:25Z</time>
      </trkpt>
      <trkpt lat="46.47767" lon="5.40076">
        <ele>520.4</ele>
        <time>2022-02-26T15:55:26Z</time>
      </trkpt>
      <trkpt lat="46.47764" lon="5.40048">
        <ele>519.2</ele>
        <time>2022-02-26T15:55:28Z</time>
      </trkpt>
      <trkpt lat="46.47764" lon="5.40034">
        <ele>518.8</ele>
        <time>2022-02-26T15:55:29Z</time>
      </trkpt>
      <trkpt lat="46.47767" lon="5.40021">
        <ele>518.6</ele>
        <time>2022-02-26T15:55:30Z</time>
      </trkpt>
      <trkpt lat="46.47771" lon="5.4001">
        <ele>518</ele>
        <time>2022-02-26T15:55:31Z</time>
      </trkpt>
      <trkpt lat="46.47775" lon="5.40004">
        <ele>517.2</ele>
        <time>2022-02-26T15:55:32Z</time>
      </trkpt>
      <trkpt lat="46.47784" lon="5.39997">
        <ele>516.8</ele>
        <time>2022-02-26T15:55:33Z</time>
      </trkpt>
      <trkpt lat="46.47803" lon="5.39988">
        <ele>516.2</ele>
        <time>2022-02-26T15:55:35Z</time>
      </trkpt>
      <trkpt lat="46.47811" lon="5.39983">
        <ele>514.8</ele>
        <time>2022-02-26T15:55:36Z</time>
      </trkpt>
      <trkpt lat="46.47833" lon="5.39972">
        <ele>513.2</ele>
        <time>2022-02-26T15:55:38Z</time>
      </trkpt>
      <trkpt lat="46.47853" lon="5.39961">
        <ele>511.4</ele>
        <time>2022-02-26T15:55:40Z</time>
      </trkpt>
      <trkpt lat="46.47871" lon="5.39952">
        <ele>510</ele>
        <time>2022-02-26T15:55:42Z</time>
      </trkpt>
      <trkpt lat="46.47883" lon="5.39946">
        <ele>509.2</ele>
        <time>2022-02-26T15:55:43Z</time>
      </trkpt>
      <trkpt lat="46.47893" lon="5.3994">
        <ele>508.8</ele>
        <time>2022-02-26T15:55:44Z</time>
      </trkpt>
      <trkpt lat="46.47914" lon="5.3993">
        <ele>507.8</ele>
        <time>2022-02-26T15:55:46Z</time>
      </trkpt>
      <trkpt lat="46.47934" lon="5.39918">
        <ele>505.8</ele>
        <time>2022-02-26T15:55:48Z</time>
      </trkpt>
      <trkpt lat="46.47963" lon="5.39904">
        <ele>504.6</ele>
        <time>2022-02-26T15:55:51Z</time>
      </trkpt>
      <trkpt lat="46.47991" lon="5.39891">
        <ele>503.4</ele>
        <time>2022-02-26T15:55:54Z</time>
      </trkpt>
      <trkpt lat="46.48009" lon="5.39885">
        <ele>502.6</ele>
        <time>2022-02-26T15:55:56Z</time>
      </trkpt>
      <trkpt lat="46.48018" lon="5.39884">
        <ele>502.4</ele>
        <time>2022-02-26T15:55:57Z</time>
      </trkpt>
      <trkpt lat="46.48026" lon="5.39885">
        <ele>502.2</ele>
        <time>2022-02-26T15:55:58Z</time>
      </trkpt>
      <trkpt lat="46.48035" lon="5.39888">
        <ele>502</ele>
        <time>2022-02-26T15:55:59Z</time>
      </trkpt>
      <trkpt lat="46.48043" lon="5.39892">
        <ele>501.8</ele>
        <time>2022-02-26T15:56:00Z</time>
      </trkpt>
      <trkpt lat="46.48064" lon="5.39906">
        <ele>501.8</ele>
        <time>2022-02-26T15:56:03Z</time>
      </trkpt>
      <trkpt lat="46.48093" lon="5.3991">
        <ele>502.2</ele>
        <time>2022-02-26T15:56:07Z</time>
      </trkpt>
      <trkpt lat="46.48128" lon="5.39904">
        <ele>503</ele>
        <time>2022-02-26T15:56:12Z</time>
      </trkpt>
      <trkpt lat="46.48174" lon="5.39879">
        <ele>503.2</ele>
        <time>2022-02-26T15:56:19Z</time>
      </trkpt>
      <trkpt lat="46.48187" lon="5.3987">
        <ele>503</ele>
        <time>2022-02-26T15:56:21Z</time>
      </trkpt>
      <trkpt lat="46.48197" lon="5.39856">
        <ele>503</ele>
        <time>2022-02-26T15:56:23Z</time>
      </trkpt>
      <trkpt lat="46.48199" lon="5.39836">
        <ele>503</ele>
        <time>2022-02-26T15:56:25Z</time>
      </trkpt>
      <trkpt lat="46.48193" lon="5.39805">
        <ele>503</ele>
        <time>2022-02-26T15:56:29Z</time>
      </trkpt>
      <trkpt lat="46.4818" lon="5.39721">
        <ele>501.8</ele>
        <time>2022-02-26T15:56:36Z</time>
      </trkpt>
      <trkpt lat="46.48178" lon="5.39699">
        <ele>501.4</ele>
        <time>2022-02-26T15:56:38Z</time>
      </trkpt>
      <trkpt lat="46.48177" lon="5.39687">
        <ele>501.2</ele>
        <time>2022-02-26T15:56:39Z</time>
      </trkpt>
      <trkpt lat="46.48181" lon="5.3965">
        <ele>501.2</ele>
        <time>2022-02-26T15:56:42Z</time>
      </trkpt>
      <trkpt lat="46.48194" lon="5.39614">
        <ele>500.6</ele>
        <time>2022-02-26T15:56:45Z</time>
      </trkpt>
      <trkpt lat="46.48199" lon="5.39601">
        <ele>499.4</ele>
        <time>2022-02-26T15:56:46Z</time>
      </trkpt>
      <trkpt lat="46.48204" lon="5.39589">
        <ele>498.2</ele>
        <time>2022-02-26T15:56:47Z</time>
      </trkpt>
      <trkpt lat="46.48213" lon="5.39561">
        <ele>496.2</ele>
        <time>2022-02-26T15:56:49Z</time>
      </trkpt>
      <trkpt lat="46.48216" lon="5.39546">
        <ele>495.6</ele>
        <time>2022-02-26T15:56:50Z</time>
      </trkpt>
      <trkpt lat="46.48219" lon="5.39531">
        <ele>494</ele>
        <time>2022-02-26T15:56:51Z</time>
      </trkpt>
      <trkpt lat="46.48225" lon="5.39502">
        <ele>492.2</ele>
        <time>2022-02-26T15:56:53Z</time>
      </trkpt>
      <trkpt lat="46.4823" lon="5.39491">
        <ele>491.8</ele>
        <time>2022-02-26T15:56:54Z</time>
      </trkpt>
      <trkpt lat="46.48236" lon="5.39481">
        <ele>491.4</ele>
        <time>2022-02-26T15:56:55Z</time>
      </trkpt>
      <trkpt lat="46.48243" lon="5.39473">
        <ele>490.6</ele>
        <time>2022-02-26T15:56:56Z</time>
      </trkpt>
      <trkpt lat="46.48249" lon="5.39468">
        <ele>490.4</ele>
        <time>2022-02-26T15:56:57Z</time>
      </trkpt>
      <trkpt lat="46.48256" lon="5.39465">
        <ele>489.6</ele>
        <time>2022-02-26T15:56:58Z</time>
      </trkpt>
      <trkpt lat="46.48263" lon="5.39465">
        <ele>488.8</ele>
        <time>2022-02-26T15:56:59Z</time>
      </trkpt>
      <trkpt lat="46.4827" lon="5.39465">
        <ele>487.2</ele>
        <time>2022-02-26T15:57:00Z</time>
      </trkpt>
      <trkpt lat="46.48283" lon="5.39465">
        <ele>485.6</ele>
        <time>2022-02-26T15:57:02Z</time>
      </trkpt>
      <trkpt lat="46.48288" lon="5.39461">
        <ele>485</ele>
        <time>2022-02-26T15:57:03Z</time>
      </trkpt>
      <trkpt lat="46.48292" lon="5.39457">
        <ele>484.6</ele>
        <time>2022-02-26T15:57:04Z</time>
      </trkpt>
      <trkpt lat="46.48299" lon="5.39435">
        <ele>484</ele>
        <time>2022-02-26T15:57:06Z</time>
      </trkpt>
      <trkpt lat="46.48302" lon="5.39423">
        <ele>482.8</ele>
        <time>2022-02-26T15:57:07Z</time>
      </trkpt>
      <trkpt lat="46.48309" lon="5.39396">
        <ele>481.6</ele>
        <time>2022-02-26T15:57:09Z</time>
      </trkpt>
      <trkpt lat="46.48309" lon="5.39396">
        <ele>481.2</ele>
        <time>2022-02-26T15:57:10Z</time>
      </trkpt>
      <trkpt lat="46.48319" lon="5.39371">
        <ele>480.2</ele>
        <time>2022-02-26T15:57:11Z</time>
      </trkpt>
      <trkpt lat="46.48331" lon="5.39349">
        <ele>479</ele>
        <time>2022-02-26T15:57:13Z</time>
      </trkpt>
      <trkpt lat="46.48338" lon="5.3934">
        <ele>478.4</ele>
        <time>2022-02-26T15:57:14Z</time>
      </trkpt>
      <trkpt lat="46.48338" lon="5.3934">
        <ele>478</ele>
        <time>2022-02-26T15:57:15Z</time>
      </trkpt>
      <trkpt lat="46.48352" lon="5.39327">
        <ele>477.6</ele>
        <time>2022-02-26T15:57:16Z</time>
      </trkpt>
      <trkpt lat="46.4836" lon="5.39323">
        <ele>476.8</ele>
        <time>2022-02-26T15:57:17Z</time>
      </trkpt>
      <trkpt lat="46.48369" lon="5.3932">
        <ele>475</ele>
        <time>2022-02-26T15:57:18Z</time>
      </trkpt>
      <trkpt lat="46.48378" lon="5.3932">
        <ele>473.4</ele>
        <time>2022-02-26T15:57:20Z</time>
      </trkpt>
      <trkpt lat="46.48398" lon="5.39324">
        <ele>472</ele>
        <time>2022-02-26T15:57:21Z</time>
      </trkpt>
      <trkpt lat="46.4842" lon="5.39327">
        <ele>470.4</ele>
        <time>2022-02-26T15:57:23Z</time>
      </trkpt>
      <trkpt lat="46.48431" lon="5.39325">
        <ele>469.8</ele>
        <time>2022-02-26T15:57:24Z</time>
      </trkpt>
      <trkpt lat="46.48443" lon="5.39321">
        <ele>468.8</ele>
        <time>2022-02-26T15:57:25Z</time>
      </trkpt>
      <trkpt lat="46.48464" lon="5.39313">
        <ele>466.8</ele>
        <time>2022-02-26T15:57:27Z</time>
      </trkpt>
      <trkpt lat="46.48474" lon="5.3931">
        <ele>465.8</ele>
        <time>2022-02-26T15:57:28Z</time>
      </trkpt>
      <trkpt lat="46.48486" lon="5.39309">
        <ele>464.8</ele>
        <time>2022-02-26T15:57:29Z</time>
      </trkpt>
      <trkpt lat="46.48486" lon="5.39309">
        <ele>463.6</ele>
        <time>2022-02-26T15:57:30Z</time>
      </trkpt>
      <trkpt lat="46.48509" lon="5.39303">
        <ele>463.2</ele>
        <time>2022-02-26T15:57:31Z</time>
      </trkpt>
      <trkpt lat="46.4852" lon="5.39299">
        <ele>462.2</ele>
        <time>2022-02-26T15:57:32Z</time>
      </trkpt>
      <trkpt lat="46.48544" lon="5.39293">
        <ele>460.4</ele>
        <time>2022-02-26T15:57:34Z</time>
      </trkpt>
      <trkpt lat="46.48556" lon="5.39292">
        <ele>459.4</ele>
        <time>2022-02-26T15:57:36Z</time>
      </trkpt>
      <trkpt lat="46.48594" lon="5.39285">
        <ele>457.6</ele>
        <time>2022-02-26T15:57:38Z</time>
      </trkpt>
      <trkpt lat="46.48607" lon="5.39282">
        <ele>455.8</ele>
        <time>2022-02-26T15:57:39Z</time>
      </trkpt>
      <trkpt lat="46.4862" lon="5.3928">
        <ele>455.2</ele>
        <time>2022-02-26T15:57:40Z</time>
      </trkpt>
      <trkpt lat="46.48631" lon="5.39279">
        <ele>454.4</ele>
        <time>2022-02-26T15:57:41Z</time>
      </trkpt>
      <trkpt lat="46.48652" lon="5.39279">
        <ele>453.2</ele>
        <time>2022-02-26T15:57:43Z</time>
      </trkpt>
      <trkpt lat="46.48663" lon="5.39281">
        <ele>452.2</ele>
        <time>2022-02-26T15:57:44Z</time>
      </trkpt>
      <trkpt lat="46.48673" lon="5.39284">
        <ele>451</ele>
        <time>2022-02-26T15:57:45Z</time>
      </trkpt>
      <trkpt lat="46.48683" lon="5.39289">
        <ele>449.6</ele>
        <time>2022-02-26T15:57:46Z</time>
      </trkpt>
      <trkpt lat="46.48692" lon="5.39294">
        <ele>448.4</ele>
        <time>2022-02-26T15:57:47Z</time>
      </trkpt>
      <trkpt lat="46.487" lon="5.39299">
        <ele>447</ele>
        <time>2022-02-26T15:57:48Z</time>
      </trkpt>
      <trkpt lat="46.48716" lon="5.39309">
        <ele>445.8</ele>
        <time>2022-02-26T15:57:50Z</time>
      </trkpt>
      <trkpt lat="46.48723" lon="5.39308">
        <ele>445.4</ele>
        <time>2022-02-26T15:57:51Z</time>
      </trkpt>
      <trkpt lat="46.48728" lon="5.39306">
        <ele>444.4</ele>
        <time>2022-02-26T15:57:52Z</time>
      </trkpt>
      <trkpt lat="46.48732" lon="5.39302">
        <ele>444</ele>
        <time>2022-02-26T15:57:53Z</time>
      </trkpt>
      <trkpt lat="46.48735" lon="5.39299">
        <ele>443.4</ele>
        <time>2022-02-26T15:57:54Z</time>
      </trkpt>
      <trkpt lat="46.4873" lon="5.39286">
        <ele>442.4</ele>
        <time>2022-02-26T15:57:56Z</time>
      </trkpt>
      <trkpt lat="46.48722" lon="5.39276">
        <ele>442</ele>
        <time>2022-02-26T15:57:57Z</time>
      </trkpt>
      <trkpt lat="46.48713" lon="5.39264">
        <ele>441.8</ele>
        <time>2022-02-26T15:57:58Z</time>
      </trkpt>
      <trkpt lat="46.48703" lon="5.39251">
        <ele>440.8</ele>
        <time>2022-02-26T15:57:59Z</time>
      </trkpt>
      <trkpt lat="46.48685" lon="5.39225">
        <ele>439.2</ele>
        <time>2022-02-26T15:58:01Z</time>
      </trkpt>
      <trkpt lat="46.48676" lon="5.39211">
        <ele>437.6</ele>
        <time>2022-02-26T15:58:02Z</time>
      </trkpt>
      <trkpt lat="46.48658" lon="5.39183">
        <ele>435.8</ele>
        <time>2022-02-26T15:58:04Z</time>
      </trkpt>
      <trkpt lat="46.48649" lon="5.39171">
        <ele>433.6</ele>
        <time>2022-02-26T15:58:06Z</time>
      </trkpt>
      <trkpt lat="46.48628" lon="5.39149">
        <ele>433</ele>
        <time>2022-02-26T15:58:07Z</time>
      </trkpt>
      <trkpt lat="46.48616" lon="5.39139">
        <ele>432.2</ele>
        <time>2022-02-26T15:58:08Z</time>
      </trkpt>
      <trkpt lat="46.48592" lon="5.39121">
        <ele>430.4</ele>
        <time>2022-02-26T15:58:10Z</time>
      </trkpt>
      <trkpt lat="46.4858" lon="5.39112">
        <ele>428.8</ele>
        <time>2022-02-26T15:58:11Z</time>
      </trkpt>
      <trkpt lat="46.48567" lon="5.39102">
        <ele>428</ele>
        <time>2022-02-26T15:58:12Z</time>
      </trkpt>
      <trkpt lat="46.48554" lon="5.39093">
        <ele>426</ele>
        <time>2022-02-26T15:58:13Z</time>
      </trkpt>
      <trkpt lat="46.48528" lon="5.39076">
        <ele>424</ele>
        <time>2022-02-26T15:58:15Z</time>
      </trkpt>
      <trkpt lat="46.48515" lon="5.39064">
        <ele>423</ele>
        <time>2022-02-26T15:58:16Z</time>
      </trkpt>
      <trkpt lat="46.48504" lon="5.3905">
        <ele>420.6</ele>
        <time>2022-02-26T15:58:17Z</time>
      </trkpt>
      <trkpt lat="46.48497" lon="5.39031">
        <ele>419.6</ele>
        <time>2022-02-26T15:58:18Z</time>
      </trkpt>
      <trkpt lat="46.48492" lon="5.39009">
        <ele>417.8</ele>
        <time>2022-02-26T15:58:19Z</time>
      </trkpt>
      <trkpt lat="46.48487" lon="5.38988">
        <ele>416.4</ele>
        <time>2022-02-26T15:58:20Z</time>
      </trkpt>
      <trkpt lat="46.4848" lon="5.38969">
        <ele>415.4</ele>
        <time>2022-02-26T15:58:21Z</time>
      </trkpt>
      <trkpt lat="46.48473" lon="5.38953">
        <ele>413.8</ele>
        <time>2022-02-26T15:58:22Z</time>
      </trkpt>
      <trkpt lat="46.48459" lon="5.38924">
        <ele>412.2</ele>
        <time>2022-02-26T15:58:24Z</time>
      </trkpt>
      <trkpt lat="46.48451" lon="5.38896">
        <ele>411.2</ele>
        <time>2022-02-26T15:58:26Z</time>
      </trkpt>
      <trkpt lat="46.48451" lon="5.38882">
        <ele>410.8</ele>
        <time>2022-02-26T15:58:27Z</time>
      </trkpt>
      <trkpt lat="46.48455" lon="5.38868">
        <ele>410.4</ele>
        <time>2022-02-26T15:58:28Z</time>
      </trkpt>
      <trkpt lat="46.48462" lon="5.38857">
        <ele>409.2</ele>
        <time>2022-02-26T15:58:29Z</time>
      </trkpt>
      <trkpt lat="46.4847" lon="5.38849">
        <ele>408.6</ele>
        <time>2022-02-26T15:58:30Z</time>
      </trkpt>
      <trkpt lat="46.48479" lon="5.38843">
        <ele>407.8</ele>
        <time>2022-02-26T15:58:31Z</time>
      </trkpt>
      <trkpt lat="46.48489" lon="5.38837">
        <ele>407.4</ele>
        <time>2022-02-26T15:58:32Z</time>
      </trkpt>
      <trkpt lat="46.48499" lon="5.38831">
        <ele>406.2</ele>
        <time>2022-02-26T15:58:33Z</time>
      </trkpt>
      <trkpt lat="46.48519" lon="5.38819">
        <ele>405.2</ele>
        <time>2022-02-26T15:58:35Z</time>
      </trkpt>
      <trkpt lat="46.48539" lon="5.38805">
        <ele>404</ele>
        <time>2022-02-26T15:58:37Z</time>
      </trkpt>
      <trkpt lat="46.48548" lon="5.38798">
        <ele>402.8</ele>
        <time>2022-02-26T15:58:38Z</time>
      </trkpt>
      <trkpt lat="46.48566" lon="5.38786">
        <ele>401.8</ele>
        <time>2022-02-26T15:58:40Z</time>
      </trkpt>
      <trkpt lat="46.48575" lon="5.3878">
        <ele>401</ele>
        <time>2022-02-26T15:58:41Z</time>
      </trkpt>
      <trkpt lat="46.48583" lon="5.38777">
        <ele>400</ele>
        <time>2022-02-26T15:58:42Z</time>
      </trkpt>
      <trkpt lat="46.4859" lon="5.38775">
        <ele>399.6</ele>
        <time>2022-02-26T15:58:43Z</time>
      </trkpt>
      <trkpt lat="46.48597" lon="5.38776">
        <ele>398.4</ele>
        <time>2022-02-26T15:58:44Z</time>
      </trkpt>
      <trkpt lat="46.48604" lon="5.38777">
        <ele>397.8</ele>
        <time>2022-02-26T15:58:45Z</time>
      </trkpt>
      <trkpt lat="46.4861" lon="5.38776">
        <ele>397.4</ele>
        <time>2022-02-26T15:58:46Z</time>
      </trkpt>
      <trkpt lat="46.48616" lon="5.38772">
        <ele>396.8</ele>
        <time>2022-02-26T15:58:47Z</time>
      </trkpt>
      <trkpt lat="46.48622" lon="5.38764">
        <ele>396.4</ele>
        <time>2022-02-26T15:58:48Z</time>
      </trkpt>
      <trkpt lat="46.48627" lon="5.38754">
        <ele>395.6</ele>
        <time>2022-02-26T15:58:49Z</time>
      </trkpt>
      <trkpt lat="46.48635" lon="5.38732">
        <ele>393.8</ele>
        <time>2022-02-26T15:58:51Z</time>
      </trkpt>
      <trkpt lat="46.48639" lon="5.38715">
        <ele>392.8</ele>
        <time>2022-02-26T15:58:52Z</time>
      </trkpt>
      <trkpt lat="46.48642" lon="5.387">
        <ele>392.4</ele>
        <time>2022-02-26T15:58:53Z</time>
      </trkpt>
      <trkpt lat="46.48642" lon="5.38685">
        <ele>391.4</ele>
        <time>2022-02-26T15:58:54Z</time>
      </trkpt>
      <trkpt lat="46.4864" lon="5.38654">
        <ele>390</ele>
        <time>2022-02-26T15:58:56Z</time>
      </trkpt>
      <trkpt lat="46.48637" lon="5.38639">
        <ele>389.6</ele>
        <time>2022-02-26T15:58:57Z</time>
      </trkpt>
      <trkpt lat="46.48633" lon="5.38625">
        <ele>388.6</ele>
        <time>2022-02-26T15:58:58Z</time>
      </trkpt>
      <trkpt lat="46.48626" lon="5.38595">
        <ele>387</ele>
        <time>2022-02-26T15:59:00Z</time>
      </trkpt>
      <trkpt lat="46.48618" lon="5.38565">
        <ele>385.8</ele>
        <time>2022-02-26T15:59:02Z</time>
      </trkpt>
      <trkpt lat="46.48609" lon="5.38535">
        <ele>384.6</ele>
        <time>2022-02-26T15:59:04Z</time>
      </trkpt>
      <trkpt lat="46.48605" lon="5.38519">
        <ele>383.4</ele>
        <time>2022-02-26T15:59:05Z</time>
      </trkpt>
    </trkseg>
  </trk>
</gpx>